<?xml version='1.0' encoding='UTF-8'?><gpx version="1.1" creator="JPX - https://github.com/jenetics/jpx" xmlns="http://www.topografix.com/GPX/1/1"><trk><trkseg><trkpt lat="45.38770816726576" lon="9.149456190915364"><ele>107.0</ele><time>2026-05-01T12:27:10Z</time></trkpt><trkpt lat="45.38762511288143" lon="9.149405684653795"><ele>106.99999999999999</ele><time>2026-05-01T12:27:11Z</time></trkpt><trkpt lat="45.38752421237567" lon="9.149353738257796"><ele>106.99999999999999</ele><time>2026-05-01T12:27:13Z</time></trkpt><trkpt lat="45.38741728544571" lon="9.149284861487894"><ele>107.0</ele><time>2026-05-01T12:27:15Z</time></trkpt><trkpt lat="45.38729612390814" lon="9.14922348816712"><ele>107.0</ele><time>2026-05-01T12:27:17Z</time></trkpt><trkpt lat="45.38723698595642" lon="9.149187075183312"><ele>106.8</ele><time>2026-05-01T12:27:18Z</time></trkpt><trkpt lat="45.3871724825748" lon="9.149156801899272"><ele>106.6</ele><time>2026-05-01T12:27:19Z</time></trkpt><trkpt lat="45.38710921635769" lon="9.149117702386945"><ele>106.39999999999999</ele><time>2026-05-01T12:27:20Z</time></trkpt><trkpt lat="45.38699207668301" lon="9.149040354555716"><ele>106.19999999999999</ele><time>2026-05-01T12:27:22Z</time></trkpt><trkpt lat="45.38689328900468" lon="9.148974596415746"><ele>106.0</ele><time>2026-05-01T12:27:24Z</time></trkpt><trkpt lat="45.38679632880653" lon="9.148910436816019"><ele>106.0</ele><time>2026-05-01T12:27:26Z</time></trkpt><trkpt lat="45.38669310321521" lon="9.148864439918427"><ele>106.0</ele><time>2026-05-01T12:27:28Z</time></trkpt><trkpt lat="45.386612747894496" lon="9.14882191862118"><ele>106.0</ele><time>2026-05-01T12:27:30Z</time></trkpt><trkpt lat="45.386656387906754" lon="9.1485744574658"><ele>106.0</ele><time>2026-05-01T12:27:34Z</time></trkpt><trkpt lat="45.386687141140726" lon="9.148489115416542"><ele>106.0</ele><time>2026-05-01T12:27:35Z</time></trkpt><trkpt lat="45.38671668032277" lon="9.148356369308198"><ele>106.0</ele><time>2026-05-01T12:27:37Z</time></trkpt><trkpt lat="45.386754198209665" lon="9.148279140594903"><ele>106.0</ele><time>2026-05-01T12:27:40Z</time></trkpt><trkpt lat="45.38663026931258" lon="9.148170707624676"><ele>106.0</ele><time>2026-05-01T12:27:43Z</time></trkpt><trkpt lat="45.38653230146098" lon="9.148152226562791"><ele>106.0</ele><time>2026-05-01T12:27:44Z</time></trkpt><trkpt lat="45.386453759271745" lon="9.148103120981272"><ele>106.0</ele><time>2026-05-01T12:27:45Z</time></trkpt><trkpt lat="45.38635518182553" lon="9.148048665554102"><ele>105.75</ele><time>2026-05-01T12:27:47Z</time></trkpt><trkpt lat="45.38629221205083" lon="9.14801015512964"><ele>105.5</ele><time>2026-05-01T12:27:50Z</time></trkpt><trkpt lat="45.38632507913609" lon="9.147774525779612"><ele>105.25</ele><time>2026-05-01T12:27:57Z</time></trkpt><trkpt lat="45.38638810235043" lon="9.147610697342085"><ele>105.0</ele><time>2026-05-01T12:27:59Z</time></trkpt><trkpt lat="45.386427645261726" lon="9.147502063419969"><ele>105.2</ele><time>2026-05-01T12:28:00Z</time></trkpt><trkpt lat="45.386467194209324" lon="9.1473910090369"><ele>105.4</ele><time>2026-05-01T12:28:01Z</time></trkpt><trkpt lat="45.386502703500696" lon="9.147307976179773"><ele>105.6</ele><time>2026-05-01T12:28:02Z</time></trkpt><trkpt lat="45.38655704981754" lon="9.147220665867506"><ele>105.8</ele><time>2026-05-01T12:28:04Z</time></trkpt><trkpt lat="45.38663093160442" lon="9.14715853861241"><ele>106.0</ele><time>2026-05-01T12:28:07Z</time></trkpt><trkpt lat="45.3867573486178" lon="9.147096330287651"><ele>106.00000000000001</ele><time>2026-05-01T12:28:09Z</time></trkpt><trkpt lat="45.386815308028815" lon="9.1470291586347"><ele>106.0</ele><time>2026-05-01T12:28:10Z</time></trkpt><trkpt lat="45.38685027436514" lon="9.146950455342159"><ele>106.0</ele><time>2026-05-01T12:28:11Z</time></trkpt><trkpt lat="45.38685901449302" lon="9.146850963537851"><ele>106.0</ele><time>2026-05-01T12:28:12Z</time></trkpt><trkpt lat="45.38683468993026" lon="9.146731098543784"><ele>106.00000000000001</ele><time>2026-05-01T12:28:13Z</time></trkpt><trkpt lat="45.386771785586724" lon="9.146640150730082"><ele>106.0</ele><time>2026-05-01T12:28:14Z</time></trkpt><trkpt lat="45.386681168561125" lon="9.146598746309774"><ele>106.0</ele><time>2026-05-01T12:28:15Z</time></trkpt><trkpt lat="45.3865720382862" lon="9.146601548239008"><ele>106.0</ele><time>2026-05-01T12:28:16Z</time></trkpt><trkpt lat="45.38645438728313" lon="9.146626384261841"><ele>106.0</ele><time>2026-05-01T12:28:17Z</time></trkpt><trkpt lat="45.38633359535109" lon="9.146614793454173"><ele>106.0</ele><time>2026-05-01T12:28:18Z</time></trkpt><trkpt lat="45.3862114681948" lon="9.146559525078882"><ele>105.5</ele><time>2026-05-01T12:28:19Z</time></trkpt><trkpt lat="45.38608254742618" lon="9.146504477709568"><ele>105.0</ele><time>2026-05-01T12:28:20Z</time></trkpt><trkpt lat="45.385949256153836" lon="9.146433042680878"><ele>104.5</ele><time>2026-05-01T12:28:21Z</time></trkpt><trkpt lat="45.385817716520506" lon="9.146352261404962"><ele>104.0</ele><time>2026-05-01T12:28:22Z</time></trkpt><trkpt lat="45.3856797711691" lon="9.146268933976835"><ele>104.0</ele><time>2026-05-01T12:28:23Z</time></trkpt><trkpt lat="45.385536709030305" lon="9.146179893704138"><ele>104.0</ele><time>2026-05-01T12:28:23.999Z</time></trkpt><trkpt lat="45.38539158001578" lon="9.14609602932159"><ele>104.0</ele><time>2026-05-01T12:28:24.999Z</time></trkpt><trkpt lat="45.3852445991931" lon="9.146008792294873"><ele>103.66666666666666</ele><time>2026-05-01T12:28:25.999Z</time></trkpt><trkpt lat="45.38509456488344" lon="9.145924208867784"><ele>103.33333333333334</ele><time>2026-05-01T12:28:26.999Z</time></trkpt><trkpt lat="45.38494026260701" lon="9.145836475838673"><ele>103.0</ele><time>2026-05-01T12:28:27.999Z</time></trkpt><trkpt lat="45.38479232734401" lon="9.145752094351133"><ele>102.66666666666667</ele><time>2026-05-01T12:28:28.999Z</time></trkpt><trkpt lat="45.384644182332266" lon="9.14566821726477"><ele>102.33333333333334</ele><time>2026-05-01T12:28:29.999Z</time></trkpt><trkpt lat="45.38449784783702" lon="9.145583207686274"><ele>102.0</ele><time>2026-05-01T12:28:30.999Z</time></trkpt><trkpt lat="45.384343932665345" lon="9.145491986818234"><ele>102.0</ele><time>2026-05-01T12:28:31.999Z</time></trkpt><trkpt lat="45.3841967423237" lon="9.145405540532135"><ele>102.0</ele><time>2026-05-01T12:28:32.999Z</time></trkpt><trkpt lat="45.3840467830124" lon="9.14531484994015"><ele>102.0</ele><time>2026-05-01T12:28:33.999Z</time></trkpt><trkpt lat="45.38389600263716" lon="9.14522793223851"><ele>102.0</ele><time>2026-05-01T12:28:34.999Z</time></trkpt><trkpt lat="45.38374089316139" lon="9.145143284888519"><ele>102.0</ele><time>2026-05-01T12:28:35.999Z</time></trkpt><trkpt lat="45.38358966126332" lon="9.145056468431187"><ele>102.0</ele><time>2026-05-01T12:28:36.999Z</time></trkpt><trkpt lat="45.38344054558596" lon="9.144970125831996"><ele>102.0</ele><time>2026-05-01T12:28:37.999Z</time></trkpt><trkpt lat="45.38328491950707" lon="9.14488618355167"><ele>102.0</ele><time>2026-05-01T12:28:38.999Z</time></trkpt><trkpt lat="45.383135035815954" lon="9.14478853310232"><ele>102.0</ele><time>2026-05-01T12:28:39.999Z</time></trkpt><trkpt lat="45.38297887011157" lon="9.144700037379572"><ele>102.0</ele><time>2026-05-01T12:28:40.999Z</time></trkpt><trkpt lat="45.38282301302782" lon="9.144601949314586"><ele>102.0</ele><time>2026-05-01T12:28:41.999Z</time></trkpt><trkpt lat="45.382663202052086" lon="9.14451142690488"><ele>102.0</ele><time>2026-05-01T12:28:42.999Z</time></trkpt><trkpt lat="45.382503889472254" lon="9.144420017137811"><ele>102.0</ele><time>2026-05-01T12:28:43.999Z</time></trkpt><trkpt lat="45.38234454410359" lon="9.144328563821505"><ele>102.0</ele><time>2026-05-01T12:28:44.999Z</time></trkpt><trkpt lat="45.382188875889845" lon="9.144234944999512"><ele>102.0</ele><time>2026-05-01T12:28:45.999Z</time></trkpt><trkpt lat="45.38203266834124" lon="9.14413918339324"><ele>103.0</ele><time>2026-05-01T12:28:46.999Z</time></trkpt><trkpt lat="45.38187358544268" lon="9.144050170065661"><ele>104.0</ele><time>2026-05-01T12:28:47.999Z</time></trkpt><trkpt lat="45.38171840539155" lon="9.1439567554934"><ele>105.0</ele><time>2026-05-01T12:28:48.999Z</time></trkpt><trkpt lat="45.38155743542667" lon="9.143873815550071"><ele>105.0</ele><time>2026-05-01T12:28:49.999Z</time></trkpt><trkpt lat="45.38140449635053" lon="9.143783992183177"><ele>105.0</ele><time>2026-05-01T12:28:50.999Z</time></trkpt><trkpt lat="45.38125531311602" lon="9.143691714531732"><ele>105.0</ele><time>2026-05-01T12:28:51.999Z</time></trkpt><trkpt lat="45.38110867813428" lon="9.143604128979732"><ele>104.33333333333334</ele><time>2026-05-01T12:28:52.999Z</time></trkpt><trkpt lat="45.38095781567291" lon="9.14352604500552"><ele>103.66666666666667</ele><time>2026-05-01T12:28:53.999Z</time></trkpt><trkpt lat="45.38081236030062" lon="9.143441993945942"><ele>103.0</ele><time>2026-05-01T12:28:55Z</time></trkpt><trkpt lat="45.38067100834392" lon="9.143360111642776"><ele>103.0</ele><time>2026-05-01T12:28:56Z</time></trkpt><trkpt lat="45.38053712718899" lon="9.143283816496243"><ele>103.0</ele><time>2026-05-01T12:28:57Z</time></trkpt><trkpt lat="45.38041610971688" lon="9.1432162615078"><ele>103.0</ele><time>2026-05-01T12:28:58Z</time></trkpt><trkpt lat="45.38029934348246" lon="9.14314781881562"><ele>103.0</ele><time>2026-05-01T12:28:59Z</time></trkpt><trkpt lat="45.380189680672366" lon="9.14308778829241"><ele>103.16666666666667</ele><time>2026-05-01T12:29:00Z</time></trkpt><trkpt lat="45.38008845158901" lon="9.143041728926189"><ele>103.33333333333334</ele><time>2026-05-01T12:29:01Z</time></trkpt><trkpt lat="45.38000406778293" lon="9.143003857109699"><ele>103.5</ele><time>2026-05-01T12:29:02Z</time></trkpt><trkpt lat="45.379938951755335" lon="9.142990034736684"><ele>103.66666666666666</ele><time>2026-05-01T12:29:03Z</time></trkpt><trkpt lat="45.37986531465374" lon="9.142968635806444"><ele>103.83333333333333</ele><time>2026-05-01T12:29:05Z</time></trkpt><trkpt lat="45.37980454592785" lon="9.142942966257317"><ele>104.0</ele><time>2026-05-01T12:29:07Z</time></trkpt><trkpt lat="45.37972804496442" lon="9.14288553076011"><ele>104.0</ele><time>2026-05-01T12:29:10Z</time></trkpt><trkpt lat="45.379661731513615" lon="9.142838450259305"><ele>104.0</ele><time>2026-05-01T12:29:11Z</time></trkpt><trkpt lat="45.37957012663195" lon="9.142792699706577"><ele>104.0</ele><time>2026-05-01T12:29:12Z</time></trkpt><trkpt lat="45.37946726185882" lon="9.142761037690242"><ele>104.0</ele><time>2026-05-01T12:29:13Z</time></trkpt><trkpt lat="45.37935578300633" lon="9.142743083905032"><ele>104.0</ele><time>2026-05-01T12:29:14Z</time></trkpt><trkpt lat="45.379237060379005" lon="9.142697937891997"><ele>104.0</ele><time>2026-05-01T12:29:15Z</time></trkpt><trkpt lat="45.37912001119927" lon="9.142601546854928"><ele>104.0</ele><time>2026-05-01T12:29:16Z</time></trkpt><trkpt lat="45.379010581610835" lon="9.142480147434195"><ele>104.0</ele><time>2026-05-01T12:29:17Z</time></trkpt><trkpt lat="45.378892735237066" lon="9.142372651559887"><ele>104.0</ele><time>2026-05-01T12:29:18Z</time></trkpt><trkpt lat="45.378767361869635" lon="9.142282569275721"><ele>102.33333333333333</ele><time>2026-05-01T12:29:19Z</time></trkpt><trkpt lat="45.37864028611011" lon="9.142181739407338"><ele>100.66666666666666</ele><time>2026-05-01T12:29:20Z</time></trkpt><trkpt lat="45.37835737327168" lon="9.14203719885183"><ele>99.0</ele><time>2026-05-01T12:29:22Z</time></trkpt><trkpt lat="45.378216455848495" lon="9.141952062018293"><ele>99.0</ele><time>2026-05-01T12:29:23Z</time></trkpt><trkpt lat="45.37808336731752" lon="9.14186940941901"><ele>99.0</ele><time>2026-05-01T12:29:24Z</time></trkpt><trkpt lat="45.37794995595335" lon="9.141795028238535"><ele>99.0</ele><time>2026-05-01T12:29:25Z</time></trkpt><trkpt lat="45.37781734829294" lon="9.14171975401481"><ele>99.0</ele><time>2026-05-01T12:29:26Z</time></trkpt><trkpt lat="45.37768182465542" lon="9.141643258926894"><ele>99.0</ele><time>2026-05-01T12:29:27Z</time></trkpt><trkpt lat="45.37754143448423" lon="9.141565130956387"><ele>99.0</ele><time>2026-05-01T12:29:28Z</time></trkpt><trkpt lat="45.377397504680644" lon="9.141480342724163"><ele>99.0</ele><time>2026-05-01T12:29:29Z</time></trkpt><trkpt lat="45.37725143518733" lon="9.141396898679206"><ele>99.25</ele><time>2026-05-01T12:29:30Z</time></trkpt><trkpt lat="45.37711299101621" lon="9.141319487489964"><ele>99.5</ele><time>2026-05-01T12:29:31Z</time></trkpt><trkpt lat="45.376981648484694" lon="9.141249958555044"><ele>99.75</ele><time>2026-05-01T12:29:32Z</time></trkpt><trkpt lat="45.376850709935205" lon="9.141171996993757"><ele>100.0</ele><time>2026-05-01T12:29:33Z</time></trkpt><trkpt lat="45.376713852136874" lon="9.141085883679528"><ele>100.0</ele><time>2026-05-01T12:29:34Z</time></trkpt><trkpt lat="45.376577513770506" lon="9.141003474801899"><ele>100.0</ele><time>2026-05-01T12:29:35Z</time></trkpt><trkpt lat="45.376446667976815" lon="9.140929375343344"><ele>100.0</ele><time>2026-05-01T12:29:36Z</time></trkpt><trkpt lat="45.376314837310794" lon="9.140856096658156"><ele>100.0</ele><time>2026-05-01T12:29:37Z</time></trkpt><trkpt lat="45.376185833860944" lon="9.140783190194606"><ele>100.5</ele><time>2026-05-01T12:29:38Z</time></trkpt><trkpt lat="45.37605145558557" lon="9.140708961164885"><ele>101.0</ele><time>2026-05-01T12:29:39Z</time></trkpt><trkpt lat="45.37592427912504" lon="9.14063692723555"><ele>101.5</ele><time>2026-05-01T12:29:40Z</time></trkpt><trkpt lat="45.37578665530125" lon="9.140558241694325"><ele>102.0</ele><time>2026-05-01T12:29:41Z</time></trkpt><trkpt lat="45.37552326120488" lon="9.14038991690445"><ele>101.75</ele><time>2026-05-01T12:29:43Z</time></trkpt><trkpt lat="45.375403572522934" lon="9.140321190738591"><ele>101.5</ele><time>2026-05-01T12:29:44Z</time></trkpt><trkpt lat="45.37529879361475" lon="9.140260706414942"><ele>101.25</ele><time>2026-05-01T12:29:45Z</time></trkpt><trkpt lat="45.37519386590808" lon="9.140199986858653"><ele>101.0</ele><time>2026-05-01T12:29:46Z</time></trkpt><trkpt lat="45.37507402885339" lon="9.140130925450377"><ele>101.0</ele><time>2026-05-01T12:29:47Z</time></trkpt><trkpt lat="45.374953730219964" lon="9.140061160044429"><ele>101.0</ele><time>2026-05-01T12:29:48Z</time></trkpt><trkpt lat="45.37483975591551" lon="9.139995149522301"><ele>101.0</ele><time>2026-05-01T12:29:49Z</time></trkpt><trkpt lat="45.37471888295537" lon="9.139925143510304"><ele>101.0</ele><time>2026-05-01T12:29:50Z</time></trkpt><trkpt lat="45.37459733975659" lon="9.139854942359259"><ele>100.75</ele><time>2026-05-01T12:29:51Z</time></trkpt><trkpt lat="45.37447599869141" lon="9.139784954610908"><ele>100.5</ele><time>2026-05-01T12:29:52Z</time></trkpt><trkpt lat="45.374359916877665" lon="9.139718000346619"><ele>100.25</ele><time>2026-05-01T12:29:53Z</time></trkpt><trkpt lat="45.37425951391972" lon="9.139659528135388"><ele>100.0</ele><time>2026-05-01T12:29:54Z</time></trkpt><trkpt lat="45.37416472554045" lon="9.139603907274568"><ele>100.0</ele><time>2026-05-01T12:29:55Z</time></trkpt><trkpt lat="45.37407459170286" lon="9.13955101767166"><ele>100.0</ele><time>2026-05-01T12:29:56Z</time></trkpt><trkpt lat="45.37398067025257" lon="9.139495905506958"><ele>100.0</ele><time>2026-05-01T12:29:57Z</time></trkpt><trkpt lat="45.373882684094504" lon="9.139438408234456"><ele>100.0</ele><time>2026-05-01T12:29:58Z</time></trkpt><trkpt lat="45.37378244714231" lon="9.139379590211478"><ele>100.0</ele><time>2026-05-01T12:29:59Z</time></trkpt><trkpt lat="45.37367524333741" lon="9.139316524245217"><ele>100.5</ele><time>2026-05-01T12:30:00Z</time></trkpt><trkpt lat="45.37356438572168" lon="9.13925173057263"><ele>101.0</ele><time>2026-05-01T12:30:01Z</time></trkpt><trkpt lat="45.3734520573531" lon="9.139187542938657"><ele>101.5</ele><time>2026-05-01T12:30:02Z</time></trkpt><trkpt lat="45.37333897444311" lon="9.13912292414083"><ele>102.0</ele><time>2026-05-01T12:30:03Z</time></trkpt><trkpt lat="45.373227978422" lon="9.139059430172445"><ele>101.5</ele><time>2026-05-01T12:30:04Z</time></trkpt><trkpt lat="45.37312073597099" lon="9.138998084209245"><ele>101.0</ele><time>2026-05-01T12:30:05Z</time></trkpt><trkpt lat="45.37301106570738" lon="9.138935349430493"><ele>100.5</ele><time>2026-05-01T12:30:06Z</time></trkpt><trkpt lat="45.37289866283228" lon="9.138871051537643"><ele>100.0</ele><time>2026-05-01T12:30:07Z</time></trkpt><trkpt lat="45.37278489924408" lon="9.138805975267767"><ele>100.0</ele><time>2026-05-01T12:30:08Z</time></trkpt><trkpt lat="45.37267863439942" lon="9.138745188516209"><ele>100.0</ele><time>2026-05-01T12:30:09Z</time></trkpt><trkpt lat="45.37258205013872" lon="9.138689939306591"><ele>100.0</ele><time>2026-05-01T12:30:10Z</time></trkpt><trkpt lat="45.37248883005886" lon="9.138658739689935"><ele>100.0</ele><time>2026-05-01T12:30:11Z</time></trkpt><trkpt lat="45.372416671360455" lon="9.138618004174187"><ele>100.0</ele><time>2026-05-01T12:30:12Z</time></trkpt><trkpt lat="45.37231403849266" lon="9.13857007132093"><ele>100.00000000000001</ele><time>2026-05-01T12:30:14Z</time></trkpt><trkpt lat="45.37225239459872" lon="9.13850755828458"><ele>100.0</ele><time>2026-05-01T12:30:16Z</time></trkpt><trkpt lat="45.372156345080846" lon="9.138454500399858"><ele>100.0</ele><time>2026-05-01T12:30:18.999Z</time></trkpt><trkpt lat="45.372104936837744" lon="9.138402242540508"><ele>100.0</ele><time>2026-05-01T12:30:19.999Z</time></trkpt><trkpt lat="45.37203983686127" lon="9.138333750994226"><ele>100.00000000000001</ele><time>2026-05-01T12:30:20.999Z</time></trkpt><trkpt lat="45.3719610628575" lon="9.13829356961689"><ele>100.0</ele><time>2026-05-01T12:30:21.999Z</time></trkpt><trkpt lat="45.3718739923633" lon="9.138278311264994"><ele>99.5</ele><time>2026-05-01T12:30:22.999Z</time></trkpt><trkpt lat="45.37178661026573" lon="9.138238502738607"><ele>99.0</ele><time>2026-05-01T12:30:23.999Z</time></trkpt><trkpt lat="45.3716978846174" lon="9.13817254062079"><ele>98.5</ele><time>2026-05-01T12:30:24.999Z</time></trkpt><trkpt lat="45.37151865855655" lon="9.138060749309071"><ele>98.0</ele><time>2026-05-01T12:30:26.999Z</time></trkpt><trkpt lat="45.371417822824746" lon="9.138004256953097"><ele>98.0</ele><time>2026-05-01T12:30:27.999Z</time></trkpt><trkpt lat="45.37131592812823" lon="9.13794321533987"><ele>98.0</ele><time>2026-05-01T12:30:28.999Z</time></trkpt><trkpt lat="45.371215436659" lon="9.13788328812647"><ele>98.0</ele><time>2026-05-01T12:30:29.999Z</time></trkpt><trkpt lat="45.3711152373012" lon="9.137820585591895"><ele>98.0</ele><time>2026-05-01T12:30:30.999Z</time></trkpt><trkpt lat="45.37100245794088" lon="9.137754993239144"><ele>98.0</ele><time>2026-05-01T12:30:31.999Z</time></trkpt><trkpt lat="45.370889272786115" lon="9.137688582707002"><ele>98.0</ele><time>2026-05-01T12:30:32.999Z</time></trkpt><trkpt lat="45.37077857890245" lon="9.13762505694664"><ele>98.0</ele><time>2026-05-01T12:30:33.999Z</time></trkpt><trkpt lat="45.37066831333112" lon="9.137558275151752"><ele>98.0</ele><time>2026-05-01T12:30:34.999Z</time></trkpt><trkpt lat="45.37055499135307" lon="9.137494764778925"><ele>98.75</ele><time>2026-05-01T12:30:35.999Z</time></trkpt><trkpt lat="45.37043813585575" lon="9.13742887131524"><ele>99.5</ele><time>2026-05-01T12:30:36.999Z</time></trkpt><trkpt lat="45.37032007785157" lon="9.137356990288763"><ele>100.25</ele><time>2026-05-01T12:30:37.999Z</time></trkpt><trkpt lat="45.3702097181286" lon="9.13728009779815"><ele>101.0</ele><time>2026-05-01T12:30:38.999Z</time></trkpt><trkpt lat="45.37008983040881" lon="9.13722258233165"><ele>101.0</ele><time>2026-05-01T12:30:39.999Z</time></trkpt><trkpt lat="45.36999946487341" lon="9.137146931456726"><ele>101.0</ele><time>2026-05-01T12:30:40.999Z</time></trkpt><trkpt lat="45.36986466879779" lon="9.137060500968923"><ele>101.0</ele><time>2026-05-01T12:30:41.999Z</time></trkpt><trkpt lat="45.36973916557317" lon="9.136985388431368"><ele>101.0</ele><time>2026-05-01T12:30:42.999Z</time></trkpt><trkpt lat="45.36961321721766" lon="9.136924478512965"><ele>101.0</ele><time>2026-05-01T12:30:43.999Z</time></trkpt><trkpt lat="45.36948323190906" lon="9.13685697807403"><ele>101.0</ele><time>2026-05-01T12:30:44.999Z</time></trkpt><trkpt lat="45.36935258460479" lon="9.136784183687235"><ele>101.0</ele><time>2026-05-01T12:30:45.999Z</time></trkpt><trkpt lat="45.3692175418623" lon="9.136713277692916"><ele>101.0</ele><time>2026-05-01T12:30:46.999Z</time></trkpt><trkpt lat="45.36908631208603" lon="9.136639436876719"><ele>101.0</ele><time>2026-05-01T12:30:47.999Z</time></trkpt><trkpt lat="45.36894776799853" lon="9.13656277924408"><ele>101.0</ele><time>2026-05-01T12:30:48.999Z</time></trkpt><trkpt lat="45.36880638091489" lon="9.136479318309597"><ele>101.0</ele><time>2026-05-01T12:30:49.999Z</time></trkpt><trkpt lat="45.36865724012719" lon="9.136391363713157"><ele>100.33333333333333</ele><time>2026-05-01T12:30:50.999Z</time></trkpt><trkpt lat="45.368506029304115" lon="9.136305982941067"><ele>99.66666666666666</ele><time>2026-05-01T12:30:51.999Z</time></trkpt><trkpt lat="45.368342092330025" lon="9.13621337425361"><ele>99.0</ele><time>2026-05-01T12:30:52.999Z</time></trkpt><trkpt lat="45.36817671987289" lon="9.136117764651514"><ele>98.66666666666666</ele><time>2026-05-01T12:30:53.999Z</time></trkpt><trkpt lat="45.368015737311815" lon="9.136024095859078"><ele>98.33333333333333</ele><time>2026-05-01T12:30:54.999Z</time></trkpt><trkpt lat="45.36785122353536" lon="9.135931455513617"><ele>98.0</ele><time>2026-05-01T12:30:55.999Z</time></trkpt><trkpt lat="45.36769758395148" lon="9.135843912310179"><ele>98.0</ele><time>2026-05-01T12:30:56.999Z</time></trkpt><trkpt lat="45.36754204370782" lon="9.1357516783516"><ele>98.0</ele><time>2026-05-01T12:30:57.999Z</time></trkpt><trkpt lat="45.36738646368408" lon="9.13566290002742"><ele>98.0</ele><time>2026-05-01T12:30:59Z</time></trkpt><trkpt lat="45.36722623372601" lon="9.135571047526689"><ele>97.66666666666666</ele><time>2026-05-01T12:31:00Z</time></trkpt><trkpt lat="45.367066370871136" lon="9.135480831863664"><ele>97.33333333333334</ele><time>2026-05-01T12:31:01Z</time></trkpt><trkpt lat="45.36690929130169" lon="9.135396335253054"><ele>97.0</ele><time>2026-05-01T12:31:02Z</time></trkpt><trkpt lat="45.366768262788746" lon="9.135314741001407"><ele>97.0</ele><time>2026-05-01T12:31:03Z</time></trkpt><trkpt lat="45.3666223771267" lon="9.135246288821651"><ele>97.0</ele><time>2026-05-01T12:31:04Z</time></trkpt><trkpt lat="45.36649003988832" lon="9.135191206857455"><ele>97.0</ele><time>2026-05-01T12:31:05Z</time></trkpt><trkpt lat="45.36635685743931" lon="9.135141716585103"><ele>97.0</ele><time>2026-05-01T12:31:06Z</time></trkpt><trkpt lat="45.36623062287153" lon="9.13509341836438"><ele>97.0</ele><time>2026-05-01T12:31:07Z</time></trkpt><trkpt lat="45.366120010846565" lon="9.1350521351541"><ele>97.0</ele><time>2026-05-01T12:31:08Z</time></trkpt><trkpt lat="45.366031316766154" lon="9.135007777131642"><ele>97.0</ele><time>2026-05-01T12:31:09Z</time></trkpt><trkpt lat="45.36595760107048" lon="9.134973059670234"><ele>97.0</ele><time>2026-05-01T12:31:10Z</time></trkpt><trkpt lat="45.36588251816689" lon="9.134927729758612"><ele>97.0</ele><time>2026-05-01T12:31:11Z</time></trkpt><trkpt lat="45.3658083577361" lon="9.13485544745149"><ele>97.0</ele><time>2026-05-01T12:31:12Z</time></trkpt><trkpt lat="45.36574289837083" lon="9.134744110756428"><ele>97.0</ele><time>2026-05-01T12:31:13Z</time></trkpt><trkpt lat="45.36567910694145" lon="9.134613557323268"><ele>97.0</ele><time>2026-05-01T12:31:14Z</time></trkpt><trkpt lat="45.3655869366926" lon="9.13450603239238"><ele>97.0</ele><time>2026-05-01T12:31:15Z</time></trkpt><trkpt lat="45.36545484011745" lon="9.134437459238114"><ele>97.66666666666667</ele><time>2026-05-01T12:31:16Z</time></trkpt><trkpt lat="45.365311807890656" lon="9.134367934819075"><ele>98.33333333333334</ele><time>2026-05-01T12:31:17Z</time></trkpt><trkpt lat="45.36517362744506" lon="9.13428608087233"><ele>99.0</ele><time>2026-05-01T12:31:18Z</time></trkpt><trkpt lat="45.365031758013735" lon="9.134191617329842"><ele>99.0</ele><time>2026-05-01T12:31:19Z</time></trkpt><trkpt lat="45.364881251683364" lon="9.134100597279511"><ele>99.0</ele><time>2026-05-01T12:31:20Z</time></trkpt><trkpt lat="45.36473577438277" lon="9.134010882845624"><ele>99.0</ele><time>2026-05-01T12:31:21Z</time></trkpt><trkpt lat="45.36460042612406" lon="9.133937869065061"><ele>98.6</ele><time>2026-05-01T12:31:22Z</time></trkpt><trkpt lat="45.36447949363208" lon="9.133869750170751"><ele>98.2</ele><time>2026-05-01T12:31:23Z</time></trkpt><trkpt lat="45.36437356118989" lon="9.133813813637463"><ele>97.8</ele><time>2026-05-01T12:31:24Z</time></trkpt><trkpt lat="45.36427894514018" lon="9.133754727787672"><ele>97.39999999999999</ele><time>2026-05-01T12:31:25Z</time></trkpt><trkpt lat="45.36420291359899" lon="9.133708115417546"><ele>97.0</ele><time>2026-05-01T12:31:26Z</time></trkpt><trkpt lat="45.36411039366498" lon="9.1336330941858"><ele>97.0</ele><time>2026-05-01T12:31:28Z</time></trkpt><trkpt lat="45.36408169422754" lon="9.1334886968884"><ele>97.0</ele><time>2026-05-01T12:31:30Z</time></trkpt><trkpt lat="45.364114411770096" lon="9.133381022518105"><ele>97.0</ele><time>2026-05-01T12:31:31Z</time></trkpt><trkpt lat="45.364159886959555" lon="9.133262399022966"><ele>97.0</ele><time>2026-05-01T12:31:32Z</time></trkpt><trkpt lat="45.3642042923759" lon="9.133106485640655"><ele>97.0</ele><time>2026-05-01T12:31:33Z</time></trkpt><trkpt lat="45.36424942029868" lon="9.132931315631193"><ele>97.0</ele><time>2026-05-01T12:31:34Z</time></trkpt><trkpt lat="45.36429549972925" lon="9.13275367484681"><ele>97.0</ele><time>2026-05-01T12:31:35Z</time></trkpt><trkpt lat="45.364351180691735" lon="9.132562637574171"><ele>97.0</ele><time>2026-05-01T12:31:36Z</time></trkpt><trkpt lat="45.364410899107106" lon="9.132359892211523"><ele>97.0</ele><time>2026-05-01T12:31:37Z</time></trkpt><trkpt lat="45.36446796812135" lon="9.1321434863892"><ele>97.33333333333334</ele><time>2026-05-01T12:31:38Z</time></trkpt><trkpt lat="45.36452814832862" lon="9.131908564702696"><ele>97.66666666666666</ele><time>2026-05-01T12:31:39Z</time></trkpt><trkpt lat="45.36459410142337" lon="9.131684225129057"><ele>98.0</ele><time>2026-05-01T12:31:40Z</time></trkpt><trkpt lat="45.36465997883741" lon="9.131443582134994"><ele>98.0</ele><time>2026-05-01T12:31:41Z</time></trkpt><trkpt lat="45.36472522276304" lon="9.13121206016302"><ele>98.0</ele><time>2026-05-01T12:31:42Z</time></trkpt><trkpt lat="45.364789353573045" lon="9.130985299414215"><ele>98.0</ele><time>2026-05-01T12:31:43Z</time></trkpt><trkpt lat="45.364850743676314" lon="9.130751931602044"><ele>98.66666666666666</ele><time>2026-05-01T12:31:44Z</time></trkpt><trkpt lat="45.364912453790765" lon="9.130521639330743"><ele>99.33333333333334</ele><time>2026-05-01T12:31:45Z</time></trkpt><trkpt lat="45.364976242524314" lon="9.130295507327812"><ele>100.0</ele><time>2026-05-01T12:31:46Z</time></trkpt><trkpt lat="45.36504202073609" lon="9.130059471301877"><ele>100.33333333333334</ele><time>2026-05-01T12:31:47Z</time></trkpt><trkpt lat="45.365104894206056" lon="9.129825821700347"><ele>100.66666666666666</ele><time>2026-05-01T12:31:48Z</time></trkpt><trkpt lat="45.365170647415496" lon="9.129592305344133"><ele>101.0</ele><time>2026-05-01T12:31:49Z</time></trkpt><trkpt lat="45.365234004445696" lon="9.129360848378653"><ele>101.0</ele><time>2026-05-01T12:31:50Z</time></trkpt><trkpt lat="45.365303672585576" lon="9.129123779388403"><ele>101.0</ele><time>2026-05-01T12:31:51Z</time></trkpt><trkpt lat="45.36537119265215" lon="9.128888847106378"><ele>101.0</ele><time>2026-05-01T12:31:52Z</time></trkpt><trkpt lat="45.365432832060705" lon="9.128659073925732"><ele>100.66666666666666</ele><time>2026-05-01T12:31:53Z</time></trkpt><trkpt lat="45.365491336298206" lon="9.128427954333851"><ele>100.33333333333334</ele><time>2026-05-01T12:31:54Z</time></trkpt><trkpt lat="45.36555690399362" lon="9.128191781893305"><ele>100.0</ele><time>2026-05-01T12:31:55Z</time></trkpt><trkpt lat="45.365622442645474" lon="9.127960828159896"><ele>100.33333333333334</ele><time>2026-05-01T12:31:56Z</time></trkpt><trkpt lat="45.36568899644134" lon="9.12773298984883"><ele>100.66666666666666</ele><time>2026-05-01T12:31:57Z</time></trkpt><trkpt lat="45.36575618461165" lon="9.127510065474246"><ele>101.0</ele><time>2026-05-01T12:31:58Z</time></trkpt><trkpt lat="45.36582271240159" lon="9.12729533459806"><ele>101.0</ele><time>2026-05-01T12:31:59Z</time></trkpt><trkpt lat="45.36588938394578" lon="9.127082302658891"><ele>101.0</ele><time>2026-05-01T12:32:00Z</time></trkpt><trkpt lat="45.365960845753534" lon="9.126865528346185"><ele>101.0</ele><time>2026-05-01T12:32:01Z</time></trkpt><trkpt lat="45.36603774868937" lon="9.126653261785844"><ele>100.33333333333333</ele><time>2026-05-01T12:32:02Z</time></trkpt><trkpt lat="45.36612875428275" lon="9.126431871775742"><ele>99.66666666666666</ele><time>2026-05-01T12:32:03Z</time></trkpt><trkpt lat="45.36621942065314" lon="9.126206979017875"><ele>99.0</ele><time>2026-05-01T12:32:04Z</time></trkpt><trkpt lat="45.36630627313635" lon="9.125980662584304"><ele>99.33333333333334</ele><time>2026-05-01T12:32:05Z</time></trkpt><trkpt lat="45.36640019988339" lon="9.125762859290905"><ele>99.66666666666667</ele><time>2026-05-01T12:32:06Z</time></trkpt><trkpt lat="45.36650049121707" lon="9.125540411286574"><ele>100.0</ele><time>2026-05-01T12:32:07Z</time></trkpt><trkpt lat="45.366601509929566" lon="9.125328610690746"><ele>100.0</ele><time>2026-05-01T12:32:08Z</time></trkpt><trkpt lat="45.36671082275571" lon="9.125122136803258"><ele>100.0</ele><time>2026-05-01T12:32:09Z</time></trkpt><trkpt lat="45.36682196372749" lon="9.124929044175198"><ele>100.0</ele><time>2026-05-01T12:32:10Z</time></trkpt><trkpt lat="45.36694172382866" lon="9.124732603286398"><ele>100.33333333333334</ele><time>2026-05-01T12:32:11Z</time></trkpt><trkpt lat="45.36706151190319" lon="9.124551118989105"><ele>100.66666666666666</ele><time>2026-05-01T12:32:12Z</time></trkpt><trkpt lat="45.36717870967341" lon="9.124378260065193"><ele>101.0</ele><time>2026-05-01T12:32:13Z</time></trkpt><trkpt lat="45.36728512545235" lon="9.124201699079237"><ele>101.0</ele><time>2026-05-01T12:32:14Z</time></trkpt><trkpt lat="45.36738724073732" lon="9.124019808631987"><ele>101.0</ele><time>2026-05-01T12:32:15Z</time></trkpt><trkpt lat="45.36748467783105" lon="9.123830810228093"><ele>101.0</ele><time>2026-05-01T12:32:16Z</time></trkpt><trkpt lat="45.367572282694105" lon="9.12364398496911"><ele>101.0</ele><time>2026-05-01T12:32:17Z</time></trkpt><trkpt lat="45.36766351048945" lon="9.123447776978944"><ele>101.0</ele><time>2026-05-01T12:32:18Z</time></trkpt><trkpt lat="45.36775291143593" lon="9.12325090250744"><ele>101.0</ele><time>2026-05-01T12:32:19Z</time></trkpt><trkpt lat="45.36784084667512" lon="9.123057796119264"><ele>101.0</ele><time>2026-05-01T12:32:20Z</time></trkpt><trkpt lat="45.36791748613645" lon="9.122860660847765"><ele>101.0</ele><time>2026-05-01T12:32:21Z</time></trkpt><trkpt lat="45.36797198174343" lon="9.122652756352622"><ele>101.0</ele><time>2026-05-01T12:32:22Z</time></trkpt><trkpt lat="45.36800922281907" lon="9.122435075796052"><ele>101.66666666666666</ele><time>2026-05-01T12:32:23Z</time></trkpt><trkpt lat="45.36803647105845" lon="9.12220185872475"><ele>102.33333333333334</ele><time>2026-05-01T12:32:24Z</time></trkpt><trkpt lat="45.368060505389494" lon="9.121970936101986"><ele>103.0</ele><time>2026-05-01T12:32:25Z</time></trkpt><trkpt lat="45.368093081915944" lon="9.121730520778916"><ele>102.66666666666667</ele><time>2026-05-01T12:32:26Z</time></trkpt><trkpt lat="45.368136995579164" lon="9.121493456111692"><ele>102.33333333333334</ele><time>2026-05-01T12:32:27Z</time></trkpt><trkpt lat="45.36819063487297" lon="9.1212543639356"><ele>102.0</ele><time>2026-05-01T12:32:28Z</time></trkpt><trkpt lat="45.36824740017024" lon="9.121015054818512"><ele>102.0</ele><time>2026-05-01T12:32:29Z</time></trkpt><trkpt lat="45.368306656681554" lon="9.120763916157323"><ele>102.0</ele><time>2026-05-01T12:32:30Z</time></trkpt><trkpt lat="45.36836269739472" lon="9.120523138121785"><ele>102.0</ele><time>2026-05-01T12:32:31Z</time></trkpt><trkpt lat="45.36841799903355" lon="9.120290347576363"><ele>101.33333333333334</ele><time>2026-05-01T12:32:32Z</time></trkpt><trkpt lat="45.368471174008114" lon="9.120058927414084"><ele>100.66666666666667</ele><time>2026-05-01T12:32:33Z</time></trkpt><trkpt lat="45.36852808160829" lon="9.119820231105182"><ele>100.0</ele><time>2026-05-01T12:32:34Z</time></trkpt><trkpt lat="45.36857533207486" lon="9.119575806140013"><ele>100.0</ele><time>2026-05-01T12:32:35Z</time></trkpt><trkpt lat="45.36860370927777" lon="9.119323202288788"><ele>100.0</ele><time>2026-05-01T12:32:36Z</time></trkpt><trkpt lat="45.368620360165856" lon="9.119061948643632"><ele>100.0</ele><time>2026-05-01T12:32:37Z</time></trkpt><trkpt lat="45.36862603064468" lon="9.11880141767689"><ele>100.33333333333334</ele><time>2026-05-01T12:32:38Z</time></trkpt><trkpt lat="45.36861993136459" lon="9.118545691611462"><ele>100.66666666666666</ele><time>2026-05-01T12:32:39Z</time></trkpt><trkpt lat="45.36860373030178" lon="9.118289331691534"><ele>101.0</ele><time>2026-05-01T12:32:40Z</time></trkpt><trkpt lat="45.36857229454288" lon="9.11803686089642"><ele>101.0</ele><time>2026-05-01T12:32:41Z</time></trkpt><trkpt lat="45.368529652291116" lon="9.117784677542199"><ele>101.0</ele><time>2026-05-01T12:32:42Z</time></trkpt><trkpt lat="45.36847862883271" lon="9.117535233576513"><ele>101.0</ele><time>2026-05-01T12:32:43Z</time></trkpt><trkpt lat="45.368415854760215" lon="9.117304624740099"><ele>101.0</ele><time>2026-05-01T12:32:44Z</time></trkpt><trkpt lat="45.368355441131065" lon="9.117065061808713"><ele>101.0</ele><time>2026-05-01T12:32:45Z</time></trkpt><trkpt lat="45.36828180204564" lon="9.11683688387249"><ele>101.0</ele><time>2026-05-01T12:32:46Z</time></trkpt><trkpt lat="45.368198748598545" lon="9.116617207602095"><ele>101.0</ele><time>2026-05-01T12:32:47Z</time></trkpt><trkpt lat="45.36810945127819" lon="9.116411932355094"><ele>101.0</ele><time>2026-05-01T12:32:48Z</time></trkpt><trkpt lat="45.368020806559294" lon="9.116236177913242"><ele>101.0</ele><time>2026-05-01T12:32:49Z</time></trkpt><trkpt lat="45.36794091766831" lon="9.11608899793274"><ele>101.0</ele><time>2026-05-01T12:32:50Z</time></trkpt><trkpt lat="45.367863093438466" lon="9.11595964157755"><ele>101.0</ele><time>2026-05-01T12:32:51Z</time></trkpt><trkpt lat="45.36779257827862" lon="9.115842438420938"><ele>101.0</ele><time>2026-05-01T12:32:52Z</time></trkpt><trkpt lat="45.36772488911337" lon="9.11572574251047"><ele>101.0</ele><time>2026-05-01T12:32:53Z</time></trkpt><trkpt lat="45.36767111217993" lon="9.115616839115562"><ele>101.0</ele><time>2026-05-01T12:32:54Z</time></trkpt><trkpt lat="45.367632422626464" lon="9.115497347863782"><ele>101.0</ele><time>2026-05-01T12:32:55Z</time></trkpt><trkpt lat="45.36761512472039" lon="9.115371210054793"><ele>101.0</ele><time>2026-05-01T12:32:56Z</time></trkpt><trkpt lat="45.36754983474855" lon="9.115153095218629"><ele>101.0</ele><time>2026-05-01T12:32:58Z</time></trkpt><trkpt lat="45.367447035248674" lon="9.115102634763097"><ele>101.0</ele><time>2026-05-01T12:32:59Z</time></trkpt><trkpt lat="45.367355109636414" lon="9.115024344589944"><ele>101.0</ele><time>2026-05-01T12:33:00Z</time></trkpt><trkpt lat="45.367269099863066" lon="9.114901068644993"><ele>101.0</ele><time>2026-05-01T12:33:01Z</time></trkpt><trkpt lat="45.36719902909995" lon="9.11475394116566"><ele>101.0</ele><time>2026-05-01T12:33:02Z</time></trkpt><trkpt lat="45.367115046110655" lon="9.114594185102224"><ele>101.0</ele><time>2026-05-01T12:33:03Z</time></trkpt><trkpt lat="45.36701721118531" lon="9.114432267478639"><ele>101.0</ele><time>2026-05-01T12:33:04Z</time></trkpt><trkpt lat="45.36692588827942" lon="9.114270159926837"><ele>101.0</ele><time>2026-05-01T12:33:05Z</time></trkpt><trkpt lat="45.36684222091518" lon="9.114111805754517"><ele>101.0</ele><time>2026-05-01T12:33:06Z</time></trkpt><trkpt lat="45.3666837397366" lon="9.11378083392366"><ele>101.0</ele><time>2026-05-01T12:33:08Z</time></trkpt><trkpt lat="45.366605060658735" lon="9.113606213963068"><ele>101.0</ele><time>2026-05-01T12:33:09Z</time></trkpt><trkpt lat="45.366541487150776" lon="9.113419630837898"><ele>101.0</ele><time>2026-05-01T12:33:10Z</time></trkpt><trkpt lat="45.366480924835784" lon="9.113209258923176"><ele>101.33333333333333</ele><time>2026-05-01T12:33:11Z</time></trkpt><trkpt lat="45.36643658106606" lon="9.112984058908456"><ele>101.66666666666666</ele><time>2026-05-01T12:33:12Z</time></trkpt><trkpt lat="45.366386407554714" lon="9.112760636109307"><ele>102.0</ele><time>2026-05-01T12:33:13Z</time></trkpt><trkpt lat="45.366341049673245" lon="9.112518196541917"><ele>101.66666666666666</ele><time>2026-05-01T12:33:14Z</time></trkpt><trkpt lat="45.366294221513506" lon="9.112272335789683"><ele>101.33333333333333</ele><time>2026-05-01T12:33:15Z</time></trkpt><trkpt lat="45.366249229572226" lon="9.112034913485953"><ele>101.0</ele><time>2026-05-01T12:33:16Z</time></trkpt><trkpt lat="45.36620476207569" lon="9.111794244826186"><ele>101.33333333333333</ele><time>2026-05-01T12:33:17Z</time></trkpt><trkpt lat="45.36616193340555" lon="9.111562629178717"><ele>101.66666666666666</ele><time>2026-05-01T12:33:18Z</time></trkpt><trkpt lat="45.36612103558189" lon="9.111348395940166"><ele>102.0</ele><time>2026-05-01T12:33:19Z</time></trkpt><trkpt lat="45.36608469714572" lon="9.111159717564371"><ele>102.0</ele><time>2026-05-01T12:33:20Z</time></trkpt><trkpt lat="45.36605286185114" lon="9.11097864181386"><ele>102.0</ele><time>2026-05-01T12:33:21Z</time></trkpt><trkpt lat="45.366023383177065" lon="9.11080901679525"><ele>102.0</ele><time>2026-05-01T12:33:22Z</time></trkpt><trkpt lat="45.36599637029497" lon="9.110645369480403"><ele>102.0</ele><time>2026-05-01T12:33:23Z</time></trkpt><trkpt lat="45.36597498703369" lon="9.110481506350073"><ele>101.5</ele><time>2026-05-01T12:33:24Z</time></trkpt><trkpt lat="45.36596611596391" lon="9.110312765311965"><ele>101.0</ele><time>2026-05-01T12:33:25Z</time></trkpt><trkpt lat="45.36597186341184" lon="9.110145074646601"><ele>100.5</ele><time>2026-05-01T12:33:26Z</time></trkpt><trkpt lat="45.365996745887585" lon="9.10997896943324"><ele>100.0</ele><time>2026-05-01T12:33:27Z</time></trkpt><trkpt lat="45.36604866217184" lon="9.109820976579078"><ele>100.0</ele><time>2026-05-01T12:33:28Z</time></trkpt><trkpt lat="45.36611799027113" lon="9.109665671492131"><ele>100.0</ele><time>2026-05-01T12:33:29Z</time></trkpt><trkpt lat="45.36620204513649" lon="9.109519726793177"><ele>100.0</ele><time>2026-05-01T12:33:30Z</time></trkpt><trkpt lat="45.36629611127888" lon="9.109382487704298"><ele>100.0</ele><time>2026-05-01T12:33:31Z</time></trkpt><trkpt lat="45.366387829271794" lon="9.109267589678444"><ele>100.25</ele><time>2026-05-01T12:33:32Z</time></trkpt><trkpt lat="45.36647703937586" lon="9.109167313536748"><ele>100.5</ele><time>2026-05-01T12:33:33Z</time></trkpt><trkpt lat="45.36657476808605" lon="9.109059861734089"><ele>100.75</ele><time>2026-05-01T12:33:34Z</time></trkpt><trkpt lat="45.36667765461993" lon="9.108949834984045"><ele>101.0</ele><time>2026-05-01T12:33:35Z</time></trkpt><trkpt lat="45.36678380124501" lon="9.108842326308194"><ele>101.0</ele><time>2026-05-01T12:33:36Z</time></trkpt><trkpt lat="45.36688829125739" lon="9.108735224555776"><ele>101.0</ele><time>2026-05-01T12:33:37Z</time></trkpt><trkpt lat="45.36698855110388" lon="9.108631949292427"><ele>101.0</ele><time>2026-05-01T12:33:38Z</time></trkpt><trkpt lat="45.3670823681792" lon="9.10853547581397"><ele>101.0</ele><time>2026-05-01T12:33:39Z</time></trkpt><trkpt lat="45.36718463420591" lon="9.108422954745308"><ele>101.0</ele><time>2026-05-01T12:33:40Z</time></trkpt><trkpt lat="45.36729776941226" lon="9.108305557684854"><ele>101.0</ele><time>2026-05-01T12:33:41Z</time></trkpt><trkpt lat="45.36741271239969" lon="9.108187442550731"><ele>101.0</ele><time>2026-05-01T12:33:42Z</time></trkpt><trkpt lat="45.367524365293015" lon="9.108075387374384"><ele>101.0</ele><time>2026-05-01T12:33:43Z</time></trkpt><trkpt lat="45.36762981499087" lon="9.107962188551484"><ele>101.0</ele><time>2026-05-01T12:33:44Z</time></trkpt><trkpt lat="45.36772805040994" lon="9.107856776091824"><ele>101.0</ele><time>2026-05-01T12:33:45Z</time></trkpt><trkpt lat="45.367814910687066" lon="9.107763909618035"><ele>101.0</ele><time>2026-05-01T12:33:46Z</time></trkpt><trkpt lat="45.36788867489705" lon="9.107688817411942"><ele>101.0</ele><time>2026-05-01T12:33:47Z</time></trkpt><trkpt lat="45.36795032158947" lon="9.107622963083127"><ele>101.0</ele><time>2026-05-01T12:33:48Z</time></trkpt><trkpt lat="45.36801012919141" lon="9.107556706153371"><ele>100.99999999999999</ele><time>2026-05-01T12:33:49Z</time></trkpt><trkpt lat="45.36807281307484" lon="9.107491061383922"><ele>101.0</ele><time>2026-05-01T12:33:50Z</time></trkpt><trkpt lat="45.36813170318878" lon="9.107444341348497"><ele>101.0</ele><time>2026-05-01T12:33:51Z</time></trkpt><trkpt lat="45.36821293212006" lon="9.107438119838047"><ele>101.0</ele><time>2026-05-01T12:33:53Z</time></trkpt><trkpt lat="45.36827239714062" lon="9.10751939229309"><ele>100.99999999999999</ele><time>2026-05-01T12:33:55Z</time></trkpt><trkpt lat="45.36833739801227" lon="9.107543764821688"><ele>101.0</ele><time>2026-05-01T12:33:58Z</time></trkpt><trkpt lat="45.36832438125476" lon="9.107402033082792"><ele>101.0</ele><time>2026-05-01T12:34:00Z</time></trkpt><trkpt lat="45.36831227459989" lon="9.107305713327332"><ele>101.0</ele><time>2026-05-01T12:34:03Z</time></trkpt><trkpt lat="45.36812229247385" lon="9.107374283954329"><ele>101.0</ele><time>2026-05-01T12:34:10Z</time></trkpt><trkpt lat="45.36805262116526" lon="9.107459622698107"><ele>101.0</ele><time>2026-05-01T12:34:11Z</time></trkpt><trkpt lat="45.36797172541226" lon="9.10754196346551"><ele>101.0</ele><time>2026-05-01T12:34:12Z</time></trkpt><trkpt lat="45.367885465873364" lon="9.107633331031355"><ele>101.0</ele><time>2026-05-01T12:34:13Z</time></trkpt><trkpt lat="45.36778688756086" lon="9.10774051252428"><ele>101.0</ele><time>2026-05-01T12:34:14Z</time></trkpt><trkpt lat="45.36768527015144" lon="9.107847654454124"><ele>101.0</ele><time>2026-05-01T12:34:15Z</time></trkpt><trkpt lat="45.36757283955202" lon="9.107960498621814"><ele>101.0</ele><time>2026-05-01T12:34:16Z</time></trkpt><trkpt lat="45.36745462399252" lon="9.10808509039237"><ele>101.0</ele><time>2026-05-01T12:34:17Z</time></trkpt><trkpt lat="45.367333619302215" lon="9.108215570953652"><ele>101.0</ele><time>2026-05-01T12:34:18Z</time></trkpt><trkpt lat="45.36722112145282" lon="9.108328670325943"><ele>101.0</ele><time>2026-05-01T12:34:19Z</time></trkpt><trkpt lat="45.36710560424813" lon="9.108443644097498"><ele>101.0</ele><time>2026-05-01T12:34:20Z</time></trkpt><trkpt lat="45.36699215490923" lon="9.108554195144956"><ele>101.0</ele><time>2026-05-01T12:34:21Z</time></trkpt><trkpt lat="45.36688490810001" lon="9.108675721621605"><ele>101.0</ele><time>2026-05-01T12:34:22Z</time></trkpt><trkpt lat="45.366780767163185" lon="9.108783193247698"><ele>101.0</ele><time>2026-05-01T12:34:23Z</time></trkpt><trkpt lat="45.36667800756611" lon="9.108895637695909"><ele>101.0</ele><time>2026-05-01T12:34:24Z</time></trkpt><trkpt lat="45.36657641108746" lon="9.109007711389992"><ele>101.0</ele><time>2026-05-01T12:34:25Z</time></trkpt><trkpt lat="45.36647627719428" lon="9.109105714047544"><ele>101.0</ele><time>2026-05-01T12:34:26Z</time></trkpt><trkpt lat="45.36637799913134" lon="9.109192016071752"><ele>101.0</ele><time>2026-05-01T12:34:27Z</time></trkpt><trkpt lat="45.36628464443061" lon="9.109272998685935"><ele>100.8</ele><time>2026-05-01T12:34:28Z</time></trkpt><trkpt lat="45.36619418883447" lon="9.109336225316934"><ele>100.6</ele><time>2026-05-01T12:34:29Z</time></trkpt><trkpt lat="45.36610342984458" lon="9.109385730026203"><ele>100.4</ele><time>2026-05-01T12:34:30Z</time></trkpt><trkpt lat="45.36600517768001" lon="9.109429821300347"><ele>100.2</ele><time>2026-05-01T12:34:31Z</time></trkpt><trkpt lat="45.3658993390006" lon="9.109465841369445"><ele>100.0</ele><time>2026-05-01T12:34:32Z</time></trkpt><trkpt lat="45.36579310246345" lon="9.109505897173271"><ele>100.0</ele><time>2026-05-01T12:34:33Z</time></trkpt><trkpt lat="45.36568074121174" lon="9.109563555392171"><ele>100.0</ele><time>2026-05-01T12:34:34Z</time></trkpt><trkpt lat="45.36556408564586" lon="9.109629317252715"><ele>100.0</ele><time>2026-05-01T12:34:35Z</time></trkpt><trkpt lat="45.36544087049082" lon="9.109678994215551"><ele>100.0</ele><time>2026-05-01T12:34:36Z</time></trkpt><trkpt lat="45.36532201463745" lon="9.109731347911715"><ele>100.0</ele><time>2026-05-01T12:34:37Z</time></trkpt><trkpt lat="45.36518074093269" lon="9.109677502805155"><ele>100.0</ele><time>2026-05-01T12:34:38Z</time></trkpt><trkpt lat="45.365058618923825" lon="9.109656958106568"><ele>100.0</ele><time>2026-05-01T12:34:39Z</time></trkpt><trkpt lat="45.364938446289344" lon="9.109643556684539"><ele>100.0</ele><time>2026-05-01T12:34:40Z</time></trkpt><trkpt lat="45.36482155892771" lon="9.109629162757713"><ele>100.0</ele><time>2026-05-01T12:34:41Z</time></trkpt><trkpt lat="45.364704369624135" lon="9.109614794285559"><ele>100.0</ele><time>2026-05-01T12:34:42Z</time></trkpt><trkpt lat="45.3645874845287" lon="9.109593255008356"><ele>100.0</ele><time>2026-05-01T12:34:43Z</time></trkpt><trkpt lat="45.36447120645979" lon="9.109568483926191"><ele>100.0</ele><time>2026-05-01T12:34:44Z</time></trkpt><trkpt lat="45.36434775525288" lon="9.109543097488132"><ele>100.0</ele><time>2026-05-01T12:34:45Z</time></trkpt><trkpt lat="45.36421927811025" lon="9.109517868791778"><ele>100.0</ele><time>2026-05-01T12:34:46Z</time></trkpt><trkpt lat="45.364094793167055" lon="9.10949686113489"><ele>100.0</ele><time>2026-05-01T12:34:47Z</time></trkpt><trkpt lat="45.36397119644696" lon="9.109478867726256"><ele>100.0</ele><time>2026-05-01T12:34:48Z</time></trkpt><trkpt lat="45.36384602757427" lon="9.10945957152149"><ele>100.5</ele><time>2026-05-01T12:34:49Z</time></trkpt><trkpt lat="45.36372132388266" lon="9.109441305983177"><ele>101.0</ele><time>2026-05-01T12:34:50Z</time></trkpt><trkpt lat="45.363594277110515" lon="9.109429466667715"><ele>101.5</ele><time>2026-05-01T12:34:51Z</time></trkpt><trkpt lat="45.36346571105259" lon="9.109413900552978"><ele>102.0</ele><time>2026-05-01T12:34:52Z</time></trkpt><trkpt lat="45.36333653192078" lon="9.109394033983735"><ele>102.0</ele><time>2026-05-01T12:34:53Z</time></trkpt><trkpt lat="45.36320715511606" lon="9.10937596556369"><ele>102.0</ele><time>2026-05-01T12:34:54Z</time></trkpt><trkpt lat="45.36307949329847" lon="9.10935795531196"><ele>102.0</ele><time>2026-05-01T12:34:55Z</time></trkpt><trkpt lat="45.362960207240015" lon="9.109345618236958"><ele>102.0</ele><time>2026-05-01T12:34:56Z</time></trkpt><trkpt lat="45.36284857430571" lon="9.109335927014993"><ele>101.75</ele><time>2026-05-01T12:34:57Z</time></trkpt><trkpt lat="45.36273952565458" lon="9.109335063030917"><ele>101.5</ele><time>2026-05-01T12:34:58Z</time></trkpt><trkpt lat="45.362624331317626" lon="9.109340167273476"><ele>101.25</ele><time>2026-05-01T12:34:59Z</time></trkpt><trkpt lat="45.36250568333834" lon="9.10935234676105"><ele>101.0</ele><time>2026-05-01T12:35:00Z</time></trkpt><trkpt lat="45.36239392657747" lon="9.109366315484726"><ele>101.0</ele><time>2026-05-01T12:35:01Z</time></trkpt><trkpt lat="45.36228742785287" lon="9.109380651889168"><ele>101.0</ele><time>2026-05-01T12:35:02Z</time></trkpt><trkpt lat="45.3621935761031" lon="9.109394945627871"><ele>101.0</ele><time>2026-05-01T12:35:03Z</time></trkpt><trkpt lat="45.36211666076145" lon="9.109410711431607"><ele>101.0</ele><time>2026-05-01T12:35:04Z</time></trkpt><trkpt lat="45.36205359075351" lon="9.109433323108666"><ele>101.0</ele><time>2026-05-01T12:35:05Z</time></trkpt><trkpt lat="45.36194355780684" lon="9.10944697747991"><ele>100.99999999999999</ele><time>2026-05-01T12:35:07Z</time></trkpt><trkpt lat="45.36189193885154" lon="9.109387152534731"><ele>101.0</ele><time>2026-05-01T12:35:08Z</time></trkpt><trkpt lat="45.36186192458001" lon="9.109289545409341"><ele>101.0</ele><time>2026-05-01T12:35:09Z</time></trkpt><trkpt lat="45.36185061532215" lon="9.10919472506876"><ele>101.0</ele><time>2026-05-01T12:35:10Z</time></trkpt><trkpt lat="45.3618328502112" lon="9.109033009522081"><ele>100.99999999999999</ele><time>2026-05-01T12:35:12Z</time></trkpt><trkpt lat="45.36180255367357" lon="9.108867727145272"><ele>101.0</ele><time>2026-05-01T12:35:14Z</time></trkpt><trkpt lat="45.36177573772327" lon="9.108775726047131"><ele>100.85714285714286</ele><time>2026-05-01T12:35:15Z</time></trkpt><trkpt lat="45.361738247115994" lon="9.108690579584202"><ele>100.71428571428571</ele><time>2026-05-01T12:35:16Z</time></trkpt><trkpt lat="45.361711211283314" lon="9.108595257177116"><ele>100.57142857142858</ele><time>2026-05-01T12:35:17Z</time></trkpt><trkpt lat="45.36164396858539" lon="9.108538343653121"><ele>100.42857142857143</ele><time>2026-05-01T12:35:18Z</time></trkpt><trkpt lat="45.36159029916752" lon="9.108470956873285"><ele>100.28571428571429</ele><time>2026-05-01T12:35:19Z</time></trkpt><trkpt lat="45.361528752689416" lon="9.108407266685544"><ele>100.14285714285715</ele><time>2026-05-01T12:35:20Z</time></trkpt><trkpt lat="45.36146769819193" lon="9.1083423005273"><ele>100.0</ele><time>2026-05-01T12:35:21Z</time></trkpt><trkpt lat="45.36141178698769" lon="9.108277804267704"><ele>100.0</ele><time>2026-05-01T12:35:22Z</time></trkpt><trkpt lat="45.36135339169893" lon="9.108217421827895"><ele>100.0</ele><time>2026-05-01T12:35:23Z</time></trkpt><trkpt lat="45.36126278395514" lon="9.108113379758155"><ele>100.0</ele><time>2026-05-01T12:35:25Z</time></trkpt><trkpt lat="45.36118529383008" lon="9.10801901599259"><ele>100.0</ele><time>2026-05-01T12:35:27Z</time></trkpt><trkpt lat="45.36111598028978" lon="9.107933310556877"><ele>100.0</ele><time>2026-05-01T12:35:29Z</time></trkpt><trkpt lat="45.361018747603886" lon="9.107813510576008"><ele>100.00000000000001</ele><time>2026-05-01T12:35:31Z</time></trkpt><trkpt lat="45.36096080531669" lon="9.107750771835656"><ele>100.0</ele><time>2026-05-01T12:35:32Z</time></trkpt><trkpt lat="45.36090533612019" lon="9.107685619075491"><ele>100.0</ele><time>2026-05-01T12:35:33Z</time></trkpt><trkpt lat="45.360848447280986" lon="9.107606570072443"><ele>100.0</ele><time>2026-05-01T12:35:34Z</time></trkpt><trkpt lat="45.36078359871026" lon="9.107529228250193"><ele>100.00000000000001</ele><time>2026-05-01T12:35:35Z</time></trkpt><trkpt lat="45.36071551693763" lon="9.107449119509447"><ele>100.0</ele><time>2026-05-01T12:35:36Z</time></trkpt><trkpt lat="45.36066222287732" lon="9.10735199789285"><ele>100.00000000000001</ele><time>2026-05-01T12:35:37Z</time></trkpt><trkpt lat="45.360595672155696" lon="9.107278027871693"><ele>100.0</ele><time>2026-05-01T12:35:38Z</time></trkpt><trkpt lat="45.36052964070982" lon="9.10720550615732"><ele>100.0</ele><time>2026-05-01T12:35:39Z</time></trkpt><trkpt lat="45.360462605801104" lon="9.107131880459237"><ele>100.0</ele><time>2026-05-01T12:35:40Z</time></trkpt><trkpt lat="45.360396189802344" lon="9.107062976908468"><ele>100.00000000000001</ele><time>2026-05-01T12:35:41Z</time></trkpt><trkpt lat="45.36032503701892" lon="9.107033660817388"><ele>100.0</ele><time>2026-05-01T12:35:42Z</time></trkpt><trkpt lat="45.36023646041383" lon="9.106931402369176"><ele>100.2</ele><time>2026-05-01T12:35:44Z</time></trkpt><trkpt lat="45.36017023561591" lon="9.10682256487675"><ele>100.4</ele><time>2026-05-01T12:35:46Z</time></trkpt><trkpt lat="45.36012049851675" lon="9.106661603215716"><ele>100.6</ele><time>2026-05-01T12:35:48Z</time></trkpt><trkpt lat="45.36009590642582" lon="9.106560633180036"><ele>100.8</ele><time>2026-05-01T12:35:49Z</time></trkpt><trkpt lat="45.36007776000034" lon="9.106452603887714"><ele>101.0</ele><time>2026-05-01T12:35:50Z</time></trkpt><trkpt lat="45.36006234817309" lon="9.106326133801717"><ele>101.16666666666666</ele><time>2026-05-01T12:35:51Z</time></trkpt><trkpt lat="45.36005202967855" lon="9.106203481906809"><ele>101.33333333333333</ele><time>2026-05-01T12:35:52Z</time></trkpt><trkpt lat="45.36004081024382" lon="9.106074519115035"><ele>101.5</ele><time>2026-05-01T12:35:53Z</time></trkpt><trkpt lat="45.360037545605884" lon="9.105947521951618"><ele>101.66666666666666</ele><time>2026-05-01T12:35:54Z</time></trkpt><trkpt lat="45.36003341091775" lon="9.105827538245153"><ele>101.83333333333333</ele><time>2026-05-01T12:35:55Z</time></trkpt><trkpt lat="45.3600233472396" lon="9.105706105820838"><ele>102.0</ele><time>2026-05-01T12:35:56Z</time></trkpt><trkpt lat="45.36001961574491" lon="9.10557031579521"><ele>101.6</ele><time>2026-05-01T12:35:57Z</time></trkpt><trkpt lat="45.35999578884881" lon="9.105446541541157"><ele>101.19999999999999</ele><time>2026-05-01T12:35:58Z</time></trkpt><trkpt lat="45.3599433304911" lon="9.105328638660794"><ele>100.8</ele><time>2026-05-01T12:35:59Z</time></trkpt><trkpt lat="45.359918932259156" lon="9.105193297204902"><ele>100.4</ele><time>2026-05-01T12:36:00Z</time></trkpt><trkpt lat="45.35986776078476" lon="9.105085574308681"><ele>100.0</ele><time>2026-05-01T12:36:01Z</time></trkpt><trkpt lat="45.359840446042725" lon="9.104972379279516"><ele>100.00000000000001</ele><time>2026-05-01T12:36:02Z</time></trkpt><trkpt lat="45.35982077891238" lon="9.104865374549197"><ele>100.0</ele><time>2026-05-01T12:36:03Z</time></trkpt><trkpt lat="45.35982075152236" lon="9.10475051978327"><ele>100.0</ele><time>2026-05-01T12:36:04Z</time></trkpt><trkpt lat="45.359858242327284" lon="9.104629181618032"><ele>100.0</ele><time>2026-05-01T12:36:05Z</time></trkpt><trkpt lat="45.35985601761142" lon="9.104496859269009"><ele>100.00000000000001</ele><time>2026-05-01T12:36:06Z</time></trkpt><trkpt lat="45.35986345669409" lon="9.10436474961068"><ele>100.0</ele><time>2026-05-01T12:36:07Z</time></trkpt><trkpt lat="45.35985994715665" lon="9.1042147217032"><ele>100.0</ele><time>2026-05-01T12:36:08Z</time></trkpt><trkpt lat="45.359856332132" lon="9.10407470797068"><ele>100.0</ele><time>2026-05-01T12:36:09Z</time></trkpt><trkpt lat="45.35985025203979" lon="9.103949446172651"><ele>100.0</ele><time>2026-05-01T12:36:10Z</time></trkpt><trkpt lat="45.35984424629306" lon="9.103824930043736"><ele>100.0</ele><time>2026-05-01T12:36:11Z</time></trkpt><trkpt lat="45.35983506893328" lon="9.103687195921744"><ele>100.0</ele><time>2026-05-01T12:36:12Z</time></trkpt><trkpt lat="45.35984561707984" lon="9.103528936679675"><ele>100.0</ele><time>2026-05-01T12:36:13Z</time></trkpt><trkpt lat="45.35984002610932" lon="9.103364307638211"><ele>100.0</ele><time>2026-05-01T12:36:14Z</time></trkpt><trkpt lat="45.35981588022296" lon="9.103197976993368"><ele>100.0</ele><time>2026-05-01T12:36:15Z</time></trkpt><trkpt lat="45.359809317458826" lon="9.103016962268612"><ele>100.0</ele><time>2026-05-01T12:36:16Z</time></trkpt><trkpt lat="45.35977393031697" lon="9.102830889263956"><ele>100.0</ele><time>2026-05-01T12:36:17Z</time></trkpt><trkpt lat="45.359747904326575" lon="9.102626959920704"><ele>100.0</ele><time>2026-05-01T12:36:18Z</time></trkpt><trkpt lat="45.35973018699304" lon="9.102427030062232"><ele>100.0</ele><time>2026-05-01T12:36:19Z</time></trkpt><trkpt lat="45.3597264243135" lon="9.102226061133097"><ele>100.0</ele><time>2026-05-01T12:36:20Z</time></trkpt><trkpt lat="45.3597097744584" lon="9.102023370347643"><ele>99.75</ele><time>2026-05-01T12:36:21Z</time></trkpt><trkpt lat="45.35969313967686" lon="9.101821492760797"><ele>99.5</ele><time>2026-05-01T12:36:22Z</time></trkpt><trkpt lat="45.359674126614266" lon="9.101615413146325"><ele>99.25</ele><time>2026-05-01T12:36:23Z</time></trkpt><trkpt lat="45.35965623910044" lon="9.101429241085524"><ele>99.0</ele><time>2026-05-01T12:36:24Z</time></trkpt><trkpt lat="45.35963914149909" lon="9.101252912766379"><ele>99.4</ele><time>2026-05-01T12:36:25Z</time></trkpt><trkpt lat="45.35960510149884" lon="9.101097317032892"><ele>99.80000000000001</ele><time>2026-05-01T12:36:26Z</time></trkpt><trkpt lat="45.359603071845825" lon="9.100952865547063"><ele>100.19999999999999</ele><time>2026-05-01T12:36:27Z</time></trkpt><trkpt lat="45.359586999186774" lon="9.100836886864474"><ele>100.6</ele><time>2026-05-01T12:36:28Z</time></trkpt><trkpt lat="45.35957439144806" lon="9.100741514069162"><ele>101.0</ele><time>2026-05-01T12:36:29Z</time></trkpt><trkpt lat="45.359553389595064" lon="9.100582516119744"><ele>101.19999999999999</ele><time>2026-05-01T12:36:31Z</time></trkpt><trkpt lat="45.35955865014893" lon="9.100480106854148"><ele>101.39999999999999</ele><time>2026-05-01T12:36:34Z</time></trkpt><trkpt lat="45.35962695773222" lon="9.100456805295762"><ele>101.6</ele><time>2026-05-01T12:36:35Z</time></trkpt><trkpt lat="45.359762431962146" lon="9.100482478262238"><ele>101.8</ele><time>2026-05-01T12:36:37Z</time></trkpt><trkpt lat="45.35987424945989" lon="9.100496615347456"><ele>102.0</ele><time>2026-05-01T12:36:38Z</time></trkpt><trkpt lat="45.35999944783452" lon="9.100502386070184"><ele>102.0</ele><time>2026-05-01T12:36:39Z</time></trkpt><trkpt lat="45.36013724462387" lon="9.100520404311865"><ele>102.0</ele><time>2026-05-01T12:36:40Z</time></trkpt><trkpt lat="45.36028735917719" lon="9.100530490591675"><ele>102.0</ele><time>2026-05-01T12:36:41Z</time></trkpt><trkpt lat="45.36043614195115" lon="9.100544886020135"><ele>102.0</ele><time>2026-05-01T12:36:42Z</time></trkpt><trkpt lat="45.36057687293756" lon="9.100555198525791"><ele>101.75</ele><time>2026-05-01T12:36:43Z</time></trkpt><trkpt lat="45.360710852204015" lon="9.100562291604078"><ele>101.5</ele><time>2026-05-01T12:36:44Z</time></trkpt><trkpt lat="45.36084406852178" lon="9.100578907819031"><ele>101.25</ele><time>2026-05-01T12:36:45Z</time></trkpt><trkpt lat="45.36096577635877" lon="9.100589189702507"><ele>101.0</ele><time>2026-05-01T12:36:46Z</time></trkpt><trkpt lat="45.36108255427994" lon="9.100612369957902"><ele>101.0</ele><time>2026-05-01T12:36:47Z</time></trkpt><trkpt lat="45.361200007934414" lon="9.10061113636731"><ele>101.0</ele><time>2026-05-01T12:36:48Z</time></trkpt><trkpt lat="45.36133175659727" lon="9.10061886372255"><ele>101.0</ele><time>2026-05-01T12:36:49Z</time></trkpt><trkpt lat="45.36145856787514" lon="9.100632222060367"><ele>101.0</ele><time>2026-05-01T12:36:50Z</time></trkpt><trkpt lat="45.361575249114715" lon="9.100637659658437"><ele>100.83333333333333</ele><time>2026-05-01T12:36:51Z</time></trkpt><trkpt lat="45.36167225695826" lon="9.100649079214064"><ele>100.66666666666666</ele><time>2026-05-01T12:36:52Z</time></trkpt><trkpt lat="45.36174303334174" lon="9.100656405103644"><ele>100.5</ele><time>2026-05-01T12:36:53Z</time></trkpt><trkpt lat="45.36182003365272" lon="9.100663640099981"><ele>100.33333333333334</ele><time>2026-05-01T12:36:54Z</time></trkpt><trkpt lat="45.36188813895599" lon="9.100668410194329"><ele>100.16666666666667</ele><time>2026-05-01T12:36:55Z</time></trkpt><trkpt lat="45.361995017517295" lon="9.100682669038795"><ele>100.0</ele><time>2026-05-01T12:36:57Z</time></trkpt><trkpt lat="45.362083555479714" lon="9.100634975610147"><ele>100.0</ele><time>2026-05-01T12:36:59Z</time></trkpt><trkpt lat="45.36211510360122" lon="9.100535123534128"><ele>100.0</ele><time>2026-05-01T12:37:00Z</time></trkpt><trkpt lat="45.362101201401956" lon="9.10040094801126"><ele>100.0</ele><time>2026-05-01T12:37:01Z</time></trkpt><trkpt lat="45.362088350434576" lon="9.100256142215747"><ele>100.0</ele><time>2026-05-01T12:37:02Z</time></trkpt><trkpt lat="45.36206655006857" lon="9.100090303833884"><ele>100.0</ele><time>2026-05-01T12:37:03Z</time></trkpt><trkpt lat="45.36206365964167" lon="9.099925689923722"><ele>100.0</ele><time>2026-05-01T12:37:04Z</time></trkpt><trkpt lat="45.36203867423374" lon="9.099751446344515"><ele>100.0</ele><time>2026-05-01T12:37:05.001Z</time></trkpt><trkpt lat="45.36202692692415" lon="9.099573375109287"><ele>100.0</ele><time>2026-05-01T12:37:06.001Z</time></trkpt><trkpt lat="45.36203458065251" lon="9.099394466111539"><ele>100.0</ele><time>2026-05-01T12:37:07.001Z</time></trkpt><trkpt lat="45.362011960723166" lon="9.09922000181123"><ele>100.25</ele><time>2026-05-01T12:37:08.001Z</time></trkpt><trkpt lat="45.362003218611406" lon="9.099047106471048"><ele>100.5</ele><time>2026-05-01T12:37:09.001Z</time></trkpt><trkpt lat="45.36199572760026" lon="9.098869255665667"><ele>100.75</ele><time>2026-05-01T12:37:10.001Z</time></trkpt><trkpt lat="45.36200288349297" lon="9.0986968057541"><ele>101.0</ele><time>2026-05-01T12:37:11.001Z</time></trkpt><trkpt lat="45.36199481640523" lon="9.098517673840377"><ele>101.0</ele><time>2026-05-01T12:37:12.001Z</time></trkpt><trkpt lat="45.36197123939481" lon="9.098345215446036"><ele>101.0</ele><time>2026-05-01T12:37:13.001Z</time></trkpt><trkpt lat="45.36196378321267" lon="9.098166462526587"><ele>101.0</ele><time>2026-05-01T12:37:14.001Z</time></trkpt><trkpt lat="45.36196753119985" lon="9.0979847557585"><ele>101.0</ele><time>2026-05-01T12:37:15.001Z</time></trkpt><trkpt lat="45.36194120213981" lon="9.09779658811582"><ele>101.0</ele><time>2026-05-01T12:37:16.001Z</time></trkpt><trkpt lat="45.36193063785019" lon="9.097606232994321"><ele>101.0</ele><time>2026-05-01T12:37:17.001Z</time></trkpt><trkpt lat="45.361919434389364" lon="9.097417519996098"><ele>101.0</ele><time>2026-05-01T12:37:18.001Z</time></trkpt><trkpt lat="45.36190774476645" lon="9.097222472833552"><ele>101.0</ele><time>2026-05-01T12:37:19.001Z</time></trkpt><trkpt lat="45.361901849467834" lon="9.09702589622759"><ele>101.0</ele><time>2026-05-01T12:37:20.001Z</time></trkpt><trkpt lat="45.361888485300874" lon="9.09682690800001"><ele>101.0</ele><time>2026-05-01T12:37:21.001Z</time></trkpt><trkpt lat="45.361875116789136" lon="9.096632461767925"><ele>101.0</ele><time>2026-05-01T12:37:22.001Z</time></trkpt><trkpt lat="45.36186556858526" lon="9.096448019880372"><ele>101.0</ele><time>2026-05-01T12:37:23.001Z</time></trkpt><trkpt lat="45.36185398684607" lon="9.096262797061998"><ele>100.75</ele><time>2026-05-01T12:37:24.001Z</time></trkpt><trkpt lat="45.361857917831436" lon="9.096059119317847"><ele>100.5</ele><time>2026-05-01T12:37:25.001Z</time></trkpt><trkpt lat="45.36184721835717" lon="9.095856221367114"><ele>100.25</ele><time>2026-05-01T12:37:26.001Z</time></trkpt><trkpt lat="45.36183656890695" lon="9.095654271805861"><ele>100.0</ele><time>2026-05-01T12:37:27.001Z</time></trkpt><trkpt lat="45.36182618516031" lon="9.095457361082993"><ele>100.5</ele><time>2026-05-01T12:37:28Z</time></trkpt><trkpt lat="45.361815673137514" lon="9.095262113188447"><ele>101.0</ele><time>2026-05-01T12:37:29Z</time></trkpt><trkpt lat="45.36178845549337" lon="9.095065852839522"><ele>101.5</ele><time>2026-05-01T12:37:30Z</time></trkpt><trkpt lat="45.36179234525683" lon="9.09486988565954"><ele>102.0</ele><time>2026-05-01T12:37:31Z</time></trkpt><trkpt lat="45.361780070133655" lon="9.094684424524038"><ele>102.0</ele><time>2026-05-01T12:37:32Z</time></trkpt><trkpt lat="45.36175671214838" lon="9.09450452969873"><ele>102.0</ele><time>2026-05-01T12:37:33Z</time></trkpt><trkpt lat="45.36173428367259" lon="9.094330833031762"><ele>102.0</ele><time>2026-05-01T12:37:34Z</time></trkpt><trkpt lat="45.36171830903502" lon="9.094146147376195"><ele>102.0</ele><time>2026-05-01T12:37:35Z</time></trkpt><trkpt lat="45.361683570147555" lon="9.093934493250954"><ele>102.5</ele><time>2026-05-01T12:37:36Z</time></trkpt><trkpt lat="45.3616305944892" lon="9.093741122131858"><ele>103.0</ele><time>2026-05-01T12:37:37Z</time></trkpt><trkpt lat="45.36156548699138" lon="9.09357369982884"><ele>103.5</ele><time>2026-05-01T12:37:38Z</time></trkpt><trkpt lat="45.36153445676583" lon="9.093407685558882"><ele>104.0</ele><time>2026-05-01T12:37:39Z</time></trkpt><trkpt lat="45.36149353221814" lon="9.093255516338903"><ele>104.0</ele><time>2026-05-01T12:37:40Z</time></trkpt><trkpt lat="45.36145924956749" lon="9.09313136534393"><ele>104.0</ele><time>2026-05-01T12:37:41Z</time></trkpt><trkpt lat="45.361427607315484" lon="9.093026813420467"><ele>104.0</ele><time>2026-05-01T12:37:42Z</time></trkpt><trkpt lat="45.361400616260696" lon="9.092943166614077"><ele>104.0</ele><time>2026-05-01T12:37:43Z</time></trkpt><trkpt lat="45.361317625843334" lon="9.092803872432679"><ele>104.0</ele><time>2026-05-01T12:37:45Z</time></trkpt><trkpt lat="45.36122158867504" lon="9.092776649692226"><ele>103.4</ele><time>2026-05-01T12:37:46Z</time></trkpt><trkpt lat="45.361117000138236" lon="9.092815747977683"><ele>102.80000000000001</ele><time>2026-05-01T12:37:47Z</time></trkpt><trkpt lat="45.36099932223487" lon="9.092820369559721"><ele>102.19999999999999</ele><time>2026-05-01T12:37:48Z</time></trkpt><trkpt lat="45.360889598915186" lon="9.092817440410679"><ele>101.6</ele><time>2026-05-01T12:37:49Z</time></trkpt><trkpt lat="45.36078045001031" lon="9.0928030904885"><ele>101.0</ele><time>2026-05-01T12:37:50Z</time></trkpt><trkpt lat="45.36066133661568" lon="9.09281097780047"><ele>101.0</ele><time>2026-05-01T12:37:51Z</time></trkpt><trkpt lat="45.36054146063183" lon="9.09279377285385"><ele>101.0</ele><time>2026-05-01T12:37:52Z</time></trkpt><trkpt lat="45.36041618026375" lon="9.092799986161864"><ele>101.0</ele><time>2026-05-01T12:37:53Z</time></trkpt><trkpt lat="45.36028340473646" lon="9.092802651236848"><ele>101.0</ele><time>2026-05-01T12:37:54Z</time></trkpt><trkpt lat="45.360146905910106" lon="9.092845846545282"><ele>101.0</ele><time>2026-05-01T12:37:55Z</time></trkpt><trkpt lat="45.36000976498302" lon="9.092861396128248"><ele>101.0</ele><time>2026-05-01T12:37:56Z</time></trkpt><trkpt lat="45.35987318981484" lon="9.092884279899701"><ele>101.0</ele><time>2026-05-01T12:37:57Z</time></trkpt><trkpt lat="45.35972913904351" lon="9.092903807420178"><ele>101.0</ele><time>2026-05-01T12:37:58Z</time></trkpt><trkpt lat="45.35959328086243" lon="9.092923457467826"><ele>101.0</ele><time>2026-05-01T12:37:59Z</time></trkpt><trkpt lat="45.35945584065168" lon="9.092943877736225"><ele>101.0</ele><time>2026-05-01T12:38:00Z</time></trkpt><trkpt lat="45.359318752245144" lon="9.092964169126018"><ele>101.0</ele><time>2026-05-01T12:38:01Z</time></trkpt><trkpt lat="45.35918550467965" lon="9.092982615282667"><ele>101.0</ele><time>2026-05-01T12:38:02Z</time></trkpt><trkpt lat="45.359053046988556" lon="9.093001686114222"><ele>101.0</ele><time>2026-05-01T12:38:03Z</time></trkpt><trkpt lat="45.358918366809775" lon="9.09301453974504"><ele>101.0</ele><time>2026-05-01T12:38:04Z</time></trkpt><trkpt lat="45.35878051999614" lon="9.093037467280283"><ele>101.0</ele><time>2026-05-01T12:38:05Z</time></trkpt><trkpt lat="45.358647760815195" lon="9.093056764500082"><ele>101.0</ele><time>2026-05-01T12:38:06Z</time></trkpt><trkpt lat="45.35851958657623" lon="9.093075941335792"><ele>100.75</ele><time>2026-05-01T12:38:07Z</time></trkpt><trkpt lat="45.35839581248752" lon="9.093099107592932"><ele>100.5</ele><time>2026-05-01T12:38:08Z</time></trkpt><trkpt lat="45.35827626363905" lon="9.093111865729036"><ele>100.25</ele><time>2026-05-01T12:38:09Z</time></trkpt><trkpt lat="45.35816074204599" lon="9.093130899143057"><ele>100.0</ele><time>2026-05-01T12:38:10Z</time></trkpt><trkpt lat="45.358044479775046" lon="9.093151881306516"><ele>100.0</ele><time>2026-05-01T12:38:11Z</time></trkpt><trkpt lat="45.357929492127056" lon="9.093175214743301"><ele>100.0</ele><time>2026-05-01T12:38:12Z</time></trkpt><trkpt lat="45.35782632944576" lon="9.09320378906181"><ele>100.0</ele><time>2026-05-01T12:38:13Z</time></trkpt><trkpt lat="45.35774065952677" lon="9.093219022326576"><ele>100.0</ele><time>2026-05-01T12:38:14Z</time></trkpt><trkpt lat="45.35766653132076" lon="9.093202287022757"><ele>100.0</ele><time>2026-05-01T12:38:15Z</time></trkpt><trkpt lat="45.357587789346255" lon="9.09321507176087"><ele>100.0</ele><time>2026-05-01T12:38:16Z</time></trkpt><trkpt lat="45.35751094782333" lon="9.09317036651115"><ele>100.0</ele><time>2026-05-01T12:38:17Z</time></trkpt><trkpt lat="45.35738354074256" lon="9.093128363611783"><ele>100.0</ele><time>2026-05-01T12:38:19Z</time></trkpt><trkpt lat="45.35726347364885" lon="9.093121685433943"><ele>100.0</ele><time>2026-05-01T12:38:21Z</time></trkpt><trkpt lat="45.357197501425205" lon="9.093057013797992"><ele>100.0</ele><time>2026-05-01T12:38:22Z</time></trkpt><trkpt lat="45.35710769258907" lon="9.093029221590795"><ele>100.4</ele><time>2026-05-01T12:38:23Z</time></trkpt><trkpt lat="45.35701885935986" lon="9.093004155075317"><ele>100.8</ele><time>2026-05-01T12:38:24Z</time></trkpt><trkpt lat="45.35694796217024" lon="9.092985590569256"><ele>101.19999999999999</ele><time>2026-05-01T12:38:25Z</time></trkpt><trkpt lat="45.35684575279301" lon="9.092954823062898"><ele>101.6</ele><time>2026-05-01T12:38:27Z</time></trkpt><trkpt lat="45.35682807946518" lon="9.092781183397207"><ele>102.0</ele><time>2026-05-01T12:38:29Z</time></trkpt><trkpt lat="45.356877134376255" lon="9.09266121165546"><ele>102.0</ele><time>2026-05-01T12:38:30Z</time></trkpt><trkpt lat="45.356901780906455" lon="9.092520589851027"><ele>102.0</ele><time>2026-05-01T12:38:31Z</time></trkpt><trkpt lat="45.35693947568281" lon="9.092362879153011"><ele>102.0</ele><time>2026-05-01T12:38:32Z</time></trkpt><trkpt lat="45.35696704354781" lon="9.09221931125232"><ele>102.0</ele><time>2026-05-01T12:38:33Z</time></trkpt><trkpt lat="45.357012224156136" lon="9.092080273101267"><ele>102.0</ele><time>2026-05-01T12:38:34Z</time></trkpt><trkpt lat="45.35708409817366" lon="9.09194226873243"><ele>101.75</ele><time>2026-05-01T12:38:35Z</time></trkpt><trkpt lat="45.3571890488604" lon="9.091829724031872"><ele>101.5</ele><time>2026-05-01T12:38:36Z</time></trkpt><trkpt lat="45.35727632970181" lon="9.091686021036283"><ele>101.25</ele><time>2026-05-01T12:38:37Z</time></trkpt><trkpt lat="45.357378091997084" lon="9.091546758571113"><ele>101.0</ele><time>2026-05-01T12:38:38Z</time></trkpt><trkpt lat="45.357489890558284" lon="9.09142794918751"><ele>101.0</ele><time>2026-05-01T12:38:39Z</time></trkpt><trkpt lat="45.3575844787399" lon="9.091266939128253"><ele>101.0</ele><time>2026-05-01T12:38:40Z</time></trkpt><trkpt lat="45.35769637456517" lon="9.091110361340494"><ele>101.0</ele><time>2026-05-01T12:38:41Z</time></trkpt><trkpt lat="45.35780956092899" lon="9.09094440004239"><ele>100.66666666666666</ele><time>2026-05-01T12:38:42Z</time></trkpt><trkpt lat="45.35791352255382" lon="9.090757174926168"><ele>100.33333333333334</ele><time>2026-05-01T12:38:43Z</time></trkpt><trkpt lat="45.35801701310813" lon="9.090566785399297"><ele>100.0</ele><time>2026-05-01T12:38:44Z</time></trkpt><trkpt lat="45.3581216223882" lon="9.090367180155786"><ele>100.0</ele><time>2026-05-01T12:38:45Z</time></trkpt><trkpt lat="45.35821905015818" lon="9.09016187116533"><ele>100.0</ele><time>2026-05-01T12:38:46Z</time></trkpt><trkpt lat="45.35831381398226" lon="9.089944351359794"><ele>100.0</ele><time>2026-05-01T12:38:47Z</time></trkpt><trkpt lat="45.35840669080401" lon="9.08974741357911"><ele>100.33333333333334</ele><time>2026-05-01T12:38:48Z</time></trkpt><trkpt lat="45.35849597992741" lon="9.0895532702969"><ele>100.66666666666666</ele><time>2026-05-01T12:38:49Z</time></trkpt><trkpt lat="45.35857690152378" lon="9.089352960495813"><ele>101.0</ele><time>2026-05-01T12:38:50Z</time></trkpt><trkpt lat="45.35864933508323" lon="9.089145673559406"><ele>101.0</ele><time>2026-05-01T12:38:51Z</time></trkpt><trkpt lat="45.358715606352554" lon="9.088936994665216"><ele>101.0</ele><time>2026-05-01T12:38:52Z</time></trkpt><trkpt lat="45.35878462908296" lon="9.08872155553646"><ele>101.0</ele><time>2026-05-01T12:38:53Z</time></trkpt><trkpt lat="45.358852736712265" lon="9.08851555504415"><ele>101.33333333333333</ele><time>2026-05-01T12:38:54Z</time></trkpt><trkpt lat="45.3589396896832" lon="9.088319781307442"><ele>101.66666666666666</ele><time>2026-05-01T12:38:55Z</time></trkpt><trkpt lat="45.35901321179756" lon="9.088112550689603"><ele>102.0</ele><time>2026-05-01T12:38:56Z</time></trkpt><trkpt lat="45.359080476783" lon="9.087922221128999"><ele>101.5</ele><time>2026-05-01T12:38:57Z</time></trkpt><trkpt lat="45.35913908722281" lon="9.087748305088738"><ele>101.0</ele><time>2026-05-01T12:38:58Z</time></trkpt><trkpt lat="45.3591909118404" lon="9.087589553504051"><ele>100.5</ele><time>2026-05-01T12:38:59Z</time></trkpt><trkpt lat="45.359237020999174" lon="9.087448309754809"><ele>100.0</ele><time>2026-05-01T12:39:00Z</time></trkpt><trkpt lat="45.35927396728763" lon="9.087342674751685"><ele>100.0</ele><time>2026-05-01T12:39:01Z</time></trkpt><trkpt lat="45.35930231536685" lon="9.087244322946166"><ele>100.0</ele><time>2026-05-01T12:39:02Z</time></trkpt><trkpt lat="45.359378991848175" lon="9.087163473776574"><ele>100.0</ele><time>2026-05-01T12:39:03Z</time></trkpt><trkpt lat="45.35947952991447" lon="9.08711074561599"><ele>100.0</ele><time>2026-05-01T12:39:04Z</time></trkpt><trkpt lat="45.3595977252117" lon="9.087138792540141"><ele>100.0</ele><time>2026-05-01T12:39:05Z</time></trkpt><trkpt lat="45.359721936199044" lon="9.087145841524098"><ele>100.25</ele><time>2026-05-01T12:39:06Z</time></trkpt><trkpt lat="45.35984575759174" lon="9.0871316405162"><ele>100.5</ele><time>2026-05-01T12:39:07Z</time></trkpt><trkpt lat="45.35998176053105" lon="9.087143017526504"><ele>100.75</ele><time>2026-05-01T12:39:08Z</time></trkpt><trkpt lat="45.360129011639955" lon="9.087138776586219"><ele>101.0</ele><time>2026-05-01T12:39:09Z</time></trkpt><trkpt lat="45.3602796664852" lon="9.087138435223283"><ele>101.0</ele><time>2026-05-01T12:39:10.001Z</time></trkpt><trkpt lat="45.36042947433369" lon="9.08713129510092"><ele>101.0</ele><time>2026-05-01T12:39:11.001Z</time></trkpt><trkpt lat="45.36057257162572" lon="9.087143735032841"><ele>101.0</ele><time>2026-05-01T12:39:12.001Z</time></trkpt><trkpt lat="45.36071764198492" lon="9.087112406913493"><ele>101.0</ele><time>2026-05-01T12:39:13.001Z</time></trkpt><trkpt lat="45.36085502446664" lon="9.087026184785019"><ele>101.0</ele><time>2026-05-01T12:39:14.001Z</time></trkpt><trkpt lat="45.36100461035518" lon="9.086959831976309"><ele>101.0</ele><time>2026-05-01T12:39:15.001Z</time></trkpt><trkpt lat="45.36116259404465" lon="9.08695509155581"><ele>101.0</ele><time>2026-05-01T12:39:16.001Z</time></trkpt><trkpt lat="45.361330631223915" lon="9.086931370390193"><ele>101.25</ele><time>2026-05-01T12:39:17.001Z</time></trkpt><trkpt lat="45.3614877488912" lon="9.08689380008548"><ele>101.5</ele><time>2026-05-01T12:39:18.001Z</time></trkpt><trkpt lat="45.361631345366085" lon="9.0868978032393"><ele>101.75</ele><time>2026-05-01T12:39:19.001Z</time></trkpt><trkpt lat="45.361740672996596" lon="9.086892329317012"><ele>102.0</ele><time>2026-05-01T12:39:20.001Z</time></trkpt><trkpt lat="45.361828693188535" lon="9.08687055997822"><ele>102.0</ele><time>2026-05-01T12:39:21.001Z</time></trkpt><trkpt lat="45.36189815184906" lon="9.08686815451172"><ele>102.0</ele><time>2026-05-01T12:39:22.001Z</time></trkpt><trkpt lat="45.3620147431817" lon="9.086782044832656"><ele>102.0</ele><time>2026-05-01T12:39:24.001Z</time></trkpt><trkpt lat="45.36201556857943" lon="9.08663877982792"><ele>102.0</ele><time>2026-05-01T12:39:25.001Z</time></trkpt><trkpt lat="45.36204123989877" lon="9.086488513917626"><ele>102.0</ele><time>2026-05-01T12:39:26.001Z</time></trkpt><trkpt lat="45.362060416925246" lon="9.086313632866046"><ele>102.0</ele><time>2026-05-01T12:39:27.001Z</time></trkpt><trkpt lat="45.36207588599484" lon="9.086136800568783"><ele>102.0</ele><time>2026-05-01T12:39:28.001Z</time></trkpt><trkpt lat="45.362089476586426" lon="9.085949348988446"><ele>102.0</ele><time>2026-05-01T12:39:29.001Z</time></trkpt><trkpt lat="45.36210347531653" lon="9.08575626806071"><ele>102.0</ele><time>2026-05-01T12:39:30.001Z</time></trkpt><trkpt lat="45.3621107722468" lon="9.08557451418597"><ele>102.0</ele><time>2026-05-01T12:39:31.001Z</time></trkpt><trkpt lat="45.362104159064934" lon="9.085407667657998"><ele>102.0</ele><time>2026-05-01T12:39:32.001Z</time></trkpt><trkpt lat="45.36209020035525" lon="9.085249275050117"><ele>102.0</ele><time>2026-05-01T12:39:33.001Z</time></trkpt><trkpt lat="45.362077392612875" lon="9.085107109269487"><ele>102.0</ele><time>2026-05-01T12:39:34.001Z</time></trkpt><trkpt lat="45.36212401620224" lon="9.084963387333316"><ele>102.0</ele><time>2026-05-01T12:39:35.001Z</time></trkpt><trkpt lat="45.36217519351763" lon="9.084832574586892"><ele>101.8</ele><time>2026-05-01T12:39:36.001Z</time></trkpt><trkpt lat="45.362217522708924" lon="9.084714043290806"><ele>101.6</ele><time>2026-05-01T12:39:37.001Z</time></trkpt><trkpt lat="45.36225788139011" lon="9.084619971783592"><ele>101.39999999999999</ele><time>2026-05-01T12:39:38.001Z</time></trkpt><trkpt lat="45.36230291679595" lon="9.084527887208885"><ele>101.19999999999999</ele><time>2026-05-01T12:39:39.001Z</time></trkpt><trkpt lat="45.36239914355802" lon="9.084494496481533"><ele>101.0</ele><time>2026-05-01T12:39:40Z</time></trkpt><trkpt lat="45.362515913643065" lon="9.084514407117961"><ele>101.0</ele><time>2026-05-01T12:39:41Z</time></trkpt><trkpt lat="45.36264921103875" lon="9.084489850670009"><ele>101.0</ele><time>2026-05-01T12:39:42Z</time></trkpt><trkpt lat="45.36279081376343" lon="9.084495096439476"><ele>101.0</ele><time>2026-05-01T12:39:43Z</time></trkpt><trkpt lat="45.3629231250559" lon="9.084530050012495"><ele>101.0</ele><time>2026-05-01T12:39:44Z</time></trkpt><trkpt lat="45.3630358839069" lon="9.084566874886319"><ele>101.0</ele><time>2026-05-01T12:39:45Z</time></trkpt><trkpt lat="45.36313371416599" lon="9.084598548486412"><ele>101.0</ele><time>2026-05-01T12:39:46Z</time></trkpt><trkpt lat="45.363221325783634" lon="9.08462361436874"><ele>101.0</ele><time>2026-05-01T12:39:47Z</time></trkpt><trkpt lat="45.3633143370086" lon="9.084636613376272"><ele>101.0</ele><time>2026-05-01T12:39:48Z</time></trkpt><trkpt lat="45.36341653073336" lon="9.084604074069452"><ele>101.0</ele><time>2026-05-01T12:39:49Z</time></trkpt><trkpt lat="45.363522899405886" lon="9.084530129213565"><ele>101.0</ele><time>2026-05-01T12:39:50Z</time></trkpt><trkpt lat="45.363633134908056" lon="9.084445875437908"><ele>101.0</ele><time>2026-05-01T12:39:51Z</time></trkpt><trkpt lat="45.36372894392348" lon="9.08438111599247"><ele>101.0</ele><time>2026-05-01T12:39:52Z</time></trkpt><trkpt lat="45.36381424469878" lon="9.084333727629682"><ele>101.0</ele><time>2026-05-01T12:39:53Z</time></trkpt><trkpt lat="45.36387878179073" lon="9.08429146620753"><ele>101.0</ele><time>2026-05-01T12:39:54Z</time></trkpt><trkpt lat="45.36397261480687" lon="9.084228914304614"><ele>101.19999999999999</ele><time>2026-05-01T12:39:56Z</time></trkpt><trkpt lat="45.36403607138293" lon="9.084222935245688"><ele>101.39999999999999</ele><time>2026-05-01T12:39:57Z</time></trkpt><trkpt lat="45.36412585789487" lon="9.084229942647998"><ele>101.6</ele><time>2026-05-01T12:39:58Z</time></trkpt><trkpt lat="45.36421832867066" lon="9.084292155524496"><ele>101.8</ele><time>2026-05-01T12:39:59Z</time></trkpt><trkpt lat="45.36432067314184" lon="9.084301310380823"><ele>102.0</ele><time>2026-05-01T12:40:00Z</time></trkpt><trkpt lat="45.36442024601751" lon="9.084334637440575"><ele>102.0</ele><time>2026-05-01T12:40:01Z</time></trkpt><trkpt lat="45.36452094140678" lon="9.084370706403998"><ele>102.0</ele><time>2026-05-01T12:40:02Z</time></trkpt><trkpt lat="45.364623862904175" lon="9.08438463790412"><ele>102.0</ele><time>2026-05-01T12:40:03Z</time></trkpt><trkpt lat="45.364721371778906" lon="9.084373355073144"><ele>102.0</ele><time>2026-05-01T12:40:04Z</time></trkpt><trkpt lat="45.36481189282102" lon="9.084396544796132"><ele>102.0</ele><time>2026-05-01T12:40:05Z</time></trkpt><trkpt lat="45.36491116093717" lon="9.08441367180161"><ele>102.0</ele><time>2026-05-01T12:40:06Z</time></trkpt><trkpt lat="45.365019554498105" lon="9.084418240428114"><ele>102.0</ele><time>2026-05-01T12:40:07Z</time></trkpt><trkpt lat="45.36512660811327" lon="9.084416860977294"><ele>102.0</ele><time>2026-05-01T12:40:08Z</time></trkpt><trkpt lat="45.365231237305004" lon="9.084399652124205"><ele>102.0</ele><time>2026-05-01T12:40:09Z</time></trkpt><trkpt lat="45.36533487119521" lon="9.084390795786994"><ele>102.0</ele><time>2026-05-01T12:40:10Z</time></trkpt><trkpt lat="45.365440890210465" lon="9.08438366930624"><ele>101.8</ele><time>2026-05-01T12:40:11Z</time></trkpt><trkpt lat="45.36554708851768" lon="9.084374938928153"><ele>101.6</ele><time>2026-05-01T12:40:12Z</time></trkpt><trkpt lat="45.365646933302905" lon="9.084377663257628"><ele>101.39999999999999</ele><time>2026-05-01T12:40:13Z</time></trkpt><trkpt lat="45.36575013805054" lon="9.084374175772085"><ele>101.19999999999999</ele><time>2026-05-01T12:40:14Z</time></trkpt><trkpt lat="45.36584482057926" lon="9.084385633012797"><ele>101.0</ele><time>2026-05-01T12:40:15Z</time></trkpt><trkpt lat="45.365945847827184" lon="9.084411905737898"><ele>101.0</ele><time>2026-05-01T12:40:16Z</time></trkpt><trkpt lat="45.36604184648424" lon="9.08444443108073"><ele>101.0</ele><time>2026-05-01T12:40:17Z</time></trkpt><trkpt lat="45.366147507066174" lon="9.084478791669"><ele>101.0</ele><time>2026-05-01T12:40:18Z</time></trkpt><trkpt lat="45.36625071094623" lon="9.084507406599094"><ele>101.0</ele><time>2026-05-01T12:40:19Z</time></trkpt><trkpt lat="45.36635148930926" lon="9.084518321121434"><ele>101.0</ele><time>2026-05-01T12:40:20Z</time></trkpt><trkpt lat="45.36644601833944" lon="9.084517215453356"><ele>101.19999999999999</ele><time>2026-05-01T12:40:21Z</time></trkpt><trkpt lat="45.366540131271854" lon="9.0845271764533"><ele>101.39999999999999</ele><time>2026-05-01T12:40:22Z</time></trkpt><trkpt lat="45.36663478158753" lon="9.084519988112213"><ele>101.6</ele><time>2026-05-01T12:40:23Z</time></trkpt><trkpt lat="45.36674890989157" lon="9.084516472325452"><ele>101.8</ele><time>2026-05-01T12:40:24Z</time></trkpt><trkpt lat="45.36686125589719" lon="9.084495952844836"><ele>102.0</ele><time>2026-05-01T12:40:25Z</time></trkpt><trkpt lat="45.36697694641819" lon="9.084488302002596"><ele>102.0</ele><time>2026-05-01T12:40:26Z</time></trkpt><trkpt lat="45.36708840146285" lon="9.084456438902919"><ele>102.0</ele><time>2026-05-01T12:40:27Z</time></trkpt><trkpt lat="45.367192490618166" lon="9.084423795470714"><ele>102.0</ele><time>2026-05-01T12:40:28Z</time></trkpt><trkpt lat="45.3672964326721" lon="9.084391121317674"><ele>102.0</ele><time>2026-05-01T12:40:29Z</time></trkpt><trkpt lat="45.3674012326574" lon="9.084355775284326"><ele>102.0</ele><time>2026-05-01T12:40:30Z</time></trkpt><trkpt lat="45.36750212186387" lon="9.084347359387785"><ele>101.8</ele><time>2026-05-01T12:40:31Z</time></trkpt><trkpt lat="45.36761432284346" lon="9.084334079970999"><ele>101.6</ele><time>2026-05-01T12:40:32Z</time></trkpt><trkpt lat="45.36772207138468" lon="9.084321531798144"><ele>101.39999999999999</ele><time>2026-05-01T12:40:33Z</time></trkpt><trkpt lat="45.36782464979676" lon="9.084301690627361"><ele>101.19999999999999</ele><time>2026-05-01T12:40:34Z</time></trkpt><trkpt lat="45.36792566995023" lon="9.084285031581356"><ele>101.0</ele><time>2026-05-01T12:40:35Z</time></trkpt><trkpt lat="45.368032173673065" lon="9.084264585090041"><ele>101.4</ele><time>2026-05-01T12:40:36Z</time></trkpt><trkpt lat="45.36814076706598" lon="9.084244345703864"><ele>101.8</ele><time>2026-05-01T12:40:37Z</time></trkpt><trkpt lat="45.36823110409208" lon="9.084235042640039"><ele>102.2</ele><time>2026-05-01T12:40:38Z</time></trkpt><trkpt lat="45.368320464047066" lon="9.084219940544076"><ele>102.60000000000001</ele><time>2026-05-01T12:40:39Z</time></trkpt><trkpt lat="45.36842246711405" lon="9.084204668526628"><ele>103.0</ele><time>2026-05-01T12:40:40Z</time></trkpt><trkpt lat="45.36853109214028" lon="9.084192634508856"><ele>103.0</ele><time>2026-05-01T12:40:41Z</time></trkpt><trkpt lat="45.368645386851334" lon="9.084188049646485"><ele>103.0</ele><time>2026-05-01T12:40:42Z</time></trkpt><trkpt lat="45.36873963492461" lon="9.08418223971368"><ele>103.0</ele><time>2026-05-01T12:40:43Z</time></trkpt><trkpt lat="45.36883472436883" lon="9.084165434241601"><ele>103.0</ele><time>2026-05-01T12:40:44Z</time></trkpt><trkpt lat="45.36893024122774" lon="9.084143728843724"><ele>103.0</ele><time>2026-05-01T12:40:45Z</time></trkpt><trkpt lat="45.369016114580724" lon="9.084125451019451"><ele>102.83333333333334</ele><time>2026-05-01T12:40:46Z</time></trkpt><trkpt lat="45.369087875660185" lon="9.084108789904734"><ele>102.66666666666667</ele><time>2026-05-01T12:40:47Z</time></trkpt><trkpt lat="45.36915834703675" lon="9.084107876113666"><ele>102.5</ele><time>2026-05-01T12:40:48Z</time></trkpt><trkpt lat="45.369229423980364" lon="9.084142514167805"><ele>102.33333333333334</ele><time>2026-05-01T12:40:49Z</time></trkpt><trkpt lat="45.369291214573764" lon="9.084231507249857"><ele>102.16666666666667</ele><time>2026-05-01T12:40:50Z</time></trkpt><trkpt lat="45.36932498672771" lon="9.084365835208613"><ele>102.0</ele><time>2026-05-01T12:40:51Z</time></trkpt><trkpt lat="45.369377330324006" lon="9.084466206137236"><ele>102.0</ele><time>2026-05-01T12:40:52Z</time></trkpt><trkpt lat="45.369417686299386" lon="9.08455283343891"><ele>102.0</ele><time>2026-05-01T12:40:53Z</time></trkpt><trkpt lat="45.36946122101495" lon="9.084643510904366"><ele>102.0</ele><time>2026-05-01T12:40:54Z</time></trkpt><trkpt lat="45.36950223851915" lon="9.084715697586024"><ele>102.0</ele><time>2026-05-01T12:40:55Z</time></trkpt><trkpt lat="45.36956077747045" lon="9.084752038935358"><ele>102.0</ele><time>2026-05-01T12:40:56Z</time></trkpt><trkpt lat="45.36965419099563" lon="9.084767674488694"><ele>102.0</ele><time>2026-05-01T12:40:57Z</time></trkpt><trkpt lat="45.36975648114182" lon="9.08478055319187"><ele>101.8</ele><time>2026-05-01T12:40:58Z</time></trkpt><trkpt lat="45.36985652399251" lon="9.084805344583769"><ele>101.6</ele><time>2026-05-01T12:40:59Z</time></trkpt><trkpt lat="45.369949288729636" lon="9.084828270651876"><ele>101.39999999999999</ele><time>2026-05-01T12:41:00Z</time></trkpt><trkpt lat="45.37003688671683" lon="9.08485259173275"><ele>101.19999999999999</ele><time>2026-05-01T12:41:01Z</time></trkpt><trkpt lat="45.37013554041305" lon="9.084875482523312"><ele>101.0</ele><time>2026-05-01T12:41:02Z</time></trkpt><trkpt lat="45.370235254846214" lon="9.084900340985223"><ele>101.0</ele><time>2026-05-01T12:41:03Z</time></trkpt><trkpt lat="45.37033189861503" lon="9.084922352528299"><ele>101.0</ele><time>2026-05-01T12:41:04Z</time></trkpt><trkpt lat="45.37043225086576" lon="9.084941487971529"><ele>101.0</ele><time>2026-05-01T12:41:05Z</time></trkpt><trkpt lat="45.37053573200535" lon="9.084965952380358"><ele>101.0</ele><time>2026-05-01T12:41:06Z</time></trkpt><trkpt lat="45.37062778625776" lon="9.08499175943105"><ele>101.0</ele><time>2026-05-01T12:41:07Z</time></trkpt><trkpt lat="45.37072348399421" lon="9.085008704692147"><ele>101.19999999999999</ele><time>2026-05-01T12:41:08Z</time></trkpt><trkpt lat="45.37082524776153" lon="9.08502967139504"><ele>101.39999999999999</ele><time>2026-05-01T12:41:09Z</time></trkpt><trkpt lat="45.37091751017724" lon="9.08505547869778"><ele>101.6</ele><time>2026-05-01T12:41:10Z</time></trkpt><trkpt lat="45.37101047211398" lon="9.08507428549804"><ele>101.8</ele><time>2026-05-01T12:41:11Z</time></trkpt><trkpt lat="45.37110941842046" lon="9.085091252007674"><ele>102.0</ele><time>2026-05-01T12:41:12Z</time></trkpt><trkpt lat="45.371211511002855" lon="9.085112573862212"><ele>102.0</ele><time>2026-05-01T12:41:13Z</time></trkpt><trkpt lat="45.37131224056565" lon="9.085135957176963"><ele>102.0</ele><time>2026-05-01T12:41:14Z</time></trkpt><trkpt lat="45.37142389474877" lon="9.085161949604627"><ele>102.0</ele><time>2026-05-01T12:41:15Z</time></trkpt><trkpt lat="45.371536415202854" lon="9.085187664481907"><ele>102.0</ele><time>2026-05-01T12:41:16.001Z</time></trkpt><trkpt lat="45.371650466368685" lon="9.085205688418087"><ele>102.0</ele><time>2026-05-01T12:41:17.001Z</time></trkpt><trkpt lat="45.3717591539414" lon="9.08522712707619"><ele>102.0</ele><time>2026-05-01T12:41:18.001Z</time></trkpt><trkpt lat="45.371857056915545" lon="9.085240323930199"><ele>102.0</ele><time>2026-05-01T12:41:19.001Z</time></trkpt><trkpt lat="45.37195030572132" lon="9.08525866598885"><ele>102.0</ele><time>2026-05-01T12:41:20.001Z</time></trkpt><trkpt lat="45.37204326523594" lon="9.085278351234647"><ele>102.0</ele><time>2026-05-01T12:41:21.001Z</time></trkpt><trkpt lat="45.372124182676025" lon="9.085280299573027"><ele>102.0</ele><time>2026-05-01T12:41:22.001Z</time></trkpt><trkpt lat="45.372209648522194" lon="9.085291750808386"><ele>102.0</ele><time>2026-05-01T12:41:23.001Z</time></trkpt><trkpt lat="45.372281263414465" lon="9.085291709290695"><ele>102.0</ele><time>2026-05-01T12:41:24.001Z</time></trkpt><trkpt lat="45.372344375925024" lon="9.08530144456719"><ele>102.0</ele><time>2026-05-01T12:41:25.001Z</time></trkpt><trkpt lat="45.372441279942514" lon="9.085358841898781"><ele>102.0</ele><time>2026-05-01T12:41:27.001Z</time></trkpt><trkpt lat="45.372487043793555" lon="9.085509256600886"><ele>102.0</ele><time>2026-05-01T12:41:29.001Z</time></trkpt><trkpt lat="45.37249811172333" lon="9.085614337921486"><ele>102.0</ele><time>2026-05-01T12:41:30.001Z</time></trkpt><trkpt lat="45.37251329464948" lon="9.085746520520145"><ele>102.0</ele><time>2026-05-01T12:41:31.001Z</time></trkpt><trkpt lat="45.37252951668362" lon="9.085851724792196"><ele>102.0</ele><time>2026-05-01T12:41:32.001Z</time></trkpt><trkpt lat="45.37254736741424" lon="9.085942511106886"><ele>102.0</ele><time>2026-05-01T12:41:33.001Z</time></trkpt><trkpt lat="45.37256690763189" lon="9.08602794729595"><ele>102.0</ele><time>2026-05-01T12:41:34.001Z</time></trkpt><trkpt lat="45.37264972458878" lon="9.086152392695698"><ele>102.0</ele><time>2026-05-01T12:41:36.001Z</time></trkpt><trkpt lat="45.37273169102434" lon="9.086135725259725"><ele>102.0</ele><time>2026-05-01T12:41:37.001Z</time></trkpt><trkpt lat="45.372816465630805" lon="9.08610457497053"><ele>102.0</ele><time>2026-05-01T12:41:38.001Z</time></trkpt><trkpt lat="45.37290434332999" lon="9.086052161729846"><ele>102.0</ele><time>2026-05-01T12:41:39.001Z</time></trkpt><trkpt lat="45.372998462492255" lon="9.086008607846837"><ele>102.0</ele><time>2026-05-01T12:41:40Z</time></trkpt><trkpt lat="45.37307517175256" lon="9.085977884859757"><ele>102.0</ele><time>2026-05-01T12:41:41Z</time></trkpt><trkpt lat="45.373138866123924" lon="9.085949662031513"><ele>102.0</ele><time>2026-05-01T12:41:42Z</time></trkpt><trkpt lat="45.373244089936264" lon="9.085894436941926"><ele>102.19999999999999</ele><time>2026-05-01T12:41:44Z</time></trkpt><trkpt lat="45.373334777485574" lon="9.085850135110949"><ele>102.4</ele><time>2026-05-01T12:41:46Z</time></trkpt><trkpt lat="45.373415527499155" lon="9.08582684241716"><ele>102.6</ele><time>2026-05-01T12:41:48Z</time></trkpt><trkpt lat="45.37348182175109" lon="9.085797153306748"><ele>102.80000000000001</ele><time>2026-05-01T12:41:50Z</time></trkpt><trkpt lat="45.373575032678005" lon="9.085755409873308"><ele>103.0</ele><time>2026-05-01T12:41:52Z</time></trkpt><trkpt lat="45.373691639433005" lon="9.085703689728888"><ele>103.33333333333334</ele><time>2026-05-01T12:41:54Z</time></trkpt><trkpt lat="45.37375407170909" lon="9.085653553115616"><ele>103.66666666666667</ele><time>2026-05-01T12:41:55Z</time></trkpt><trkpt lat="45.37382765103071" lon="9.08563318984748"><ele>104.0</ele><time>2026-05-01T12:41:56Z</time></trkpt><trkpt lat="45.373891274156165" lon="9.085598655505509"><ele>104.33333333333334</ele><time>2026-05-01T12:41:57Z</time></trkpt><trkpt lat="45.37397303507362" lon="9.08556369327745"><ele>104.66666666666667</ele><time>2026-05-01T12:41:58Z</time></trkpt><trkpt lat="45.37406324301793" lon="9.085530851612095"><ele>105.0</ele><time>2026-05-01T12:41:59Z</time></trkpt><trkpt lat="45.37416208596108" lon="9.085488978069641"><ele>105.0</ele><time>2026-05-01T12:42:00Z</time></trkpt><trkpt lat="45.37425883900542" lon="9.085450640151867"><ele>105.0</ele><time>2026-05-01T12:42:01Z</time></trkpt><trkpt lat="45.3743595828935" lon="9.085412241250104"><ele>105.0</ele><time>2026-05-01T12:42:02Z</time></trkpt><trkpt lat="45.37446304507871" lon="9.085369807360985"><ele>105.0</ele><time>2026-05-01T12:42:03Z</time></trkpt><trkpt lat="45.37456798559631" lon="9.085335116949988"><ele>105.0</ele><time>2026-05-01T12:42:04Z</time></trkpt><trkpt lat="45.37467329706486" lon="9.085304601946234"><ele>104.6</ele><time>2026-05-01T12:42:05Z</time></trkpt><trkpt lat="45.37477635712431" lon="9.08527235392894"><ele>104.2</ele><time>2026-05-01T12:42:06Z</time></trkpt><trkpt lat="45.37487600897632" lon="9.085239894661521"><ele>103.80000000000001</ele><time>2026-05-01T12:42:07Z</time></trkpt><trkpt lat="45.3749813102619" lon="9.085203598701433"><ele>103.4</ele><time>2026-05-01T12:42:08Z</time></trkpt><trkpt lat="45.37509099138316" lon="9.085167158360354"><ele>103.0</ele><time>2026-05-01T12:42:09Z</time></trkpt><trkpt lat="45.37519753022043" lon="9.085129655555045"><ele>103.0</ele><time>2026-05-01T12:42:10Z</time></trkpt><trkpt lat="45.37530192689955" lon="9.085091132129774"><ele>103.0</ele><time>2026-05-01T12:42:11Z</time></trkpt><trkpt lat="45.37541195694933" lon="9.085050057727402"><ele>103.0</ele><time>2026-05-01T12:42:12Z</time></trkpt><trkpt lat="45.375527729025556" lon="9.085012168030762"><ele>103.0</ele><time>2026-05-01T12:42:13Z</time></trkpt><trkpt lat="45.37563740758802" lon="9.084980364071875"><ele>103.0</ele><time>2026-05-01T12:42:14Z</time></trkpt><trkpt lat="45.375746437036945" lon="9.084943584201751"><ele>103.0</ele><time>2026-05-01T12:42:15Z</time></trkpt><trkpt lat="45.375868378210846" lon="9.084898851616312"><ele>103.0</ele><time>2026-05-01T12:42:16Z</time></trkpt><trkpt lat="45.37599632361944" lon="9.084854064245262"><ele>103.0</ele><time>2026-05-01T12:42:17Z</time></trkpt><trkpt lat="45.37613094295895" lon="9.084802998322845"><ele>103.0</ele><time>2026-05-01T12:42:18Z</time></trkpt><trkpt lat="45.376270858392246" lon="9.084753671822707"><ele>103.0</ele><time>2026-05-01T12:42:19Z</time></trkpt><trkpt lat="45.37641694068256" lon="9.084700330147253"><ele>103.0</ele><time>2026-05-01T12:42:20Z</time></trkpt><trkpt lat="45.37656259396976" lon="9.084647736606417"><ele>103.0</ele><time>2026-05-01T12:42:21Z</time></trkpt><trkpt lat="45.376707273621356" lon="9.084595608355404"><ele>103.0</ele><time>2026-05-01T12:42:22Z</time></trkpt><trkpt lat="45.376854510825666" lon="9.084540905257132"><ele>103.0</ele><time>2026-05-01T12:42:23Z</time></trkpt><trkpt lat="45.37699440077426" lon="9.084488713584742"><ele>103.0</ele><time>2026-05-01T12:42:24Z</time></trkpt><trkpt lat="45.37712875606036" lon="9.084437093965644"><ele>103.0</ele><time>2026-05-01T12:42:25Z</time></trkpt><trkpt lat="45.37726311833555" lon="9.08438985324336"><ele>103.0</ele><time>2026-05-01T12:42:26Z</time></trkpt><trkpt lat="45.37739937307591" lon="9.084343714629675"><ele>103.0</ele><time>2026-05-01T12:42:27Z</time></trkpt><trkpt lat="45.37753640428473" lon="9.084292107161163"><ele>103.0</ele><time>2026-05-01T12:42:28Z</time></trkpt><trkpt lat="45.37766375497936" lon="9.084245438226475"><ele>103.0</ele><time>2026-05-01T12:42:29Z</time></trkpt><trkpt lat="45.3777771156291" lon="9.084206980945563"><ele>103.0</ele><time>2026-05-01T12:42:30Z</time></trkpt><trkpt lat="45.37788651604175" lon="9.084174020619317"><ele>103.0</ele><time>2026-05-01T12:42:31Z</time></trkpt><trkpt lat="45.37798568414883" lon="9.08414005117877"><ele>103.0</ele><time>2026-05-01T12:42:32Z</time></trkpt><trkpt lat="45.37807518525705" lon="9.084125158677228"><ele>103.0</ele><time>2026-05-01T12:42:33Z</time></trkpt><trkpt lat="45.3781341697813" lon="9.084087809372384"><ele>103.0</ele><time>2026-05-01T12:42:34Z</time></trkpt><trkpt lat="45.37823084975774" lon="9.084048542069041"><ele>103.2</ele><time>2026-05-01T12:42:36Z</time></trkpt><trkpt lat="45.37830709559714" lon="9.084045876588801"><ele>103.4</ele><time>2026-05-01T12:42:38Z</time></trkpt><trkpt lat="45.378337700643876" lon="9.083872956422816"><ele>103.60000000000001</ele><time>2026-05-01T12:42:40Z</time></trkpt><trkpt lat="45.378326028884324" lon="9.083769233117138"><ele>103.80000000000001</ele><time>2026-05-01T12:42:41Z</time></trkpt><trkpt lat="45.37831125471349" lon="9.083640213555006"><ele>104.0</ele><time>2026-05-01T12:42:42Z</time></trkpt><trkpt lat="45.37828027561355" lon="9.083520942520876"><ele>103.99999999999999</ele><time>2026-05-01T12:42:43Z</time></trkpt><trkpt lat="45.3782620541218" lon="9.083397266941468"><ele>104.0</ele><time>2026-05-01T12:42:44Z</time></trkpt><trkpt lat="45.37825393182821" lon="9.083284357205505"><ele>104.0</ele><time>2026-05-01T12:42:45Z</time></trkpt><trkpt lat="45.378240526484504" lon="9.083192226540175"><ele>104.0</ele><time>2026-05-01T12:42:46Z</time></trkpt><trkpt lat="45.37823370750827" lon="9.08307945230919"><ele>103.99999999999999</ele><time>2026-05-01T12:42:48Z</time></trkpt><trkpt lat="45.378243792864694" lon="9.082981075887274"><ele>104.0</ele><time>2026-05-01T12:42:51Z</time></trkpt><trkpt lat="45.378263772959095" lon="9.082879375202332"><ele>104.0</ele><time>2026-05-01T12:42:56Z</time></trkpt><trkpt lat="45.378238121020644" lon="9.083003811124623"><ele>104.0</ele><time>2026-05-01T12:43:14Z</time></trkpt><trkpt lat="45.37824943151206" lon="9.083125879091174"><ele>104.0</ele><time>2026-05-01T12:43:16Z</time></trkpt><trkpt lat="45.37826374915077" lon="9.08329789187622"><ele>104.0</ele><time>2026-05-01T12:43:18Z</time></trkpt><trkpt lat="45.37827901895179" lon="9.083409050005898"><ele>104.0</ele><time>2026-05-01T12:43:19Z</time></trkpt><trkpt lat="45.37829626790215" lon="9.083530691801325"><ele>103.99999999999999</ele><time>2026-05-01T12:43:20Z</time></trkpt><trkpt lat="45.37831169670857" lon="9.08364430001895"><ele>104.0</ele><time>2026-05-01T12:43:21Z</time></trkpt><trkpt lat="45.37832772448776" lon="9.083762317255296"><ele>104.0</ele><time>2026-05-01T12:43:22.001Z</time></trkpt><trkpt lat="45.37833654133953" lon="9.083855386907011"><ele>104.0</ele><time>2026-05-01T12:43:23.001Z</time></trkpt><trkpt lat="45.378345939712965" lon="9.083956958393681"><ele>103.99999999999999</ele><time>2026-05-01T12:43:25.001Z</time></trkpt><trkpt lat="45.37836079906674" lon="9.084069443560029"><ele>104.0</ele><time>2026-05-01T12:44:05Z</time></trkpt><trkpt lat="45.37835748115397" lon="9.084295767609435"><ele>104.0</ele><time>2026-05-01T12:44:07Z</time></trkpt><trkpt lat="45.37836437295224" lon="9.08443453600596"><ele>104.0</ele><time>2026-05-01T12:44:08Z</time></trkpt><trkpt lat="45.378382482895574" lon="9.084567152103249"><ele>104.0</ele><time>2026-05-01T12:44:09Z</time></trkpt><trkpt lat="45.378397433751296" lon="9.084696290965578"><ele>104.0</ele><time>2026-05-01T12:44:10Z</time></trkpt><trkpt lat="45.37841226149977" lon="9.084834821094267"><ele>104.0</ele><time>2026-05-01T12:44:11Z</time></trkpt><trkpt lat="45.37842628722079" lon="9.084978334841752"><ele>104.0</ele><time>2026-05-01T12:44:12Z</time></trkpt><trkpt lat="45.3784434061595" lon="9.08512186679925"><ele>104.0</ele><time>2026-05-01T12:44:13Z</time></trkpt><trkpt lat="45.37845831579837" lon="9.085266840537404"><ele>104.0</ele><time>2026-05-01T12:44:14Z</time></trkpt><trkpt lat="45.37846985134839" lon="9.085400099640543"><ele>104.0</ele><time>2026-05-01T12:44:15Z</time></trkpt><trkpt lat="45.378484128377316" lon="9.085535749537621"><ele>104.0</ele><time>2026-05-01T12:44:16Z</time></trkpt><trkpt lat="45.378510021397304" lon="9.08567938287919"><ele>103.75</ele><time>2026-05-01T12:44:17Z</time></trkpt><trkpt lat="45.378537369904855" lon="9.085834353572737"><ele>103.5</ele><time>2026-05-01T12:44:18Z</time></trkpt><trkpt lat="45.37856935159572" lon="9.085996393710134"><ele>103.25</ele><time>2026-05-01T12:44:19Z</time></trkpt><trkpt lat="45.378607519341955" lon="9.086163460475996"><ele>103.0</ele><time>2026-05-01T12:44:20Z</time></trkpt><trkpt lat="45.37866037080088" lon="9.086335609394569"><ele>103.0</ele><time>2026-05-01T12:44:21Z</time></trkpt><trkpt lat="45.37870166117718" lon="9.086509876033652"><ele>103.0</ele><time>2026-05-01T12:44:22Z</time></trkpt><trkpt lat="45.37876924615827" lon="9.086673323190059"><ele>103.0</ele><time>2026-05-01T12:44:23Z</time></trkpt><trkpt lat="45.378824879694584" lon="9.08684295884138"><ele>103.0</ele><time>2026-05-01T12:44:24Z</time></trkpt><trkpt lat="45.37888094329948" lon="9.087008888490004"><ele>103.25</ele><time>2026-05-01T12:44:25Z</time></trkpt><trkpt lat="45.378936379327854" lon="9.08717438749228"><ele>103.5</ele><time>2026-05-01T12:44:26Z</time></trkpt><trkpt lat="45.37898887952009" lon="9.087339035410775"><ele>103.75</ele><time>2026-05-01T12:44:27Z</time></trkpt><trkpt lat="45.379038671341526" lon="9.087483503028938"><ele>104.0</ele><time>2026-05-01T12:44:28Z</time></trkpt><trkpt lat="45.37907796345187" lon="9.08759083678272"><ele>104.0</ele><time>2026-05-01T12:44:29Z</time></trkpt><trkpt lat="45.37912131811891" lon="9.087718336200412"><ele>104.0</ele><time>2026-05-01T12:44:31Z</time></trkpt><trkpt lat="45.379157345498975" lon="9.08783671994031"><ele>104.0</ele><time>2026-05-01T12:44:53Z</time></trkpt><trkpt lat="45.37921328664698" lon="9.08800448772733"><ele>104.0</ele><time>2026-05-01T12:44:55Z</time></trkpt><trkpt lat="45.37925156774303" lon="9.088117304248426"><ele>104.0</ele><time>2026-05-01T12:44:56Z</time></trkpt><trkpt lat="45.37929180145342" lon="9.088239859428393"><ele>103.80000000000001</ele><time>2026-05-01T12:44:57Z</time></trkpt><trkpt lat="45.37933505757191" lon="9.088374729550376"><ele>103.60000000000001</ele><time>2026-05-01T12:44:58Z</time></trkpt><trkpt lat="45.37938661675625" lon="9.088524581767977"><ele>103.4</ele><time>2026-05-01T12:44:59Z</time></trkpt><trkpt lat="45.3794337693713" lon="9.088667437032283"><ele>103.2</ele><time>2026-05-01T12:45:00Z</time></trkpt><trkpt lat="45.37948121123961" lon="9.088808850355257"><ele>103.0</ele><time>2026-05-01T12:45:01Z</time></trkpt><trkpt lat="45.37953058913774" lon="9.08895403863425"><ele>103.0</ele><time>2026-05-01T12:45:02Z</time></trkpt><trkpt lat="45.37957933757677" lon="9.089102077563231"><ele>103.0</ele><time>2026-05-01T12:45:03Z</time></trkpt><trkpt lat="45.37963297740982" lon="9.089258996196614"><ele>103.0</ele><time>2026-05-01T12:45:04Z</time></trkpt><trkpt lat="45.379687810022865" lon="9.089424610572978"><ele>103.0</ele><time>2026-05-01T12:45:05Z</time></trkpt><trkpt lat="45.37973978231534" lon="9.089593137286634"><ele>103.0</ele><time>2026-05-01T12:45:06Z</time></trkpt><trkpt lat="45.3797972347134" lon="9.089748874843785"><ele>103.0</ele><time>2026-05-01T12:45:07Z</time></trkpt><trkpt lat="45.37984823436355" lon="9.089894563961213"><ele>103.0</ele><time>2026-05-01T12:45:08Z</time></trkpt><trkpt lat="45.37989644685009" lon="9.090025686925438"><ele>103.0</ele><time>2026-05-01T12:45:09Z</time></trkpt><trkpt lat="45.37994021569349" lon="9.090158883930954"><ele>103.0</ele><time>2026-05-01T12:45:10Z</time></trkpt><trkpt lat="45.37998512806467" lon="9.090284388563697"><ele>103.00000000000001</ele><time>2026-05-01T12:45:11Z</time></trkpt><trkpt lat="45.38002442584824" lon="9.090394302622506"><ele>103.0</ele><time>2026-05-01T12:45:12Z</time></trkpt><trkpt lat="45.38004948321653" lon="9.090483145671957"><ele>103.0</ele><time>2026-05-01T12:45:13Z</time></trkpt><trkpt lat="45.38009069422756" lon="9.090602660139114"><ele>103.0</ele><time>2026-05-01T12:45:15Z</time></trkpt><trkpt lat="45.380091269813676" lon="9.090708183472726"><ele>103.00000000000001</ele><time>2026-05-01T12:45:17Z</time></trkpt><trkpt lat="45.380030122439095" lon="9.09083714551554"><ele>103.0</ele><time>2026-05-01T12:45:19Z</time></trkpt><trkpt lat="45.37996312061137" lon="9.090865396970036"><ele>103.0</ele><time>2026-05-01T12:45:20Z</time></trkpt><trkpt lat="45.37989307269792" lon="9.090920866752684"><ele>103.0</ele><time>2026-05-01T12:45:21Z</time></trkpt><trkpt lat="45.37981080310846" lon="9.090983625242641"><ele>103.0</ele><time>2026-05-01T12:45:22Z</time></trkpt><trkpt lat="45.37972158915152" lon="9.091051882874622"><ele>103.0</ele><time>2026-05-01T12:45:23Z</time></trkpt><trkpt lat="45.3796272088059" lon="9.091125530789927"><ele>103.0</ele><time>2026-05-01T12:45:24Z</time></trkpt><trkpt lat="45.37951979010065" lon="9.09121226833196"><ele>102.75</ele><time>2026-05-01T12:45:25Z</time></trkpt><trkpt lat="45.37940881973868" lon="9.091301873841669"><ele>102.5</ele><time>2026-05-01T12:45:26Z</time></trkpt><trkpt lat="45.379293783682684" lon="9.091394762375055"><ele>102.25</ele><time>2026-05-01T12:45:27Z</time></trkpt><trkpt lat="45.37917772432426" lon="9.091486788827297"><ele>102.0</ele><time>2026-05-01T12:45:28Z</time></trkpt><trkpt lat="45.379060766334106" lon="9.09157810240413"><ele>102.19999999999999</ele><time>2026-05-01T12:45:29Z</time></trkpt><trkpt lat="45.37895166499628" lon="9.09166328192086"><ele>102.4</ele><time>2026-05-01T12:45:30Z</time></trkpt><trkpt lat="45.37885082708005" lon="9.09174200983463"><ele>102.6</ele><time>2026-05-01T12:45:31Z</time></trkpt><trkpt lat="45.37875580770238" lon="9.091816098551645"><ele>102.80000000000001</ele><time>2026-05-01T12:45:32Z</time></trkpt><trkpt lat="45.378679248758885" lon="9.091878364250535"><ele>103.0</ele><time>2026-05-01T12:45:33Z</time></trkpt><trkpt lat="45.37861978574029" lon="9.091931823208165"><ele>103.0</ele><time>2026-05-01T12:45:34Z</time></trkpt><trkpt lat="45.37852837707878" lon="9.092023341170508"><ele>103.0</ele><time>2026-05-01T12:45:36Z</time></trkpt><trkpt lat="45.37850039637736" lon="9.092117940016761"><ele>103.0</ele><time>2026-05-01T12:45:37Z</time></trkpt><trkpt lat="45.37851863157578" lon="9.092226961417555"><ele>103.0</ele><time>2026-05-01T12:45:38Z</time></trkpt><trkpt lat="45.378604984859756" lon="9.092310823967312"><ele>103.0</ele><time>2026-05-01T12:45:39Z</time></trkpt><trkpt lat="45.378659745887354" lon="9.09241433543087"><ele>102.75</ele><time>2026-05-01T12:45:40Z</time></trkpt><trkpt lat="45.3787305138746" lon="9.09255884432709"><ele>102.5</ele><time>2026-05-01T12:45:41Z</time></trkpt><trkpt lat="45.37880026182234" lon="9.09272009941127"><ele>102.25</ele><time>2026-05-01T12:45:42Z</time></trkpt><trkpt lat="45.37886447628758" lon="9.09288344201089"><ele>102.0</ele><time>2026-05-01T12:45:43Z</time></trkpt><trkpt lat="45.37893279026027" lon="9.093042688495636"><ele>102.0</ele><time>2026-05-01T12:45:44Z</time></trkpt><trkpt lat="45.379065050288034" lon="9.093370334746469"><ele>102.0</ele><time>2026-05-01T12:45:46Z</time></trkpt><trkpt lat="45.37912870058758" lon="9.093530935497578"><ele>102.0</ele><time>2026-05-01T12:45:47Z</time></trkpt><trkpt lat="45.37919650732805" lon="9.093692639444612"><ele>102.0</ele><time>2026-05-01T12:45:48Z</time></trkpt><trkpt lat="45.379259649953376" lon="9.093842075082215"><ele>102.0</ele><time>2026-05-01T12:45:49Z</time></trkpt><trkpt lat="45.37931769801096" lon="9.093983943353098"><ele>102.0</ele><time>2026-05-01T12:45:50Z</time></trkpt><trkpt lat="45.37937274467582" lon="9.094116609127571"><ele>102.0</ele><time>2026-05-01T12:45:51Z</time></trkpt><trkpt lat="45.37942553120687" lon="9.094234719159713"><ele>102.0</ele><time>2026-05-01T12:45:52Z</time></trkpt><trkpt lat="45.3794794582845" lon="9.094345542527948"><ele>101.8</ele><time>2026-05-01T12:45:53Z</time></trkpt><trkpt lat="45.37955100366432" lon="9.094446600961938"><ele>101.6</ele><time>2026-05-01T12:45:54Z</time></trkpt><trkpt lat="45.37964192178257" lon="9.094535890562828"><ele>101.39999999999999</ele><time>2026-05-01T12:45:55Z</time></trkpt><trkpt lat="45.37974663605846" lon="9.094624136983112"><ele>101.19999999999999</ele><time>2026-05-01T12:45:56Z</time></trkpt><trkpt lat="45.37984527456097" lon="9.094700037098608"><ele>101.0</ele><time>2026-05-01T12:45:57Z</time></trkpt><trkpt lat="45.37992454240385" lon="9.094762280708016"><ele>101.33333333333333</ele><time>2026-05-01T12:45:58Z</time></trkpt><trkpt lat="45.380001439309964" lon="9.09482274323977"><ele>101.66666666666666</ele><time>2026-05-01T12:45:59Z</time></trkpt><trkpt lat="45.380060085306575" lon="9.094900069845838"><ele>102.0</ele><time>2026-05-01T12:46:00Z</time></trkpt><trkpt lat="45.38011638700667" lon="9.094963933161864"><ele>102.33333333333334</ele><time>2026-05-01T12:46:01Z</time></trkpt><trkpt lat="45.380179121374645" lon="9.095036631782433"><ele>102.66666666666667</ele><time>2026-05-01T12:46:02Z</time></trkpt><trkpt lat="45.380227934554135" lon="9.095135077518934"><ele>103.0</ele><time>2026-05-01T12:46:03Z</time></trkpt><trkpt lat="45.38026384827595" lon="9.095224795956177"><ele>103.0</ele><time>2026-05-01T12:46:04Z</time></trkpt><trkpt lat="45.38028671353923" lon="9.095309630011592"><ele>103.0</ele><time>2026-05-01T12:46:05Z</time></trkpt><trkpt lat="45.380319786593496" lon="9.09547567548815"><ele>103.0</ele><time>2026-05-01T12:46:07Z</time></trkpt><trkpt lat="45.380349049548215" lon="9.095623066110388"><ele>103.0</ele><time>2026-05-01T12:46:09Z</time></trkpt><trkpt lat="45.3803710405921" lon="9.095741781762781"><ele>103.0</ele><time>2026-05-01T12:46:11Z</time></trkpt><trkpt lat="45.38039139685516" lon="9.09583942933497"><ele>103.2</ele><time>2026-05-01T12:46:13Z</time></trkpt><trkpt lat="45.380419238152086" lon="9.095949497434939"><ele>103.4</ele><time>2026-05-01T12:50:54Z</time></trkpt><trkpt lat="45.38044682018613" lon="9.096085751867834"><ele>103.60000000000001</ele><time>2026-05-01T12:50:57Z</time></trkpt><trkpt lat="45.380469379600264" lon="9.096225549008619"><ele>103.80000000000001</ele><time>2026-05-01T12:50:59Z</time></trkpt><trkpt lat="45.38049207092052" lon="9.096355239549325"><ele>104.0</ele><time>2026-05-01T12:51:01Z</time></trkpt><trkpt lat="45.3805749885365" lon="9.096344395854683"><ele>104.0</ele><time>2026-05-01T12:51:03Z</time></trkpt><trkpt lat="45.38060317085628" lon="9.096184793338585"><ele>104.0</ele><time>2026-05-01T12:51:05Z</time></trkpt><trkpt lat="45.38050241268203" lon="9.095979671528523"><ele>104.0</ele><time>2026-05-01T12:51:08Z</time></trkpt><trkpt lat="45.38044608205563" lon="9.09591485433008"><ele>104.0</ele><time>2026-05-01T12:51:09Z</time></trkpt><trkpt lat="45.380421098753835" lon="9.095817346823736"><ele>104.0</ele><time>2026-05-01T12:51:10Z</time></trkpt><trkpt lat="45.3803965253167" lon="9.09570565561066"><ele>103.80000000000001</ele><time>2026-05-01T12:51:11Z</time></trkpt><trkpt lat="45.38037028687025" lon="9.095582609197299"><ele>103.60000000000001</ele><time>2026-05-01T12:51:12Z</time></trkpt><trkpt lat="45.38034482760999" lon="9.095463216944271"><ele>103.4</ele><time>2026-05-01T12:51:13Z</time></trkpt><trkpt lat="45.380316268560584" lon="9.095343988309196"><ele>103.2</ele><time>2026-05-01T12:51:14Z</time></trkpt><trkpt lat="45.38028212221617" lon="9.095212237549074"><ele>103.0</ele><time>2026-05-01T12:51:15Z</time></trkpt><trkpt lat="45.380244190120955" lon="9.09510149648088"><ele>103.0</ele><time>2026-05-01T12:51:16Z</time></trkpt><trkpt lat="45.380191696764534" lon="9.095003639387945"><ele>103.0</ele><time>2026-05-01T12:51:17Z</time></trkpt><trkpt lat="45.38012145698759" lon="9.094908611929727"><ele>103.0</ele><time>2026-05-01T12:51:18Z</time></trkpt><trkpt lat="45.38004616083106" lon="9.094828289116808"><ele>103.0</ele><time>2026-05-01T12:51:19Z</time></trkpt><trkpt lat="45.37997227222567" lon="9.094762057761892"><ele>103.0</ele><time>2026-05-01T12:51:20Z</time></trkpt><trkpt lat="45.37988778883235" lon="9.094690079111356"><ele>103.0</ele><time>2026-05-01T12:51:21Z</time></trkpt><trkpt lat="45.37979642765122" lon="9.094613523366954"><ele>103.0</ele><time>2026-05-01T12:51:22Z</time></trkpt><trkpt lat="45.379721746813516" lon="9.09455148586111"><ele>103.0</ele><time>2026-05-01T12:51:23Z</time></trkpt><trkpt lat="45.379647536741366" lon="9.094484482753424"><ele>103.0</ele><time>2026-05-01T12:51:24Z</time></trkpt><trkpt lat="45.379573322373744" lon="9.094412422014129"><ele>103.0</ele><time>2026-05-01T12:51:25Z</time></trkpt><trkpt lat="45.379507795378" lon="9.094333834723962"><ele>102.80000000000001</ele><time>2026-05-01T12:51:26Z</time></trkpt><trkpt lat="45.37945471514372" lon="9.094240264447553"><ele>102.6</ele><time>2026-05-01T12:51:27Z</time></trkpt><trkpt lat="45.3794097874439" lon="9.094138212333679"><ele>102.4</ele><time>2026-05-01T12:51:28Z</time></trkpt><trkpt lat="45.37936167047343" lon="9.094024277063465"><ele>102.19999999999999</ele><time>2026-05-01T12:51:29Z</time></trkpt><trkpt lat="45.379315950085484" lon="9.09391149548215"><ele>102.0</ele><time>2026-05-01T12:51:29.999Z</time></trkpt><trkpt lat="45.379267133811275" lon="9.093791076585388"><ele>102.0</ele><time>2026-05-01T12:51:30.999Z</time></trkpt><trkpt lat="45.37921639564061" lon="9.093668752979578"><ele>102.0</ele><time>2026-05-01T12:51:31.999Z</time></trkpt><trkpt lat="45.3791619325769" lon="9.09353813721257"><ele>102.0</ele><time>2026-05-01T12:51:32.999Z</time></trkpt><trkpt lat="45.379107162283866" lon="9.093402997633303"><ele>102.0</ele><time>2026-05-01T12:51:33.999Z</time></trkpt><trkpt lat="45.37905561357278" lon="9.09326915214692"><ele>102.0</ele><time>2026-05-01T12:51:34.999Z</time></trkpt><trkpt lat="45.379000715840355" lon="9.093123374998473"><ele>102.0</ele><time>2026-05-01T12:51:35.999Z</time></trkpt><trkpt lat="45.378947572811875" lon="9.092984172250265"><ele>102.0</ele><time>2026-05-01T12:51:36.999Z</time></trkpt><trkpt lat="45.378895063172635" lon="9.092852886858141"><ele>102.0</ele><time>2026-05-01T12:51:37.999Z</time></trkpt><trkpt lat="45.378845322845784" lon="9.092734780157937"><ele>102.0</ele><time>2026-05-01T12:51:38.999Z</time></trkpt><trkpt lat="45.37879801347596" lon="9.092623032216753"><ele>102.0</ele><time>2026-05-01T12:51:39.999Z</time></trkpt><trkpt lat="45.378745199583896" lon="9.092505406266097"><ele>102.16666666666667</ele><time>2026-05-01T12:51:40.999Z</time></trkpt><trkpt lat="45.3786942010203" lon="9.092399585313963"><ele>102.33333333333334</ele><time>2026-05-01T12:51:41.999Z</time></trkpt><trkpt lat="45.37864328202165" lon="9.092299446774742"><ele>102.5</ele><time>2026-05-01T12:51:42.999Z</time></trkpt><trkpt lat="45.37860073628875" lon="9.092227433817289"><ele>102.66666666666667</ele><time>2026-05-01T12:51:43.999Z</time></trkpt><trkpt lat="45.378551063837634" lon="9.09212580108067"><ele>102.83333333333334</ele><time>2026-05-01T12:51:46Z</time></trkpt><trkpt lat="45.37860259395397" lon="9.091972791747864"><ele>103.0</ele><time>2026-05-01T12:51:48Z</time></trkpt><trkpt lat="45.37867681028735" lon="9.09193557600254"><ele>103.0</ele><time>2026-05-01T12:51:49Z</time></trkpt><trkpt lat="45.37875592604055" lon="9.091857241969318"><ele>103.0</ele><time>2026-05-01T12:51:50Z</time></trkpt><trkpt lat="45.37885613601574" lon="9.091780441223813"><ele>103.0</ele><time>2026-05-01T12:51:51Z</time></trkpt><trkpt lat="45.37896236361278" lon="9.091694922517023"><ele>103.0</ele><time>2026-05-01T12:51:52Z</time></trkpt><trkpt lat="45.37906904386128" lon="9.091609157636755"><ele>102.75</ele><time>2026-05-01T12:51:53Z</time></trkpt><trkpt lat="45.379184057829434" lon="9.091518952888194"><ele>102.5</ele><time>2026-05-01T12:51:54Z</time></trkpt><trkpt lat="45.37930291157605" lon="9.091424164991732"><ele>102.25</ele><time>2026-05-01T12:51:55Z</time></trkpt><trkpt lat="45.37942476666637" lon="9.09132797462092"><ele>102.0</ele><time>2026-05-01T12:51:56Z</time></trkpt><trkpt lat="45.379543460922875" lon="9.091234210207134"><ele>102.0</ele><time>2026-05-01T12:51:57Z</time></trkpt><trkpt lat="45.379652175676966" lon="9.091147644170869"><ele>102.0</ele><time>2026-05-01T12:51:58Z</time></trkpt><trkpt lat="45.37975465230062" lon="9.091064695185976"><ele>102.0</ele><time>2026-05-01T12:51:59Z</time></trkpt><trkpt lat="45.379845086529016" lon="9.090996800591537"><ele>102.0</ele><time>2026-05-01T12:52:00Z</time></trkpt><trkpt lat="45.37992538920898" lon="9.090934610938627"><ele>102.0</ele><time>2026-05-01T12:52:01Z</time></trkpt><trkpt lat="45.37998738294202" lon="9.090883732003004"><ele>102.19999999999999</ele><time>2026-05-01T12:52:02Z</time></trkpt><trkpt lat="45.38007570672915" lon="9.090790524192156"><ele>102.4</ele><time>2026-05-01T12:52:04Z</time></trkpt><trkpt lat="45.3801445653445" lon="9.090700215483487"><ele>102.6</ele><time>2026-05-01T12:52:06Z</time></trkpt><trkpt lat="45.38012177898128" lon="9.090560857823082"><ele>102.80000000000001</ele><time>2026-05-01T12:52:07Z</time></trkpt><trkpt lat="45.380075055035434" lon="9.09045018473792"><ele>103.0</ele><time>2026-05-01T12:52:08Z</time></trkpt><trkpt lat="45.38003668397645" lon="9.090336318770724"><ele>103.0</ele><time>2026-05-01T12:52:09Z</time></trkpt><trkpt lat="45.379990088365005" lon="9.090206474035861"><ele>103.0</ele><time>2026-05-01T12:52:10Z</time></trkpt><trkpt lat="45.37993608301016" lon="9.090062741479622"><ele>103.0</ele><time>2026-05-01T12:52:11Z</time></trkpt><trkpt lat="45.37986368748782" lon="9.089914801952684"><ele>103.0</ele><time>2026-05-01T12:52:12Z</time></trkpt><trkpt lat="45.37980663676111" lon="9.089740546233012"><ele>103.0</ele><time>2026-05-01T12:52:13Z</time></trkpt><trkpt lat="45.379742329362145" lon="9.089555655092525"><ele>103.0</ele><time>2026-05-01T12:52:14Z</time></trkpt><trkpt lat="45.37967686686345" lon="9.089357636197363"><ele>103.0</ele><time>2026-05-01T12:52:15Z</time></trkpt><trkpt lat="45.37961089416548" lon="9.08915170684791"><ele>103.0</ele><time>2026-05-01T12:52:16Z</time></trkpt><trkpt lat="45.37954516006186" lon="9.088958118738715"><ele>103.0</ele><time>2026-05-01T12:52:17Z</time></trkpt><trkpt lat="45.37947858624175" lon="9.088755992062582"><ele>103.0</ele><time>2026-05-01T12:52:18Z</time></trkpt><trkpt lat="45.379428374275996" lon="9.088543000626712"><ele>103.0</ele><time>2026-05-01T12:52:19Z</time></trkpt><trkpt lat="45.37936717844101" lon="9.088350436389007"><ele>103.0</ele><time>2026-05-01T12:52:20Z</time></trkpt><trkpt lat="45.379306187204975" lon="9.088159103683282"><ele>103.0</ele><time>2026-05-01T12:52:21Z</time></trkpt><trkpt lat="45.37924854834758" lon="9.087985939769617"><ele>103.0</ele><time>2026-05-01T12:52:22Z</time></trkpt><trkpt lat="45.37919328306084" lon="9.087821921085336"><ele>103.25</ele><time>2026-05-01T12:52:23Z</time></trkpt><trkpt lat="45.379137763270585" lon="9.087659856453142"><ele>103.5</ele><time>2026-05-01T12:52:24Z</time></trkpt><trkpt lat="45.37908502579121" lon="9.087505913377326"><ele>103.75</ele><time>2026-05-01T12:52:25Z</time></trkpt><trkpt lat="45.37903168189735" lon="9.087350019950286"><ele>104.0</ele><time>2026-05-01T12:52:26Z</time></trkpt><trkpt lat="45.37897814570939" lon="9.087193465219139"><ele>104.25</ele><time>2026-05-01T12:52:27Z</time></trkpt><trkpt lat="45.37892503253187" lon="9.087038147689405"><ele>104.5</ele><time>2026-05-01T12:52:28Z</time></trkpt><trkpt lat="45.37887407318816" lon="9.08689111181346"><ele>104.75</ele><time>2026-05-01T12:52:29Z</time></trkpt><trkpt lat="45.378820099225294" lon="9.086739881851031"><ele>105.0</ele><time>2026-05-01T12:52:30Z</time></trkpt><trkpt lat="45.378754477815725" lon="9.086597539961161"><ele>104.5</ele><time>2026-05-01T12:52:31Z</time></trkpt><trkpt lat="45.37870701526945" lon="9.086445339070796"><ele>104.0</ele><time>2026-05-01T12:52:32Z</time></trkpt><trkpt lat="45.378662320785686" lon="9.086308072193543"><ele>103.5</ele><time>2026-05-01T12:52:33Z</time></trkpt><trkpt lat="45.37862161417926" lon="9.086154069573043"><ele>103.0</ele><time>2026-05-01T12:52:34Z</time></trkpt><trkpt lat="45.378581748950786" lon="9.085980965534727"><ele>103.0</ele><time>2026-05-01T12:52:35Z</time></trkpt><trkpt lat="45.37853921086004" lon="9.085798747713902"><ele>103.0</ele><time>2026-05-01T12:52:36Z</time></trkpt><trkpt lat="45.37850552570959" lon="9.085617994765796"><ele>103.0</ele><time>2026-05-01T12:52:37Z</time></trkpt><trkpt lat="45.3785002186516" lon="9.085429920009616"><ele>103.0</ele><time>2026-05-01T12:52:38Z</time></trkpt><trkpt lat="45.37847999111687" lon="9.085236640359764"><ele>103.25</ele><time>2026-05-01T12:52:39Z</time></trkpt><trkpt lat="45.37844374574406" lon="9.08504146438667"><ele>103.5</ele><time>2026-05-01T12:52:40Z</time></trkpt><trkpt lat="45.3784291241411" lon="9.08485513913005"><ele>103.75</ele><time>2026-05-01T12:52:41Z</time></trkpt><trkpt lat="45.37842402255887" lon="9.084678912442461"><ele>104.0</ele><time>2026-05-01T12:52:42Z</time></trkpt><trkpt lat="45.37840883624282" lon="9.084525780959872"><ele>104.0</ele><time>2026-05-01T12:52:43Z</time></trkpt><trkpt lat="45.37839461354903" lon="9.084387462718194"><ele>104.0</ele><time>2026-05-01T12:52:44Z</time></trkpt><trkpt lat="45.37838413321374" lon="9.084285539740852"><ele>104.0</ele><time>2026-05-01T12:52:45Z</time></trkpt><trkpt lat="45.37836801095207" lon="9.084137510175172"><ele>104.0</ele><time>2026-05-01T12:52:47Z</time></trkpt><trkpt lat="45.37835782702425" lon="9.084046156274376"><ele>104.0</ele><time>2026-05-01T12:52:49Z</time></trkpt><trkpt lat="45.37819610200883" lon="9.08403504510392"><ele>104.0</ele><time>2026-05-01T12:52:51Z</time></trkpt><trkpt lat="45.37810772719144" lon="9.084065385973737"><ele>104.0</ele><time>2026-05-01T12:52:52Z</time></trkpt><trkpt lat="45.378017951730236" lon="9.08409630214066"><ele>104.0</ele><time>2026-05-01T12:52:53Z</time></trkpt><trkpt lat="45.37790501559041" lon="9.084135454346608"><ele>104.0</ele><time>2026-05-01T12:52:54Z</time></trkpt><trkpt lat="45.377780722186564" lon="9.084178693211637"><ele>104.0</ele><time>2026-05-01T12:52:55Z</time></trkpt><trkpt lat="45.37764993819449" lon="9.084224511572256"><ele>103.75</ele><time>2026-05-01T12:52:56Z</time></trkpt><trkpt lat="45.37750838439341" lon="9.08427346546747"><ele>103.5</ele><time>2026-05-01T12:52:56.999Z</time></trkpt><trkpt lat="45.37736208955519" lon="9.084324732364502"><ele>103.25</ele><time>2026-05-01T12:52:57.999Z</time></trkpt><trkpt lat="45.37722401734491" lon="9.084373137163677"><ele>103.0</ele><time>2026-05-01T12:52:58.999Z</time></trkpt><trkpt lat="45.37708217639681" lon="9.084423773903241"><ele>103.0</ele><time>2026-05-01T12:52:59.999Z</time></trkpt><trkpt lat="45.37693882873323" lon="9.084474948559675"><ele>103.0</ele><time>2026-05-01T12:53:00.999Z</time></trkpt><trkpt lat="45.37679155518859" lon="9.084526965575956"><ele>103.0</ele><time>2026-05-01T12:53:01.999Z</time></trkpt><trkpt lat="45.376640119619054" lon="9.084580487498211"><ele>103.0</ele><time>2026-05-01T12:53:02.999Z</time></trkpt><trkpt lat="45.3764913505266" lon="9.084633136549575"><ele>103.0</ele><time>2026-05-01T12:53:03.999Z</time></trkpt><trkpt lat="45.37634895780477" lon="9.084683529046218"><ele>103.0</ele><time>2026-05-01T12:53:04.999Z</time></trkpt><trkpt lat="45.37620130011679" lon="9.084735781603777"><ele>103.0</ele><time>2026-05-01T12:53:05.999Z</time></trkpt><trkpt lat="45.376064014234544" lon="9.08478363393725"><ele>103.0</ele><time>2026-05-01T12:53:06.999Z</time></trkpt><trkpt lat="45.375936953068496" lon="9.08482718957528"><ele>103.0</ele><time>2026-05-01T12:53:07.999Z</time></trkpt><trkpt lat="45.37580757578896" lon="9.084871483664367"><ele>103.0</ele><time>2026-05-01T12:53:08.999Z</time></trkpt><trkpt lat="45.37567815407267" lon="9.084915682889768"><ele>103.0</ele><time>2026-05-01T12:53:09.999Z</time></trkpt><trkpt lat="45.37555695662934" lon="9.084957073458312"><ele>103.0</ele><time>2026-05-01T12:53:10.999Z</time></trkpt><trkpt lat="45.37543219490324" lon="9.08499968121296"><ele>103.0</ele><time>2026-05-01T12:53:11.999Z</time></trkpt><trkpt lat="45.375315998347055" lon="9.085039363868741"><ele>103.0</ele><time>2026-05-01T12:53:12.999Z</time></trkpt><trkpt lat="45.37519901525417" lon="9.08507921285179"><ele>103.0</ele><time>2026-05-01T12:53:13.999Z</time></trkpt><trkpt lat="45.37507808113886" lon="9.085120390287694"><ele>103.0</ele><time>2026-05-01T12:53:14.999Z</time></trkpt><trkpt lat="45.37495571244692" lon="9.085162918514422"><ele>103.0</ele><time>2026-05-01T12:53:15.999Z</time></trkpt><trkpt lat="45.37483516469006" lon="9.085206894752313"><ele>103.0</ele><time>2026-05-01T12:53:16.999Z</time></trkpt><trkpt lat="45.374720624812326" lon="9.085248549483762"><ele>103.5</ele><time>2026-05-01T12:53:17.999Z</time></trkpt><trkpt lat="45.374603297076476" lon="9.085288702576158"><ele>104.0</ele><time>2026-05-01T12:53:18.999Z</time></trkpt><trkpt lat="45.374490007516464" lon="9.08534941414006"><ele>104.5</ele><time>2026-05-01T12:53:19.999Z</time></trkpt><trkpt lat="45.37437201625955" lon="9.085391831310684"><ele>105.0</ele><time>2026-05-01T12:53:20.999Z</time></trkpt><trkpt lat="45.37425415371037" lon="9.085416200269846"><ele>105.0</ele><time>2026-05-01T12:53:21.999Z</time></trkpt><trkpt lat="45.37414688321575" lon="9.08545978527958"><ele>105.0</ele><time>2026-05-01T12:53:22.999Z</time></trkpt><trkpt lat="45.37403312954319" lon="9.085507396191476"><ele>105.0</ele><time>2026-05-01T12:53:23.999Z</time></trkpt><trkpt lat="45.37393173786678" lon="9.08557331065928"><ele>105.0</ele><time>2026-05-01T12:53:24.999Z</time></trkpt><trkpt lat="45.37382085050607" lon="9.085612131731239"><ele>105.0</ele><time>2026-05-01T12:53:25.999Z</time></trkpt><trkpt lat="45.3737156370085" lon="9.08565882331433"><ele>105.0</ele><time>2026-05-01T12:53:26.999Z</time></trkpt><trkpt lat="45.37361349892457" lon="9.08571055730786"><ele>105.0</ele><time>2026-05-01T12:53:27.999Z</time></trkpt><trkpt lat="45.373514364771395" lon="9.085733047874315"><ele>105.0</ele><time>2026-05-01T12:53:28.999Z</time></trkpt><trkpt lat="45.3734019927246" lon="9.085783374286727"><ele>105.0</ele><time>2026-05-01T12:53:29.999Z</time></trkpt><trkpt lat="45.3732773521903" lon="9.085839193091338"><ele>104.6</ele><time>2026-05-01T12:53:30.999Z</time></trkpt><trkpt lat="45.37316330550779" lon="9.085893356130198"><ele>104.2</ele><time>2026-05-01T12:53:31.999Z</time></trkpt><trkpt lat="45.37306242877712" lon="9.085941544614016"><ele>103.80000000000001</ele><time>2026-05-01T12:53:32.999Z</time></trkpt><trkpt lat="45.37296303096414" lon="9.085988384216758"><ele>103.4</ele><time>2026-05-01T12:53:33.999Z</time></trkpt><trkpt lat="45.37287828350532" lon="9.08602674701557"><ele>103.0</ele><time>2026-05-01T12:53:34.999Z</time></trkpt><trkpt lat="45.372803832807165" lon="9.08606211695319"><ele>102.83333333333334</ele><time>2026-05-01T12:53:35.999Z</time></trkpt><trkpt lat="45.3727409858496" lon="9.086109014920543"><ele>102.66666666666667</ele><time>2026-05-01T12:53:36.999Z</time></trkpt><trkpt lat="45.372629104595866" lon="9.086109065454199"><ele>102.5</ele><time>2026-05-01T12:53:38.999Z</time></trkpt><trkpt lat="45.372579643944455" lon="9.086048342792603"><ele>102.33333333333334</ele><time>2026-05-01T12:53:39.999Z</time></trkpt><trkpt lat="45.37257745377565" lon="9.085935160727734"><ele>102.16666666666667</ele><time>2026-05-01T12:53:40.999Z</time></trkpt><trkpt lat="45.37256293465286" lon="9.085821228721425"><ele>102.0</ele><time>2026-05-01T12:53:41.999Z</time></trkpt><trkpt lat="45.37254455627277" lon="9.085679998027222"><ele>102.0</ele><time>2026-05-01T12:53:42.999Z</time></trkpt><trkpt lat="45.37252916985468" lon="9.085564472140293"><ele>102.0</ele><time>2026-05-01T12:53:43.999Z</time></trkpt><trkpt lat="45.37249527536218" lon="9.085397333084778"><ele>102.0</ele><time>2026-05-01T12:53:45.999Z</time></trkpt><trkpt lat="45.37240675421148" lon="9.085266561312384"><ele>102.0</ele><time>2026-05-01T12:53:47.999Z</time></trkpt><trkpt lat="45.37233548246811" lon="9.085256797919826"><ele>102.0</ele><time>2026-05-01T12:53:48.999Z</time></trkpt><trkpt lat="45.37224639315477" lon="9.085259210010422"><ele>102.0</ele><time>2026-05-01T12:53:49.999Z</time></trkpt><trkpt lat="45.3721717781455" lon="9.085251349320409"><ele>102.0</ele><time>2026-05-01T12:53:51Z</time></trkpt><trkpt lat="45.372082300435416" lon="9.085244834289124"><ele>102.0</ele><time>2026-05-01T12:53:52Z</time></trkpt><trkpt lat="45.37198393963672" lon="9.085231534262933"><ele>102.0</ele><time>2026-05-01T12:53:53Z</time></trkpt><trkpt lat="45.37187160865933" lon="9.085213054059597"><ele>102.0</ele><time>2026-05-01T12:53:54Z</time></trkpt><trkpt lat="45.37176706315656" lon="9.0851929347262"><ele>102.0</ele><time>2026-05-01T12:53:55Z</time></trkpt><trkpt lat="45.37166229182645" lon="9.085172771943354"><ele>102.0</ele><time>2026-05-01T12:53:56Z</time></trkpt><trkpt lat="45.37156649822977" lon="9.0851543368903"><ele>102.0</ele><time>2026-05-01T12:53:57Z</time></trkpt><trkpt lat="45.37145965762273" lon="9.085133604890286"><ele>102.0</ele><time>2026-05-01T12:53:58Z</time></trkpt><trkpt lat="45.371349619304034" lon="9.085111852693208"><ele>102.0</ele><time>2026-05-01T12:53:59Z</time></trkpt><trkpt lat="45.37124044331303" lon="9.085089041193593"><ele>102.0</ele><time>2026-05-01T12:54:00Z</time></trkpt><trkpt lat="45.371122938489904" lon="9.085064249497162"><ele>102.0</ele><time>2026-05-01T12:54:01Z</time></trkpt><trkpt lat="45.37100046840339" lon="9.085038410185959"><ele>102.0</ele><time>2026-05-01T12:54:02Z</time></trkpt><trkpt lat="45.37089848016381" lon="9.085016667579644"><ele>102.0</ele><time>2026-05-01T12:54:03Z</time></trkpt><trkpt lat="45.370794330793" lon="9.084992951089497"><ele>102.0</ele><time>2026-05-01T12:54:04Z</time></trkpt><trkpt lat="45.37069537959684" lon="9.084969535734768"><ele>102.0</ele><time>2026-05-01T12:54:05Z</time></trkpt><trkpt lat="45.37059685656054" lon="9.084946014011066"><ele>102.0</ele><time>2026-05-01T12:54:06Z</time></trkpt><trkpt lat="45.37049538038591" lon="9.084922365653345"><ele>102.0</ele><time>2026-05-01T12:54:07Z</time></trkpt><trkpt lat="45.37038755277352" lon="9.084896769452588"><ele>102.0</ele><time>2026-05-01T12:54:08Z</time></trkpt><trkpt lat="45.370293608587446" lon="9.084874432448618"><ele>101.83333333333333</ele><time>2026-05-01T12:54:09Z</time></trkpt><trkpt lat="45.370209228990596" lon="9.084854369645505"><ele>101.66666666666666</ele><time>2026-05-01T12:54:10Z</time></trkpt><trkpt lat="45.37012658062314" lon="9.084834718406567"><ele>101.5</ele><time>2026-05-01T12:54:11Z</time></trkpt><trkpt lat="45.370048345578056" lon="9.084816392528662"><ele>101.33333333333333</ele><time>2026-05-01T12:54:12Z</time></trkpt><trkpt lat="45.36996505472754" lon="9.084798120861125"><ele>101.16666666666666</ele><time>2026-05-01T12:54:13Z</time></trkpt><trkpt lat="45.3698795731208" lon="9.084779368587439"><ele>101.0</ele><time>2026-05-01T12:54:14Z</time></trkpt><trkpt lat="45.369802823140944" lon="9.084763258653823"><ele>101.0</ele><time>2026-05-01T12:54:15Z</time></trkpt><trkpt lat="45.36972692483853" lon="9.084748221695783"><ele>101.0</ele><time>2026-05-01T12:54:16Z</time></trkpt><trkpt lat="45.36966367826427" lon="9.084733252810818"><ele>101.0</ele><time>2026-05-01T12:54:17Z</time></trkpt><trkpt lat="45.36959544807214" lon="9.084713046773748"><ele>101.0</ele><time>2026-05-01T12:54:18Z</time></trkpt><trkpt lat="45.3695361509684" lon="9.084680349211123"><ele>101.0</ele><time>2026-05-01T12:54:19Z</time></trkpt><trkpt lat="45.369475451524224" lon="9.084625632833708"><ele>101.0</ele><time>2026-05-01T12:54:20Z</time></trkpt><trkpt lat="45.36944021000009" lon="9.084519397054938"><ele>101.0</ele><time>2026-05-01T12:54:21Z</time></trkpt><trkpt lat="45.36937144945996" lon="9.08441949482237"><ele>101.19999999999999</ele><time>2026-05-01T12:54:22Z</time></trkpt><trkpt lat="45.36932851246264" lon="9.084319700201856"><ele>101.39999999999999</ele><time>2026-05-01T12:54:23Z</time></trkpt><trkpt lat="45.369301439152466" lon="9.084218841843638"><ele>101.6</ele><time>2026-05-01T12:54:24Z</time></trkpt><trkpt lat="45.3692511761892" lon="9.084132057957282"><ele>101.8</ele><time>2026-05-01T12:54:25Z</time></trkpt><trkpt lat="45.36912360451857" lon="9.084054199528612"><ele>102.0</ele><time>2026-05-01T12:54:27Z</time></trkpt><trkpt lat="45.369016611802785" lon="9.084110293796495"><ele>102.0</ele><time>2026-05-01T12:54:28Z</time></trkpt><trkpt lat="45.36889988641522" lon="9.084112531154336"><ele>102.0</ele><time>2026-05-01T12:54:29Z</time></trkpt><trkpt lat="45.3687722259144" lon="9.084132322825301"><ele>102.0</ele><time>2026-05-01T12:54:30Z</time></trkpt><trkpt lat="45.36864754577526" lon="9.084143490634405"><ele>102.0</ele><time>2026-05-01T12:54:31Z</time></trkpt><trkpt lat="45.368515882937054" lon="9.084156147291438"><ele>102.19999999999999</ele><time>2026-05-01T12:54:32Z</time></trkpt><trkpt lat="45.368392723903774" lon="9.08416798641616"><ele>102.4</ele><time>2026-05-01T12:54:33Z</time></trkpt><trkpt lat="45.36828187182784" lon="9.084180932858297"><ele>102.6</ele><time>2026-05-01T12:54:34Z</time></trkpt><trkpt lat="45.368184368202236" lon="9.084194361315525"><ele>102.80000000000001</ele><time>2026-05-01T12:54:35Z</time></trkpt><trkpt lat="45.36809157263463" lon="9.084209024785007"><ele>103.0</ele><time>2026-05-01T12:54:36Z</time></trkpt><trkpt lat="45.3679792451182" lon="9.084228027839972"><ele>102.66666666666667</ele><time>2026-05-01T12:54:38Z</time></trkpt><trkpt lat="45.36790268491892" lon="9.084242349494554"><ele>102.33333333333334</ele><time>2026-05-01T12:54:40Z</time></trkpt><trkpt lat="45.36782595092069" lon="9.084256703695814"><ele>102.0</ele><time>2026-05-01T12:55:25Z</time></trkpt><trkpt lat="45.367762755956115" lon="9.084268525230314"><ele>101.66666666666666</ele><time>2026-05-01T12:55:26Z</time></trkpt><trkpt lat="45.36767904460532" lon="9.084280853200166"><ele>101.33333333333333</ele><time>2026-05-01T12:55:27Z</time></trkpt><trkpt lat="45.36758456841351" lon="9.084294832345085"><ele>101.0</ele><time>2026-05-01T12:55:28Z</time></trkpt><trkpt lat="45.36751538091746" lon="9.084305067258873"><ele>101.0</ele><time>2026-05-01T12:55:29Z</time></trkpt><trkpt lat="45.367419599629365" lon="9.084319236075029"><ele>101.0</ele><time>2026-05-01T12:55:30Z</time></trkpt><trkpt lat="45.367320189218844" lon="9.084335279524558"><ele>101.0</ele><time>2026-05-01T12:55:31Z</time></trkpt><trkpt lat="45.36722885213294" lon="9.084363991300213"><ele>101.0</ele><time>2026-05-01T12:55:32Z</time></trkpt><trkpt lat="45.36713786205269" lon="9.084392582116624"><ele>101.0</ele><time>2026-05-01T12:55:32.999Z</time></trkpt><trkpt lat="45.367045751746545" lon="9.084444362158923"><ele>101.16666666666666</ele><time>2026-05-01T12:55:33.999Z</time></trkpt><trkpt lat="45.36695164061472" lon="9.08446680010537"><ele>101.33333333333333</ele><time>2026-05-01T12:55:34.999Z</time></trkpt><trkpt lat="45.366872251622546" lon="9.084463703807401"><ele>101.5</ele><time>2026-05-01T12:55:35.999Z</time></trkpt><trkpt lat="45.36678703639306" lon="9.08447514834391"><ele>101.66666666666666</ele><time>2026-05-01T12:55:36.999Z</time></trkpt><trkpt lat="45.366707688227145" lon="9.08448165438313"><ele>101.83333333333333</ele><time>2026-05-01T12:55:37.999Z</time></trkpt><trkpt lat="45.36662431867506" lon="9.084484911733187"><ele>102.0</ele><time>2026-05-01T12:55:38.999Z</time></trkpt><trkpt lat="45.36653728872598" lon="9.084487668106771"><ele>102.0</ele><time>2026-05-01T12:55:39.999Z</time></trkpt><trkpt lat="45.36644306623107" lon="9.084507871694548"><ele>102.0</ele><time>2026-05-01T12:55:40.999Z</time></trkpt><trkpt lat="45.36636675059198" lon="9.084503708163819"><ele>102.0</ele><time>2026-05-01T12:55:41.999Z</time></trkpt><trkpt lat="45.36628078752825" lon="9.084471578837954"><ele>102.0</ele><time>2026-05-01T12:55:42.999Z</time></trkpt><trkpt lat="45.36618543208823" lon="9.084446261237998"><ele>102.0</ele><time>2026-05-01T12:55:43.999Z</time></trkpt><trkpt lat="45.36608943103637" lon="9.084413784768827"><ele>101.8</ele><time>2026-05-01T12:55:44.999Z</time></trkpt><trkpt lat="45.36598965586789" lon="9.084381732173135"><ele>101.6</ele><time>2026-05-01T12:55:45.999Z</time></trkpt><trkpt lat="45.36588469356765" lon="9.084360405318105"><ele>101.39999999999999</ele><time>2026-05-01T12:55:46.999Z</time></trkpt><trkpt lat="45.3657775251104" lon="9.084350320424571"><ele>101.19999999999999</ele><time>2026-05-01T12:55:47.999Z</time></trkpt><trkpt lat="45.36568135149332" lon="9.08434675492993"><ele>101.0</ele><time>2026-05-01T12:55:48.999Z</time></trkpt><trkpt lat="45.36558496235694" lon="9.084359373038572"><ele>101.19999999999999</ele><time>2026-05-01T12:55:49.999Z</time></trkpt><trkpt lat="45.36548588262649" lon="9.084364178111834"><ele>101.39999999999999</ele><time>2026-05-01T12:55:50.999Z</time></trkpt><trkpt lat="45.36537948585097" lon="9.084369113264032"><ele>101.6</ele><time>2026-05-01T12:55:51.999Z</time></trkpt><trkpt lat="45.36527557373501" lon="9.084357610670475"><ele>101.8</ele><time>2026-05-01T12:55:52.999Z</time></trkpt><trkpt lat="45.365170289532124" lon="9.084359032987036"><ele>102.0</ele><time>2026-05-01T12:55:53.999Z</time></trkpt><trkpt lat="45.365063763446166" lon="9.084360163125709"><ele>102.0</ele><time>2026-05-01T12:55:54.999Z</time></trkpt><trkpt lat="45.36496366119602" lon="9.08435920931257"><ele>102.0</ele><time>2026-05-01T12:55:55.999Z</time></trkpt><trkpt lat="45.36486487747043" lon="9.084355958056722"><ele>102.0</ele><time>2026-05-01T12:55:57Z</time></trkpt><trkpt lat="45.3647714738437" lon="9.084350096948254"><ele>102.0</ele><time>2026-05-01T12:55:58Z</time></trkpt><trkpt lat="45.36467420209142" lon="9.084342609698126"><ele>102.0</ele><time>2026-05-01T12:55:59Z</time></trkpt><trkpt lat="45.36457332053988" lon="9.0843311491915"><ele>102.0</ele><time>2026-05-01T12:56:00Z</time></trkpt><trkpt lat="45.36447620492983" lon="9.08433757275384"><ele>102.0</ele><time>2026-05-01T12:56:01Z</time></trkpt><trkpt lat="45.36439641102348" lon="9.08431924373153"><ele>102.0</ele><time>2026-05-01T12:56:02Z</time></trkpt><trkpt lat="45.36432554911271" lon="9.084277342860384"><ele>102.0</ele><time>2026-05-01T12:56:03Z</time></trkpt><trkpt lat="45.364260461811305" lon="9.08425714000012"><ele>102.0</ele><time>2026-05-01T12:56:04Z</time></trkpt><trkpt lat="45.36419054982902" lon="9.084234938955417"><ele>102.0</ele><time>2026-05-01T12:56:05Z</time></trkpt><trkpt lat="45.36412489336297" lon="9.084210497181852"><ele>102.0</ele><time>2026-05-01T12:56:06Z</time></trkpt><trkpt lat="45.36401056355621" lon="9.08419438731234"><ele>102.0</ele><time>2026-05-01T12:56:08Z</time></trkpt><trkpt lat="45.363932136920326" lon="9.084199500501771"><ele>102.0</ele><time>2026-05-01T12:56:10Z</time></trkpt><trkpt lat="45.36390810165397" lon="9.084020875172868"><ele>102.0</ele><time>2026-05-01T12:56:12Z</time></trkpt><trkpt lat="45.36387369155401" lon="9.083905143805188"><ele>102.0</ele><time>2026-05-01T12:56:13Z</time></trkpt><trkpt lat="45.36381397139833" lon="9.083788122143574"><ele>102.19999999999999</ele><time>2026-05-01T12:56:14Z</time></trkpt><trkpt lat="45.363754871593635" lon="9.083694886699574"><ele>102.4</ele><time>2026-05-01T12:56:15Z</time></trkpt><trkpt lat="45.363670080968916" lon="9.083648406248296"><ele>102.6</ele><time>2026-05-01T12:56:16Z</time></trkpt><trkpt lat="45.36356630429701" lon="9.083620410168697"><ele>102.80000000000001</ele><time>2026-05-01T12:56:17Z</time></trkpt><trkpt lat="45.363462816468285" lon="9.083596732017067"><ele>103.0</ele><time>2026-05-01T12:56:18Z</time></trkpt><trkpt lat="45.363379869451975" lon="9.083553605707008"><ele>103.00000000000001</ele><time>2026-05-01T12:56:19Z</time></trkpt><trkpt lat="45.36331591851028" lon="9.083527564186786"><ele>103.0</ele><time>2026-05-01T12:56:20Z</time></trkpt><trkpt lat="45.363253709807125" lon="9.08348232405407"><ele>103.0</ele><time>2026-05-01T12:56:21Z</time></trkpt><trkpt lat="45.36319300714657" lon="9.083433287293174"><ele>103.0</ele><time>2026-05-01T12:56:22Z</time></trkpt><trkpt lat="45.36320454832154" lon="9.083294266410467"><ele>103.00000000000001</ele><time>2026-05-01T12:56:23Z</time></trkpt><trkpt lat="45.36323609122475" lon="9.083172407732729"><ele>103.0</ele><time>2026-05-01T12:56:24Z</time></trkpt><trkpt lat="45.363249812149355" lon="9.08304157488359"><ele>102.83333333333334</ele><time>2026-05-01T12:56:25Z</time></trkpt><trkpt lat="45.36326362722631" lon="9.082911446861088"><ele>102.66666666666667</ele><time>2026-05-01T12:56:26Z</time></trkpt><trkpt lat="45.36327666527227" lon="9.082804601726478"><ele>102.5</ele><time>2026-05-01T12:56:27Z</time></trkpt><trkpt lat="45.36329474826434" lon="9.08268937557995"><ele>102.33333333333334</ele><time>2026-05-01T12:56:28Z</time></trkpt><trkpt lat="45.363316840419614" lon="9.082575606583461"><ele>102.16666666666667</ele><time>2026-05-01T12:56:29Z</time></trkpt><trkpt lat="45.36334400316138" lon="9.082458370103021"><ele>102.0</ele><time>2026-05-01T12:56:30Z</time></trkpt><trkpt lat="45.36337296876461" lon="9.082330913416982"><ele>102.0</ele><time>2026-05-01T12:56:31Z</time></trkpt><trkpt lat="45.363402924646415" lon="9.082189987227014"><ele>102.0</ele><time>2026-05-01T12:56:32Z</time></trkpt><trkpt lat="45.363424254565885" lon="9.082021958623455"><ele>102.0</ele><time>2026-05-01T12:56:33Z</time></trkpt><trkpt lat="45.36340840479993" lon="9.081836901789805"><ele>102.0</ele><time>2026-05-01T12:56:34Z</time></trkpt><trkpt lat="45.363396694999246" lon="9.081647934704451"><ele>102.25</ele><time>2026-05-01T12:56:35Z</time></trkpt><trkpt lat="45.36339636599343" lon="9.081446696026447"><ele>102.5</ele><time>2026-05-01T12:56:36Z</time></trkpt><trkpt lat="45.36338178318997" lon="9.081247840985721"><ele>102.75</ele><time>2026-05-01T12:56:37Z</time></trkpt><trkpt lat="45.363365604427806" lon="9.081049681343318"><ele>103.0</ele><time>2026-05-01T12:56:38Z</time></trkpt><trkpt lat="45.363346667235575" lon="9.080843522180574"><ele>103.33333333333334</ele><time>2026-05-01T12:56:39Z</time></trkpt><trkpt lat="45.363311301871285" lon="9.080635373600336"><ele>103.66666666666666</ele><time>2026-05-01T12:56:40Z</time></trkpt><trkpt lat="45.363312781132805" lon="9.080417637807665"><ele>104.0</ele><time>2026-05-01T12:56:41Z</time></trkpt><trkpt lat="45.36328891262658" lon="9.080201091492087"><ele>104.0</ele><time>2026-05-01T12:56:42Z</time></trkpt><trkpt lat="45.36330295890822" lon="9.07997129330141"><ele>104.0</ele><time>2026-05-01T12:56:43Z</time></trkpt><trkpt lat="45.36328711007011" lon="9.07972592772175"><ele>104.0</ele><time>2026-05-01T12:56:44Z</time></trkpt><trkpt lat="45.36329471601735" lon="9.079498211262871"><ele>104.0</ele><time>2026-05-01T12:56:45Z</time></trkpt><trkpt lat="45.36330125092895" lon="9.079254680595122"><ele>104.0</ele><time>2026-05-01T12:56:46Z</time></trkpt><trkpt lat="45.36330824129703" lon="9.079008133171554"><ele>104.0</ele><time>2026-05-01T12:56:47Z</time></trkpt><trkpt lat="45.36331650264422" lon="9.07876485452231"><ele>103.66666666666666</ele><time>2026-05-01T12:56:48Z</time></trkpt><trkpt lat="45.36332766884469" lon="9.078528362698316"><ele>103.33333333333334</ele><time>2026-05-01T12:56:49Z</time></trkpt><trkpt lat="45.36333516135864" lon="9.078295847408436"><ele>103.0</ele><time>2026-05-01T12:56:50Z</time></trkpt><trkpt lat="45.363341168514225" lon="9.078070739546735"><ele>103.0</ele><time>2026-05-01T12:56:51Z</time></trkpt><trkpt lat="45.36334608233701" lon="9.077836460960693"><ele>103.0</ele><time>2026-05-01T12:56:52Z</time></trkpt><trkpt lat="45.36335504120249" lon="9.077609197003671"><ele>103.0</ele><time>2026-05-01T12:56:53Z</time></trkpt><trkpt lat="45.363365123528546" lon="9.07737721173316"><ele>102.66666666666667</ele><time>2026-05-01T12:56:54Z</time></trkpt><trkpt lat="45.3633816609037" lon="9.077145586210479"><ele>102.33333333333334</ele><time>2026-05-01T12:56:55Z</time></trkpt><trkpt lat="45.36339133585627" lon="9.076912461365293"><ele>102.0</ele><time>2026-05-01T12:56:56Z</time></trkpt><trkpt lat="45.363398824208105" lon="9.076688298293806"><ele>102.0</ele><time>2026-05-01T12:56:57Z</time></trkpt><trkpt lat="45.363404939281736" lon="9.076475623677632"><ele>102.0</ele><time>2026-05-01T12:56:58Z</time></trkpt><trkpt lat="45.36339371198586" lon="9.076282043184639"><ele>102.0</ele><time>2026-05-01T12:56:59Z</time></trkpt><trkpt lat="45.36339973127239" lon="9.076110379924106"><ele>102.0</ele><time>2026-05-01T12:57:00Z</time></trkpt><trkpt lat="45.363404397404246" lon="9.075957012538783"><ele>102.0</ele><time>2026-05-01T12:57:01Z</time></trkpt><trkpt lat="45.363428205374724" lon="9.075821956852582"><ele>102.0</ele><time>2026-05-01T12:57:02Z</time></trkpt><trkpt lat="45.3634643428015" lon="9.075692405873527"><ele>102.0</ele><time>2026-05-01T12:57:03Z</time></trkpt><trkpt lat="45.36354342510696" lon="9.075588475367217"><ele>102.0</ele><time>2026-05-01T12:57:04Z</time></trkpt><trkpt lat="45.3636377807629" lon="9.075475990519752"><ele>102.0</ele><time>2026-05-01T12:57:05Z</time></trkpt><trkpt lat="45.36374514718281" lon="9.075345838085413"><ele>102.0</ele><time>2026-05-01T12:57:06Z</time></trkpt><trkpt lat="45.36384777658525" lon="9.07522231245993"><ele>102.0</ele><time>2026-05-01T12:57:07Z</time></trkpt><trkpt lat="45.36395102653254" lon="9.075103037899542"><ele>102.0</ele><time>2026-05-01T12:57:08Z</time></trkpt><trkpt lat="45.36404723392528" lon="9.074991898991957"><ele>102.0</ele><time>2026-05-01T12:57:09Z</time></trkpt><trkpt lat="45.36413554388858" lon="9.074889882960596"><ele>102.0</ele><time>2026-05-01T12:57:10Z</time></trkpt><trkpt lat="45.36420809958707" lon="9.074784802802222"><ele>102.0</ele><time>2026-05-01T12:57:11Z</time></trkpt><trkpt lat="45.36427893920448" lon="9.0746929172151"><ele>102.0</ele><time>2026-05-01T12:57:12Z</time></trkpt><trkpt lat="45.36433717457491" lon="9.074591032770387"><ele>102.0</ele><time>2026-05-01T12:57:13Z</time></trkpt><trkpt lat="45.364382640735435" lon="9.074476200735202"><ele>102.0</ele><time>2026-05-01T12:57:14Z</time></trkpt><trkpt lat="45.364419733616636" lon="9.074357339167069"><ele>102.0</ele><time>2026-05-01T12:57:15Z</time></trkpt><trkpt lat="45.36446309201098" lon="9.074247645082972"><ele>102.0</ele><time>2026-05-01T12:57:16Z</time></trkpt><trkpt lat="45.364498527500274" lon="9.074137370005733"><ele>102.0</ele><time>2026-05-01T12:57:17Z</time></trkpt><trkpt lat="45.36452883330832" lon="9.0740358887797"><ele>102.0</ele><time>2026-05-01T12:57:18Z</time></trkpt><trkpt lat="45.36455373608178" lon="9.073950580975092"><ele>102.0</ele><time>2026-05-01T12:57:19Z</time></trkpt><trkpt lat="45.36457002080857" lon="9.073850857162961"><ele>102.0</ele><time>2026-05-01T12:57:20Z</time></trkpt><trkpt lat="45.36458173174063" lon="9.073737611707868"><ele>102.0</ele><time>2026-05-01T12:57:21Z</time></trkpt><trkpt lat="45.3645855937069" lon="9.073630477372452"><ele>102.0</ele><time>2026-05-01T12:57:22Z</time></trkpt><trkpt lat="45.3645660093792" lon="9.073508336823727"><ele>102.0</ele><time>2026-05-01T12:57:23Z</time></trkpt><trkpt lat="45.364539311728976" lon="9.07339248499048"><ele>102.0</ele><time>2026-05-01T12:57:24Z</time></trkpt><trkpt lat="45.36448343955994" lon="9.073278939099001"><ele>102.0</ele><time>2026-05-01T12:57:25Z</time></trkpt><trkpt lat="45.36443114927417" lon="9.073155341156967"><ele>102.0</ele><time>2026-05-01T12:57:26Z</time></trkpt><trkpt lat="45.364371373441145" lon="9.073035527409312"><ele>101.83333333333333</ele><time>2026-05-01T12:57:27Z</time></trkpt><trkpt lat="45.364315151503256" lon="9.072932459029643"><ele>101.66666666666666</ele><time>2026-05-01T12:57:28Z</time></trkpt><trkpt lat="45.364260194865224" lon="9.072839912767881"><ele>101.5</ele><time>2026-05-01T12:57:29Z</time></trkpt><trkpt lat="45.364209955662574" lon="9.07276177070936"><ele>101.33333333333333</ele><time>2026-05-01T12:57:30Z</time></trkpt><trkpt lat="45.364164978396275" lon="9.072690988072837"><ele>101.16666666666666</ele><time>2026-05-01T12:57:31Z</time></trkpt><trkpt lat="45.36412059152267" lon="9.072621134565168"><ele>101.0</ele><time>2026-05-01T12:57:32Z</time></trkpt><trkpt lat="45.36407558938894" lon="9.072549625683209"><ele>100.99999999999999</ele><time>2026-05-01T12:57:33Z</time></trkpt><trkpt lat="45.36403125310455" lon="9.072477653751914"><ele>101.0</ele><time>2026-05-01T12:57:34Z</time></trkpt><trkpt lat="45.36398510967485" lon="9.072402365828706"><ele>101.0</ele><time>2026-05-01T12:57:35Z</time></trkpt><trkpt lat="45.36393616349271" lon="9.072322018696742"><ele>101.0</ele><time>2026-05-01T12:57:36Z</time></trkpt><trkpt lat="45.36388968730705" lon="9.07224430287953"><ele>100.99999999999999</ele><time>2026-05-01T12:57:37Z</time></trkpt><trkpt lat="45.3638078924725" lon="9.072140023628034"><ele>101.0</ele><time>2026-05-01T12:57:39Z</time></trkpt><trkpt lat="45.36386545372423" lon="9.07197594575609"><ele>101.19999999999999</ele><time>2026-05-01T12:57:42Z</time></trkpt><trkpt lat="45.36393333721997" lon="9.07192896600482"><ele>101.39999999999999</ele><time>2026-05-01T12:57:43Z</time></trkpt><trkpt lat="45.36402323677485" lon="9.07186532748973"><ele>101.6</ele><time>2026-05-01T12:57:44Z</time></trkpt><trkpt lat="45.36412143852442" lon="9.071786677592291"><ele>101.8</ele><time>2026-05-01T12:57:45Z</time></trkpt><trkpt lat="45.36424143902147" lon="9.071699147017549"><ele>102.0</ele><time>2026-05-01T12:57:46Z</time></trkpt><trkpt lat="45.364363825204386" lon="9.071597491789733"><ele>102.25</ele><time>2026-05-01T12:57:47Z</time></trkpt><trkpt lat="45.36448536237694" lon="9.071501941349915"><ele>102.5</ele><time>2026-05-01T12:57:48Z</time></trkpt><trkpt lat="45.36461034868744" lon="9.071398672834178"><ele>102.75</ele><time>2026-05-01T12:57:49Z</time></trkpt><trkpt lat="45.364737307033224" lon="9.071297596725808"><ele>103.0</ele><time>2026-05-01T12:57:50Z</time></trkpt><trkpt lat="45.364852481835705" lon="9.071201383845347"><ele>102.4</ele><time>2026-05-01T12:57:51Z</time></trkpt><trkpt lat="45.364958712501924" lon="9.071117382578077"><ele>101.80000000000001</ele><time>2026-05-01T12:57:52Z</time></trkpt><trkpt lat="45.36505636655881" lon="9.071041350807292"><ele>101.2</ele><time>2026-05-01T12:57:53Z</time></trkpt><trkpt lat="45.36514087673781" lon="9.070972269095051"><ele>100.6</ele><time>2026-05-01T12:57:54Z</time></trkpt><trkpt lat="45.36521462763777" lon="9.070914019971445"><ele>100.0</ele><time>2026-05-01T12:57:55Z</time></trkpt><trkpt lat="45.365282429023864" lon="9.070880616899792"><ele>100.0</ele><time>2026-05-01T12:57:56Z</time></trkpt><trkpt lat="45.36539253527716" lon="9.070835425099336"><ele>100.0</ele><time>2026-05-01T12:57:58Z</time></trkpt><trkpt lat="45.36544317221126" lon="9.07068825449684"><ele>100.0</ele><time>2026-05-01T12:58:00Z</time></trkpt><trkpt lat="45.365438746926486" lon="9.070587885306805"><ele>100.0</ele><time>2026-05-01T12:58:01Z</time></trkpt><trkpt lat="45.36541428275889" lon="9.070482856868058"><ele>100.0</ele><time>2026-05-01T12:58:02Z</time></trkpt><trkpt lat="45.365368595641144" lon="9.070352486017255"><ele>100.25</ele><time>2026-05-01T12:58:03Z</time></trkpt><trkpt lat="45.365329866264666" lon="9.070204960828114"><ele>100.5</ele><time>2026-05-01T12:58:04Z</time></trkpt><trkpt lat="45.36529599794506" lon="9.070048577119811"><ele>100.75</ele><time>2026-05-01T12:58:05Z</time></trkpt><trkpt lat="45.36525678692425" lon="9.069868980237834"><ele>101.0</ele><time>2026-05-01T12:58:06Z</time></trkpt><trkpt lat="45.36521632141947" lon="9.0696894890994"><ele>101.19999999999999</ele><time>2026-05-01T12:58:07Z</time></trkpt><trkpt lat="45.36517488891831" lon="9.069511835954847"><ele>101.39999999999999</ele><time>2026-05-01T12:58:08Z</time></trkpt><trkpt lat="45.36513952446022" lon="9.069362701308652"><ele>101.6</ele><time>2026-05-01T12:58:09Z</time></trkpt><trkpt lat="45.36510695215092" lon="9.069218103262145"><ele>101.8</ele><time>2026-05-01T12:58:11Z</time></trkpt><trkpt lat="45.36507620279193" lon="9.069084193351054"><ele>102.0</ele><time>2026-05-01T12:58:21Z</time></trkpt><trkpt lat="45.365048514975385" lon="9.06896394926763"><ele>102.19999999999999</ele><time>2026-05-01T12:58:22Z</time></trkpt><trkpt lat="45.365017485006796" lon="9.068824802907061"><ele>102.4</ele><time>2026-05-01T12:58:23Z</time></trkpt><trkpt lat="45.36498664678043" lon="9.068708577227287"><ele>102.6</ele><time>2026-05-01T12:58:24Z</time></trkpt><trkpt lat="45.36496038430789" lon="9.06859241838043"><ele>102.80000000000001</ele><time>2026-05-01T12:58:25Z</time></trkpt><trkpt lat="45.36494069387879" lon="9.068478302463951"><ele>103.0</ele><time>2026-05-01T12:58:26Z</time></trkpt><trkpt lat="45.364931679339755" lon="9.068332711224455"><ele>103.00000000000001</ele><time>2026-05-01T12:58:28Z</time></trkpt><trkpt lat="45.36491914680149" lon="9.068443870018848"><ele>103.0</ele><time>2026-05-01T12:58:56Z</time></trkpt><trkpt lat="45.36495019559776" lon="9.06854847166862"><ele>103.0</ele><time>2026-05-01T12:58:57Z</time></trkpt><trkpt lat="45.36497186076752" lon="9.068654956066078"><ele>103.0</ele><time>2026-05-01T12:58:58Z</time></trkpt><trkpt lat="45.36499252152226" lon="9.068769177978025"><ele>103.00000000000001</ele><time>2026-05-01T12:58:59Z</time></trkpt><trkpt lat="45.36501478779429" lon="9.068867080015062"><ele>103.0</ele><time>2026-05-01T12:59:00Z</time></trkpt><trkpt lat="45.36503779432728" lon="9.068957412713509"><ele>103.00000000000001</ele><time>2026-05-01T12:59:01Z</time></trkpt><trkpt lat="45.365062036871784" lon="9.0690538206835"><ele>103.0</ele><time>2026-05-01T12:59:02Z</time></trkpt><trkpt lat="45.36508539880316" lon="9.069149092945018"><ele>103.0</ele><time>2026-05-01T12:59:03Z</time></trkpt><trkpt lat="45.365112511065846" lon="9.069269620105345"><ele>103.0</ele><time>2026-05-01T12:59:05Z</time></trkpt><trkpt lat="45.36516523454695" lon="9.069327163925605"><ele>103.00000000000001</ele><time>2026-05-01T12:59:07Z</time></trkpt><trkpt lat="45.36527291916462" lon="9.069264720040294"><ele>103.0</ele><time>2026-05-01T12:59:09Z</time></trkpt><trkpt lat="45.365370601303475" lon="9.069218458415547"><ele>103.0</ele><time>2026-05-01T12:59:10Z</time></trkpt><trkpt lat="45.36546946231308" lon="9.069182949109996"><ele>103.0</ele><time>2026-05-01T12:59:11Z</time></trkpt><trkpt lat="45.36557913341858" lon="9.069139670291097"><ele>103.0</ele><time>2026-05-01T12:59:12Z</time></trkpt><trkpt lat="45.36569473475216" lon="9.069087959622319"><ele>103.0</ele><time>2026-05-01T12:59:13Z</time></trkpt><trkpt lat="45.365815052359025" lon="9.069035469619765"><ele>103.25</ele><time>2026-05-01T12:59:14Z</time></trkpt><trkpt lat="45.36594216367361" lon="9.06898071928975"><ele>103.5</ele><time>2026-05-01T12:59:15Z</time></trkpt><trkpt lat="45.3660693008461" lon="9.068924236844259"><ele>103.75</ele><time>2026-05-01T12:59:16Z</time></trkpt><trkpt lat="45.36619976036229" lon="9.068873490244743"><ele>104.0</ele><time>2026-05-01T12:59:17Z</time></trkpt><trkpt lat="45.36632926192854" lon="9.068818333354361"><ele>104.0</ele><time>2026-05-01T12:59:18Z</time></trkpt><trkpt lat="45.36644840610567" lon="9.068766525576828"><ele>104.0</ele><time>2026-05-01T12:59:19Z</time></trkpt><trkpt lat="45.366559622565774" lon="9.068720774214913"><ele>104.0</ele><time>2026-05-01T12:59:20Z</time></trkpt><trkpt lat="45.36666883053913" lon="9.068677333514323"><ele>104.0</ele><time>2026-05-01T12:59:21Z</time></trkpt><trkpt lat="45.36677887573766" lon="9.068633520311682"><ele>104.0</ele><time>2026-05-01T12:59:22Z</time></trkpt><trkpt lat="45.36688578115027" lon="9.06858905052769"><ele>104.0</ele><time>2026-05-01T12:59:23Z</time></trkpt><trkpt lat="45.366984388042304" lon="9.06854945686181"><ele>104.0</ele><time>2026-05-01T12:59:24Z</time></trkpt><trkpt lat="45.36707992685063" lon="9.068523035447312"><ele>104.0</ele><time>2026-05-01T12:59:25Z</time></trkpt><trkpt lat="45.367186309026884" lon="9.068509913119062"><ele>104.0</ele><time>2026-05-01T12:59:26Z</time></trkpt><trkpt lat="45.36730145546435" lon="9.068517562693405"><ele>103.80000000000001</ele><time>2026-05-01T12:59:27Z</time></trkpt><trkpt lat="45.367424625129615" lon="9.068518061444104"><ele>103.60000000000001</ele><time>2026-05-01T12:59:28Z</time></trkpt><trkpt lat="45.36754168243059" lon="9.068511567005745"><ele>103.4</ele><time>2026-05-01T12:59:29Z</time></trkpt><trkpt lat="45.36764846072212" lon="9.06850582363848"><ele>103.2</ele><time>2026-05-01T12:59:30Z</time></trkpt><trkpt lat="45.36774847917481" lon="9.068503504787618"><ele>103.0</ele><time>2026-05-01T12:59:31Z</time></trkpt><trkpt lat="45.36785050042165" lon="9.068501577714956"><ele>103.00000000000001</ele><time>2026-05-01T12:59:32Z</time></trkpt><trkpt lat="45.367938948665646" lon="9.068504471492956"><ele>103.0</ele><time>2026-05-01T12:59:33Z</time></trkpt><trkpt lat="45.36800858671916" lon="9.068507096759626"><ele>103.0</ele><time>2026-05-01T12:59:34Z</time></trkpt><trkpt lat="45.36808347887456" lon="9.068514190947324"><ele>103.0</ele><time>2026-05-01T12:59:36Z</time></trkpt><trkpt lat="45.3680156068804" lon="9.06851234322872"><ele>103.00000000000001</ele><time>2026-05-01T13:00:01Z</time></trkpt><trkpt lat="45.36792544856414" lon="9.068512172296659"><ele>103.0</ele><time>2026-05-01T13:00:02Z</time></trkpt><trkpt lat="45.36784487898222" lon="9.0685123539578"><ele>103.0</ele><time>2026-05-01T13:00:03Z</time></trkpt><trkpt lat="45.36776126411" lon="9.06850831492752"><ele>103.0</ele><time>2026-05-01T13:00:05Z</time></trkpt><trkpt lat="45.36766218673443" lon="9.068500967275932"><ele>103.0</ele><time>2026-05-01T13:01:04Z</time></trkpt><trkpt lat="45.36758057682289" lon="9.0685088260182"><ele>103.0</ele><time>2026-05-01T13:01:05Z</time></trkpt><trkpt lat="45.3674822164395" lon="9.068509917886658"><ele>103.0</ele><time>2026-05-01T13:01:06Z</time></trkpt><trkpt lat="45.367376451296664" lon="9.068511539278548"><ele>103.0</ele><time>2026-05-01T13:01:07Z</time></trkpt><trkpt lat="45.36727196288089" lon="9.068519044229427"><ele>103.0</ele><time>2026-05-01T13:01:08Z</time></trkpt><trkpt lat="45.367176773363155" lon="9.068521737775319"><ele>103.0</ele><time>2026-05-01T13:01:09Z</time></trkpt><trkpt lat="45.367092288148136" lon="9.068530811410058"><ele>103.0</ele><time>2026-05-01T13:01:10Z</time></trkpt><trkpt lat="45.367002852081434" lon="9.068543816625878"><ele>103.0</ele><time>2026-05-01T13:01:11Z</time></trkpt><trkpt lat="45.366911215484954" lon="9.068571564671723"><ele>103.2</ele><time>2026-05-01T13:01:12Z</time></trkpt><trkpt lat="45.366831310314325" lon="9.068605589422726"><ele>103.4</ele><time>2026-05-01T13:01:13Z</time></trkpt><trkpt lat="45.366741124700184" lon="9.068643816359959"><ele>103.60000000000001</ele><time>2026-05-01T13:01:14Z</time></trkpt><trkpt lat="45.36664231316996" lon="9.068688094646143"><ele>103.80000000000001</ele><time>2026-05-01T13:01:15Z</time></trkpt><trkpt lat="45.36654067143518" lon="9.0687269120146"><ele>104.0</ele><time>2026-05-01T13:01:16Z</time></trkpt><trkpt lat="45.36643509573225" lon="9.068775639029571"><ele>104.0</ele><time>2026-05-01T13:01:17Z</time></trkpt><trkpt lat="45.36633329081398" lon="9.06881948335466"><ele>104.0</ele><time>2026-05-01T13:01:18Z</time></trkpt><trkpt lat="45.36622469562863" lon="9.068860317853854"><ele>104.0</ele><time>2026-05-01T13:01:19Z</time></trkpt><trkpt lat="45.36610674458862" lon="9.06891095183629"><ele>104.0</ele><time>2026-05-01T13:01:20Z</time></trkpt><trkpt lat="45.36597815901872" lon="9.068966410281847"><ele>104.0</ele><time>2026-05-01T13:01:21Z</time></trkpt><trkpt lat="45.36585609094565" lon="9.069018229833084"><ele>104.0</ele><time>2026-05-01T13:01:22Z</time></trkpt><trkpt lat="45.36574800859948" lon="9.06906708226369"><ele>104.0</ele><time>2026-05-01T13:01:23Z</time></trkpt><trkpt lat="45.365633314085805" lon="9.069118103341452"><ele>104.0</ele><time>2026-05-01T13:01:24Z</time></trkpt><trkpt lat="45.36552494807541" lon="9.069168467688685"><ele>103.66666666666666</ele><time>2026-05-01T13:01:25Z</time></trkpt><trkpt lat="45.36543288659566" lon="9.069211363763705"><ele>103.33333333333333</ele><time>2026-05-01T13:01:26Z</time></trkpt><trkpt lat="45.36535545469808" lon="9.069243534891397"><ele>103.0</ele><time>2026-05-01T13:01:27Z</time></trkpt><trkpt lat="45.36529014645104" lon="9.069270024289127"><ele>102.66666666666666</ele><time>2026-05-01T13:01:28Z</time></trkpt><trkpt lat="45.36519377989248" lon="9.069321636985023"><ele>102.33333333333333</ele><time>2026-05-01T13:01:30Z</time></trkpt><trkpt lat="45.36510607132316" lon="9.069281577957723"><ele>102.0</ele><time>2026-05-01T13:01:34Z</time></trkpt><trkpt lat="45.36508029045945" lon="9.069181423545567"><ele>102.19999999999999</ele><time>2026-05-01T13:01:35Z</time></trkpt><trkpt lat="45.365076317994905" lon="9.069020208234237"><ele>102.4</ele><time>2026-05-01T13:01:36Z</time></trkpt><trkpt lat="45.36503487900869" lon="9.068900386666153"><ele>102.6</ele><time>2026-05-01T13:01:37Z</time></trkpt><trkpt lat="45.36499890893699" lon="9.068739282521022"><ele>102.80000000000001</ele><time>2026-05-01T13:01:38Z</time></trkpt><trkpt lat="45.36496627445259" lon="9.068597709710128"><ele>103.0</ele><time>2026-05-01T13:01:39Z</time></trkpt><trkpt lat="45.36493873602185" lon="9.068457296321403"><ele>103.00000000000001</ele><time>2026-05-01T13:01:40Z</time></trkpt><trkpt lat="45.36491753142509" lon="9.068323253888323"><ele>103.0</ele><time>2026-05-01T13:01:41Z</time></trkpt><trkpt lat="45.36489882820254" lon="9.068222588986577"><ele>103.0</ele><time>2026-05-01T13:01:42Z</time></trkpt><trkpt lat="45.36486274989611" lon="9.068104179134941"><ele>103.0</ele><time>2026-05-01T13:01:44Z</time></trkpt><trkpt lat="45.36484023641755" lon="9.068002378685597"><ele>103.00000000000001</ele><time>2026-05-01T13:01:45Z</time></trkpt><trkpt lat="45.364800837265186" lon="9.067865459873591"><ele>103.0</ele><time>2026-05-01T13:01:46Z</time></trkpt><trkpt lat="45.36474827188569" lon="9.067707776167252"><ele>103.0</ele><time>2026-05-01T13:01:47Z</time></trkpt><trkpt lat="45.3647017628076" lon="9.06755519860094"><ele>103.0</ele><time>2026-05-01T13:01:48Z</time></trkpt><trkpt lat="45.36465846015603" lon="9.067408989707912"><ele>103.0</ele><time>2026-05-01T13:01:49Z</time></trkpt><trkpt lat="45.36461902823997" lon="9.067285885969016"><ele>103.0</ele><time>2026-05-01T13:01:50Z</time></trkpt><trkpt lat="45.36457729052133" lon="9.067171384981306"><ele>103.0</ele><time>2026-05-01T13:01:51Z</time></trkpt><trkpt lat="45.36453425724999" lon="9.067056376690022"><ele>103.0</ele><time>2026-05-01T13:01:52Z</time></trkpt><trkpt lat="45.3644905609104" lon="9.06693008411524"><ele>103.0</ele><time>2026-05-01T13:01:53Z</time></trkpt><trkpt lat="45.36444513488337" lon="9.066794341841634"><ele>103.0</ele><time>2026-05-01T13:01:54Z</time></trkpt><trkpt lat="45.36440429422066" lon="9.066659514098392"><ele>103.0</ele><time>2026-05-01T13:01:55Z</time></trkpt><trkpt lat="45.36436691925233" lon="9.066520381871694"><ele>103.0</ele><time>2026-05-01T13:01:56Z</time></trkpt><trkpt lat="45.364323922870085" lon="9.066387701721881"><ele>103.00000000000001</ele><time>2026-05-01T13:01:57Z</time></trkpt><trkpt lat="45.364288991776704" lon="9.066273961342885"><ele>103.0</ele><time>2026-05-01T13:01:58Z</time></trkpt><trkpt lat="45.36425620807357" lon="9.06617778288495"><ele>103.0</ele><time>2026-05-01T13:01:59Z</time></trkpt><trkpt lat="45.36422984950953" lon="9.0660929817433"><ele>103.0</ele><time>2026-05-01T13:02:00Z</time></trkpt><trkpt lat="45.36418891129634" lon="9.065969506533468"><ele>103.00000000000001</ele><time>2026-05-01T13:02:02Z</time></trkpt><trkpt lat="45.36416867296828" lon="9.065873413970845"><ele>103.0</ele><time>2026-05-01T13:02:05Z</time></trkpt><trkpt lat="45.364112793470696" lon="9.065808164524759"><ele>103.0</ele><time>2026-05-01T13:03:21Z</time></trkpt><trkpt lat="45.36400662526685" lon="9.065851436293231"><ele>103.0</ele><time>2026-05-01T13:03:23Z</time></trkpt><trkpt lat="45.36390515809359" lon="9.06588800731099"><ele>103.0</ele><time>2026-05-01T13:03:25Z</time></trkpt><trkpt lat="45.36379250065951" lon="9.065935312519443"><ele>103.0</ele><time>2026-05-01T13:03:27Z</time></trkpt><trkpt lat="45.36368042465646" lon="9.06598066939134"><ele>103.0</ele><time>2026-05-01T13:03:29Z</time></trkpt><trkpt lat="45.36356632823575" lon="9.066025436639045"><ele>102.80000000000001</ele><time>2026-05-01T13:03:31Z</time></trkpt><trkpt lat="45.3634564982078" lon="9.066068883308477"><ele>102.6</ele><time>2026-05-01T13:03:33Z</time></trkpt><trkpt lat="45.36334245911594" lon="9.066110092581026"><ele>102.4</ele><time>2026-05-01T13:03:35Z</time></trkpt><trkpt lat="45.36322494108614" lon="9.066153923359977"><ele>102.19999999999999</ele><time>2026-05-01T13:03:37Z</time></trkpt><trkpt lat="45.3631626394602" lon="9.066178992060472"><ele>102.0</ele><time>2026-05-01T13:03:38Z</time></trkpt><trkpt lat="45.36309884518276" lon="9.066202300043756"><ele>102.19999999999999</ele><time>2026-05-01T13:03:39Z</time></trkpt><trkpt lat="45.362984818353745" lon="9.066242385963626"><ele>102.4</ele><time>2026-05-01T13:03:41Z</time></trkpt><trkpt lat="45.36292187433495" lon="9.06626869186412"><ele>102.6</ele><time>2026-05-01T13:03:42Z</time></trkpt><trkpt lat="45.36280558141458" lon="9.066310245359553"><ele>102.80000000000001</ele><time>2026-05-01T13:03:44Z</time></trkpt><trkpt lat="45.362744379507696" lon="9.066338368150776"><ele>103.0</ele><time>2026-05-01T13:03:45Z</time></trkpt><trkpt lat="45.36262549391265" lon="9.066381513410684"><ele>103.0</ele><time>2026-05-01T13:03:47Z</time></trkpt><trkpt lat="45.36256199048854" lon="9.066406511495861"><ele>103.0</ele><time>2026-05-01T13:03:48Z</time></trkpt><trkpt lat="45.36243683573678" lon="9.066452945706505"><ele>103.0</ele><time>2026-05-01T13:03:50Z</time></trkpt><trkpt lat="45.36237301240265" lon="9.066480817293566"><ele>103.0</ele><time>2026-05-01T13:03:51Z</time></trkpt><trkpt lat="45.36224997687308" lon="9.06653521020245"><ele>103.0</ele><time>2026-05-01T13:03:53Z</time></trkpt><trkpt lat="45.36218516010803" lon="9.066561114650156"><ele>103.0</ele><time>2026-05-01T13:03:54Z</time></trkpt><trkpt lat="45.36206384177001" lon="9.066608922731351"><ele>103.0</ele><time>2026-05-01T13:03:56Z</time></trkpt><trkpt lat="45.36193948563225" lon="9.066654315115105"><ele>103.0</ele><time>2026-05-01T13:03:58Z</time></trkpt><trkpt lat="45.36187208223682" lon="9.066681277812695"><ele>103.0</ele><time>2026-05-01T13:03:59Z</time></trkpt><trkpt lat="45.3618045925895" lon="9.066704509017983"><ele>103.0</ele><time>2026-05-01T13:04:00Z</time></trkpt><trkpt lat="45.36168514141483" lon="9.066751103609652"><ele>102.85714285714285</ele><time>2026-05-01T13:04:02Z</time></trkpt><trkpt lat="45.36161969996536" lon="9.066778514629675"><ele>102.71428571428571</ele><time>2026-05-01T13:04:03Z</time></trkpt><trkpt lat="45.36155347620579" lon="9.066802850149234"><ele>102.57142857142857</ele><time>2026-05-01T13:04:04Z</time></trkpt><trkpt lat="45.36148414058004" lon="9.066829530165993"><ele>102.42857142857142</ele><time>2026-05-01T13:04:05Z</time></trkpt><trkpt lat="45.36141812070977" lon="9.06685589880033"><ele>102.28571428571429</ele><time>2026-05-01T13:04:06Z</time></trkpt><trkpt lat="45.361353705751455" lon="9.066882590195764"><ele>102.14285714285714</ele><time>2026-05-01T13:04:07Z</time></trkpt><trkpt lat="45.36128430453352" lon="9.066910006289612"><ele>102.0</ele><time>2026-05-01T13:04:08Z</time></trkpt><trkpt lat="45.361220893695084" lon="9.066936363725587"><ele>102.39999999999999</ele><time>2026-05-01T13:04:09Z</time></trkpt><trkpt lat="45.36109931047062" lon="9.066983533414827"><ele>102.8</ele><time>2026-05-01T13:04:11Z</time></trkpt><trkpt lat="45.36103742458833" lon="9.067007988920619"><ele>103.2</ele><time>2026-05-01T13:04:12Z</time></trkpt><trkpt lat="45.36093076397817" lon="9.067048316499603"><ele>103.6</ele><time>2026-05-01T13:04:14Z</time></trkpt><trkpt lat="45.36085950851499" lon="9.067075593282985"><ele>104.0</ele><time>2026-05-01T13:04:16Z</time></trkpt><trkpt lat="45.36080261974785" lon="9.067167733689267"><ele>103.99999999999999</ele><time>2026-05-01T13:04:31Z</time></trkpt><trkpt lat="45.36079851948367" lon="9.067296820637623"><ele>104.0</ele><time>2026-05-01T13:04:33Z</time></trkpt><trkpt lat="45.36081505700645" lon="9.06740384170084"><ele>104.0</ele><time>2026-05-01T13:04:34Z</time></trkpt><trkpt lat="45.360820800620644" lon="9.067508158904937"><ele>104.0</ele><time>2026-05-01T13:04:35Z</time></trkpt><trkpt lat="45.36082641218494" lon="9.067635424793933"><ele>103.99999999999999</ele><time>2026-05-01T13:04:36Z</time></trkpt><trkpt lat="45.36083107536201" lon="9.067748437369767"><ele>104.0</ele><time>2026-05-01T13:04:37Z</time></trkpt><trkpt lat="45.360839228356454" lon="9.067845222740322"><ele>104.0</ele><time>2026-05-01T13:04:38Z</time></trkpt><trkpt lat="45.36084268265183" lon="9.067934922331045"><ele>104.0</ele><time>2026-05-01T13:04:39Z</time></trkpt><trkpt lat="45.36084800515004" lon="9.06810681199391"><ele>104.0</ele><time>2026-05-01T13:04:41Z</time></trkpt><trkpt lat="45.360854694575885" lon="9.068269975963156"><ele>104.0</ele><time>2026-05-01T13:04:43Z</time></trkpt><trkpt lat="45.360862579731574" lon="9.068429946060972"><ele>104.0</ele><time>2026-05-01T13:04:45Z</time></trkpt><trkpt lat="45.360871820254616" lon="9.068583492406812"><ele>103.80000000000001</ele><time>2026-05-01T13:04:47Z</time></trkpt><trkpt lat="45.36087897515127" lon="9.068703794676832"><ele>103.60000000000001</ele><time>2026-05-01T13:04:49Z</time></trkpt><trkpt lat="45.36083406212743" lon="9.068805907581368"><ele>103.4</ele><time>2026-05-01T13:04:51Z</time></trkpt><trkpt lat="45.360700859069695" lon="9.068828628810508"><ele>103.2</ele><time>2026-05-01T13:04:53Z</time></trkpt><trkpt lat="45.360608131108975" lon="9.068818971965014"><ele>103.0</ele><time>2026-05-01T13:04:54Z</time></trkpt><trkpt lat="45.36051472695153" lon="9.068826731968743"><ele>103.0</ele><time>2026-05-01T13:04:55Z</time></trkpt><trkpt lat="45.36041075343323" lon="9.068834241868835"><ele>103.0</ele><time>2026-05-01T13:04:56Z</time></trkpt><trkpt lat="45.36032205205319" lon="9.068842051620269"><ele>103.0</ele><time>2026-05-01T13:04:57Z</time></trkpt><trkpt lat="45.36023871450385" lon="9.068849389518144"><ele>103.0</ele><time>2026-05-01T13:04:58Z</time></trkpt><trkpt lat="45.36015339520091" lon="9.068855315753629"><ele>103.0</ele><time>2026-05-01T13:04:59Z</time></trkpt><trkpt lat="45.36006268440126" lon="9.068858050924012"><ele>103.00000000000001</ele><time>2026-05-01T13:05:00Z</time></trkpt><trkpt lat="45.35997335436685" lon="9.06886128213156"><ele>103.0</ele><time>2026-05-01T13:05:01Z</time></trkpt><trkpt lat="45.35988927775002" lon="9.068865531271188"><ele>103.0</ele><time>2026-05-01T13:05:02Z</time></trkpt><trkpt lat="45.35980631706315" lon="9.068870355225979"><ele>103.0</ele><time>2026-05-01T13:05:03Z</time></trkpt><trkpt lat="45.35973344621437" lon="9.068876994017662"><ele>103.00000000000001</ele><time>2026-05-01T13:05:04Z</time></trkpt><trkpt lat="45.35967032917225" lon="9.06887931377027"><ele>103.0</ele><time>2026-05-01T13:05:05Z</time></trkpt><trkpt lat="45.35956381838487" lon="9.068890707742991"><ele>102.66666666666667</ele><time>2026-05-01T13:05:07Z</time></trkpt><trkpt lat="45.35950100518366" lon="9.068931683452561"><ele>102.33333333333334</ele><time>2026-05-01T13:05:08Z</time></trkpt><trkpt lat="45.35943642101446" lon="9.068942519936522"><ele>102.0</ele><time>2026-05-01T13:05:09Z</time></trkpt><trkpt lat="45.35937057009923" lon="9.068949505095514"><ele>101.66666666666666</ele><time>2026-05-01T13:05:10Z</time></trkpt><trkpt lat="45.35928405699358" lon="9.068961672963628"><ele>101.33333333333333</ele><time>2026-05-01T13:05:12Z</time></trkpt><trkpt lat="45.359215166688784" lon="9.068972500678052"><ele>101.0</ele><time>2026-05-01T13:05:16Z</time></trkpt><trkpt lat="45.359174144784944" lon="9.068731772170985"><ele>100.99999999999999</ele><time>2026-05-01T13:05:18Z</time></trkpt><trkpt lat="45.35917942391508" lon="9.068597297721338"><ele>101.0</ele><time>2026-05-01T13:05:19Z</time></trkpt><trkpt lat="45.35917713175233" lon="9.068475537956864"><ele>101.0</ele><time>2026-05-01T13:05:20Z</time></trkpt><trkpt lat="45.35917202788661" lon="9.06835580439617"><ele>101.0</ele><time>2026-05-01T13:05:21Z</time></trkpt><trkpt lat="45.35915336843187" lon="9.068238502324652"><ele>100.99999999999999</ele><time>2026-05-01T13:05:22Z</time></trkpt><trkpt lat="45.35911263888399" lon="9.068129104890216"><ele>101.0</ele><time>2026-05-01T13:05:23Z</time></trkpt><trkpt lat="45.35904719203871" lon="9.068018476372544"><ele>101.19999999999999</ele><time>2026-05-01T13:05:24Z</time></trkpt><trkpt lat="45.35895904422214" lon="9.067917333067502"><ele>101.39999999999999</ele><time>2026-05-01T13:05:25Z</time></trkpt><trkpt lat="45.35888031095089" lon="9.067811789211499"><ele>101.6</ele><time>2026-05-01T13:05:26Z</time></trkpt><trkpt lat="45.358805444688905" lon="9.067706742321274"><ele>101.8</ele><time>2026-05-01T13:05:27Z</time></trkpt><trkpt lat="45.358735394691514" lon="9.067610619763744"><ele>102.0</ele><time>2026-05-01T13:05:28Z</time></trkpt><trkpt lat="45.35867056863045" lon="9.06753396251682"><ele>102.19999999999999</ele><time>2026-05-01T13:05:29Z</time></trkpt><trkpt lat="45.35859358444348" lon="9.067487672573005"><ele>102.4</ele><time>2026-05-01T13:05:30Z</time></trkpt><trkpt lat="45.35850624295975" lon="9.067466230227499"><ele>102.6</ele><time>2026-05-01T13:05:31Z</time></trkpt><trkpt lat="45.35841908605943" lon="9.067465894327198"><ele>102.80000000000001</ele><time>2026-05-01T13:05:32Z</time></trkpt><trkpt lat="45.358325896657234" lon="9.067473642304735"><ele>103.0</ele><time>2026-05-01T13:05:33Z</time></trkpt><trkpt lat="45.35821719551634" lon="9.0674765443358"><ele>103.0</ele><time>2026-05-01T13:05:34Z</time></trkpt><trkpt lat="45.358109233309" lon="9.067481241256472"><ele>103.0</ele><time>2026-05-01T13:05:35Z</time></trkpt><trkpt lat="45.3579958424571" lon="9.067485242372609"><ele>103.0</ele><time>2026-05-01T13:05:36Z</time></trkpt><trkpt lat="45.357875394681216" lon="9.067491824601804"><ele>103.0</ele><time>2026-05-01T13:05:37Z</time></trkpt><trkpt lat="45.357753025209036" lon="9.06747711271623"><ele>103.0</ele><time>2026-05-01T13:05:38Z</time></trkpt><trkpt lat="45.35764035596633" lon="9.06748239347429"><ele>103.0</ele><time>2026-05-01T13:05:39Z</time></trkpt><trkpt lat="45.35754131138217" lon="9.067509061898512"><ele>103.0</ele><time>2026-05-01T13:05:40Z</time></trkpt><trkpt lat="45.35744529035156" lon="9.067512970641106"><ele>103.0</ele><time>2026-05-01T13:05:41Z</time></trkpt><trkpt lat="45.357359156232356" lon="9.067512108068339"><ele>103.0</ele><time>2026-05-01T13:05:42Z</time></trkpt><trkpt lat="45.3572785717331" lon="9.067519597860255"><ele>102.83333333333334</ele><time>2026-05-01T13:05:43Z</time></trkpt><trkpt lat="45.35719516336569" lon="9.067503480718829"><ele>102.66666666666667</ele><time>2026-05-01T13:05:44Z</time></trkpt><trkpt lat="45.35712609657221" lon="9.067541077158813"><ele>102.5</ele><time>2026-05-01T13:05:45Z</time></trkpt><trkpt lat="45.35702490839181" lon="9.067585889573532"><ele>102.33333333333334</ele><time>2026-05-01T13:05:47Z</time></trkpt><trkpt lat="45.35698037942459" lon="9.067671259755452"><ele>102.16666666666667</ele><time>2026-05-01T13:05:48Z</time></trkpt><trkpt lat="45.35699767738336" lon="9.06781350409387"><ele>102.0</ele><time>2026-05-01T13:05:49Z</time></trkpt><trkpt lat="45.35699022521089" lon="9.067966421594916"><ele>102.0</ele><time>2026-05-01T13:05:50Z</time></trkpt><trkpt lat="45.35699738976052" lon="9.068139573302757"><ele>102.0</ele><time>2026-05-01T13:05:51Z</time></trkpt><trkpt lat="45.3570059389178" lon="9.06832364909831"><ele>102.0</ele><time>2026-05-01T13:05:52Z</time></trkpt><trkpt lat="45.357009326883954" lon="9.068511765628397"><ele>102.0</ele><time>2026-05-01T13:05:53Z</time></trkpt><trkpt lat="45.357010084590705" lon="9.068708703505417"><ele>102.25</ele><time>2026-05-01T13:05:54Z</time></trkpt><trkpt lat="45.357016011821564" lon="9.06891843664528"><ele>102.5</ele><time>2026-05-01T13:05:55Z</time></trkpt><trkpt lat="45.357024417851946" lon="9.069120492124814"><ele>102.75</ele><time>2026-05-01T13:05:56Z</time></trkpt><trkpt lat="45.35703175997903" lon="9.069307326276647"><ele>103.0</ele><time>2026-05-01T13:05:57Z</time></trkpt><trkpt lat="45.35703787774626" lon="9.069479352278934"><ele>103.0</ele><time>2026-05-01T13:05:58Z</time></trkpt><trkpt lat="45.35704414716817" lon="9.069636032613799"><ele>103.0</ele><time>2026-05-01T13:05:59Z</time></trkpt><trkpt lat="45.35704638549613" lon="9.069768292021589"><ele>103.0</ele><time>2026-05-01T13:06:00Z</time></trkpt><trkpt lat="45.35704575687709" lon="9.069872822484541"><ele>103.0</ele><time>2026-05-01T13:06:01Z</time></trkpt><trkpt lat="45.35704769490554" lon="9.070011668073379"><ele>103.0</ele><time>2026-05-01T13:06:03Z</time></trkpt><trkpt lat="45.35700020772942" lon="9.070113112736811"><ele>103.00000000000001</ele><time>2026-05-01T13:06:06Z</time></trkpt><trkpt lat="45.356877226812976" lon="9.070116830053982"><ele>103.0</ele><time>2026-05-01T13:06:08Z</time></trkpt><trkpt lat="45.356791616202756" lon="9.070105460945225"><ele>103.0</ele><time>2026-05-01T13:06:09Z</time></trkpt><trkpt lat="45.35670874092072" lon="9.07010971305183"><ele>103.0</ele><time>2026-05-01T13:06:10Z</time></trkpt><trkpt lat="45.35662994214934" lon="9.07008786253935"><ele>103.00000000000001</ele><time>2026-05-01T13:06:11Z</time></trkpt><trkpt lat="45.356552773057295" lon="9.07008488788016"><ele>103.0</ele><time>2026-05-01T13:06:12Z</time></trkpt><trkpt lat="45.35647499699358" lon="9.070083872029407"><ele>103.0</ele><time>2026-05-01T13:06:13Z</time></trkpt><trkpt lat="45.356388854772" lon="9.070105086900032"><ele>103.0</ele><time>2026-05-01T13:06:14Z</time></trkpt><trkpt lat="45.356296016788036" lon="9.070091808275091"><ele>103.0</ele><time>2026-05-01T13:06:15Z</time></trkpt><trkpt lat="45.35619528990577" lon="9.070037884651875"><ele>103.0</ele><time>2026-05-01T13:06:16Z</time></trkpt><trkpt lat="45.356101286646584" lon="9.069959800448597"><ele>103.0</ele><time>2026-05-01T13:06:17Z</time></trkpt><trkpt lat="45.356005210765176" lon="9.069864412070668"><ele>102.80000000000001</ele><time>2026-05-01T13:06:18Z</time></trkpt><trkpt lat="45.35592045376972" lon="9.069766484737405"><ele>102.6</ele><time>2026-05-01T13:06:19Z</time></trkpt><trkpt lat="45.355837024909626" lon="9.0696697407663"><ele>102.4</ele><time>2026-05-01T13:06:20Z</time></trkpt><trkpt lat="45.35575972832663" lon="9.069578418412915"><ele>102.19999999999999</ele><time>2026-05-01T13:06:21Z</time></trkpt><trkpt lat="45.355700568543924" lon="9.069499635321044"><ele>102.0</ele><time>2026-05-01T13:06:22Z</time></trkpt><trkpt lat="45.355658054540385" lon="9.06943273356846"><ele>102.0</ele><time>2026-05-01T13:06:23Z</time></trkpt><trkpt lat="45.35559844964213" lon="9.069337861591888"><ele>102.0</ele><time>2026-05-01T13:06:25Z</time></trkpt><trkpt lat="45.35565422214498" lon="9.069191832258804"><ele>102.0</ele><time>2026-05-01T13:06:27Z</time></trkpt><trkpt lat="45.355707608974534" lon="9.06911218392376"><ele>102.0</ele><time>2026-05-01T13:06:28Z</time></trkpt><trkpt lat="45.355785113732885" lon="9.069031518300285"><ele>102.0</ele><time>2026-05-01T13:06:29Z</time></trkpt><trkpt lat="45.3558763999778" lon="9.068955106668247"><ele>102.0</ele><time>2026-05-01T13:06:30Z</time></trkpt><trkpt lat="45.35597670658676" lon="9.068857257546933"><ele>102.0</ele><time>2026-05-01T13:06:31Z</time></trkpt><trkpt lat="45.35607288199151" lon="9.068751038527012"><ele>102.0</ele><time>2026-05-01T13:06:32Z</time></trkpt><trkpt lat="45.356168523679735" lon="9.068636477609441"><ele>102.0</ele><time>2026-05-01T13:06:33Z</time></trkpt><trkpt lat="45.35626968467242" lon="9.068506179763787"><ele>102.0</ele><time>2026-05-01T13:06:34Z</time></trkpt><trkpt lat="45.35636669470386" lon="9.068358827117184"><ele>102.0</ele><time>2026-05-01T13:06:35Z</time></trkpt><trkpt lat="45.3564594938313" lon="9.068198582577942"><ele>102.0</ele><time>2026-05-01T13:06:36Z</time></trkpt><trkpt lat="45.356549902296855" lon="9.0680290003529"><ele>102.0</ele><time>2026-05-01T13:06:37Z</time></trkpt><trkpt lat="45.35663966433084" lon="9.067835790884077"><ele>102.0</ele><time>2026-05-01T13:06:38Z</time></trkpt><trkpt lat="45.35672310950653" lon="9.067638626806058"><ele>102.0</ele><time>2026-05-01T13:06:39Z</time></trkpt><trkpt lat="45.35679894115279" lon="9.067412756307537"><ele>102.0</ele><time>2026-05-01T13:06:40Z</time></trkpt><trkpt lat="45.35686109396177" lon="9.067198819653132"><ele>102.0</ele><time>2026-05-01T13:06:41Z</time></trkpt><trkpt lat="45.356911540780615" lon="9.066982961989314"><ele>102.0</ele><time>2026-05-01T13:06:42Z</time></trkpt><trkpt lat="45.35695242687582" lon="9.066753251778657"><ele>102.0</ele><time>2026-05-01T13:06:43Z</time></trkpt><trkpt lat="45.35698901973038" lon="9.06653053446226"><ele>102.0</ele><time>2026-05-01T13:06:44Z</time></trkpt><trkpt lat="45.35702519783685" lon="9.066298319408927"><ele>102.0</ele><time>2026-05-01T13:06:45Z</time></trkpt><trkpt lat="45.35705837766185" lon="9.066075195941522"><ele>102.0</ele><time>2026-05-01T13:06:46Z</time></trkpt><trkpt lat="45.357091982109026" lon="9.065844678349354"><ele>101.33333333333334</ele><time>2026-05-01T13:06:47Z</time></trkpt><trkpt lat="45.35712572106862" lon="9.065604989164449"><ele>100.66666666666667</ele><time>2026-05-01T13:06:48Z</time></trkpt><trkpt lat="45.357164260654386" lon="9.065373470924378"><ele>100.0</ele><time>2026-05-01T13:06:49Z</time></trkpt><trkpt lat="45.357201055221594" lon="9.06514550264272"><ele>100.66666666666667</ele><time>2026-05-01T13:06:50Z</time></trkpt><trkpt lat="45.35723567092975" lon="9.064904243610462"><ele>101.33333333333334</ele><time>2026-05-01T13:06:51Z</time></trkpt><trkpt lat="45.35727006560128" lon="9.064669273238833"><ele>102.0</ele><time>2026-05-01T13:06:52Z</time></trkpt><trkpt lat="45.357303916923385" lon="9.064437158623097"><ele>102.0</ele><time>2026-05-01T13:06:53Z</time></trkpt><trkpt lat="45.357339940576075" lon="9.064208434617647"><ele>102.0</ele><time>2026-05-01T13:06:54Z</time></trkpt><trkpt lat="45.35737341986126" lon="9.06398254642802"><ele>102.0</ele><time>2026-05-01T13:06:55Z</time></trkpt><trkpt lat="45.357406652566866" lon="9.0637618019782"><ele>101.66666666666666</ele><time>2026-05-01T13:06:56Z</time></trkpt><trkpt lat="45.35744113128864" lon="9.063536387002861"><ele>101.33333333333333</ele><time>2026-05-01T13:06:57Z</time></trkpt><trkpt lat="45.35747160599809" lon="9.063315252945841"><ele>101.0</ele><time>2026-05-01T13:06:58Z</time></trkpt><trkpt lat="45.35750159346014" lon="9.063099130032041"><ele>101.0</ele><time>2026-05-01T13:06:59Z</time></trkpt><trkpt lat="45.357523298066084" lon="9.062890920738086"><ele>101.0</ele><time>2026-05-01T13:07:00Z</time></trkpt><trkpt lat="45.357533390957045" lon="9.062731620275898"><ele>101.0</ele><time>2026-05-01T13:07:01Z</time></trkpt><trkpt lat="45.357535749643766" lon="9.06262117102669"><ele>101.0</ele><time>2026-05-01T13:07:02Z</time></trkpt><trkpt lat="45.35754788298507" lon="9.062527167668327"><ele>101.0</ele><time>2026-05-01T13:07:04Z</time></trkpt><trkpt lat="45.35771710298748" lon="9.06246703428296"><ele>101.0</ele><time>2026-05-01T13:07:10Z</time></trkpt><trkpt lat="45.357846353132985" lon="9.062443369038412"><ele>101.0</ele><time>2026-05-01T13:07:12Z</time></trkpt><trkpt lat="45.357933048149114" lon="9.062428596835607"><ele>101.0</ele><time>2026-05-01T13:07:13Z</time></trkpt><trkpt lat="45.35800948175951" lon="9.06241305248518"><ele>101.0</ele><time>2026-05-01T13:07:14Z</time></trkpt><trkpt lat="45.35810066427178" lon="9.062393632162019"><ele>101.0</ele><time>2026-05-01T13:07:15Z</time></trkpt><trkpt lat="45.358185737025366" lon="9.062376223340255"><ele>101.16666666666666</ele><time>2026-05-01T13:07:16Z</time></trkpt><trkpt lat="45.35827103188743" lon="9.062354904741033"><ele>101.33333333333333</ele><time>2026-05-01T13:07:17Z</time></trkpt><trkpt lat="45.358344932675436" lon="9.062339029647463"><ele>101.5</ele><time>2026-05-01T13:07:18Z</time></trkpt><trkpt lat="45.35841292093474" lon="9.06232353022181"><ele>101.66666666666666</ele><time>2026-05-01T13:07:19Z</time></trkpt><trkpt lat="45.358492224300214" lon="9.062305050334329"><ele>101.83333333333333</ele><time>2026-05-01T13:07:20Z</time></trkpt><trkpt lat="45.35856527035391" lon="9.062289093090106"><ele>102.0</ele><time>2026-05-01T13:07:21Z</time></trkpt><trkpt lat="45.35864303470232" lon="9.062272506049856"><ele>102.0</ele><time>2026-05-01T13:07:22Z</time></trkpt><trkpt lat="45.35878184663945" lon="9.06224529390783"><ele>102.0</ele><time>2026-05-01T13:07:24Z</time></trkpt><trkpt lat="45.35885952560636" lon="9.062230666072926"><ele>102.0</ele><time>2026-05-01T13:07:25Z</time></trkpt><trkpt lat="45.35893339259431" lon="9.06221824538736"><ele>102.0</ele><time>2026-05-01T13:07:26Z</time></trkpt><trkpt lat="45.359002167639545" lon="9.062204932906383"><ele>102.0</ele><time>2026-05-01T13:07:27Z</time></trkpt><trkpt lat="45.35907184301466" lon="9.062190102600972"><ele>102.0</ele><time>2026-05-01T13:07:28Z</time></trkpt><trkpt lat="45.35915874321857" lon="9.062171088023605"><ele>102.0</ele><time>2026-05-01T13:07:29Z</time></trkpt><trkpt lat="45.35925436551415" lon="9.062151652664308"><ele>102.0</ele><time>2026-05-01T13:07:30Z</time></trkpt><trkpt lat="45.35933701421635" lon="9.062135026609148"><ele>102.0</ele><time>2026-05-01T13:07:31Z</time></trkpt><trkpt lat="45.3594176966519" lon="9.062117782842309"><ele>102.0</ele><time>2026-05-01T13:07:32Z</time></trkpt><trkpt lat="45.35948737141716" lon="9.06210175526782"><ele>102.0</ele><time>2026-05-01T13:07:33Z</time></trkpt><trkpt lat="45.35956192550277" lon="9.06209093693069"><ele>102.0</ele><time>2026-05-01T13:07:34Z</time></trkpt><trkpt lat="45.35964036229626" lon="9.062071621587863"><ele>102.33333333333333</ele><time>2026-05-01T13:07:35Z</time></trkpt><trkpt lat="45.35971825452251" lon="9.062053196214118"><ele>102.66666666666666</ele><time>2026-05-01T13:07:36Z</time></trkpt><trkpt lat="45.35981014467228" lon="9.062034433913208"><ele>103.0</ele><time>2026-05-01T13:07:37Z</time></trkpt><trkpt lat="45.35990128183818" lon="9.062013974194508"><ele>103.33333333333333</ele><time>2026-05-01T13:07:38Z</time></trkpt><trkpt lat="45.359993301410974" lon="9.061994283247188"><ele>103.66666666666666</ele><time>2026-05-01T13:07:39Z</time></trkpt><trkpt lat="45.36008164347838" lon="9.061977209345441"><ele>104.0</ele><time>2026-05-01T13:07:40Z</time></trkpt><trkpt lat="45.360168243390916" lon="9.061959802112137"><ele>104.0</ele><time>2026-05-01T13:07:41Z</time></trkpt><trkpt lat="45.36026254149083" lon="9.061936543686771"><ele>104.0</ele><time>2026-05-01T13:07:42Z</time></trkpt><trkpt lat="45.36034878167968" lon="9.061919409735003"><ele>104.0</ele><time>2026-05-01T13:07:43Z</time></trkpt><trkpt lat="45.36044157808918" lon="9.061898434053946"><ele>104.0</ele><time>2026-05-01T13:07:44Z</time></trkpt><trkpt lat="45.36053716719667" lon="9.0618802871975"><ele>104.0</ele><time>2026-05-01T13:07:45Z</time></trkpt><trkpt lat="45.360636638800614" lon="9.061859020126164"><ele>103.80000000000001</ele><time>2026-05-01T13:07:46Z</time></trkpt><trkpt lat="45.36073166511273" lon="9.061838653654412"><ele>103.60000000000001</ele><time>2026-05-01T13:07:47Z</time></trkpt><trkpt lat="45.36082885614439" lon="9.061818123201736"><ele>103.4</ele><time>2026-05-01T13:07:48Z</time></trkpt><trkpt lat="45.36092438806536" lon="9.061796771396807"><ele>103.2</ele><time>2026-05-01T13:07:49Z</time></trkpt><trkpt lat="45.36102472811086" lon="9.061777998276257"><ele>103.0</ele><time>2026-05-01T13:07:50Z</time></trkpt><trkpt lat="45.36112329510209" lon="9.061752608828519"><ele>103.00000000000001</ele><time>2026-05-01T13:07:51Z</time></trkpt><trkpt lat="45.36120250647109" lon="9.061735815295492"><ele>103.0</ele><time>2026-05-01T13:07:52Z</time></trkpt><trkpt lat="45.36127633105629" lon="9.061720783051495"><ele>103.0</ele><time>2026-05-01T13:07:53Z</time></trkpt><trkpt lat="45.36133944018365" lon="9.061705954439358"><ele>103.0</ele><time>2026-05-01T13:07:54Z</time></trkpt><trkpt lat="45.36141911752142" lon="9.061681559256083"><ele>103.00000000000001</ele><time>2026-05-01T13:07:56Z</time></trkpt><trkpt lat="45.361474588241954" lon="9.061801671469903"><ele>103.0</ele><time>2026-05-01T13:08:23Z</time></trkpt><trkpt lat="45.36147141915096" lon="9.061907226800605"><ele>103.00000000000001</ele><time>2026-05-01T13:08:23.999Z</time></trkpt><trkpt lat="45.36148367137069" lon="9.061995560151143"><ele>103.0</ele><time>2026-05-01T13:08:24.999Z</time></trkpt><trkpt lat="45.36149537526274" lon="9.06209218272314"><ele>103.0</ele><time>2026-05-01T13:08:25.999Z</time></trkpt><trkpt lat="45.36150452171198" lon="9.062185082006298"><ele>103.0</ele><time>2026-05-01T13:08:26.999Z</time></trkpt><trkpt lat="45.3615256520403" lon="9.062355002824317"><ele>103.00000000000001</ele><time>2026-05-01T13:08:28.999Z</time></trkpt><trkpt lat="45.36154792204735" lon="9.062492074835493"><ele>103.0</ele><time>2026-05-01T13:08:30.999Z</time></trkpt><trkpt lat="45.36161200084437" lon="9.06255197009391"><ele>103.00000000000001</ele><time>2026-05-01T13:08:33Z</time></trkpt><trkpt lat="45.36169375592909" lon="9.06251539473796"><ele>103.0</ele><time>2026-05-01T13:08:35Z</time></trkpt><trkpt lat="45.36177968285737" lon="9.062474719006993"><ele>103.0</ele><time>2026-05-01T13:08:36Z</time></trkpt><trkpt lat="45.36187168875383" lon="9.062441861704862"><ele>103.0</ele><time>2026-05-01T13:08:37Z</time></trkpt><trkpt lat="45.36194397148034" lon="9.062415150875191"><ele>103.00000000000001</ele><time>2026-05-01T13:08:38Z</time></trkpt><trkpt lat="45.36201829428325" lon="9.062389474828407"><ele>103.0</ele><time>2026-05-01T13:08:39Z</time></trkpt><trkpt lat="45.362093458116014" lon="9.062355820449149"><ele>103.00000000000001</ele><time>2026-05-01T13:08:40Z</time></trkpt><trkpt lat="45.36215763452417" lon="9.062318199371798"><ele>103.0</ele><time>2026-05-01T13:08:41Z</time></trkpt><trkpt lat="45.362235292669716" lon="9.062283776451766"><ele>103.0</ele><time>2026-05-01T13:08:42Z</time></trkpt><trkpt lat="45.36230662016076" lon="9.062261441237762"><ele>103.0</ele><time>2026-05-01T13:08:43Z</time></trkpt><trkpt lat="45.362375915354946" lon="9.062223105107357"><ele>103.00000000000001</ele><time>2026-05-01T13:08:44Z</time></trkpt><trkpt lat="45.36244872273317" lon="9.062173416842452"><ele>103.0</ele><time>2026-05-01T13:08:45Z</time></trkpt><trkpt lat="45.36251830175014" lon="9.062121745800722"><ele>103.0</ele><time>2026-05-01T13:08:46Z</time></trkpt><trkpt lat="45.362594164791126" lon="9.062081312724441"><ele>103.0</ele><time>2026-05-01T13:08:47Z</time></trkpt><trkpt lat="45.36268720481808" lon="9.06204051264008"><ele>103.0</ele><time>2026-05-01T13:08:48Z</time></trkpt><trkpt lat="45.36277746563627" lon="9.062001566831277"><ele>103.0</ele><time>2026-05-01T13:08:49Z</time></trkpt><trkpt lat="45.362868914354955" lon="9.061963496097182"><ele>103.0</ele><time>2026-05-01T13:08:50Z</time></trkpt><trkpt lat="45.362946057046756" lon="9.061920016702805"><ele>103.00000000000001</ele><time>2026-05-01T13:08:51Z</time></trkpt><trkpt lat="45.363040023958156" lon="9.061879989928526"><ele>103.0</ele><time>2026-05-01T13:08:52Z</time></trkpt><trkpt lat="45.363118356742774" lon="9.061832946204579"><ele>103.0</ele><time>2026-05-01T13:08:53Z</time></trkpt><trkpt lat="45.36320229975737" lon="9.061792212291449"><ele>103.0</ele><time>2026-05-01T13:08:54Z</time></trkpt><trkpt lat="45.36328514271674" lon="9.061758005482472"><ele>103.00000000000001</ele><time>2026-05-01T13:08:55Z</time></trkpt><trkpt lat="45.363365992504" lon="9.061722710268423"><ele>103.0</ele><time>2026-05-01T13:08:56Z</time></trkpt><trkpt lat="45.36344918243329" lon="9.06168580410321"><ele>103.00000000000001</ele><time>2026-05-01T13:08:57Z</time></trkpt><trkpt lat="45.36352448875477" lon="9.061645670362427"><ele>103.0</ele><time>2026-05-01T13:08:58Z</time></trkpt><trkpt lat="45.363606262106586" lon="9.061603314760166"><ele>103.0</ele><time>2026-05-01T13:08:59Z</time></trkpt><trkpt lat="45.36368237253508" lon="9.061566505617495"><ele>103.0</ele><time>2026-05-01T13:09:00Z</time></trkpt><trkpt lat="45.3637637429085" lon="9.061530397250339"><ele>103.00000000000001</ele><time>2026-05-01T13:09:01Z</time></trkpt><trkpt lat="45.36383953216453" lon="9.061488392959726"><ele>103.0</ele><time>2026-05-01T13:09:02Z</time></trkpt><trkpt lat="45.36391358144381" lon="9.061449095468552"><ele>103.00000000000001</ele><time>2026-05-01T13:09:03Z</time></trkpt><trkpt lat="45.36401527616218" lon="9.061390774512937"><ele>103.0</ele><time>2026-05-01T13:09:05Z</time></trkpt><trkpt lat="45.36407181185094" lon="9.06135031544233"><ele>103.0</ele><time>2026-05-01T13:09:08Z</time></trkpt><trkpt lat="45.36414282369221" lon="9.061362123815151"><ele>103.0</ele><time>2026-05-01T13:09:29Z</time></trkpt><trkpt lat="45.36408593856804" lon="9.06129395811263"><ele>103.00000000000001</ele><time>2026-05-01T13:10:10Z</time></trkpt><trkpt lat="45.36405194879718" lon="9.06121759968765"><ele>103.0</ele><time>2026-05-01T13:10:16Z</time></trkpt><trkpt lat="45.36402884934308" lon="9.06112728782262"><ele>102.99999999999999</ele><time>2026-05-01T13:10:22Z</time></trkpt><trkpt lat="45.36400637057833" lon="9.06102897896816"><ele>103.0</ele><time>2026-05-01T13:10:27.999Z</time></trkpt><trkpt lat="45.36397453479201" lon="9.060948007153968"><ele>103.0</ele><time>2026-05-01T13:10:33.999Z</time></trkpt><trkpt lat="45.363956295103776" lon="9.060859650203618"><ele>103.0</ele><time>2026-05-01T13:10:39Z</time></trkpt><trkpt lat="45.363946913401016" lon="9.06076657155678"><ele>103.0</ele><time>2026-05-01T13:10:44Z</time></trkpt><trkpt lat="45.36393038398313" lon="9.060672981960469"><ele>102.99999999999999</ele><time>2026-05-01T13:10:49Z</time></trkpt><trkpt lat="45.36391500665208" lon="9.060562374844233"><ele>103.0</ele><time>2026-05-01T13:10:55Z</time></trkpt><trkpt lat="45.36390156281698" lon="9.060457704435326"><ele>102.99999999999999</ele><time>2026-05-01T13:11:01Z</time></trkpt><trkpt lat="45.363890705660324" lon="9.060369240711896"><ele>103.0</ele><time>2026-05-01T13:11:06Z</time></trkpt><trkpt lat="45.36388148203499" lon="9.060274253077445"><ele>103.0</ele><time>2026-05-01T13:11:11Z</time></trkpt><trkpt lat="45.363866462665115" lon="9.060187113974584"><ele>103.0</ele><time>2026-05-01T13:11:17Z</time></trkpt><trkpt lat="45.36388658646855" lon="9.060272648968512"><ele>103.0</ele><time>2026-05-01T13:11:38Z</time></trkpt><trkpt lat="45.363874792703236" lon="9.060184554224085"><ele>102.99999999999999</ele><time>2026-05-01T13:11:50Z</time></trkpt><trkpt lat="45.36386922942094" lon="9.06008777728823"><ele>103.0</ele><time>2026-05-01T13:11:56Z</time></trkpt><trkpt lat="45.363852402482394" lon="9.059983595830852"><ele>102.99999999999999</ele><time>2026-05-01T13:12:03Z</time></trkpt><trkpt lat="45.363810278872876" lon="9.059912202952907"><ele>103.0</ele><time>2026-05-01T13:12:12Z</time></trkpt><trkpt lat="45.363736458263375" lon="9.059907717009676"><ele>103.0</ele><time>2026-05-01T13:12:18Z</time></trkpt><trkpt lat="45.363664188843345" lon="9.059909389849329"><ele>103.0</ele><time>2026-05-01T13:12:24Z</time></trkpt><trkpt lat="45.3636671906128" lon="9.059814871936657"><ele>103.0</ele><time>2026-05-01T13:12:33.999Z</time></trkpt><trkpt lat="45.3636968608129" lon="9.059920194604372"><ele>102.99999999999999</ele><time>2026-05-01T13:14:24Z</time></trkpt><trkpt lat="45.363763360951765" lon="9.059909387137399"><ele>103.0</ele><time>2026-05-01T13:14:30Z</time></trkpt><trkpt lat="45.363834184088795" lon="9.059940169973926"><ele>102.99999999999999</ele><time>2026-05-01T13:14:36Z</time></trkpt><trkpt lat="45.36385149997074" lon="9.060031385109657"><ele>103.0</ele><time>2026-05-01T13:14:41Z</time></trkpt><trkpt lat="45.36386552380254" lon="9.060133581491755"><ele>103.0</ele><time>2026-05-01T13:14:47Z</time></trkpt><trkpt lat="45.36387913671117" lon="9.060230958896627"><ele>103.0</ele><time>2026-05-01T13:14:53Z</time></trkpt><trkpt lat="45.363893656361874" lon="9.06033317558268"><ele>103.0</ele><time>2026-05-01T13:14:59Z</time></trkpt><trkpt lat="45.36390921423445" lon="9.06043810131747"><ele>102.99999999999999</ele><time>2026-05-01T13:15:05Z</time></trkpt><trkpt lat="45.36392001124896" lon="9.06053989306627"><ele>103.0</ele><time>2026-05-01T13:15:11Z</time></trkpt><trkpt lat="45.36393195964908" lon="9.060634191185406"><ele>102.99999999999999</ele><time>2026-05-01T13:15:17Z</time></trkpt><trkpt lat="45.36394246929063" lon="9.060728790625964"><ele>103.0</ele><time>2026-05-01T13:15:23Z</time></trkpt><trkpt lat="45.36395593738943" lon="9.060816889005807"><ele>103.0</ele><time>2026-05-01T13:15:28Z</time></trkpt><trkpt lat="45.363972100495275" lon="9.060912296618804"><ele>103.0</ele><time>2026-05-01T13:15:34Z</time></trkpt><trkpt lat="45.36399148498719" lon="9.061008977604176"><ele>103.0</ele><time>2026-05-01T13:15:40Z</time></trkpt><trkpt lat="45.36400430776853" lon="9.061097938229388"><ele>102.99999999999999</ele><time>2026-05-01T13:15:45Z</time></trkpt><trkpt lat="45.364021529731104" lon="9.06119602036627"><ele>103.0</ele><time>2026-05-01T13:15:51Z</time></trkpt><trkpt lat="45.3640492785578" lon="9.06128800432374"><ele>103.0</ele><time>2026-05-01T13:15:57Z</time></trkpt><trkpt lat="45.36410985740168" lon="9.06134111735751"><ele>103.0</ele><time>2026-05-01T13:16:03Z</time></trkpt><trkpt lat="45.36416079880769" lon="9.06139380707602"><ele>103.0</ele><time>2026-05-01T13:16:08Z</time></trkpt><trkpt lat="45.3640435227152" lon="9.061369274872703"><ele>103.0</ele><time>2026-05-01T13:18:03Z</time></trkpt><trkpt lat="45.363978924765235" lon="9.061393955115001"><ele>103.0</ele><time>2026-05-01T13:18:04Z</time></trkpt><trkpt lat="45.363855067811386" lon="9.061466908515797"><ele>103.0</ele><time>2026-05-01T13:18:06Z</time></trkpt><trkpt lat="45.363760530496386" lon="9.061516766760624"><ele>103.0</ele><time>2026-05-01T13:18:07Z</time></trkpt><trkpt lat="45.36366803882507" lon="9.061565993687914"><ele>103.0</ele><time>2026-05-01T13:18:08Z</time></trkpt><trkpt lat="45.363577981983205" lon="9.06160666980781"><ele>103.0</ele><time>2026-05-01T13:18:09Z</time></trkpt><trkpt lat="45.363497770687985" lon="9.061649015554368"><ele>103.0</ele><time>2026-05-01T13:18:10Z</time></trkpt><trkpt lat="45.36340940524521" lon="9.061688359299266"><ele>103.0</ele><time>2026-05-01T13:18:11Z</time></trkpt><trkpt lat="45.36332734167592" lon="9.061728821686673"><ele>103.0</ele><time>2026-05-01T13:18:12Z</time></trkpt><trkpt lat="45.363249282394044" lon="9.061766879923372"><ele>103.0</ele><time>2026-05-01T13:18:13Z</time></trkpt><trkpt lat="45.363160373339426" lon="9.061805932572824"><ele>103.0</ele><time>2026-05-01T13:18:14Z</time></trkpt><trkpt lat="45.363065881950064" lon="9.06185354725271"><ele>103.0</ele><time>2026-05-01T13:18:15Z</time></trkpt><trkpt lat="45.362967923983334" lon="9.061899679811674"><ele>103.0</ele><time>2026-05-01T13:18:16Z</time></trkpt><trkpt lat="45.362871399030396" lon="9.061945599306473"><ele>103.0</ele><time>2026-05-01T13:18:17Z</time></trkpt><trkpt lat="45.362774605626605" lon="9.061996340901493"><ele>103.0</ele><time>2026-05-01T13:18:18Z</time></trkpt><trkpt lat="45.362677423939815" lon="9.06203655368848"><ele>103.0</ele><time>2026-05-01T13:18:19Z</time></trkpt><trkpt lat="45.3625786741408" lon="9.062080698890801"><ele>103.0</ele><time>2026-05-01T13:18:20Z</time></trkpt><trkpt lat="45.36249171314311" lon="9.062115687722095"><ele>103.00000000000001</ele><time>2026-05-01T13:18:21Z</time></trkpt><trkpt lat="45.36242258618377" lon="9.062160622278837"><ele>103.0</ele><time>2026-05-01T13:18:22Z</time></trkpt><trkpt lat="45.36234814860366" lon="9.062211953030008"><ele>103.0</ele><time>2026-05-01T13:18:23Z</time></trkpt><trkpt lat="45.362259756304766" lon="9.062266128016521"><ele>103.0</ele><time>2026-05-01T13:18:24Z</time></trkpt><trkpt lat="45.36217423342765" lon="9.06230933277583"><ele>103.00000000000001</ele><time>2026-05-01T13:18:25Z</time></trkpt><trkpt lat="45.36208429835937" lon="9.062339107433205"><ele>103.0</ele><time>2026-05-01T13:18:26Z</time></trkpt><trkpt lat="45.361995549784424" lon="9.062383125060007"><ele>102.99999999999999</ele><time>2026-05-01T13:18:27Z</time></trkpt><trkpt lat="45.361928184090445" lon="9.062426102151576"><ele>103.0</ele><time>2026-05-01T13:18:28Z</time></trkpt><trkpt lat="45.36185831342504" lon="9.06243774936221"><ele>103.0</ele><time>2026-05-01T13:18:29Z</time></trkpt><trkpt lat="45.36178822844719" lon="9.062456708908721"><ele>103.0</ele><time>2026-05-01T13:18:30Z</time></trkpt><trkpt lat="45.36172176808353" lon="9.062479391300123"><ele>103.0</ele><time>2026-05-01T13:18:31Z</time></trkpt><trkpt lat="45.36166332179985" lon="9.062524283396383"><ele>102.99999999999999</ele><time>2026-05-01T13:18:32Z</time></trkpt><trkpt lat="45.36156850075471" lon="9.062559919186095"><ele>103.0</ele><time>2026-05-01T13:18:34Z</time></trkpt><trkpt lat="45.361514245074" lon="9.062482992069333"><ele>103.0</ele><time>2026-05-01T13:18:35.999Z</time></trkpt><trkpt lat="45.361504765006224" lon="9.06238450976636"><ele>103.0</ele><time>2026-05-01T13:18:36.999Z</time></trkpt><trkpt lat="45.36149835167851" lon="9.06224507265584"><ele>103.0</ele><time>2026-05-01T13:18:37.999Z</time></trkpt><trkpt lat="45.361481270425436" lon="9.062086191637908"><ele>103.0</ele><time>2026-05-01T13:18:38.999Z</time></trkpt><trkpt lat="45.36147024851544" lon="9.061948893412227"><ele>103.0</ele><time>2026-05-01T13:18:39.999Z</time></trkpt><trkpt lat="45.361460501496644" lon="9.061843848515698"><ele>103.0</ele><time>2026-05-01T13:18:40.999Z</time></trkpt><trkpt lat="45.361450842529955" lon="9.061714953900568"><ele>103.0</ele><time>2026-05-01T13:18:42.999Z</time></trkpt><trkpt lat="45.36134825979554" lon="9.06167249592161"><ele>103.0</ele><time>2026-05-01T13:18:46.999Z</time></trkpt><trkpt lat="45.36127554420546" lon="9.06170482558593"><ele>103.0</ele><time>2026-05-01T13:18:47.999Z</time></trkpt><trkpt lat="45.36118305573819" lon="9.061744816266051"><ele>103.0</ele><time>2026-05-01T13:18:48.999Z</time></trkpt><trkpt lat="45.36107986528151" lon="9.061761364700832"><ele>103.0</ele><time>2026-05-01T13:18:49.999Z</time></trkpt><trkpt lat="45.36095718795146" lon="9.061783216379837"><ele>103.0</ele><time>2026-05-01T13:18:50.999Z</time></trkpt><trkpt lat="45.36084436570443" lon="9.06180827662447"><ele>103.0</ele><time>2026-05-01T13:18:51.999Z</time></trkpt><trkpt lat="45.36073691036954" lon="9.061830958521933"><ele>103.0</ele><time>2026-05-01T13:18:52.999Z</time></trkpt><trkpt lat="45.3606260926278" lon="9.061856418570432"><ele>103.2</ele><time>2026-05-01T13:18:53.999Z</time></trkpt><trkpt lat="45.360518985530355" lon="9.06187508027691"><ele>103.4</ele><time>2026-05-01T13:18:54.999Z</time></trkpt><trkpt lat="45.36041018356679" lon="9.06189593358427"><ele>103.60000000000001</ele><time>2026-05-01T13:18:55.999Z</time></trkpt><trkpt lat="45.360311576868355" lon="9.061916855569661"><ele>103.80000000000001</ele><time>2026-05-01T13:18:56.999Z</time></trkpt><trkpt lat="45.36021439355903" lon="9.061936072404201"><ele>104.0</ele><time>2026-05-01T13:18:57.999Z</time></trkpt><trkpt lat="45.36010696212801" lon="9.061964027786606"><ele>104.0</ele><time>2026-05-01T13:18:58.999Z</time></trkpt><trkpt lat="45.36000675251069" lon="9.061990272131943"><ele>104.0</ele><time>2026-05-01T13:18:59.999Z</time></trkpt><trkpt lat="45.359910626300156" lon="9.062009499081245"><ele>104.0</ele><time>2026-05-01T13:19:00.999Z</time></trkpt><trkpt lat="45.359820822253525" lon="9.062025436372952"><ele>104.0</ele><time>2026-05-01T13:19:01.999Z</time></trkpt><trkpt lat="45.35972694624304" lon="9.062042285053183"><ele>104.0</ele><time>2026-05-01T13:19:03Z</time></trkpt><trkpt lat="45.359642176559866" lon="9.062063597436028"><ele>103.6</ele><time>2026-05-01T13:19:04Z</time></trkpt><trkpt lat="45.35956026814448" lon="9.062082861527646"><ele>103.2</ele><time>2026-05-01T13:19:05Z</time></trkpt><trkpt lat="45.359465550734946" lon="9.062098985303722"><ele>102.8</ele><time>2026-05-01T13:19:06Z</time></trkpt><trkpt lat="45.35936548964841" lon="9.062114154867253"><ele>102.39999999999999</ele><time>2026-05-01T13:19:07Z</time></trkpt><trkpt lat="45.35926557612522" lon="9.06213833359293"><ele>102.0</ele><time>2026-05-01T13:19:08Z</time></trkpt><trkpt lat="45.35915863120816" lon="9.062161340376884"><ele>102.0</ele><time>2026-05-01T13:19:09Z</time></trkpt><trkpt lat="45.35905093296874" lon="9.062186865689112"><ele>102.0</ele><time>2026-05-01T13:19:10Z</time></trkpt><trkpt lat="45.358940617624675" lon="9.062209396921563"><ele>102.0</ele><time>2026-05-01T13:19:11Z</time></trkpt><trkpt lat="45.35882812153684" lon="9.062235016708257"><ele>102.0</ele><time>2026-05-01T13:19:12Z</time></trkpt><trkpt lat="45.35872330537645" lon="9.062254203298052"><ele>102.0</ele><time>2026-05-01T13:19:13Z</time></trkpt><trkpt lat="45.35862161074728" lon="9.062270837825723"><ele>102.0</ele><time>2026-05-01T13:19:14Z</time></trkpt><trkpt lat="45.35853189799048" lon="9.062288160819696"><ele>102.0</ele><time>2026-05-01T13:19:15Z</time></trkpt><trkpt lat="45.35844149256742" lon="9.062305849447489"><ele>102.0</ele><time>2026-05-01T13:19:16Z</time></trkpt><trkpt lat="45.35834693261783" lon="9.062327241241105"><ele>102.0</ele><time>2026-05-01T13:19:17Z</time></trkpt><trkpt lat="45.3582521712406" lon="9.062348115002054"><ele>102.0</ele><time>2026-05-01T13:19:18Z</time></trkpt><trkpt lat="45.35815956658362" lon="9.06236479593594"><ele>102.0</ele><time>2026-05-01T13:19:19Z</time></trkpt><trkpt lat="45.35806750681497" lon="9.062387551665388"><ele>102.0</ele><time>2026-05-01T13:19:20Z</time></trkpt><trkpt lat="45.357974751249664" lon="9.062409827861732"><ele>102.0</ele><time>2026-05-01T13:19:21Z</time></trkpt><trkpt lat="45.357882926472165" lon="9.06242517663581"><ele>102.0</ele><time>2026-05-01T13:19:22Z</time></trkpt><trkpt lat="45.357805256925026" lon="9.062437671555104"><ele>102.0</ele><time>2026-05-01T13:19:23Z</time></trkpt><trkpt lat="45.35773017491052" lon="9.062448524171307"><ele>102.0</ele><time>2026-05-01T13:19:25Z</time></trkpt><trkpt lat="45.35765248987613" lon="9.062461735299953"><ele>101.83333333333333</ele><time>2026-05-01T13:19:36Z</time></trkpt><trkpt lat="45.35756700916204" lon="9.062465673527413"><ele>101.66666666666666</ele><time>2026-05-01T13:19:38Z</time></trkpt><trkpt lat="45.35752168508858" lon="9.062360599197948"><ele>101.5</ele><time>2026-05-01T13:19:40Z</time></trkpt><trkpt lat="45.357531103655475" lon="9.062271999589914"><ele>101.33333333333333</ele><time>2026-05-01T13:19:41Z</time></trkpt><trkpt lat="45.35753377716101" lon="9.062159921608325"><ele>101.16666666666666</ele><time>2026-05-01T13:19:42Z</time></trkpt><trkpt lat="45.35753114376629" lon="9.062027709703813"><ele>101.0</ele><time>2026-05-01T13:19:43Z</time></trkpt><trkpt lat="45.357524373632835" lon="9.061888390650717"><ele>101.0</ele><time>2026-05-01T13:19:44Z</time></trkpt><trkpt lat="45.35751343081632" lon="9.061734323559357"><ele>101.0</ele><time>2026-05-01T13:19:45Z</time></trkpt><trkpt lat="45.35749853721582" lon="9.061567410426557"><ele>101.0</ele><time>2026-05-01T13:19:46Z</time></trkpt><trkpt lat="45.35748167616394" lon="9.06140045987891"><ele>101.0</ele><time>2026-05-01T13:19:47Z</time></trkpt><trkpt lat="45.35746143497228" lon="9.061224464778862"><ele>101.5</ele><time>2026-05-01T13:19:48Z</time></trkpt><trkpt lat="45.35744402140145" lon="9.061044164205873"><ele>102.0</ele><time>2026-05-01T13:19:49Z</time></trkpt><trkpt lat="45.35742747978475" lon="9.060856863942952"><ele>102.5</ele><time>2026-05-01T13:19:50Z</time></trkpt><trkpt lat="45.357408035157256" lon="9.060668857339468"><ele>103.0</ele><time>2026-05-01T13:19:51Z</time></trkpt><trkpt lat="45.35739128902173" lon="9.060482545951544"><ele>103.0</ele><time>2026-05-01T13:19:52Z</time></trkpt><trkpt lat="45.35737701908539" lon="9.0602942342152"><ele>103.0</ele><time>2026-05-01T13:19:53Z</time></trkpt><trkpt lat="45.35735983119111" lon="9.060109784712695"><ele>103.0</ele><time>2026-05-01T13:19:54Z</time></trkpt><trkpt lat="45.35733955958574" lon="9.059913942028572"><ele>103.0</ele><time>2026-05-01T13:19:55Z</time></trkpt><trkpt lat="45.35732171386518" lon="9.059712271762788"><ele>103.33333333333334</ele><time>2026-05-01T13:19:56Z</time></trkpt><trkpt lat="45.35730120282852" lon="9.05949146298659"><ele>103.66666666666666</ele><time>2026-05-01T13:19:57Z</time></trkpt><trkpt lat="45.35727843092367" lon="9.059268124232029"><ele>104.0</ele><time>2026-05-01T13:19:58Z</time></trkpt><trkpt lat="45.357255680647526" lon="9.059042613043925"><ele>104.33333333333333</ele><time>2026-05-01T13:19:59Z</time></trkpt><trkpt lat="45.35723358952427" lon="9.058819238556715"><ele>104.66666666666666</ele><time>2026-05-01T13:20:00Z</time></trkpt><trkpt lat="45.35721001897469" lon="9.058591603116156"><ele>105.0</ele><time>2026-05-01T13:20:01Z</time></trkpt><trkpt lat="45.35718670987833" lon="9.058366554579246"><ele>104.66666666666666</ele><time>2026-05-01T13:20:02Z</time></trkpt><trkpt lat="45.35716474927089" lon="9.058146236798144"><ele>104.33333333333333</ele><time>2026-05-01T13:20:03Z</time></trkpt><trkpt lat="45.3571407480733" lon="9.05791453627631"><ele>104.0</ele><time>2026-05-01T13:20:04Z</time></trkpt><trkpt lat="45.35712138477587" lon="9.057699456874285"><ele>104.0</ele><time>2026-05-01T13:20:05Z</time></trkpt><trkpt lat="45.35710115816461" lon="9.057475419895923"><ele>104.0</ele><time>2026-05-01T13:20:06Z</time></trkpt><trkpt lat="45.35707968439603" lon="9.057253491459974"><ele>104.0</ele><time>2026-05-01T13:20:07Z</time></trkpt><trkpt lat="45.357059660503886" lon="9.057037867319886"><ele>103.75</ele><time>2026-05-01T13:20:08Z</time></trkpt><trkpt lat="45.35704064101465" lon="9.05682610884423"><ele>103.5</ele><time>2026-05-01T13:20:09Z</time></trkpt><trkpt lat="45.357021286917146" lon="9.056609975249804"><ele>103.25</ele><time>2026-05-01T13:20:10Z</time></trkpt><trkpt lat="45.35700137037802" lon="9.056403922943385"><ele>103.0</ele><time>2026-05-01T13:20:11Z</time></trkpt><trkpt lat="45.35698270454518" lon="9.056204641062035"><ele>103.0</ele><time>2026-05-01T13:20:12Z</time></trkpt><trkpt lat="45.356962286206546" lon="9.056008299066729"><ele>103.0</ele><time>2026-05-01T13:20:13Z</time></trkpt><trkpt lat="45.35694211877301" lon="9.055811698405867"><ele>103.0</ele><time>2026-05-01T13:20:14Z</time></trkpt><trkpt lat="45.356922416809056" lon="9.05561516784653"><ele>103.0</ele><time>2026-05-01T13:20:15Z</time></trkpt><trkpt lat="45.35690359117075" lon="9.055425266535137"><ele>103.0</ele><time>2026-05-01T13:20:16Z</time></trkpt><trkpt lat="45.3568859031422" lon="9.055224833996226"><ele>103.0</ele><time>2026-05-01T13:20:17Z</time></trkpt><trkpt lat="45.356868126478396" lon="9.055024195613644"><ele>103.0</ele><time>2026-05-01T13:20:18Z</time></trkpt><trkpt lat="45.35685122229128" lon="9.054805571391622"><ele>103.0</ele><time>2026-05-01T13:20:19Z</time></trkpt><trkpt lat="45.35683934500834" lon="9.054592935308547"><ele>103.66666666666667</ele><time>2026-05-01T13:20:20Z</time></trkpt><trkpt lat="45.35683064085854" lon="9.054367808059228"><ele>104.33333333333334</ele><time>2026-05-01T13:20:21Z</time></trkpt><trkpt lat="45.35681994291162" lon="9.05412541625032"><ele>105.0</ele><time>2026-05-01T13:20:22Z</time></trkpt><trkpt lat="45.35681306658452" lon="9.05387983217572"><ele>105.0</ele><time>2026-05-01T13:20:23Z</time></trkpt><trkpt lat="45.35680979742443" lon="9.053642753342759"><ele>105.0</ele><time>2026-05-01T13:20:24Z</time></trkpt><trkpt lat="45.356802596100906" lon="9.053401144051437"><ele>105.0</ele><time>2026-05-01T13:20:25Z</time></trkpt><trkpt lat="45.356795640408116" lon="9.053158323387358"><ele>105.0</ele><time>2026-05-01T13:20:26Z</time></trkpt><trkpt lat="45.35678694642954" lon="9.052910314129576"><ele>105.0</ele><time>2026-05-01T13:20:27Z</time></trkpt><trkpt lat="45.35678091621091" lon="9.052665262643432"><ele>105.0</ele><time>2026-05-01T13:20:28Z</time></trkpt><trkpt lat="45.35677409323547" lon="9.052412312141659"><ele>104.66666666666666</ele><time>2026-05-01T13:20:29Z</time></trkpt><trkpt lat="45.35676544963697" lon="9.052157619885314"><ele>104.33333333333333</ele><time>2026-05-01T13:20:30Z</time></trkpt><trkpt lat="45.35675886068749" lon="9.051920952157616"><ele>104.0</ele><time>2026-05-01T13:20:31Z</time></trkpt><trkpt lat="45.35675047012923" lon="9.051679042945077"><ele>104.0</ele><time>2026-05-01T13:20:32Z</time></trkpt><trkpt lat="45.35674335125882" lon="9.051446435126334"><ele>104.0</ele><time>2026-05-01T13:20:33Z</time></trkpt><trkpt lat="45.35673619417404" lon="9.051221565649799"><ele>104.0</ele><time>2026-05-01T13:20:34Z</time></trkpt><trkpt lat="45.35672666925385" lon="9.05098866247662"><ele>104.0</ele><time>2026-05-01T13:20:35Z</time></trkpt><trkpt lat="45.356720897426825" lon="9.05077242707479"><ele>104.0</ele><time>2026-05-01T13:20:36Z</time></trkpt><trkpt lat="45.35671297561443" lon="9.050537010417607"><ele>104.0</ele><time>2026-05-01T13:20:37Z</time></trkpt><trkpt lat="45.356704841691005" lon="9.050322494480653"><ele>104.0</ele><time>2026-05-01T13:20:38Z</time></trkpt><trkpt lat="45.3566981181614" lon="9.050102449888124"><ele>104.0</ele><time>2026-05-01T13:20:39Z</time></trkpt><trkpt lat="45.35669682420638" lon="9.049877639067503"><ele>104.0</ele><time>2026-05-01T13:20:40Z</time></trkpt><trkpt lat="45.35669495710059" lon="9.049656736764357"><ele>104.0</ele><time>2026-05-01T13:20:41Z</time></trkpt><trkpt lat="45.35668894279068" lon="9.04944245823246"><ele>104.0</ele><time>2026-05-01T13:20:42Z</time></trkpt><trkpt lat="45.35667852119775" lon="9.049228568762443"><ele>104.0</ele><time>2026-05-01T13:20:43Z</time></trkpt><trkpt lat="45.3566709274064" lon="9.04902389300109"><ele>104.0</ele><time>2026-05-01T13:20:44Z</time></trkpt><trkpt lat="45.35666380826046" lon="9.048833952012595"><ele>104.0</ele><time>2026-05-01T13:20:45Z</time></trkpt><trkpt lat="45.356658146213135" lon="9.048660459751368"><ele>104.0</ele><time>2026-05-01T13:20:45.999Z</time></trkpt><trkpt lat="45.3566553673405" lon="9.048499192218712"><ele>104.0</ele><time>2026-05-01T13:20:46.999Z</time></trkpt><trkpt lat="45.35666169126744" lon="9.048349931585273"><ele>104.0</ele><time>2026-05-01T13:20:47.999Z</time></trkpt><trkpt lat="45.35669783745895" lon="9.048207168835884"><ele>104.0</ele><time>2026-05-01T13:20:48.999Z</time></trkpt><trkpt lat="45.356756905150256" lon="9.048083351691698"><ele>104.0</ele><time>2026-05-01T13:20:49.999Z</time></trkpt><trkpt lat="45.356797988300485" lon="9.047948088467534"><ele>104.0</ele><time>2026-05-01T13:20:50.999Z</time></trkpt><trkpt lat="45.35680190821441" lon="9.047798682438476"><ele>104.0</ele><time>2026-05-01T13:20:51.999Z</time></trkpt><trkpt lat="45.35676869160774" lon="9.047658226970647"><ele>104.0</ele><time>2026-05-01T13:20:52.999Z</time></trkpt><trkpt lat="45.35670627833215" lon="9.047532298589434"><ele>104.0</ele><time>2026-05-01T13:20:53.999Z</time></trkpt><trkpt lat="45.356640392342115" lon="9.047391249691167"><ele>104.0</ele><time>2026-05-01T13:20:54.999Z</time></trkpt><trkpt lat="45.35660276821915" lon="9.047211050185386"><ele>104.0</ele><time>2026-05-01T13:20:55.999Z</time></trkpt><trkpt lat="45.3566016072034" lon="9.047005399423467"><ele>104.0</ele><time>2026-05-01T13:20:56.999Z</time></trkpt><trkpt lat="45.35660875897276" lon="9.046800031182048"><ele>104.0</ele><time>2026-05-01T13:20:57.999Z</time></trkpt><trkpt lat="45.3566042436327" lon="9.046596332279092"><ele>104.0</ele><time>2026-05-01T13:20:58.999Z</time></trkpt><trkpt lat="45.35659579991655" lon="9.046392490800015"><ele>104.0</ele><time>2026-05-01T13:20:59.999Z</time></trkpt><trkpt lat="45.356590213340496" lon="9.046191312312185"><ele>104.0</ele><time>2026-05-01T13:21:00.999Z</time></trkpt><trkpt lat="45.35658490918607" lon="9.045994441371823"><ele>104.0</ele><time>2026-05-01T13:21:01.999Z</time></trkpt><trkpt lat="45.35657820608204" lon="9.045795304088603"><ele>103.75</ele><time>2026-05-01T13:21:02.999Z</time></trkpt><trkpt lat="45.3565720743035" lon="9.045600792147141"><ele>103.5</ele><time>2026-05-01T13:21:03.999Z</time></trkpt><trkpt lat="45.356567615214445" lon="9.045408457325559"><ele>103.25</ele><time>2026-05-01T13:21:04.999Z</time></trkpt><trkpt lat="45.356560029996736" lon="9.045218617398028"><ele>103.0</ele><time>2026-05-01T13:21:05.999Z</time></trkpt><trkpt lat="45.35655293523613" lon="9.04503238451305"><ele>103.25</ele><time>2026-05-01T13:21:06.999Z</time></trkpt><trkpt lat="45.356545191322894" lon="9.044848283034124"><ele>103.5</ele><time>2026-05-01T13:21:07.999Z</time></trkpt><trkpt lat="45.3565347722984" lon="9.044673585035332"><ele>103.75</ele><time>2026-05-01T13:21:09Z</time></trkpt><trkpt lat="45.356523399409674" lon="9.044499426647723"><ele>104.0</ele><time>2026-05-01T13:21:10Z</time></trkpt><trkpt lat="45.3565131705302" lon="9.044347099564177"><ele>104.0</ele><time>2026-05-01T13:21:11Z</time></trkpt><trkpt lat="45.35650399799066" lon="9.044233837986102"><ele>104.0</ele><time>2026-05-01T13:21:12Z</time></trkpt><trkpt lat="45.35650293580624" lon="9.044094656173154"><ele>104.0</ele><time>2026-05-01T13:21:14Z</time></trkpt><trkpt lat="45.35634277662846" lon="9.044020498956089"><ele>104.0</ele><time>2026-05-01T13:21:16Z</time></trkpt><trkpt lat="45.35625215926334" lon="9.044029460754615"><ele>104.0</ele><time>2026-05-01T13:21:17Z</time></trkpt><trkpt lat="45.35614337833444" lon="9.044042871597231"><ele>103.80000000000001</ele><time>2026-05-01T13:21:18Z</time></trkpt><trkpt lat="45.3560342462759" lon="9.044058063171507"><ele>103.60000000000001</ele><time>2026-05-01T13:21:19Z</time></trkpt><trkpt lat="45.355928721228665" lon="9.044060418007998"><ele>103.4</ele><time>2026-05-01T13:21:20Z</time></trkpt><trkpt lat="45.35583849805512" lon="9.044055943635023"><ele>103.2</ele><time>2026-05-01T13:21:21Z</time></trkpt><trkpt lat="45.3557612183077" lon="9.044044986042035"><ele>103.0</ele><time>2026-05-01T13:21:22Z</time></trkpt><trkpt lat="45.35563709200693" lon="9.043990932584899"><ele>103.0</ele><time>2026-05-01T13:21:24Z</time></trkpt><trkpt lat="45.355583400893245" lon="9.043892738963306"><ele>103.0</ele><time>2026-05-01T13:21:25Z</time></trkpt><trkpt lat="45.355599950312396" lon="9.043753752716764"><ele>103.0</ele><time>2026-05-01T13:21:26Z</time></trkpt><trkpt lat="45.35559179639676" lon="9.043617759845784"><ele>103.0</ele><time>2026-05-01T13:21:27Z</time></trkpt><trkpt lat="45.35558366875474" lon="9.043469040001462"><ele>103.0</ele><time>2026-05-01T13:21:28Z</time></trkpt><trkpt lat="45.355569335210845" lon="9.04330464602429"><ele>103.25</ele><time>2026-05-01T13:21:29Z</time></trkpt><trkpt lat="45.355551163683636" lon="9.043135621915912"><ele>103.5</ele><time>2026-05-01T13:21:30Z</time></trkpt><trkpt lat="45.355557900833475" lon="9.042973712703688"><ele>103.75</ele><time>2026-05-01T13:21:31Z</time></trkpt><trkpt lat="45.35553731275741" lon="9.04280946983303"><ele>104.0</ele><time>2026-05-01T13:21:32Z</time></trkpt><trkpt lat="45.355546574504274" lon="9.042631523701926"><ele>104.25</ele><time>2026-05-01T13:21:33Z</time></trkpt><trkpt lat="45.355552002414804" lon="9.042438432340932"><ele>104.5</ele><time>2026-05-01T13:21:34Z</time></trkpt><trkpt lat="45.35556071077708" lon="9.042243254978729"><ele>104.75</ele><time>2026-05-01T13:21:35Z</time></trkpt><trkpt lat="45.35556650812934" lon="9.042047331487964"><ele>105.0</ele><time>2026-05-01T13:21:36Z</time></trkpt><trkpt lat="45.35558469467184" lon="9.04185715675508"><ele>105.0</ele><time>2026-05-01T13:21:37Z</time></trkpt><trkpt lat="45.35559170049768" lon="9.04168524633668"><ele>105.0</ele><time>2026-05-01T13:21:38Z</time></trkpt><trkpt lat="45.355598454307206" lon="9.041529623412673"><ele>105.0</ele><time>2026-05-01T13:21:39Z</time></trkpt><trkpt lat="45.35560452209747" lon="9.041389056912926"><ele>105.0</ele><time>2026-05-01T13:21:40Z</time></trkpt><trkpt lat="45.35559957002266" lon="9.041271642092497"><ele>105.0</ele><time>2026-05-01T13:21:41Z</time></trkpt><trkpt lat="45.355605997362936" lon="9.041181430651019"><ele>105.0</ele><time>2026-05-01T13:21:42Z</time></trkpt><trkpt lat="45.35560131737228" lon="9.041025773481415"><ele>105.0</ele><time>2026-05-01T13:21:44Z</time></trkpt><trkpt lat="45.35552355547915" lon="9.040905761260412"><ele>105.0</ele><time>2026-05-01T13:21:46Z</time></trkpt><trkpt lat="45.355427611137" lon="9.040921381991952"><ele>105.0</ele><time>2026-05-01T13:21:47Z</time></trkpt><trkpt lat="45.35532164242865" lon="9.040914585804662"><ele>105.0</ele><time>2026-05-01T13:21:48Z</time></trkpt><trkpt lat="45.3551988932303" lon="9.040873693798602"><ele>104.75</ele><time>2026-05-01T13:21:49Z</time></trkpt><trkpt lat="45.355075341495244" lon="9.040856129574365"><ele>104.5</ele><time>2026-05-01T13:21:50Z</time></trkpt><trkpt lat="45.3549421783067" lon="9.04083709705771"><ele>104.25</ele><time>2026-05-01T13:21:51Z</time></trkpt><trkpt lat="45.354805542770634" lon="9.040813434414153"><ele>104.0</ele><time>2026-05-01T13:21:52Z</time></trkpt><trkpt lat="45.3546641450449" lon="9.040788843541026"><ele>104.0</ele><time>2026-05-01T13:21:53Z</time></trkpt><trkpt lat="45.35451955460594" lon="9.040763697399132"><ele>104.0</ele><time>2026-05-01T13:21:54Z</time></trkpt><trkpt lat="45.354377776600295" lon="9.040737555297145"><ele>104.0</ele><time>2026-05-01T13:21:55Z</time></trkpt><trkpt lat="45.354231279105605" lon="9.040726486338254"><ele>104.0</ele><time>2026-05-01T13:21:56Z</time></trkpt><trkpt lat="45.3540702148573" lon="9.040692279591093"><ele>104.0</ele><time>2026-05-01T13:21:57Z</time></trkpt><trkpt lat="45.353909504108486" lon="9.040664165945838"><ele>104.0</ele><time>2026-05-01T13:21:58Z</time></trkpt><trkpt lat="45.35373230048855" lon="9.040609860909079"><ele>104.0</ele><time>2026-05-01T13:21:59Z</time></trkpt><trkpt lat="45.35356794073649" lon="9.040576696770763"><ele>103.0</ele><time>2026-05-01T13:22:00Z</time></trkpt><trkpt lat="45.353394176152335" lon="9.040540815457987"><ele>102.0</ele><time>2026-05-01T13:22:01Z</time></trkpt><trkpt lat="45.35323724160007" lon="9.040508172393332"><ele>101.0</ele><time>2026-05-01T13:22:02Z</time></trkpt><trkpt lat="45.35309493806062" lon="9.040478159740191"><ele>101.4</ele><time>2026-05-01T13:22:03Z</time></trkpt><trkpt lat="45.352967192408315" lon="9.040451753554562"><ele>101.8</ele><time>2026-05-01T13:22:04Z</time></trkpt><trkpt lat="45.35285096631345" lon="9.040427663116693"><ele>102.2</ele><time>2026-05-01T13:22:05Z</time></trkpt><trkpt lat="45.35274755597152" lon="9.04040611295541"><ele>102.60000000000001</ele><time>2026-05-01T13:22:06Z</time></trkpt><trkpt lat="45.352663531385446" lon="9.040388544692808"><ele>103.0</ele><time>2026-05-01T13:22:07Z</time></trkpt><trkpt lat="45.3525894308611" lon="9.040373051420419"><ele>103.0</ele><time>2026-05-01T13:22:08Z</time></trkpt><trkpt lat="45.35249434418451" lon="9.040353170253427"><ele>103.0</ele><time>2026-05-01T13:22:10Z</time></trkpt><trkpt lat="45.35242188402722" lon="9.040322705437456"><ele>103.0</ele><time>2026-05-01T13:22:12Z</time></trkpt><trkpt lat="45.352456363920915" lon="9.040117761994658"><ele>103.0</ele><time>2026-05-01T13:22:14Z</time></trkpt><trkpt lat="45.352458978328954" lon="9.039988115514799"><ele>103.0</ele><time>2026-05-01T13:22:15Z</time></trkpt><trkpt lat="45.35246182618277" lon="9.039820749893012"><ele>103.2</ele><time>2026-05-01T13:22:16Z</time></trkpt><trkpt lat="45.352451136545824" lon="9.039644464044327"><ele>103.4</ele><time>2026-05-01T13:22:17Z</time></trkpt><trkpt lat="45.35245443342656" lon="9.039485806795001"><ele>103.60000000000001</ele><time>2026-05-01T13:22:18Z</time></trkpt><trkpt lat="45.35245887023056" lon="9.039342690463329"><ele>103.80000000000001</ele><time>2026-05-01T13:22:19Z</time></trkpt><trkpt lat="45.35245924195997" lon="9.039205078767038"><ele>104.0</ele><time>2026-05-01T13:22:20Z</time></trkpt><trkpt lat="45.35246062714444" lon="9.039078330516704"><ele>104.0</ele><time>2026-05-01T13:22:21Z</time></trkpt><trkpt lat="45.35246006768507" lon="9.038950222034742"><ele>104.0</ele><time>2026-05-01T13:22:22Z</time></trkpt><trkpt lat="45.35246343369462" lon="9.038837385844666"><ele>104.0</ele><time>2026-05-01T13:22:23Z</time></trkpt><trkpt lat="45.35246452449381" lon="9.038736832996038"><ele>104.0</ele><time>2026-05-01T13:22:24Z</time></trkpt><trkpt lat="45.35247384558237" lon="9.038606008395567"><ele>104.0</ele><time>2026-05-01T13:22:26Z</time></trkpt><trkpt lat="45.35234549393339" lon="9.038556937408435"><ele>104.0</ele><time>2026-05-01T13:22:28Z</time></trkpt><trkpt lat="45.352267860209885" lon="9.038533729680443"><ele>104.0</ele><time>2026-05-01T13:22:29Z</time></trkpt><trkpt lat="45.35216996798774" lon="9.038530341109295"><ele>104.0</ele><time>2026-05-01T13:22:30Z</time></trkpt><trkpt lat="45.352049602607785" lon="9.038526606513722"><ele>104.0</ele><time>2026-05-01T13:22:31Z</time></trkpt><trkpt lat="45.35192554669785" lon="9.038542768482317"><ele>104.0</ele><time>2026-05-01T13:22:32Z</time></trkpt><trkpt lat="45.35180256631045" lon="9.038542189229084"><ele>104.0</ele><time>2026-05-01T13:22:33Z</time></trkpt><trkpt lat="45.351668205465785" lon="9.038534980785423"><ele>104.0</ele><time>2026-05-01T13:22:34Z</time></trkpt><trkpt lat="45.35152802529395" lon="9.038528076578935"><ele>104.0</ele><time>2026-05-01T13:22:35Z</time></trkpt><trkpt lat="45.351386186733286" lon="9.038521389020874"><ele>104.0</ele><time>2026-05-01T13:22:36Z</time></trkpt><trkpt lat="45.351244218165654" lon="9.038513863486946"><ele>103.75</ele><time>2026-05-01T13:22:37Z</time></trkpt><trkpt lat="45.351104461667575" lon="9.03850655723678"><ele>103.5</ele><time>2026-05-01T13:22:38Z</time></trkpt><trkpt lat="45.350962274064116" lon="9.038497189765014"><ele>103.25</ele><time>2026-05-01T13:22:39Z</time></trkpt><trkpt lat="45.350818159652604" lon="9.038488707086088"><ele>103.0</ele><time>2026-05-01T13:22:40Z</time></trkpt><trkpt lat="45.35067802312506" lon="9.038485704987693"><ele>103.0</ele><time>2026-05-01T13:22:41Z</time></trkpt><trkpt lat="45.35054203380171" lon="9.038477324901748"><ele>103.0</ele><time>2026-05-01T13:22:42Z</time></trkpt><trkpt lat="45.35040432446114" lon="9.038471500393314"><ele>103.0</ele><time>2026-05-01T13:22:43Z</time></trkpt><trkpt lat="45.35026479079618" lon="9.038461746057884"><ele>103.0</ele><time>2026-05-01T13:22:44Z</time></trkpt><trkpt lat="45.350122810775005" lon="9.03844485618826"><ele>103.25</ele><time>2026-05-01T13:22:45Z</time></trkpt><trkpt lat="45.349988810551395" lon="9.038449209751557"><ele>103.5</ele><time>2026-05-01T13:22:46Z</time></trkpt><trkpt lat="45.34984915870264" lon="9.038442208627567"><ele>103.75</ele><time>2026-05-01T13:22:47Z</time></trkpt><trkpt lat="45.349707375920126" lon="9.038437618051473"><ele>104.0</ele><time>2026-05-01T13:22:48Z</time></trkpt><trkpt lat="45.349575184171435" lon="9.038430783297958"><ele>103.5</ele><time>2026-05-01T13:22:49Z</time></trkpt><trkpt lat="45.34943976697189" lon="9.038408764310303"><ele>103.0</ele><time>2026-05-01T13:22:50Z</time></trkpt><trkpt lat="45.349305428274604" lon="9.038421284125477"><ele>102.5</ele><time>2026-05-01T13:22:51Z</time></trkpt><trkpt lat="45.349190309160285" lon="9.038396102081153"><ele>102.0</ele><time>2026-05-01T13:22:52Z</time></trkpt><trkpt lat="45.34910582552819" lon="9.038392069860928"><ele>102.0</ele><time>2026-05-01T13:22:53Z</time></trkpt><trkpt lat="45.349000263857725" lon="9.038386403579775"><ele>102.0</ele><time>2026-05-01T13:22:54Z</time></trkpt><trkpt lat="45.34891359098876" lon="9.03838180573207"><ele>102.0</ele><time>2026-05-01T13:22:55Z</time></trkpt><trkpt lat="45.34882192612073" lon="9.03837718048859"><ele>102.0</ele><time>2026-05-01T13:22:56Z</time></trkpt><trkpt lat="45.34870960746369" lon="9.038371336176699"><ele>102.0</ele><time>2026-05-01T13:22:57Z</time></trkpt><trkpt lat="45.34860750818375" lon="9.038388511978718"><ele>101.75</ele><time>2026-05-01T13:22:58Z</time></trkpt><trkpt lat="45.34851155985605" lon="9.038362365473407"><ele>101.5</ele><time>2026-05-01T13:22:59Z</time></trkpt><trkpt lat="45.34839987178726" lon="9.038357000156571"><ele>101.25</ele><time>2026-05-01T13:23:00Z</time></trkpt><trkpt lat="45.348280784217145" lon="9.038351279384472"><ele>101.0</ele><time>2026-05-01T13:23:01Z</time></trkpt><trkpt lat="45.34815123175762" lon="9.038365032115154"><ele>101.5</ele><time>2026-05-01T13:23:02Z</time></trkpt><trkpt lat="45.34801130060003" lon="9.03834874765657"><ele>102.0</ele><time>2026-05-01T13:23:03Z</time></trkpt><trkpt lat="45.34787345450444" lon="9.03834910750676"><ele>102.5</ele><time>2026-05-01T13:23:04Z</time></trkpt><trkpt lat="45.34773906758199" lon="9.038347506266945"><ele>103.0</ele><time>2026-05-01T13:23:05Z</time></trkpt><trkpt lat="45.3476003134115" lon="9.038338056289891"><ele>103.0</ele><time>2026-05-01T13:23:06Z</time></trkpt><trkpt lat="45.34746647218141" lon="9.03833357973081"><ele>103.0</ele><time>2026-05-01T13:23:07Z</time></trkpt><trkpt lat="45.347334480305065" lon="9.03832781544408"><ele>103.0</ele><time>2026-05-01T13:23:08Z</time></trkpt><trkpt lat="45.347210715499315" lon="9.038325022800274"><ele>103.0</ele><time>2026-05-01T13:23:09Z</time></trkpt><trkpt lat="45.347102073791156" lon="9.038318682783547"><ele>102.80000000000001</ele><time>2026-05-01T13:23:10Z</time></trkpt><trkpt lat="45.34701025516321" lon="9.038312972084334"><ele>102.6</ele><time>2026-05-01T13:23:11Z</time></trkpt><trkpt lat="45.34694350679744" lon="9.038319206711787"><ele>102.4</ele><time>2026-05-01T13:23:12Z</time></trkpt><trkpt lat="45.34684784502735" lon="9.038324632496975"><ele>102.19999999999999</ele><time>2026-05-01T13:23:14Z</time></trkpt><trkpt lat="45.34677849907108" lon="9.03829358161071"><ele>102.0</ele><time>2026-05-01T13:23:16Z</time></trkpt><trkpt lat="45.346776951015485" lon="9.03811229377156"><ele>102.0</ele><time>2026-05-01T13:23:18Z</time></trkpt><trkpt lat="45.34674934657984" lon="9.037975790580035"><ele>102.0</ele><time>2026-05-01T13:23:19Z</time></trkpt><trkpt lat="45.346715936661965" lon="9.037822275150178"><ele>102.0</ele><time>2026-05-01T13:23:20Z</time></trkpt><trkpt lat="45.346682395953536" lon="9.037667748503628"><ele>102.0</ele><time>2026-05-01T13:23:21Z</time></trkpt><trkpt lat="45.34663480974868" lon="9.037518800392442"><ele>102.0</ele><time>2026-05-01T13:23:22Z</time></trkpt><trkpt lat="45.34662872444121" lon="9.037364993194457"><ele>102.19999999999999</ele><time>2026-05-01T13:23:23Z</time></trkpt><trkpt lat="45.346616646588785" lon="9.037232391594644"><ele>102.4</ele><time>2026-05-01T13:23:24Z</time></trkpt><trkpt lat="45.34660729286452" lon="9.037111151122177"><ele>102.6</ele><time>2026-05-01T13:23:25Z</time></trkpt><trkpt lat="45.34659792298581" lon="9.036983167928609"><ele>102.80000000000001</ele><time>2026-05-01T13:23:26Z</time></trkpt><trkpt lat="45.34658803263431" lon="9.036846641262528"><ele>103.0</ele><time>2026-05-01T13:23:27Z</time></trkpt><trkpt lat="45.3465785434872" lon="9.036703841037665"><ele>102.75</ele><time>2026-05-01T13:23:28Z</time></trkpt><trkpt lat="45.346555877573685" lon="9.03655078834695"><ele>102.5</ele><time>2026-05-01T13:23:29Z</time></trkpt><trkpt lat="45.34656708228827" lon="9.036375744627898"><ele>102.25</ele><time>2026-05-01T13:23:30Z</time></trkpt><trkpt lat="45.34656842102215" lon="9.036183572705948"><ele>102.0</ele><time>2026-05-01T13:23:31Z</time></trkpt><trkpt lat="45.346560375947696" lon="9.03599202931674"><ele>102.0</ele><time>2026-05-01T13:23:32Z</time></trkpt><trkpt lat="45.34658665408191" lon="9.035821459891654"><ele>102.0</ele><time>2026-05-01T13:23:33Z</time></trkpt><trkpt lat="45.34659534399502" lon="9.035669204070217"><ele>102.0</ele><time>2026-05-01T13:23:34Z</time></trkpt><trkpt lat="45.34658938681254" lon="9.035526124011895"><ele>102.0</ele><time>2026-05-01T13:23:35Z</time></trkpt><trkpt lat="45.34661016450869" lon="9.035395084293611"><ele>102.0</ele><time>2026-05-01T13:23:36Z</time></trkpt><trkpt lat="45.34661645943013" lon="9.035269320049645"><ele>102.16666666666667</ele><time>2026-05-01T13:23:37Z</time></trkpt><trkpt lat="45.34662430477844" lon="9.035149663034327"><ele>102.33333333333334</ele><time>2026-05-01T13:23:38Z</time></trkpt><trkpt lat="45.34662427373583" lon="9.035043866846891"><ele>102.5</ele><time>2026-05-01T13:23:39Z</time></trkpt><trkpt lat="45.34664954658059" lon="9.034937430719395"><ele>102.66666666666667</ele><time>2026-05-01T13:23:40Z</time></trkpt><trkpt lat="45.346678849758256" lon="9.034816259657234"><ele>102.83333333333334</ele><time>2026-05-01T13:23:41Z</time></trkpt><trkpt lat="45.3467101794731" lon="9.034670905319501"><ele>103.0</ele><time>2026-05-01T13:23:42Z</time></trkpt><trkpt lat="45.34672572944848" lon="9.034527250236843"><ele>103.0</ele><time>2026-05-01T13:23:43Z</time></trkpt><trkpt lat="45.34675687853587" lon="9.034379125774272"><ele>103.0</ele><time>2026-05-01T13:23:44Z</time></trkpt><trkpt lat="45.34676674231894" lon="9.034222165458269"><ele>103.0</ele><time>2026-05-01T13:23:45Z</time></trkpt><trkpt lat="45.34679559305434" lon="9.034072159129849"><ele>103.0</ele><time>2026-05-01T13:23:46Z</time></trkpt><trkpt lat="45.34682049982708" lon="9.033947514628325"><ele>103.0</ele><time>2026-05-01T13:23:47Z</time></trkpt><trkpt lat="45.346848378726364" lon="9.033845975965068"><ele>103.00000000000001</ele><time>2026-05-01T13:23:48Z</time></trkpt><trkpt lat="45.346867239104" lon="9.033745588517926"><ele>103.0</ele><time>2026-05-01T13:23:49Z</time></trkpt><trkpt lat="45.3468853015032" lon="9.033644423995032"><ele>103.0</ele><time>2026-05-01T13:23:50Z</time></trkpt><trkpt lat="45.346906749364315" lon="9.033558565106983"><ele>103.0</ele><time>2026-05-01T13:23:51Z</time></trkpt><trkpt lat="45.346936925366066" lon="9.033395521269272"><ele>103.00000000000001</ele><time>2026-05-01T13:23:53Z</time></trkpt><trkpt lat="45.346960255870094" lon="9.033297466537263"><ele>103.0</ele><time>2026-05-01T13:23:54Z</time></trkpt><trkpt lat="45.34697999660171" lon="9.033189335956555"><ele>103.0</ele><time>2026-05-01T13:23:55Z</time></trkpt><trkpt lat="45.347062154069384" lon="9.033098288864032"><ele>103.0</ele><time>2026-05-01T13:23:56Z</time></trkpt><trkpt lat="45.3471455273276" lon="9.032991621639281"><ele>103.0</ele><time>2026-05-01T13:23:57Z</time></trkpt><trkpt lat="45.3472276837224" lon="9.03287453595087"><ele>103.0</ele><time>2026-05-01T13:23:58Z</time></trkpt><trkpt lat="45.347315750584336" lon="9.032751616670753"><ele>103.0</ele><time>2026-05-01T13:23:59Z</time></trkpt><trkpt lat="45.34740840010784" lon="9.032624087672094"><ele>103.0</ele><time>2026-05-01T13:24:00Z</time></trkpt><trkpt lat="45.347505114157975" lon="9.032488160388814"><ele>103.0</ele><time>2026-05-01T13:24:01Z</time></trkpt><trkpt lat="45.34760548321958" lon="9.032348354443092"><ele>103.0</ele><time>2026-05-01T13:24:02Z</time></trkpt><trkpt lat="45.347708748893794" lon="9.032202814575195"><ele>103.0</ele><time>2026-05-01T13:24:03Z</time></trkpt><trkpt lat="45.34780832828272" lon="9.032060985043818"><ele>103.0</ele><time>2026-05-01T13:24:04Z</time></trkpt><trkpt lat="45.34791293347971" lon="9.031912827474034"><ele>103.0</ele><time>2026-05-01T13:24:05Z</time></trkpt><trkpt lat="45.34801716706596" lon="9.031764392669553"><ele>103.0</ele><time>2026-05-01T13:24:06Z</time></trkpt><trkpt lat="45.348125149639905" lon="9.03161191732791"><ele>103.0</ele><time>2026-05-01T13:24:07Z</time></trkpt><trkpt lat="45.348232706237695" lon="9.031462982937972"><ele>103.0</ele><time>2026-05-01T13:24:08Z</time></trkpt><trkpt lat="45.34834112977432" lon="9.03131037280042"><ele>103.0</ele><time>2026-05-01T13:24:09Z</time></trkpt><trkpt lat="45.34844952263059" lon="9.031158502058862"><ele>103.0</ele><time>2026-05-01T13:24:10Z</time></trkpt><trkpt lat="45.34855795730314" lon="9.031000758942342"><ele>103.0</ele><time>2026-05-01T13:24:11Z</time></trkpt><trkpt lat="45.34866525647397" lon="9.030850374159886"><ele>103.0</ele><time>2026-05-01T13:24:12Z</time></trkpt><trkpt lat="45.348776577310325" lon="9.030695517570493"><ele>103.66666666666667</ele><time>2026-05-01T13:24:13Z</time></trkpt><trkpt lat="45.34888873597899" lon="9.030548802466997"><ele>104.33333333333334</ele><time>2026-05-01T13:24:14Z</time></trkpt><trkpt lat="45.349005877020666" lon="9.030403579430129"><ele>105.0</ele><time>2026-05-01T13:24:15Z</time></trkpt><trkpt lat="45.349125940309015" lon="9.030269090663353"><ele>105.0</ele><time>2026-05-01T13:24:16Z</time></trkpt><trkpt lat="45.34925436440784" lon="9.03013345889658"><ele>105.0</ele><time>2026-05-01T13:24:17Z</time></trkpt><trkpt lat="45.349392615346346" lon="9.030002152202504"><ele>105.0</ele><time>2026-05-01T13:24:18Z</time></trkpt><trkpt lat="45.34952892415616" lon="9.02989322566636"><ele>104.66666666666666</ele><time>2026-05-01T13:24:19Z</time></trkpt><trkpt lat="45.349678910299566" lon="9.029793299767668"><ele>104.33333333333333</ele><time>2026-05-01T13:24:20Z</time></trkpt><trkpt lat="45.34982866043838" lon="9.029708739566408"><ele>104.0</ele><time>2026-05-01T13:24:21Z</time></trkpt><trkpt lat="45.34998661257686" lon="9.029633744708493"><ele>104.0</ele><time>2026-05-01T13:24:22Z</time></trkpt><trkpt lat="45.35014152602421" lon="9.029567478628337"><ele>104.0</ele><time>2026-05-01T13:24:23Z</time></trkpt><trkpt lat="45.35030513985073" lon="9.029517396782872"><ele>104.0</ele><time>2026-05-01T13:24:24Z</time></trkpt><trkpt lat="45.35046375191328" lon="9.029492351381398"><ele>104.33333333333333</ele><time>2026-05-01T13:24:25Z</time></trkpt><trkpt lat="45.35063325336196" lon="9.029479833166926"><ele>104.66666666666666</ele><time>2026-05-01T13:24:26Z</time></trkpt><trkpt lat="45.350793605077804" lon="9.029468852701504"><ele>105.0</ele><time>2026-05-01T13:24:27Z</time></trkpt><trkpt lat="45.35095082027773" lon="9.029464215661987"><ele>105.0</ele><time>2026-05-01T13:24:28Z</time></trkpt><trkpt lat="45.35110703242271" lon="9.029465809140225"><ele>105.0</ele><time>2026-05-01T13:24:29Z</time></trkpt><trkpt lat="45.351264245657944" lon="9.029467402020238"><ele>105.0</ele><time>2026-05-01T13:24:30Z</time></trkpt><trkpt lat="45.3514232682279" lon="9.02946881968287"><ele>105.0</ele><time>2026-05-01T13:24:31Z</time></trkpt><trkpt lat="45.3515828904187" lon="9.029466385288963"><ele>105.0</ele><time>2026-05-01T13:24:32Z</time></trkpt><trkpt lat="45.351755882722976" lon="9.029473773744455"><ele>105.0</ele><time>2026-05-01T13:24:33Z</time></trkpt><trkpt lat="45.351927004337" lon="9.029476643768062"><ele>105.0</ele><time>2026-05-01T13:24:34Z</time></trkpt><trkpt lat="45.35208229816807" lon="9.02947792401009"><ele>105.0</ele><time>2026-05-01T13:24:35Z</time></trkpt><trkpt lat="45.35222990733688" lon="9.029480208523234"><ele>105.0</ele><time>2026-05-01T13:24:36Z</time></trkpt><trkpt lat="45.3523627397904" lon="9.029486819964255"><ele>105.0</ele><time>2026-05-01T13:24:37Z</time></trkpt><trkpt lat="45.352486884964215" lon="9.029491693715533"><ele>104.8</ele><time>2026-05-01T13:24:38Z</time></trkpt><trkpt lat="45.352605310663016" lon="9.029492069373863"><ele>104.6</ele><time>2026-05-01T13:24:39Z</time></trkpt><trkpt lat="45.352709178900966" lon="9.02949327757015"><ele>104.4</ele><time>2026-05-01T13:24:40Z</time></trkpt><trkpt lat="45.35280707906538" lon="9.029499416139984"><ele>104.2</ele><time>2026-05-01T13:24:41Z</time></trkpt><trkpt lat="45.352890491969966" lon="9.02950971693738"><ele>104.0</ele><time>2026-05-01T13:24:42Z</time></trkpt><trkpt lat="45.35296579172158" lon="9.029533288656332"><ele>104.0</ele><time>2026-05-01T13:24:43Z</time></trkpt><trkpt lat="45.35303195793565" lon="9.029572879705224"><ele>104.0</ele><time>2026-05-01T13:24:44Z</time></trkpt><trkpt lat="45.353099363116904" lon="9.02964877722312"><ele>104.0</ele><time>2026-05-01T13:24:45Z</time></trkpt><trkpt lat="45.35317546621823" lon="9.02973501259697"><ele>104.0</ele><time>2026-05-01T13:24:46Z</time></trkpt><trkpt lat="45.35326772767206" lon="9.029806364792245"><ele>104.0</ele><time>2026-05-01T13:24:47Z</time></trkpt><trkpt lat="45.35337377985726" lon="9.029821628455709"><ele>105.0</ele><time>2026-05-01T13:24:48Z</time></trkpt><trkpt lat="45.35347476591238" lon="9.029781510286947"><ele>106.0</ele><time>2026-05-01T13:24:49Z</time></trkpt><trkpt lat="45.35356413247533" lon="9.029686139010979"><ele>107.0</ele><time>2026-05-01T13:24:50Z</time></trkpt><trkpt lat="45.353637030165466" lon="9.029552798202978"><ele>108.0</ele><time>2026-05-01T13:24:51Z</time></trkpt><trkpt lat="45.353709333097804" lon="9.029414522438497"><ele>108.0</ele><time>2026-05-01T13:24:52Z</time></trkpt><trkpt lat="45.35380745348501" lon="9.029287542760038"><ele>108.0</ele><time>2026-05-01T13:24:53Z</time></trkpt><trkpt lat="45.353940699939756" lon="9.029175991521882"><ele>108.0</ele><time>2026-05-01T13:24:54Z</time></trkpt><trkpt lat="45.35408286416008" lon="9.029089367318752"><ele>108.0</ele><time>2026-05-01T13:24:55Z</time></trkpt><trkpt lat="45.354240251764786" lon="9.029010891677132"><ele>107.66666666666666</ele><time>2026-05-01T13:24:56Z</time></trkpt><trkpt lat="45.35441184779967" lon="9.028920747104129"><ele>107.33333333333333</ele><time>2026-05-01T13:24:57Z</time></trkpt><trkpt lat="45.354575298659846" lon="9.028826605949659"><ele>107.0</ele><time>2026-05-01T13:24:58Z</time></trkpt><trkpt lat="45.354734688548675" lon="9.028732733529143"><ele>106.33333333333333</ele><time>2026-05-01T13:24:59Z</time></trkpt><trkpt lat="45.354888427131264" lon="9.028626973628612"><ele>105.66666666666666</ele><time>2026-05-01T13:25:00Z</time></trkpt><trkpt lat="45.35503294258159" lon="9.028502947295474"><ele>105.0</ele><time>2026-05-01T13:25:01Z</time></trkpt><trkpt lat="45.3551637434981" lon="9.028368895468116"><ele>105.33333333333334</ele><time>2026-05-01T13:25:02Z</time></trkpt><trkpt lat="45.35527890685648" lon="9.028230074820003"><ele>105.66666666666667</ele><time>2026-05-01T13:25:03Z</time></trkpt><trkpt lat="45.35539013483555" lon="9.028071640016165"><ele>106.0</ele><time>2026-05-01T13:25:04Z</time></trkpt><trkpt lat="45.35549300197035" lon="9.027906681975074"><ele>105.66666666666667</ele><time>2026-05-01T13:25:05Z</time></trkpt><trkpt lat="45.35559338721897" lon="9.027728044237836"><ele>105.33333333333334</ele><time>2026-05-01T13:25:06Z</time></trkpt><trkpt lat="45.35568286688633" lon="9.027544217279932"><ele>105.0</ele><time>2026-05-01T13:25:07Z</time></trkpt><trkpt lat="45.35576179011509" lon="9.027346466690073"><ele>105.0</ele><time>2026-05-01T13:25:08Z</time></trkpt><trkpt lat="45.35583783153454" lon="9.027135033353597"><ele>105.0</ele><time>2026-05-01T13:25:09Z</time></trkpt><trkpt lat="45.35590162126274" lon="9.026921299754786"><ele>105.0</ele><time>2026-05-01T13:25:10Z</time></trkpt><trkpt lat="45.35595583600006" lon="9.02669252716159"><ele>105.0</ele><time>2026-05-01T13:25:11Z</time></trkpt><trkpt lat="45.355994209638475" lon="9.026462162526695"><ele>105.0</ele><time>2026-05-01T13:25:12Z</time></trkpt><trkpt lat="45.35600858895152" lon="9.026257350297575"><ele>105.0</ele><time>2026-05-01T13:25:13Z</time></trkpt><trkpt lat="45.3560151280241" lon="9.02607500305762"><ele>105.0</ele><time>2026-05-01T13:25:14Z</time></trkpt><trkpt lat="45.3560190846946" lon="9.025918693628977"><ele>104.83333333333333</ele><time>2026-05-01T13:25:15Z</time></trkpt><trkpt lat="45.356028129265106" lon="9.02578126252936"><ele>104.66666666666666</ele><time>2026-05-01T13:25:16Z</time></trkpt><trkpt lat="45.356042327162385" lon="9.025666459710402"><ele>104.5</ele><time>2026-05-01T13:25:17Z</time></trkpt><trkpt lat="45.356061094670274" lon="9.025560735182713"><ele>104.33333333333333</ele><time>2026-05-01T13:25:18Z</time></trkpt><trkpt lat="45.35609945720884" lon="9.02547452824188"><ele>104.16666666666666</ele><time>2026-05-01T13:25:19Z</time></trkpt><trkpt lat="45.356148699721" lon="9.025379087291617"><ele>104.0</ele><time>2026-05-01T13:25:20Z</time></trkpt><trkpt lat="45.35621896587067" lon="9.025310862333868"><ele>104.0</ele><time>2026-05-01T13:25:21Z</time></trkpt><trkpt lat="45.356340402838065" lon="9.025343591844894"><ele>104.0</ele><time>2026-05-01T13:25:22Z</time></trkpt><trkpt lat="45.356442654169484" lon="9.025325903533082"><ele>104.0</ele><time>2026-05-01T13:25:23Z</time></trkpt><trkpt lat="45.35656891980863" lon="9.0254427600565"><ele>104.0</ele><time>2026-05-01T13:25:24Z</time></trkpt><trkpt lat="45.35670619691475" lon="9.025495425704777"><ele>104.25</ele><time>2026-05-01T13:25:25Z</time></trkpt><trkpt lat="45.35684181739714" lon="9.02555569158702"><ele>104.5</ele><time>2026-05-01T13:25:26Z</time></trkpt><trkpt lat="45.35698836785324" lon="9.025626919681937"><ele>104.75</ele><time>2026-05-01T13:25:27Z</time></trkpt><trkpt lat="45.35713178004076" lon="9.025688793905172"><ele>105.0</ele><time>2026-05-01T13:25:28Z</time></trkpt><trkpt lat="45.3572895114636" lon="9.025762072183099"><ele>104.66666666666666</ele><time>2026-05-01T13:25:29Z</time></trkpt><trkpt lat="45.357449091110446" lon="9.025833146049631"><ele>104.33333333333333</ele><time>2026-05-01T13:25:30Z</time></trkpt><trkpt lat="45.3576144869649" lon="9.025901584549937"><ele>104.0</ele><time>2026-05-01T13:25:31Z</time></trkpt><trkpt lat="45.3577789465224" lon="9.02597746161921"><ele>104.0</ele><time>2026-05-01T13:25:32Z</time></trkpt><trkpt lat="45.357944612845564" lon="9.026049506928604"><ele>104.0</ele><time>2026-05-01T13:25:33Z</time></trkpt><trkpt lat="45.35810955601231" lon="9.02612282183651"><ele>104.0</ele><time>2026-05-01T13:25:34Z</time></trkpt><trkpt lat="45.35827552351635" lon="9.02619421705043"><ele>104.66666666666666</ele><time>2026-05-01T13:25:35Z</time></trkpt><trkpt lat="45.35843913993791" lon="9.02626688320684"><ele>105.33333333333334</ele><time>2026-05-01T13:25:36Z</time></trkpt><trkpt lat="45.35860177684536" lon="9.026341254660766"><ele>106.0</ele><time>2026-05-01T13:25:37Z</time></trkpt><trkpt lat="45.35876383249061" lon="9.026405676243673"><ele>106.0</ele><time>2026-05-01T13:25:38Z</time></trkpt><trkpt lat="45.3589202885795" lon="9.026478034104887"><ele>106.0</ele><time>2026-05-01T13:25:39Z</time></trkpt><trkpt lat="45.35907402863109" lon="9.026550954569329"><ele>106.0</ele><time>2026-05-01T13:25:40Z</time></trkpt><trkpt lat="45.35922827600932" lon="9.026616178952658"><ele>106.0</ele><time>2026-05-01T13:25:41Z</time></trkpt><trkpt lat="45.35938148973396" lon="9.026680894709493"><ele>106.0</ele><time>2026-05-01T13:25:42Z</time></trkpt><trkpt lat="45.359532492538854" lon="9.026747962328077"><ele>106.0</ele><time>2026-05-01T13:25:43Z</time></trkpt><trkpt lat="45.35968239658619" lon="9.026815928671299"><ele>105.66666666666667</ele><time>2026-05-01T13:25:44Z</time></trkpt><trkpt lat="45.359837652652736" lon="9.026880392716539"><ele>105.33333333333334</ele><time>2026-05-01T13:25:45Z</time></trkpt><trkpt lat="45.359987533587535" lon="9.026943846352175"><ele>105.0</ele><time>2026-05-01T13:25:46Z</time></trkpt><trkpt lat="45.36013517267029" lon="9.027011112213032"><ele>105.0</ele><time>2026-05-01T13:25:47Z</time></trkpt><trkpt lat="45.3602829897938" lon="9.027077330768568"><ele>105.0</ele><time>2026-05-01T13:25:48Z</time></trkpt><trkpt lat="45.36043294807441" lon="9.027144808498717"><ele>105.0</ele><time>2026-05-01T13:25:49Z</time></trkpt><trkpt lat="45.36058265355291" lon="9.027209666492547"><ele>104.66666666666666</ele><time>2026-05-01T13:25:50Z</time></trkpt><trkpt lat="45.36073871631041" lon="9.02727047024958"><ele>104.33333333333333</ele><time>2026-05-01T13:25:51Z</time></trkpt><trkpt lat="45.36090003608292" lon="9.027312994174087"><ele>104.0</ele><time>2026-05-01T13:25:52Z</time></trkpt><trkpt lat="45.36106823586858" lon="9.02736497019191"><ele>104.0</ele><time>2026-05-01T13:25:53Z</time></trkpt><trkpt lat="45.361240539357645" lon="9.02740663684864"><ele>104.0</ele><time>2026-05-01T13:25:54Z</time></trkpt><trkpt lat="45.361414982466165" lon="9.027430962544683"><ele>104.0</ele><time>2026-05-01T13:25:55Z</time></trkpt><trkpt lat="45.36158919900156" lon="9.027439580476809"><ele>103.33333333333333</ele><time>2026-05-01T13:25:56Z</time></trkpt><trkpt lat="45.36175840745181" lon="9.027433759446113"><ele>102.66666666666666</ele><time>2026-05-01T13:25:57Z</time></trkpt><trkpt lat="45.36192747697207" lon="9.027418131429224"><ele>102.0</ele><time>2026-05-01T13:25:58Z</time></trkpt><trkpt lat="45.36209823233908" lon="9.027400227698312"><ele>102.66666666666666</ele><time>2026-05-01T13:25:59Z</time></trkpt><trkpt lat="45.36226429424251" lon="9.027376060099236"><ele>103.33333333333333</ele><time>2026-05-01T13:26:00Z</time></trkpt><trkpt lat="45.362425850552185" lon="9.027353174888518"><ele>104.0</ele><time>2026-05-01T13:26:01Z</time></trkpt><trkpt lat="45.36259641691401" lon="9.027334094935146"><ele>104.0</ele><time>2026-05-01T13:26:02Z</time></trkpt><trkpt lat="45.36277048204096" lon="9.027312491422789"><ele>104.0</ele><time>2026-05-01T13:26:03Z</time></trkpt><trkpt lat="45.36293036141749" lon="9.027294632570728"><ele>104.0</ele><time>2026-05-01T13:26:04Z</time></trkpt><trkpt lat="45.36307753974381" lon="9.027275037898029"><ele>104.25</ele><time>2026-05-01T13:26:05Z</time></trkpt><trkpt lat="45.363222573999884" lon="9.027261431308496"><ele>104.5</ele><time>2026-05-01T13:26:06Z</time></trkpt><trkpt lat="45.36335387705216" lon="9.027243760063431"><ele>104.75</ele><time>2026-05-01T13:26:07Z</time></trkpt><trkpt lat="45.36346691691807" lon="9.027230022836731"><ele>105.0</ele><time>2026-05-01T13:26:08Z</time></trkpt><trkpt lat="45.36357190274434" lon="9.0272148908343"><ele>105.0</ele><time>2026-05-01T13:26:09Z</time></trkpt><trkpt lat="45.36368838546362" lon="9.027200754002218"><ele>105.0</ele><time>2026-05-01T13:26:10Z</time></trkpt><trkpt lat="45.36381798168427" lon="9.027182853509641"><ele>105.0</ele><time>2026-05-01T13:26:11Z</time></trkpt><trkpt lat="45.36395350901386" lon="9.027161613461708"><ele>105.0</ele><time>2026-05-01T13:26:12Z</time></trkpt><trkpt lat="45.36409454925112" lon="9.027143876224759"><ele>105.0</ele><time>2026-05-01T13:26:13Z</time></trkpt><trkpt lat="45.36423318729839" lon="9.027130546662677"><ele>105.0</ele><time>2026-05-01T13:26:14Z</time></trkpt><trkpt lat="45.3643670490346" lon="9.027109782326892"><ele>105.0</ele><time>2026-05-01T13:26:15Z</time></trkpt><trkpt lat="45.36450891797712" lon="9.027088230716396"><ele>105.0</ele><time>2026-05-01T13:26:16Z</time></trkpt><trkpt lat="45.36465626844838" lon="9.027070826594253"><ele>105.25</ele><time>2026-05-01T13:26:17Z</time></trkpt><trkpt lat="45.36480780666322" lon="9.027052665215162"><ele>105.5</ele><time>2026-05-01T13:26:18Z</time></trkpt><trkpt lat="45.364951802246225" lon="9.027031562007375"><ele>105.75</ele><time>2026-05-01T13:26:19Z</time></trkpt><trkpt lat="45.36509375747139" lon="9.027011502503838"><ele>106.0</ele><time>2026-05-01T13:26:20Z</time></trkpt><trkpt lat="45.36523486836448" lon="9.02699591677082"><ele>106.0</ele><time>2026-05-01T13:26:21Z</time></trkpt><trkpt lat="45.36538158893954" lon="9.026978233620971"><ele>106.0</ele><time>2026-05-01T13:26:22Z</time></trkpt><trkpt lat="45.36553642368466" lon="9.026958568678115"><ele>106.0</ele><time>2026-05-01T13:26:23Z</time></trkpt><trkpt lat="45.36569819284917" lon="9.0269390787267"><ele>106.0</ele><time>2026-05-01T13:26:24Z</time></trkpt><trkpt lat="45.36587245923618" lon="9.026916509474905"><ele>106.0</ele><time>2026-05-01T13:26:25Z</time></trkpt><trkpt lat="45.36603030756647" lon="9.026894420400641"><ele>106.0</ele><time>2026-05-01T13:26:26Z</time></trkpt><trkpt lat="45.36618221561641" lon="9.026877400446836"><ele>106.0</ele><time>2026-05-01T13:26:27Z</time></trkpt><trkpt lat="45.3663076777853" lon="9.02686289593427"><ele>106.0</ele><time>2026-05-01T13:26:28Z</time></trkpt><trkpt lat="45.36641522932992" lon="9.026845169549945"><ele>106.0</ele><time>2026-05-01T13:26:29Z</time></trkpt><trkpt lat="45.36651420232893" lon="9.026834185644153"><ele>106.0</ele><time>2026-05-01T13:26:30Z</time></trkpt><trkpt lat="45.36660620010059" lon="9.026824328718233"><ele>106.0</ele><time>2026-05-01T13:26:31Z</time></trkpt><trkpt lat="45.366690066864805" lon="9.026816211279899"><ele>106.0</ele><time>2026-05-01T13:26:32Z</time></trkpt><trkpt lat="45.36676561934628" lon="9.026806865579257"><ele>106.0</ele><time>2026-05-01T13:26:33Z</time></trkpt><trkpt lat="45.36688546328335" lon="9.026796404418432"><ele>106.0</ele><time>2026-05-01T13:26:35Z</time></trkpt><trkpt lat="45.36694957345781" lon="9.026819575429498"><ele>106.0</ele><time>2026-05-01T13:26:38Z</time></trkpt><trkpt lat="45.366937262002665" lon="9.026949755621297"><ele>106.0</ele><time>2026-05-01T13:26:40Z</time></trkpt><trkpt lat="45.36696638246136" lon="9.027102389509036"><ele>106.0</ele><time>2026-05-01T13:27:11Z</time></trkpt><trkpt lat="45.366979571263784" lon="9.027202323280866"><ele>106.0</ele><time>2026-05-01T13:27:12Z</time></trkpt><trkpt lat="45.36700040832434" lon="9.02735780218447"><ele>106.0</ele><time>2026-05-01T13:27:14Z</time></trkpt><trkpt lat="45.367013908474135" lon="9.027490195315433"><ele>106.0</ele><time>2026-05-01T13:27:15Z</time></trkpt><trkpt lat="45.36702692459783" lon="9.027616317043469"><ele>106.0</ele><time>2026-05-01T13:27:16Z</time></trkpt><trkpt lat="45.367032858123004" lon="9.027755105290563"><ele>106.0</ele><time>2026-05-01T13:27:17Z</time></trkpt><trkpt lat="45.36704143999124" lon="9.027917945184353"><ele>106.0</ele><time>2026-05-01T13:27:18Z</time></trkpt><trkpt lat="45.367050343127815" lon="9.028088488143482"><ele>106.0</ele><time>2026-05-01T13:27:19Z</time></trkpt><trkpt lat="45.36706685997366" lon="9.028267977842967"><ele>106.0</ele><time>2026-05-01T13:27:20Z</time></trkpt><trkpt lat="45.36708524284922" lon="9.02845882798878"><ele>106.0</ele><time>2026-05-01T13:27:21Z</time></trkpt><trkpt lat="45.36709702316237" lon="9.028647423246229"><ele>106.0</ele><time>2026-05-01T13:27:22Z</time></trkpt><trkpt lat="45.36711428236086" lon="9.02883757673904"><ele>106.0</ele><time>2026-05-01T13:27:23Z</time></trkpt><trkpt lat="45.36712758467838" lon="9.029017037225541"><ele>106.0</ele><time>2026-05-01T13:27:24Z</time></trkpt><trkpt lat="45.36714056627419" lon="9.029198687233245"><ele>106.0</ele><time>2026-05-01T13:27:25Z</time></trkpt><trkpt lat="45.367155021789316" lon="9.029377058832168"><ele>106.0</ele><time>2026-05-01T13:27:26Z</time></trkpt><trkpt lat="45.36716809244368" lon="9.029556081061818"><ele>106.0</ele><time>2026-05-01T13:27:27Z</time></trkpt><trkpt lat="45.367179468924896" lon="9.029735174776299"><ele>106.0</ele><time>2026-05-01T13:27:28Z</time></trkpt><trkpt lat="45.367193915066025" lon="9.029915672223812"><ele>105.75</ele><time>2026-05-01T13:27:29Z</time></trkpt><trkpt lat="45.367215615860104" lon="9.03008015408293"><ele>105.5</ele><time>2026-05-01T13:27:30Z</time></trkpt><trkpt lat="45.36723290332489" lon="9.030235742419974"><ele>105.25</ele><time>2026-05-01T13:27:31Z</time></trkpt><trkpt lat="45.367255798946374" lon="9.030386370376386"><ele>105.0</ele><time>2026-05-01T13:27:32Z</time></trkpt><trkpt lat="45.36730047186008" lon="9.030551039183882"><ele>105.0</ele><time>2026-05-01T13:27:33Z</time></trkpt><trkpt lat="45.36734100175899" lon="9.0307146110189"><ele>105.0</ele><time>2026-05-01T13:27:34Z</time></trkpt><trkpt lat="45.36737661428386" lon="9.030856371186575"><ele>105.0</ele><time>2026-05-01T13:27:35Z</time></trkpt><trkpt lat="45.367414475670394" lon="9.030998420730434"><ele>105.0</ele><time>2026-05-01T13:27:36Z</time></trkpt><trkpt lat="45.36745396470789" lon="9.031140223665377"><ele>105.0</ele><time>2026-05-01T13:27:37Z</time></trkpt><trkpt lat="45.36749465687833" lon="9.03128125027673"><ele>105.0</ele><time>2026-05-01T13:27:38Z</time></trkpt><trkpt lat="45.367529064403115" lon="9.031426016684327"><ele>105.0</ele><time>2026-05-01T13:27:39Z</time></trkpt><trkpt lat="45.36756428176735" lon="9.031567371315859"><ele>105.0</ele><time>2026-05-01T13:27:40Z</time></trkpt><trkpt lat="45.36759802748263" lon="9.031705309900902"><ele>105.0</ele><time>2026-05-01T13:27:41Z</time></trkpt><trkpt lat="45.36763384733421" lon="9.031840919354096"><ele>105.0</ele><time>2026-05-01T13:27:42Z</time></trkpt><trkpt lat="45.36766513275984" lon="9.031972678488648"><ele>105.0</ele><time>2026-05-01T13:27:43Z</time></trkpt><trkpt lat="45.367696774755835" lon="9.032098186066735"><ele>105.0</ele><time>2026-05-01T13:27:44Z</time></trkpt><trkpt lat="45.36771807117489" lon="9.032217564276642"><ele>105.0</ele><time>2026-05-01T13:27:45Z</time></trkpt><trkpt lat="45.36773358526492" lon="9.032337718173435"><ele>105.0</ele><time>2026-05-01T13:27:46Z</time></trkpt><trkpt lat="45.36776259863283" lon="9.032439926543779"><ele>105.0</ele><time>2026-05-01T13:27:47Z</time></trkpt><trkpt lat="45.36778524921026" lon="9.032531283897004"><ele>105.0</ele><time>2026-05-01T13:27:48Z</time></trkpt><trkpt lat="45.367828228422376" lon="9.032679166936765"><ele>105.0</ele><time>2026-05-01T13:27:50Z</time></trkpt><trkpt lat="45.36785206254925" lon="9.032774735186726"><ele>105.0</ele><time>2026-05-01T13:27:52Z</time></trkpt><trkpt lat="45.36787539791592" lon="9.032869757651099"><ele>105.0</ele><time>2026-05-01T13:27:55Z</time></trkpt><trkpt lat="45.36790073420256" lon="9.032984617104827"><ele>105.0</ele><time>2026-05-01T13:27:58Z</time></trkpt><trkpt lat="45.367919781366034" lon="9.033071279699168"><ele>105.0</ele><time>2026-05-01T13:28:00Z</time></trkpt><trkpt lat="45.36794430004865" lon="9.033181585274933"><ele>105.0</ele><time>2026-05-01T13:28:03Z</time></trkpt><trkpt lat="45.36791695523376" lon="9.0330474158063"><ele>105.0</ele><time>2026-05-01T13:28:23Z</time></trkpt><trkpt lat="45.3678900778348" lon="9.032920544071011"><ele>105.0</ele><time>2026-05-01T13:28:24Z</time></trkpt><trkpt lat="45.36786191102351" lon="9.032824474462227"><ele>105.0</ele><time>2026-05-01T13:28:25Z</time></trkpt><trkpt lat="45.36783614369214" lon="9.03272233288658"><ele>105.0</ele><time>2026-05-01T13:28:26Z</time></trkpt><trkpt lat="45.36781349386645" lon="9.032622462153594"><ele>105.0</ele><time>2026-05-01T13:28:27Z</time></trkpt><trkpt lat="45.36778635337322" lon="9.032509534387152"><ele>105.0</ele><time>2026-05-01T13:28:28Z</time></trkpt><trkpt lat="45.36775616384284" lon="9.032386081977126"><ele>105.2</ele><time>2026-05-01T13:28:29Z</time></trkpt><trkpt lat="45.36771842946883" lon="9.03225702099777"><ele>105.4</ele><time>2026-05-01T13:28:30Z</time></trkpt><trkpt lat="45.36768796041071" lon="9.03213237304571"><ele>105.6</ele><time>2026-05-01T13:28:31Z</time></trkpt><trkpt lat="45.36769489037723" lon="9.031980025281866"><ele>105.8</ele><time>2026-05-01T13:28:32Z</time></trkpt><trkpt lat="45.36766434209495" lon="9.031858389406533"><ele>106.0</ele><time>2026-05-01T13:28:33Z</time></trkpt><trkpt lat="45.36763241913089" lon="9.031732583849507"><ele>105.8</ele><time>2026-05-01T13:28:34Z</time></trkpt><trkpt lat="45.36760305915142" lon="9.031619681654133"><ele>105.6</ele><time>2026-05-01T13:28:35Z</time></trkpt><trkpt lat="45.367563110705106" lon="9.031499491921599"><ele>105.4</ele><time>2026-05-01T13:28:36Z</time></trkpt><trkpt lat="45.36754182505803" lon="9.031384158364647"><ele>105.2</ele><time>2026-05-01T13:28:37Z</time></trkpt><trkpt lat="45.367509216439245" lon="9.031259029697189"><ele>105.0</ele><time>2026-05-01T13:28:38Z</time></trkpt><trkpt lat="45.36746512683286" lon="9.031137601380925"><ele>105.0</ele><time>2026-05-01T13:28:39Z</time></trkpt><trkpt lat="45.36744232913534" lon="9.031009952334532"><ele>105.0</ele><time>2026-05-01T13:28:40Z</time></trkpt><trkpt lat="45.36740704575112" lon="9.030878431936754"><ele>105.0</ele><time>2026-05-01T13:28:41Z</time></trkpt><trkpt lat="45.367355738250154" lon="9.03074366394166"><ele>105.0</ele><time>2026-05-01T13:28:42Z</time></trkpt><trkpt lat="45.36733198133718" lon="9.030580026654242"><ele>105.0</ele><time>2026-05-01T13:28:43Z</time></trkpt><trkpt lat="45.36729673305959" lon="9.030427943518252"><ele>105.0</ele><time>2026-05-01T13:28:44Z</time></trkpt><trkpt lat="45.367266975991356" lon="9.030283611298849"><ele>105.0</ele><time>2026-05-01T13:28:45Z</time></trkpt><trkpt lat="45.36724399651571" lon="9.030126540531466"><ele>105.0</ele><time>2026-05-01T13:28:46Z</time></trkpt><trkpt lat="45.367225618159004" lon="9.029956619562318"><ele>105.0</ele><time>2026-05-01T13:28:47Z</time></trkpt><trkpt lat="45.367208373099885" lon="9.029771719059962"><ele>105.25</ele><time>2026-05-01T13:28:48Z</time></trkpt><trkpt lat="45.367192681408035" lon="9.029587539439488"><ele>105.5</ele><time>2026-05-01T13:28:49Z</time></trkpt><trkpt lat="45.3671781368849" lon="9.029405252153836"><ele>105.75</ele><time>2026-05-01T13:28:50Z</time></trkpt><trkpt lat="45.36715425410247" lon="9.029227233446482"><ele>106.0</ele><time>2026-05-01T13:28:51Z</time></trkpt><trkpt lat="45.36713827228238" lon="9.029051889349628"><ele>106.0</ele><time>2026-05-01T13:28:52Z</time></trkpt><trkpt lat="45.367124669667064" lon="9.028888169704146"><ele>106.0</ele><time>2026-05-01T13:28:53Z</time></trkpt><trkpt lat="45.3671106263127" lon="9.02872584810561"><ele>106.0</ele><time>2026-05-01T13:28:54Z</time></trkpt><trkpt lat="45.36709501106995" lon="9.028565345677464"><ele>106.0</ele><time>2026-05-01T13:28:55Z</time></trkpt><trkpt lat="45.36708745416242" lon="9.028399178461624"><ele>106.0</ele><time>2026-05-01T13:28:56Z</time></trkpt><trkpt lat="45.36707046658466" lon="9.028241120910025"><ele>106.0</ele><time>2026-05-01T13:28:57Z</time></trkpt><trkpt lat="45.367061301729215" lon="9.028083814616629"><ele>106.0</ele><time>2026-05-01T13:28:58Z</time></trkpt><trkpt lat="45.367049436245" lon="9.027943285119937"><ele>106.0</ele><time>2026-05-01T13:28:59Z</time></trkpt><trkpt lat="45.367055877910204" lon="9.027791425527123"><ele>106.0</ele><time>2026-05-01T13:29:00Z</time></trkpt><trkpt lat="45.367047458176415" lon="9.027646693316118"><ele>106.00000000000001</ele><time>2026-05-01T13:29:01Z</time></trkpt><trkpt lat="45.36702685794627" lon="9.027512629111602"><ele>106.0</ele><time>2026-05-01T13:29:02Z</time></trkpt><trkpt lat="45.36701473857011" lon="9.027401141428076"><ele>106.0</ele><time>2026-05-01T13:29:03Z</time></trkpt><trkpt lat="45.36701420064259" lon="9.027293598344958"><ele>106.0</ele><time>2026-05-01T13:29:04Z</time></trkpt><trkpt lat="45.367001681680826" lon="9.027201085368658"><ele>106.00000000000001</ele><time>2026-05-01T13:29:05Z</time></trkpt><trkpt lat="45.3669804461615" lon="9.027034600722235"><ele>106.0</ele><time>2026-05-01T13:29:07Z</time></trkpt><trkpt lat="45.36695129290416" lon="9.026910141934213"><ele>106.0</ele><time>2026-05-01T13:29:09Z</time></trkpt><trkpt lat="45.366966405420285" lon="9.026815440494195"><ele>106.0</ele><time>2026-05-01T13:29:12Z</time></trkpt><trkpt lat="45.367106843084144" lon="9.02673617265454"><ele>106.0</ele><time>2026-05-01T13:29:30Z</time></trkpt><trkpt lat="45.36718214287589" lon="9.026732217341424"><ele>106.0</ele><time>2026-05-01T13:29:31Z</time></trkpt><trkpt lat="45.367279903236" lon="9.0267181327216"><ele>106.0</ele><time>2026-05-01T13:29:32Z</time></trkpt><trkpt lat="45.367369893243996" lon="9.026712302616927"><ele>106.25</ele><time>2026-05-01T13:29:33Z</time></trkpt><trkpt lat="45.36747645199891" lon="9.026698070608305"><ele>106.5</ele><time>2026-05-01T13:29:34Z</time></trkpt><trkpt lat="45.3675904839474" lon="9.026686019134535"><ele>106.75</ele><time>2026-05-01T13:29:35Z</time></trkpt><trkpt lat="45.36770489400106" lon="9.026675541685231"><ele>107.0</ele><time>2026-05-01T13:29:36Z</time></trkpt><trkpt lat="45.3678266374184" lon="9.026658534063444"><ele>107.0</ele><time>2026-05-01T13:29:37Z</time></trkpt><trkpt lat="45.36795286268131" lon="9.026641111237623"><ele>107.0</ele><time>2026-05-01T13:29:38Z</time></trkpt><trkpt lat="45.368083081486176" lon="9.026624377041493"><ele>107.0</ele><time>2026-05-01T13:29:39Z</time></trkpt><trkpt lat="45.368216911903446" lon="9.026610827826584"><ele>107.0</ele><time>2026-05-01T13:29:40Z</time></trkpt><trkpt lat="45.36835527759908" lon="9.026606186557677"><ele>107.0</ele><time>2026-05-01T13:29:41Z</time></trkpt><trkpt lat="45.36849786196922" lon="9.026605673848161"><ele>107.0</ele><time>2026-05-01T13:29:42Z</time></trkpt><trkpt lat="45.368621467965404" lon="9.026555618389164"><ele>107.0</ele><time>2026-05-01T13:29:43Z</time></trkpt><trkpt lat="45.36875462299549" lon="9.026539365395776"><ele>107.0</ele><time>2026-05-01T13:29:44Z</time></trkpt><trkpt lat="45.36888275364213" lon="9.026539056946438"><ele>106.75</ele><time>2026-05-01T13:29:45Z</time></trkpt><trkpt lat="45.36901873557313" lon="9.026539345613525"><ele>106.5</ele><time>2026-05-01T13:29:46Z</time></trkpt><trkpt lat="45.36915992861088" lon="9.02654870042828"><ele>106.25</ele><time>2026-05-01T13:29:47Z</time></trkpt><trkpt lat="45.36930657428755" lon="9.026562660260334"><ele>106.0</ele><time>2026-05-01T13:29:48Z</time></trkpt><trkpt lat="45.369459298789074" lon="9.026577865361363"><ele>106.0</ele><time>2026-05-01T13:29:49Z</time></trkpt><trkpt lat="45.369614143638785" lon="9.026595950193029"><ele>106.0</ele><time>2026-05-01T13:29:50Z</time></trkpt><trkpt lat="45.36976757632326" lon="9.026632487058091"><ele>106.0</ele><time>2026-05-01T13:29:51Z</time></trkpt><trkpt lat="45.36991905147747" lon="9.026671769671587"><ele>106.25</ele><time>2026-05-01T13:29:52Z</time></trkpt><trkpt lat="45.37006831758682" lon="9.026708329848367"><ele>106.5</ele><time>2026-05-01T13:29:53Z</time></trkpt><trkpt lat="45.3702023930042" lon="9.02673557389287"><ele>106.75</ele><time>2026-05-01T13:29:54Z</time></trkpt><trkpt lat="45.3703468590152" lon="9.026769542427923"><ele>107.0</ele><time>2026-05-01T13:29:55Z</time></trkpt><trkpt lat="45.370498328329745" lon="9.026803546591808"><ele>107.33333333333333</ele><time>2026-05-01T13:29:56Z</time></trkpt><trkpt lat="45.37065238885067" lon="9.0268366957003"><ele>107.66666666666666</ele><time>2026-05-01T13:29:57Z</time></trkpt><trkpt lat="45.370807545744576" lon="9.026866817725598"><ele>108.0</ele><time>2026-05-01T13:29:58Z</time></trkpt><trkpt lat="45.370964707984875" lon="9.02690137139105"><ele>108.0</ele><time>2026-05-01T13:29:59Z</time></trkpt><trkpt lat="45.371121502070096" lon="9.02693422515281"><ele>108.0</ele><time>2026-05-01T13:30:00Z</time></trkpt><trkpt lat="45.37127575609401" lon="9.026967393179245"><ele>108.0</ele><time>2026-05-01T13:30:01Z</time></trkpt><trkpt lat="45.37143168273851" lon="9.027000683628541"><ele>108.25</ele><time>2026-05-01T13:30:02Z</time></trkpt><trkpt lat="45.37158261973473" lon="9.027030898742957"><ele>108.5</ele><time>2026-05-01T13:30:03Z</time></trkpt><trkpt lat="45.37173075343774" lon="9.027064362096208"><ele>108.75</ele><time>2026-05-01T13:30:04Z</time></trkpt><trkpt lat="45.37187631463121" lon="9.027094267359034"><ele>109.0</ele><time>2026-05-01T13:30:05Z</time></trkpt><trkpt lat="45.372019588192124" lon="9.02712680036781"><ele>109.0</ele><time>2026-05-01T13:30:06Z</time></trkpt><trkpt lat="45.37215948106376" lon="9.027159152216992"><ele>109.0</ele><time>2026-05-01T13:30:07Z</time></trkpt><trkpt lat="45.37230205764331" lon="9.027190908460437"><ele>109.0</ele><time>2026-05-01T13:30:08Z</time></trkpt><trkpt lat="45.37244470889771" lon="9.027220738581672"><ele>109.0</ele><time>2026-05-01T13:30:09Z</time></trkpt><trkpt lat="45.37258185323011" lon="9.027256432646828"><ele>109.0</ele><time>2026-05-01T13:30:10Z</time></trkpt><trkpt lat="45.37272441260228" lon="9.027284025343585"><ele>109.0</ele><time>2026-05-01T13:30:11Z</time></trkpt><trkpt lat="45.37286424335098" lon="9.027312402048246"><ele>109.0</ele><time>2026-05-01T13:30:12Z</time></trkpt><trkpt lat="45.37300760970076" lon="9.027344980627467"><ele>109.0</ele><time>2026-05-01T13:30:13Z</time></trkpt><trkpt lat="45.373150689372686" lon="9.027377034326399"><ele>109.0</ele><time>2026-05-01T13:30:14Z</time></trkpt><trkpt lat="45.37329444547046" lon="9.027405662707682"><ele>109.0</ele><time>2026-05-01T13:30:15Z</time></trkpt><trkpt lat="45.37343882251239" lon="9.027437265899158"><ele>109.0</ele><time>2026-05-01T13:30:16Z</time></trkpt><trkpt lat="45.373587242975226" lon="9.027464978236042"><ele>109.0</ele><time>2026-05-01T13:30:17Z</time></trkpt><trkpt lat="45.37373818437922" lon="9.027491366566508"><ele>108.66666666666667</ele><time>2026-05-01T13:30:18Z</time></trkpt><trkpt lat="45.37388814098138" lon="9.027524365824112"><ele>108.33333333333334</ele><time>2026-05-01T13:30:19Z</time></trkpt><trkpt lat="45.374036418627156" lon="9.027559727390278"><ele>108.0</ele><time>2026-05-01T13:30:20Z</time></trkpt><trkpt lat="45.374187150373615" lon="9.02759252940924"><ele>108.0</ele><time>2026-05-01T13:30:21Z</time></trkpt><trkpt lat="45.37433759196658" lon="9.027627406282106"><ele>108.0</ele><time>2026-05-01T13:30:22Z</time></trkpt><trkpt lat="45.37449141648943" lon="9.027657186176006"><ele>108.0</ele><time>2026-05-01T13:30:23Z</time></trkpt><trkpt lat="45.37464419797081" lon="9.027686171116862"><ele>108.0</ele><time>2026-05-01T13:30:24Z</time></trkpt><trkpt lat="45.37479684720787" lon="9.02771424163465"><ele>108.0</ele><time>2026-05-01T13:30:25Z</time></trkpt><trkpt lat="45.37495219604052" lon="9.027751740417369"><ele>108.0</ele><time>2026-05-01T13:30:26Z</time></trkpt><trkpt lat="45.375105068754536" lon="9.027789711404228"><ele>108.0</ele><time>2026-05-01T13:30:27Z</time></trkpt><trkpt lat="45.37526318425109" lon="9.027820838214737"><ele>108.0</ele><time>2026-05-01T13:30:28Z</time></trkpt><trkpt lat="45.37541285508864" lon="9.02785920147485"><ele>108.0</ele><time>2026-05-01T13:30:29Z</time></trkpt><trkpt lat="45.37556634588067" lon="9.027887286999485"><ele>109.0</ele><time>2026-05-01T13:30:30Z</time></trkpt><trkpt lat="45.37571796984871" lon="9.027913752961483"><ele>110.0</ele><time>2026-05-01T13:30:31Z</time></trkpt><trkpt lat="45.37586411330325" lon="9.027945019518791"><ele>111.0</ele><time>2026-05-01T13:30:32Z</time></trkpt><trkpt lat="45.3759993858286" lon="9.027976290279414"><ele>112.0</ele><time>2026-05-01T13:30:33Z</time></trkpt><trkpt lat="45.37612666090401" lon="9.02800385112913"><ele>112.0</ele><time>2026-05-01T13:30:34Z</time></trkpt><trkpt lat="45.37624952641674" lon="9.02803247747595"><ele>112.0</ele><time>2026-05-01T13:30:35Z</time></trkpt><trkpt lat="45.376368080399786" lon="9.02805860280845"><ele>112.0</ele><time>2026-05-01T13:30:36Z</time></trkpt><trkpt lat="45.37648870162943" lon="9.028086806369434"><ele>112.0</ele><time>2026-05-01T13:30:37Z</time></trkpt><trkpt lat="45.37660981373226" lon="9.028119333964213"><ele>111.5</ele><time>2026-05-01T13:30:38Z</time></trkpt><trkpt lat="45.37673118311407" lon="9.028162463154365"><ele>111.0</ele><time>2026-05-01T13:30:39Z</time></trkpt><trkpt lat="45.37684802378941" lon="9.028221104425041"><ele>110.5</ele><time>2026-05-01T13:30:40Z</time></trkpt><trkpt lat="45.376948012995136" lon="9.028290690590126"><ele>110.0</ele><time>2026-05-01T13:30:41Z</time></trkpt><trkpt lat="45.377039886167594" lon="9.028346158449168"><ele>110.0</ele><time>2026-05-01T13:30:42Z</time></trkpt><trkpt lat="45.37714525707543" lon="9.028380188971004"><ele>110.0</ele><time>2026-05-01T13:30:43Z</time></trkpt><trkpt lat="45.377271697635784" lon="9.028378423893534"><ele>110.0</ele><time>2026-05-01T13:30:44Z</time></trkpt><trkpt lat="45.377411746543316" lon="9.028356140743757"><ele>110.0</ele><time>2026-05-01T13:30:45Z</time></trkpt><trkpt lat="45.377554553714205" lon="9.028340521882617"><ele>110.0</ele><time>2026-05-01T13:30:46Z</time></trkpt><trkpt lat="45.37768767384804" lon="9.028308216062078"><ele>110.0</ele><time>2026-05-01T13:30:47Z</time></trkpt><trkpt lat="45.37784442708669" lon="9.028363014281801"><ele>110.0</ele><time>2026-05-01T13:30:48Z</time></trkpt><trkpt lat="45.37799663928174" lon="9.02837228011807"><ele>110.0</ele><time>2026-05-01T13:30:49Z</time></trkpt><trkpt lat="45.3781509090004" lon="9.028393601032212"><ele>109.75</ele><time>2026-05-01T13:30:50Z</time></trkpt><trkpt lat="45.37830492012541" lon="9.028408829674655"><ele>109.5</ele><time>2026-05-01T13:30:51Z</time></trkpt><trkpt lat="45.37843338198783" lon="9.028419405800767"><ele>109.25</ele><time>2026-05-01T13:30:52Z</time></trkpt><trkpt lat="45.37854534930495" lon="9.028426307959565"><ele>109.0</ele><time>2026-05-01T13:30:53Z</time></trkpt><trkpt lat="45.37864794889043" lon="9.028428869219901"><ele>109.00000000000001</ele><time>2026-05-01T13:30:54Z</time></trkpt><trkpt lat="45.37874198988997" lon="9.028432782671379"><ele>109.0</ele><time>2026-05-01T13:30:55Z</time></trkpt><trkpt lat="45.37882447730705" lon="9.02843672434932"><ele>109.0</ele><time>2026-05-01T13:30:56Z</time></trkpt><trkpt lat="45.37890217651829" lon="9.028437274777044"><ele>109.0</ele><time>2026-05-01T13:30:57Z</time></trkpt><trkpt lat="45.378971443053935" lon="9.028439264556953"><ele>109.00000000000001</ele><time>2026-05-01T13:30:58Z</time></trkpt><trkpt lat="45.3790362408082" lon="9.028438815065236"><ele>109.0</ele><time>2026-05-01T13:30:59Z</time></trkpt><trkpt lat="45.37914465553586" lon="9.028437383344155"><ele>109.00000000000001</ele><time>2026-05-01T13:31:01Z</time></trkpt><trkpt lat="45.37922290041754" lon="9.028439109586678"><ele>109.0</ele><time>2026-05-01T13:31:03Z</time></trkpt><trkpt lat="45.37929924094555" lon="9.028442648303468"><ele>109.0</ele><time>2026-05-01T13:31:06Z</time></trkpt><trkpt lat="45.37941959834061" lon="9.028427768626846"><ele>109.0</ele><time>2026-05-01T13:31:30Z</time></trkpt><trkpt lat="45.37948445137559" lon="9.028418209803371"><ele>109.00000000000001</ele><time>2026-05-01T13:31:31Z</time></trkpt><trkpt lat="45.37956003874479" lon="9.028409784751007"><ele>109.0</ele><time>2026-05-01T13:31:32Z</time></trkpt><trkpt lat="45.37963993987456" lon="9.028400323589924"><ele>109.16666666666667</ele><time>2026-05-01T13:31:33Z</time></trkpt><trkpt lat="45.37971541640478" lon="9.028396672868631"><ele>109.33333333333334</ele><time>2026-05-01T13:31:34Z</time></trkpt><trkpt lat="45.37978582705053" lon="9.028397472498051"><ele>109.5</ele><time>2026-05-01T13:31:35Z</time></trkpt><trkpt lat="45.37985240247844" lon="9.028394992573983"><ele>109.66666666666666</ele><time>2026-05-01T13:31:36Z</time></trkpt><trkpt lat="45.37997492790415" lon="9.028376085242655"><ele>109.83333333333333</ele><time>2026-05-01T13:31:38Z</time></trkpt><trkpt lat="45.38007911602412" lon="9.028363084681077"><ele>110.0</ele><time>2026-05-01T13:31:40Z</time></trkpt><trkpt lat="45.3801482390645" lon="9.028356339506223"><ele>109.99999999999999</ele><time>2026-05-01T13:31:44Z</time></trkpt><trkpt lat="45.38024290893108" lon="9.028351406870662"><ele>110.0</ele><time>2026-05-01T13:31:49Z</time></trkpt><trkpt lat="45.380322881359945" lon="9.028333880249349"><ele>110.0</ele><time>2026-05-01T13:31:50Z</time></trkpt><trkpt lat="45.38040034797292" lon="9.028316915306732"><ele>110.0</ele><time>2026-05-01T13:31:51Z</time></trkpt><trkpt lat="45.380491924599745" lon="9.028301775306044"><ele>109.99999999999999</ele><time>2026-05-01T13:31:52Z</time></trkpt><trkpt lat="45.380592788024444" lon="9.0282933344561"><ele>110.0</ele><time>2026-05-01T13:31:53Z</time></trkpt><trkpt lat="45.38069104175673" lon="9.028284167692082"><ele>110.0</ele><time>2026-05-01T13:31:54Z</time></trkpt><trkpt lat="45.38079789827483" lon="9.028269195492967"><ele>110.0</ele><time>2026-05-01T13:31:55Z</time></trkpt><trkpt lat="45.38090093490343" lon="9.028252458020644"><ele>110.0</ele><time>2026-05-01T13:31:56Z</time></trkpt><trkpt lat="45.38100769472739" lon="9.02824150644195"><ele>110.0</ele><time>2026-05-01T13:31:57Z</time></trkpt><trkpt lat="45.381114899693756" lon="9.028235489801128"><ele>110.0</ele><time>2026-05-01T13:31:58Z</time></trkpt><trkpt lat="45.381222633072525" lon="9.028224899706952"><ele>110.0</ele><time>2026-05-01T13:31:59Z</time></trkpt><trkpt lat="45.38133385839037" lon="9.028211132458416"><ele>110.0</ele><time>2026-05-01T13:32:00Z</time></trkpt><trkpt lat="45.38144609173357" lon="9.028200604852529"><ele>110.0</ele><time>2026-05-01T13:32:01Z</time></trkpt><trkpt lat="45.38156210513383" lon="9.028188807981046"><ele>110.0</ele><time>2026-05-01T13:32:02Z</time></trkpt><trkpt lat="45.38168057055661" lon="9.028175743169397"><ele>109.75</ele><time>2026-05-01T13:32:03Z</time></trkpt><trkpt lat="45.38179781363901" lon="9.028166743731813"><ele>109.5</ele><time>2026-05-01T13:32:04Z</time></trkpt><trkpt lat="45.38192104575546" lon="9.028158852887316"><ele>109.25</ele><time>2026-05-01T13:32:05Z</time></trkpt><trkpt lat="45.38204374998753" lon="9.02814766672743"><ele>109.0</ele><time>2026-05-01T13:32:06Z</time></trkpt><trkpt lat="45.38216902661907" lon="9.028130690768894"><ele>109.25</ele><time>2026-05-01T13:32:07Z</time></trkpt><trkpt lat="45.38229255364356" lon="9.02811709013515"><ele>109.5</ele><time>2026-05-01T13:32:08Z</time></trkpt><trkpt lat="45.38241923793641" lon="9.028104226761672"><ele>109.75</ele><time>2026-05-01T13:32:09Z</time></trkpt><trkpt lat="45.38254547009056" lon="9.028093787459518"><ele>110.0</ele><time>2026-05-01T13:32:10Z</time></trkpt><trkpt lat="45.38267681387573" lon="9.028080690547782"><ele>110.0</ele><time>2026-05-01T13:32:11Z</time></trkpt><trkpt lat="45.38280675147994" lon="9.028069355223757"><ele>110.0</ele><time>2026-05-01T13:32:12Z</time></trkpt><trkpt lat="45.38293810871696" lon="9.02805910095259"><ele>110.0</ele><time>2026-05-01T13:32:13Z</time></trkpt><trkpt lat="45.38307287886432" lon="9.028046676908938"><ele>110.0</ele><time>2026-05-01T13:32:14Z</time></trkpt><trkpt lat="45.38321659513631" lon="9.028035046219065"><ele>110.0</ele><time>2026-05-01T13:32:15Z</time></trkpt><trkpt lat="45.383366430851744" lon="9.028024547587757"><ele>110.0</ele><time>2026-05-01T13:32:16Z</time></trkpt><trkpt lat="45.383523989911815" lon="9.028012956464238"><ele>110.0</ele><time>2026-05-01T13:32:17Z</time></trkpt><trkpt lat="45.38368670962229" lon="9.027995207234063"><ele>110.33333333333333</ele><time>2026-05-01T13:32:18Z</time></trkpt><trkpt lat="45.38386173332191" lon="9.027976906554226"><ele>110.66666666666666</ele><time>2026-05-01T13:32:19Z</time></trkpt><trkpt lat="45.38403599956488" lon="9.02796029516198"><ele>111.0</ele><time>2026-05-01T13:32:20Z</time></trkpt><trkpt lat="45.38419881808446" lon="9.027945097020003"><ele>111.0</ele><time>2026-05-01T13:32:21Z</time></trkpt><trkpt lat="45.38435467793669" lon="9.027931550696795"><ele>111.0</ele><time>2026-05-01T13:32:22Z</time></trkpt><trkpt lat="45.384512504866585" lon="9.027915222222562"><ele>111.0</ele><time>2026-05-01T13:32:23Z</time></trkpt><trkpt lat="45.3846611094785" lon="9.027898997396807"><ele>110.75</ele><time>2026-05-01T13:32:24Z</time></trkpt><trkpt lat="45.38480975842541" lon="9.027883700318988"><ele>110.5</ele><time>2026-05-01T13:32:25Z</time></trkpt><trkpt lat="45.38495639258298" lon="9.027869867938014"><ele>110.25</ele><time>2026-05-01T13:32:26Z</time></trkpt><trkpt lat="45.385096309746636" lon="9.02785817613407"><ele>110.0</ele><time>2026-05-01T13:32:27Z</time></trkpt><trkpt lat="45.38524147182679" lon="9.027842526491003"><ele>110.0</ele><time>2026-05-01T13:32:28Z</time></trkpt><trkpt lat="45.38538018713458" lon="9.027827530847379"><ele>110.0</ele><time>2026-05-01T13:32:29Z</time></trkpt><trkpt lat="45.38551956231145" lon="9.027811735486077"><ele>110.0</ele><time>2026-05-01T13:32:30Z</time></trkpt><trkpt lat="45.38565798658711" lon="9.027796326197286"><ele>110.0</ele><time>2026-05-01T13:32:31Z</time></trkpt><trkpt lat="45.38580301133707" lon="9.027781350354964"><ele>110.0</ele><time>2026-05-01T13:32:32Z</time></trkpt><trkpt lat="45.385947821442585" lon="9.027770035238493"><ele>110.0</ele><time>2026-05-01T13:32:33Z</time></trkpt><trkpt lat="45.38609529154481" lon="9.027758021746292"><ele>110.0</ele><time>2026-05-01T13:32:34Z</time></trkpt><trkpt lat="45.38623938740126" lon="9.02774246553195"><ele>110.0</ele><time>2026-05-01T13:32:35Z</time></trkpt><trkpt lat="45.38638847191894" lon="9.027726027809535"><ele>110.0</ele><time>2026-05-01T13:32:36Z</time></trkpt><trkpt lat="45.386533380560316" lon="9.027709776861824"><ele>110.0</ele><time>2026-05-01T13:32:37Z</time></trkpt><trkpt lat="45.38667743961819" lon="9.027692812753465"><ele>110.0</ele><time>2026-05-01T13:32:38Z</time></trkpt><trkpt lat="45.38681945055906" lon="9.027678727214068"><ele>110.0</ele><time>2026-05-01T13:32:39Z</time></trkpt><trkpt lat="45.38695982911093" lon="9.027667371324902"><ele>110.0</ele><time>2026-05-01T13:32:40Z</time></trkpt><trkpt lat="45.38708850742813" lon="9.027665115103437"><ele>110.0</ele><time>2026-05-01T13:32:41Z</time></trkpt><trkpt lat="45.387205674977125" lon="9.027669761531481"><ele>110.0</ele><time>2026-05-01T13:32:42Z</time></trkpt><trkpt lat="45.387314843304345" lon="9.027675276757622"><ele>110.0</ele><time>2026-05-01T13:32:43Z</time></trkpt><trkpt lat="45.3874098646638" lon="9.027683780831774"><ele>109.8</ele><time>2026-05-01T13:32:44Z</time></trkpt><trkpt lat="45.387483274082044" lon="9.027689082521393"><ele>109.6</ele><time>2026-05-01T13:32:45Z</time></trkpt><trkpt lat="45.38757144686311" lon="9.027718675076287"><ele>109.4</ele><time>2026-05-01T13:32:47Z</time></trkpt><trkpt lat="45.387635000062744" lon="9.027611174253297"><ele>109.2</ele><time>2026-05-01T13:32:49Z</time></trkpt><trkpt lat="45.38767355356315" lon="9.027450105285846"><ele>109.0</ele><time>2026-05-01T13:32:51Z</time></trkpt><trkpt lat="45.387669968609934" lon="9.027323287702313"><ele>108.75</ele><time>2026-05-01T13:32:52Z</time></trkpt><trkpt lat="45.38764022908503" lon="9.027167983378172"><ele>108.5</ele><time>2026-05-01T13:32:53Z</time></trkpt><trkpt lat="45.38760743669144" lon="9.027010006426547"><ele>108.25</ele><time>2026-05-01T13:32:54Z</time></trkpt><trkpt lat="45.38756593036008" lon="9.026857112796458"><ele>108.0</ele><time>2026-05-01T13:32:55Z</time></trkpt><trkpt lat="45.38754198530143" lon="9.026696922589988"><ele>108.0</ele><time>2026-05-01T13:32:56Z</time></trkpt><trkpt lat="45.38749833910164" lon="9.026534426948835"><ele>108.0</ele><time>2026-05-01T13:32:57Z</time></trkpt><trkpt lat="45.38746083589112" lon="9.02635886037125"><ele>108.0</ele><time>2026-05-01T13:32:58Z</time></trkpt><trkpt lat="45.387428051650026" lon="9.026181092674161"><ele>108.0</ele><time>2026-05-01T13:32:59Z</time></trkpt><trkpt lat="45.3873904501921" lon="9.026000518820249"><ele>108.0</ele><time>2026-05-01T13:33:00Z</time></trkpt><trkpt lat="45.387354601564" lon="9.02581761130923"><ele>108.0</ele><time>2026-05-01T13:33:01Z</time></trkpt><trkpt lat="45.38731895773125" lon="9.02563974051619"><ele>108.0</ele><time>2026-05-01T13:33:02Z</time></trkpt><trkpt lat="45.3872822847605" lon="9.025452085051153"><ele>108.0</ele><time>2026-05-01T13:33:03Z</time></trkpt><trkpt lat="45.387254313488945" lon="9.025244230465425"><ele>108.25</ele><time>2026-05-01T13:33:04Z</time></trkpt><trkpt lat="45.387216466476424" lon="9.025046912962667"><ele>108.5</ele><time>2026-05-01T13:33:05Z</time></trkpt><trkpt lat="45.38717762428536" lon="9.024841409112058"><ele>108.75</ele><time>2026-05-01T13:33:06Z</time></trkpt><trkpt lat="45.38713697705917" lon="9.024632672644868"><ele>109.0</ele><time>2026-05-01T13:33:07Z</time></trkpt><trkpt lat="45.387098386688926" lon="9.024432484817964"><ele>109.0</ele><time>2026-05-01T13:33:08Z</time></trkpt><trkpt lat="45.38705902643359" lon="9.024228399073982"><ele>109.0</ele><time>2026-05-01T13:33:09Z</time></trkpt><trkpt lat="45.38701814501007" lon="9.024022711182004"><ele>109.0</ele><time>2026-05-01T13:33:10Z</time></trkpt><trkpt lat="45.38697818681638" lon="9.023821668941945"><ele>109.0</ele><time>2026-05-01T13:33:11Z</time></trkpt><trkpt lat="45.38693835344696" lon="9.02362125459803"><ele>109.0</ele><time>2026-05-01T13:33:12Z</time></trkpt><trkpt lat="45.38689739984552" lon="9.023415178940285"><ele>109.0</ele><time>2026-05-01T13:33:13Z</time></trkpt><trkpt lat="45.386855811850495" lon="9.023200361402235"><ele>109.0</ele><time>2026-05-01T13:33:14Z</time></trkpt><trkpt lat="45.386815557027084" lon="9.022987015643823"><ele>109.25</ele><time>2026-05-01T13:33:15Z</time></trkpt><trkpt lat="45.386778462386054" lon="9.022787509394805"><ele>109.5</ele><time>2026-05-01T13:33:16Z</time></trkpt><trkpt lat="45.386745437548356" lon="9.02260872657748"><ele>109.75</ele><time>2026-05-01T13:33:17Z</time></trkpt><trkpt lat="45.38671635515342" lon="9.02245078093032"><ele>110.0</ele><time>2026-05-01T13:33:18Z</time></trkpt><trkpt lat="45.38667973117981" lon="9.022318760724621"><ele>110.16666666666666</ele><time>2026-05-01T13:33:19Z</time></trkpt><trkpt lat="45.38666239823468" lon="9.022201699245368"><ele>110.33333333333333</ele><time>2026-05-01T13:33:20Z</time></trkpt><trkpt lat="45.38662338406927" lon="9.0221057984058"><ele>110.5</ele><time>2026-05-01T13:33:21Z</time></trkpt><trkpt lat="45.386604691724116" lon="9.022014367627316"><ele>110.66666666666666</ele><time>2026-05-01T13:33:22Z</time></trkpt><trkpt lat="45.38658352950331" lon="9.021844421296672"><ele>110.83333333333333</ele><time>2026-05-01T13:33:24Z</time></trkpt><trkpt lat="45.386567661744486" lon="9.021749067364734"><ele>111.0</ele><time>2026-05-01T13:33:27Z</time></trkpt><trkpt lat="45.38633903480143" lon="9.021832487393075"><ele>111.0</ele><time>2026-05-01T13:33:31Z</time></trkpt><trkpt lat="45.38625454106126" lon="9.021884384089633"><ele>111.0</ele><time>2026-05-01T13:33:32Z</time></trkpt><trkpt lat="45.38615896263904" lon="9.021936576103455"><ele>111.0</ele><time>2026-05-01T13:33:33Z</time></trkpt><trkpt lat="45.38606253820214" lon="9.02200961661827"><ele>111.0</ele><time>2026-05-01T13:33:34Z</time></trkpt><trkpt lat="45.385951458588536" lon="9.022069009039807"><ele>111.0</ele><time>2026-05-01T13:33:35Z</time></trkpt><trkpt lat="45.385837854719185" lon="9.02212766139136"><ele>111.0</ele><time>2026-05-01T13:33:36Z</time></trkpt><trkpt lat="45.385718708900946" lon="9.022188354733641"><ele>111.0</ele><time>2026-05-01T13:33:37Z</time></trkpt><trkpt lat="45.38559002537945" lon="9.022233091585719"><ele>111.0</ele><time>2026-05-01T13:33:38Z</time></trkpt><trkpt lat="45.38546531988114" lon="9.022319030101547"><ele>111.0</ele><time>2026-05-01T13:33:39Z</time></trkpt><trkpt lat="45.38533216939153" lon="9.022376085879042"><ele>111.25</ele><time>2026-05-01T13:33:40Z</time></trkpt><trkpt lat="45.3852018715018" lon="9.022423232568125"><ele>111.5</ele><time>2026-05-01T13:33:41Z</time></trkpt><trkpt lat="45.38507974020502" lon="9.022481187644289"><ele>111.75</ele><time>2026-05-01T13:33:42Z</time></trkpt><trkpt lat="45.38496902404902" lon="9.022554282557229"><ele>112.0</ele><time>2026-05-01T13:33:43Z</time></trkpt><trkpt lat="45.3848594017939" lon="9.022610680119149"><ele>112.0</ele><time>2026-05-01T13:33:44Z</time></trkpt><trkpt lat="45.38474516309209" lon="9.022659185452747"><ele>112.0</ele><time>2026-05-01T13:33:45Z</time></trkpt><trkpt lat="45.384625670244986" lon="9.022711501684904"><ele>112.0</ele><time>2026-05-01T13:33:46Z</time></trkpt><trkpt lat="45.3844966081156" lon="9.0227315007751"><ele>112.0</ele><time>2026-05-01T13:33:47Z</time></trkpt><trkpt lat="45.38436862453922" lon="9.022788998496619"><ele>111.75</ele><time>2026-05-01T13:33:48Z</time></trkpt><trkpt lat="45.38423643061807" lon="9.022822867250516"><ele>111.5</ele><time>2026-05-01T13:33:49Z</time></trkpt><trkpt lat="45.38410344580967" lon="9.022860164105658"><ele>111.25</ele><time>2026-05-01T13:33:50Z</time></trkpt><trkpt lat="45.383970229885456" lon="9.022899922633759"><ele>111.0</ele><time>2026-05-01T13:33:51Z</time></trkpt><trkpt lat="45.38383092668242" lon="9.022937142816046"><ele>110.5</ele><time>2026-05-01T13:33:52Z</time></trkpt><trkpt lat="45.383690078059765" lon="9.022973518738715"><ele>110.0</ele><time>2026-05-01T13:33:53Z</time></trkpt><trkpt lat="45.38354366345525" lon="9.023018204845707"><ele>109.5</ele><time>2026-05-01T13:33:54Z</time></trkpt><trkpt lat="45.38339176214566" lon="9.023062779746152"><ele>109.0</ele><time>2026-05-01T13:33:55Z</time></trkpt><trkpt lat="45.38324419508467" lon="9.02310509729823"><ele>109.0</ele><time>2026-05-01T13:33:56Z</time></trkpt><trkpt lat="45.38308824568955" lon="9.023147498285125"><ele>109.0</ele><time>2026-05-01T13:33:57Z</time></trkpt><trkpt lat="45.38293162877447" lon="9.023190343998266"><ele>109.0</ele><time>2026-05-01T13:33:58Z</time></trkpt><trkpt lat="45.382774307891296" lon="9.023236132407467"><ele>109.0</ele><time>2026-05-01T13:33:59Z</time></trkpt><trkpt lat="45.38261786357289" lon="9.023286530184103"><ele>109.0</ele><time>2026-05-01T13:34:00Z</time></trkpt><trkpt lat="45.38246468503806" lon="9.023339589267604"><ele>109.0</ele><time>2026-05-01T13:34:01Z</time></trkpt><trkpt lat="45.38231768182584" lon="9.023393736983316"><ele>109.33333333333334</ele><time>2026-05-01T13:34:02Z</time></trkpt><trkpt lat="45.38217156237766" lon="9.023453584802375"><ele>109.66666666666666</ele><time>2026-05-01T13:34:03Z</time></trkpt><trkpt lat="45.38202765447293" lon="9.023518005070763"><ele>110.0</ele><time>2026-05-01T13:34:04Z</time></trkpt><trkpt lat="45.38187938666498" lon="9.023587478060726"><ele>110.0</ele><time>2026-05-01T13:34:05Z</time></trkpt><trkpt lat="45.381735499333054" lon="9.023663428529543"><ele>110.0</ele><time>2026-05-01T13:34:06Z</time></trkpt><trkpt lat="45.38159646924134" lon="9.023727989723566"><ele>110.0</ele><time>2026-05-01T13:34:07Z</time></trkpt><trkpt lat="45.381459786782386" lon="9.023786965434176"><ele>110.0</ele><time>2026-05-01T13:34:08Z</time></trkpt><trkpt lat="45.38133012447773" lon="9.023841667010338"><ele>109.75</ele><time>2026-05-01T13:34:09Z</time></trkpt><trkpt lat="45.38121046733706" lon="9.02389195297477"><ele>109.5</ele><time>2026-05-01T13:34:10Z</time></trkpt><trkpt lat="45.38109391373914" lon="9.023948407781543"><ele>109.25</ele><time>2026-05-01T13:34:11Z</time></trkpt><trkpt lat="45.38097743433223" lon="9.023995610317417"><ele>109.0</ele><time>2026-05-01T13:34:12Z</time></trkpt><trkpt lat="45.38087058229463" lon="9.02404063732083"><ele>109.0</ele><time>2026-05-01T13:34:13Z</time></trkpt><trkpt lat="45.38077082515102" lon="9.024084350115508"><ele>109.0</ele><time>2026-05-01T13:34:14Z</time></trkpt><trkpt lat="45.38067895452573" lon="9.024128212469824"><ele>109.0</ele><time>2026-05-01T13:34:15Z</time></trkpt><trkpt lat="45.38059318850096" lon="9.02416643291375"><ele>109.0</ele><time>2026-05-01T13:34:16Z</time></trkpt><trkpt lat="45.380517120043834" lon="9.024197875573995"><ele>109.0</ele><time>2026-05-01T13:34:17Z</time></trkpt><trkpt lat="45.380437162947956" lon="9.024207237154306"><ele>109.14285714285714</ele><time>2026-05-01T13:34:18Z</time></trkpt><trkpt lat="45.38037238601565" lon="9.024234067386812"><ele>109.28571428571429</ele><time>2026-05-01T13:34:19Z</time></trkpt><trkpt lat="45.38029852897437" lon="9.024292139657152"><ele>109.42857142857142</ele><time>2026-05-01T13:34:21Z</time></trkpt><trkpt lat="45.38022308018579" lon="9.02433491142946"><ele>109.57142857142857</ele><time>2026-05-01T13:34:23Z</time></trkpt><trkpt lat="45.38016766841831" lon="9.024407075954883"><ele>109.71428571428571</ele><time>2026-05-01T13:34:26Z</time></trkpt><trkpt lat="45.38019136448795" lon="9.02449163359382"><ele>109.85714285714285</ele><time>2026-05-01T13:34:28Z</time></trkpt><trkpt lat="45.38024939043687" lon="9.024541613013911"><ele>110.0</ele><time>2026-05-01T13:34:29Z</time></trkpt><trkpt lat="45.38032791189031" lon="9.024594598024379"><ele>110.0</ele><time>2026-05-01T13:34:30Z</time></trkpt><trkpt lat="45.38040231825875" lon="9.024663018885864"><ele>110.0</ele><time>2026-05-01T13:34:31Z</time></trkpt><trkpt lat="45.38047843029203" lon="9.024727684856266"><ele>110.0</ele><time>2026-05-01T13:34:32Z</time></trkpt><trkpt lat="45.38056023029933" lon="9.024788110212128"><ele>110.0</ele><time>2026-05-01T13:34:33Z</time></trkpt><trkpt lat="45.38064563978724" lon="9.024856438930838"><ele>110.0</ele><time>2026-05-01T13:34:34Z</time></trkpt><trkpt lat="45.380726841585634" lon="9.024915148615635"><ele>109.75</ele><time>2026-05-01T13:34:35Z</time></trkpt><trkpt lat="45.38082274507165" lon="9.025008244020468"><ele>109.5</ele><time>2026-05-01T13:34:36Z</time></trkpt><trkpt lat="45.380936082156985" lon="9.02510141025029"><ele>109.25</ele><time>2026-05-01T13:34:37Z</time></trkpt><trkpt lat="45.38103958066004" lon="9.025189363954638"><ele>109.0</ele><time>2026-05-01T13:34:38Z</time></trkpt><trkpt lat="45.38114560304375" lon="9.025279801779687"><ele>109.0</ele><time>2026-05-01T13:34:39Z</time></trkpt><trkpt lat="45.381250324053404" lon="9.025363112991185"><ele>109.0</ele><time>2026-05-01T13:34:40Z</time></trkpt><trkpt lat="45.38135676725918" lon="9.025448427370103"><ele>109.0</ele><time>2026-05-01T13:34:41Z</time></trkpt><trkpt lat="45.381460779802225" lon="9.02553557662157"><ele>109.0</ele><time>2026-05-01T13:34:42Z</time></trkpt><trkpt lat="45.381562904196265" lon="9.025625356670435"><ele>109.0</ele><time>2026-05-01T13:34:43Z</time></trkpt><trkpt lat="45.38166966829508" lon="9.025710233221146"><ele>109.0</ele><time>2026-05-01T13:34:44Z</time></trkpt><trkpt lat="45.381786459236295" lon="9.025773453951489"><ele>109.0</ele><time>2026-05-01T13:34:45Z</time></trkpt><trkpt lat="45.38191020020598" lon="9.025812991737228"><ele>109.0</ele><time>2026-05-01T13:34:46Z</time></trkpt><trkpt lat="45.38202525765049" lon="9.025851718732929"><ele>109.25</ele><time>2026-05-01T13:34:47Z</time></trkpt><trkpt lat="45.3821418617201" lon="9.025891449179934"><ele>109.5</ele><time>2026-05-01T13:34:48Z</time></trkpt><trkpt lat="45.38225615724189" lon="9.025924676426449"><ele>109.75</ele><time>2026-05-01T13:34:49Z</time></trkpt><trkpt lat="45.38237142366703" lon="9.025962778248505"><ele>110.0</ele><time>2026-05-01T13:34:50Z</time></trkpt><trkpt lat="45.38248395243034" lon="9.025998137257814"><ele>109.5</ele><time>2026-05-01T13:34:51Z</time></trkpt><trkpt lat="45.38259696979906" lon="9.02602902912033"><ele>109.0</ele><time>2026-05-01T13:34:52Z</time></trkpt><trkpt lat="45.38270926090553" lon="9.026064819615415"><ele>108.5</ele><time>2026-05-01T13:34:53Z</time></trkpt><trkpt lat="45.382819468642744" lon="9.026102712938657"><ele>108.0</ele><time>2026-05-01T13:34:54Z</time></trkpt><trkpt lat="45.38292555802322" lon="9.026132584989883"><ele>108.0</ele><time>2026-05-01T13:34:55Z</time></trkpt><trkpt lat="45.38303816558816" lon="9.02616274093139"><ele>108.0</ele><time>2026-05-01T13:34:56Z</time></trkpt><trkpt lat="45.38316123826414" lon="9.026189559285529"><ele>108.0</ele><time>2026-05-01T13:34:57Z</time></trkpt><trkpt lat="45.38329055850508" lon="9.02622125758415"><ele>108.0</ele><time>2026-05-01T13:34:58Z</time></trkpt><trkpt lat="45.38342668469582" lon="9.026262169220118"><ele>108.0</ele><time>2026-05-01T13:34:59Z</time></trkpt><trkpt lat="45.38357464117728" lon="9.026308779797873"><ele>108.0</ele><time>2026-05-01T13:35:00Z</time></trkpt><trkpt lat="45.38372024789987" lon="9.026356956748483"><ele>108.0</ele><time>2026-05-01T13:35:01Z</time></trkpt><trkpt lat="45.38386026034747" lon="9.026403319238181"><ele>108.0</ele><time>2026-05-01T13:35:02Z</time></trkpt><trkpt lat="45.383995831170175" lon="9.026447650800003"><ele>108.0</ele><time>2026-05-01T13:35:03Z</time></trkpt><trkpt lat="45.38412604308784" lon="9.026489242481793"><ele>108.0</ele><time>2026-05-01T13:35:04Z</time></trkpt><trkpt lat="45.38424567849645" lon="9.026526228408223"><ele>108.0</ele><time>2026-05-01T13:35:05Z</time></trkpt><trkpt lat="45.38436258596881" lon="9.026561178199769"><ele>108.0</ele><time>2026-05-01T13:35:06Z</time></trkpt><trkpt lat="45.38448169578041" lon="9.026598958913612"><ele>108.0</ele><time>2026-05-01T13:35:07Z</time></trkpt><trkpt lat="45.38460941758976" lon="9.026643135199478"><ele>108.0</ele><time>2026-05-01T13:35:08Z</time></trkpt><trkpt lat="45.384741874622016" lon="9.02668824440528"><ele>108.0</ele><time>2026-05-01T13:35:09Z</time></trkpt><trkpt lat="45.3848824539193" lon="9.026732002609773"><ele>108.0</ele><time>2026-05-01T13:35:10Z</time></trkpt><trkpt lat="45.38502596196597" lon="9.026771476382192"><ele>108.66666666666666</ele><time>2026-05-01T13:35:11Z</time></trkpt><trkpt lat="45.385173095505785" lon="9.02681097929921"><ele>109.33333333333333</ele><time>2026-05-01T13:35:12Z</time></trkpt><trkpt lat="45.385321449056036" lon="9.026854798922967"><ele>110.0</ele><time>2026-05-01T13:35:13Z</time></trkpt><trkpt lat="45.385477832446746" lon="9.026905886236811"><ele>109.5</ele><time>2026-05-01T13:35:14Z</time></trkpt><trkpt lat="45.38562965703948" lon="9.026949695052794"><ele>109.0</ele><time>2026-05-01T13:35:15Z</time></trkpt><trkpt lat="45.385769858445" lon="9.026986663300017"><ele>108.5</ele><time>2026-05-01T13:35:16Z</time></trkpt><trkpt lat="45.38589747182858" lon="9.02701987812639"><ele>108.0</ele><time>2026-05-01T13:35:17Z</time></trkpt><trkpt lat="45.38601896306486" lon="9.027051677646524"><ele>108.0</ele><time>2026-05-01T13:35:18Z</time></trkpt><trkpt lat="45.38613280387161" lon="9.027087159949097"><ele>108.00000000000001</ele><time>2026-05-01T13:35:19Z</time></trkpt><trkpt lat="45.386232168200266" lon="9.027118502995876"><ele>108.00000000000001</ele><time>2026-05-01T13:35:20Z</time></trkpt><trkpt lat="45.38632487534458" lon="9.027147755044112"><ele>108.0</ele><time>2026-05-01T13:35:21Z</time></trkpt><trkpt lat="45.38640711302762" lon="9.027173798338879"><ele>108.0</ele><time>2026-05-01T13:35:22Z</time></trkpt><trkpt lat="45.38648537501327" lon="9.027200078433996"><ele>108.28571428571428</ele><time>2026-05-01T13:35:23Z</time></trkpt><trkpt lat="45.38655810121086" lon="9.027220401930718"><ele>108.57142857142857</ele><time>2026-05-01T13:35:24Z</time></trkpt><trkpt lat="45.386619737388536" lon="9.027250317129814"><ele>108.85714285714286</ele><time>2026-05-01T13:35:25Z</time></trkpt><trkpt lat="45.386671506988115" lon="9.027308681965643"><ele>109.14285714285714</ele><time>2026-05-01T13:35:26Z</time></trkpt><trkpt lat="45.38673736001221" lon="9.027357049072403"><ele>109.42857142857143</ele><time>2026-05-01T13:35:27Z</time></trkpt><trkpt lat="45.38676844689032" lon="9.027458187352002"><ele>109.71428571428571</ele><time>2026-05-01T13:35:28Z</time></trkpt><trkpt lat="45.38676522963409" lon="9.027572314900567"><ele>110.0</ele><time>2026-05-01T13:35:29Z</time></trkpt><trkpt lat="45.386567403903186" lon="9.027670492085077"><ele>110.0</ele><time>2026-05-01T13:35:31Z</time></trkpt><trkpt lat="45.38648481668133" lon="9.027678793385858"><ele>110.0</ele><time>2026-05-01T13:35:32Z</time></trkpt><trkpt lat="45.386383378094116" lon="9.02766970293865"><ele>110.0</ele><time>2026-05-01T13:35:33Z</time></trkpt><trkpt lat="45.38627904238249" lon="9.027673110812632"><ele>110.0</ele><time>2026-05-01T13:35:34Z</time></trkpt><trkpt lat="45.386163950840086" lon="9.027686063116578"><ele>110.0</ele><time>2026-05-01T13:35:35Z</time></trkpt><trkpt lat="45.38604583229688" lon="9.027700219987132"><ele>110.0</ele><time>2026-05-01T13:35:36Z</time></trkpt><trkpt lat="45.385914049397215" lon="9.02771537707874"><ele>110.0</ele><time>2026-05-01T13:35:37Z</time></trkpt><trkpt lat="45.38577350013692" lon="9.02772763464378"><ele>110.0</ele><time>2026-05-01T13:35:38Z</time></trkpt><trkpt lat="45.385632519574926" lon="9.027741965603305"><ele>110.0</ele><time>2026-05-01T13:35:39Z</time></trkpt><trkpt lat="45.38548060526036" lon="9.027756712544099"><ele>110.0</ele><time>2026-05-01T13:35:40Z</time></trkpt><trkpt lat="45.38531689325546" lon="9.027770709603601"><ele>110.0</ele><time>2026-05-01T13:35:41Z</time></trkpt><trkpt lat="45.38514872590638" lon="9.027784205632368"><ele>110.0</ele><time>2026-05-01T13:35:42Z</time></trkpt><trkpt lat="45.38498668498225" lon="9.027798844451247"><ele>110.0</ele><time>2026-05-01T13:35:43Z</time></trkpt><trkpt lat="45.384815927353856" lon="9.027821085798479"><ele>110.0</ele><time>2026-05-01T13:35:44Z</time></trkpt><trkpt lat="45.38464897739393" lon="9.027836972989462"><ele>110.0</ele><time>2026-05-01T13:35:45Z</time></trkpt><trkpt lat="45.384493818191366" lon="9.0278526758665"><ele>110.33333333333333</ele><time>2026-05-01T13:35:46Z</time></trkpt><trkpt lat="45.38432547073265" lon="9.027866227880914"><ele>110.66666666666666</ele><time>2026-05-01T13:35:47Z</time></trkpt><trkpt lat="45.38416628817446" lon="9.02788010969619"><ele>111.0</ele><time>2026-05-01T13:35:48Z</time></trkpt><trkpt lat="45.38400522411227" lon="9.027900638739483"><ele>111.0</ele><time>2026-05-01T13:35:49Z</time></trkpt><trkpt lat="45.38385024045218" lon="9.027914901041822"><ele>111.0</ele><time>2026-05-01T13:35:50Z</time></trkpt><trkpt lat="45.38368726460837" lon="9.027927892594613"><ele>111.0</ele><time>2026-05-01T13:35:51Z</time></trkpt><trkpt lat="45.383532194570634" lon="9.027943076873594"><ele>110.66666666666666</ele><time>2026-05-01T13:35:52Z</time></trkpt><trkpt lat="45.38337588785065" lon="9.027960073124754"><ele>110.33333333333333</ele><time>2026-05-01T13:35:53Z</time></trkpt><trkpt lat="45.383217373769924" lon="9.027976890636062"><ele>110.0</ele><time>2026-05-01T13:35:54Z</time></trkpt><trkpt lat="45.383062442936776" lon="9.02799155509337"><ele>110.0</ele><time>2026-05-01T13:35:55Z</time></trkpt><trkpt lat="45.38290808240322" lon="9.028008891718343"><ele>110.0</ele><time>2026-05-01T13:35:56Z</time></trkpt><trkpt lat="45.38275496674404" lon="9.028023911394428"><ele>110.0</ele><time>2026-05-01T13:35:57Z</time></trkpt><trkpt lat="45.38259776172226" lon="9.028036125564384"><ele>110.0</ele><time>2026-05-01T13:35:58Z</time></trkpt><trkpt lat="45.38244240480609" lon="9.028049654225066"><ele>110.0</ele><time>2026-05-01T13:35:59Z</time></trkpt><trkpt lat="45.38228790471788" lon="9.028062672452627"><ele>110.0</ele><time>2026-05-01T13:36:00Z</time></trkpt><trkpt lat="45.382130900110965" lon="9.028076411657326"><ele>109.66666666666666</ele><time>2026-05-01T13:36:01Z</time></trkpt><trkpt lat="45.38197903961749" lon="9.028092259260761"><ele>109.33333333333334</ele><time>2026-05-01T13:36:02Z</time></trkpt><trkpt lat="45.38182403026443" lon="9.028107253118579"><ele>109.0</ele><time>2026-05-01T13:36:03Z</time></trkpt><trkpt lat="45.38166832784936" lon="9.02812474606822"><ele>109.0</ele><time>2026-05-01T13:36:04Z</time></trkpt><trkpt lat="45.38152860184593" lon="9.028138638390464"><ele>109.0</ele><time>2026-05-01T13:36:05Z</time></trkpt><trkpt lat="45.38140053567925" lon="9.028142497282422"><ele>109.0</ele><time>2026-05-01T13:36:06Z</time></trkpt><trkpt lat="45.38128420125557" lon="9.028146069779005"><ele>109.0</ele><time>2026-05-01T13:36:07Z</time></trkpt><trkpt lat="45.38117854813587" lon="9.028155705167078"><ele>109.16666666666667</ele><time>2026-05-01T13:36:08Z</time></trkpt><trkpt lat="45.381081263612245" lon="9.028164789157346"><ele>109.33333333333334</ele><time>2026-05-01T13:36:09Z</time></trkpt><trkpt lat="45.380993252831516" lon="9.028165874644161"><ele>109.5</ele><time>2026-05-01T13:36:10Z</time></trkpt><trkpt lat="45.3809140962129" lon="9.02816683410845"><ele>109.66666666666666</ele><time>2026-05-01T13:36:11Z</time></trkpt><trkpt lat="45.38084432047544" lon="9.028161609089869"><ele>109.83333333333333</ele><time>2026-05-01T13:36:12Z</time></trkpt><trkpt lat="45.380780241487926" lon="9.028179532265534"><ele>110.0</ele><time>2026-05-01T13:36:13Z</time></trkpt><trkpt lat="45.38069094099156" lon="9.02821511957825"><ele>109.99999999999999</ele><time>2026-05-01T13:36:15Z</time></trkpt><trkpt lat="45.38062142930889" lon="9.028225185244636"><ele>110.0</ele><time>2026-05-01T13:36:18Z</time></trkpt><trkpt lat="45.38053469543988" lon="9.028230011715097"><ele>110.0</ele><time>2026-05-01T13:36:25Z</time></trkpt><trkpt lat="45.38045734627706" lon="9.028237785384448"><ele>110.0</ele><time>2026-05-01T13:36:26Z</time></trkpt><trkpt lat="45.38036202969871" lon="9.028240679312958"><ele>109.99999999999999</ele><time>2026-05-01T13:36:27Z</time></trkpt><trkpt lat="45.38026796733757" lon="9.028239458149347"><ele>110.0</ele><time>2026-05-01T13:36:28Z</time></trkpt><trkpt lat="45.38015124380043" lon="9.028241408939948"><ele>110.0</ele><time>2026-05-01T13:36:29Z</time></trkpt><trkpt lat="45.38003589497559" lon="9.028246734225183"><ele>110.0</ele><time>2026-05-01T13:36:30Z</time></trkpt><trkpt lat="45.37991082786267" lon="9.028245178316203"><ele>110.0</ele><time>2026-05-01T13:36:31Z</time></trkpt><trkpt lat="45.37976402239464" lon="9.028293056645941"><ele>110.0</ele><time>2026-05-01T13:36:32Z</time></trkpt><trkpt lat="45.37961751663112" lon="9.028312990984896"><ele>109.66666666666666</ele><time>2026-05-01T13:36:33Z</time></trkpt><trkpt lat="45.37946785881084" lon="9.028326227535448"><ele>109.33333333333334</ele><time>2026-05-01T13:36:34Z</time></trkpt><trkpt lat="45.379316812297155" lon="9.028342588453802"><ele>109.0</ele><time>2026-05-01T13:36:35Z</time></trkpt><trkpt lat="45.37916315029052" lon="9.028356967360155"><ele>109.0</ele><time>2026-05-01T13:36:36Z</time></trkpt><trkpt lat="45.37901028825882" lon="9.028361948851893"><ele>109.0</ele><time>2026-05-01T13:36:37Z</time></trkpt><trkpt lat="45.37885254184485" lon="9.028364380042333"><ele>109.0</ele><time>2026-05-01T13:36:38Z</time></trkpt><trkpt lat="45.37868878963383" lon="9.028368972637196"><ele>109.0</ele><time>2026-05-01T13:36:39Z</time></trkpt><trkpt lat="45.378534301330546" lon="9.028365427609009"><ele>109.0</ele><time>2026-05-01T13:36:40Z</time></trkpt><trkpt lat="45.3783775193888" lon="9.028354158502372"><ele>109.0</ele><time>2026-05-01T13:36:41Z</time></trkpt><trkpt lat="45.378222079818116" lon="9.028336401944951"><ele>109.0</ele><time>2026-05-01T13:36:42Z</time></trkpt><trkpt lat="45.37806612691034" lon="9.028327050667906"><ele>109.0</ele><time>2026-05-01T13:36:43Z</time></trkpt><trkpt lat="45.3779133226647" lon="9.028315350709903"><ele>109.0</ele><time>2026-05-01T13:36:44Z</time></trkpt><trkpt lat="45.37776897538952" lon="9.028294016429188"><ele>109.25</ele><time>2026-05-01T13:36:45Z</time></trkpt><trkpt lat="45.37763062122293" lon="9.028241964294015"><ele>109.5</ele><time>2026-05-01T13:36:46Z</time></trkpt><trkpt lat="45.37749564673247" lon="9.028165784966369"><ele>109.75</ele><time>2026-05-01T13:36:47Z</time></trkpt><trkpt lat="45.37736681953767" lon="9.028095405414296"><ele>110.0</ele><time>2026-05-01T13:36:48Z</time></trkpt><trkpt lat="45.37723956634669" lon="9.028026654869475"><ele>109.75</ele><time>2026-05-01T13:36:49Z</time></trkpt><trkpt lat="45.377106879112354" lon="9.027984601680238"><ele>109.5</ele><time>2026-05-01T13:36:50Z</time></trkpt><trkpt lat="45.37696214464321" lon="9.027989568590641"><ele>109.25</ele><time>2026-05-01T13:36:51Z</time></trkpt><trkpt lat="45.3768145274427" lon="9.02802269913067"><ele>109.0</ele><time>2026-05-01T13:36:52Z</time></trkpt><trkpt lat="45.37666258769805" lon="9.028032221483734"><ele>109.0</ele><time>2026-05-01T13:36:53Z</time></trkpt><trkpt lat="45.37650594333024" lon="9.028021073617465"><ele>109.0</ele><time>2026-05-01T13:36:54Z</time></trkpt><trkpt lat="45.37633797940463" lon="9.02799557825351"><ele>109.0</ele><time>2026-05-01T13:36:55Z</time></trkpt><trkpt lat="45.37616541364257" lon="9.02794805210335"><ele>110.0</ele><time>2026-05-01T13:36:56Z</time></trkpt><trkpt lat="45.37598781543733" lon="9.027903308724394"><ele>111.0</ele><time>2026-05-01T13:36:57Z</time></trkpt><trkpt lat="45.37581848423534" lon="9.02786956725904"><ele>112.0</ele><time>2026-05-01T13:36:58Z</time></trkpt><trkpt lat="45.37565340770484" lon="9.027836451844165"><ele>110.66666666666667</ele><time>2026-05-01T13:36:59Z</time></trkpt><trkpt lat="45.37549291024845" lon="9.027803102215438"><ele>109.33333333333334</ele><time>2026-05-01T13:37:00Z</time></trkpt><trkpt lat="45.37533238213262" lon="9.027768514918108"><ele>108.0</ele><time>2026-05-01T13:37:01Z</time></trkpt><trkpt lat="45.375162232538365" lon="9.027732664167342"><ele>108.0</ele><time>2026-05-01T13:37:02Z</time></trkpt><trkpt lat="45.375001890874906" lon="9.027693290547143"><ele>108.0</ele><time>2026-05-01T13:37:03Z</time></trkpt><trkpt lat="45.37484307605776" lon="9.02765572527027"><ele>108.0</ele><time>2026-05-01T13:37:04Z</time></trkpt><trkpt lat="45.37467616610669" lon="9.027624407834034"><ele>108.0</ele><time>2026-05-01T13:37:05Z</time></trkpt><trkpt lat="45.37451534991078" lon="9.027588019831816"><ele>108.0</ele><time>2026-05-01T13:37:06Z</time></trkpt><trkpt lat="45.37435422252833" lon="9.02755492781653"><ele>108.0</ele><time>2026-05-01T13:37:07Z</time></trkpt><trkpt lat="45.374183522348524" lon="9.02751887249486"><ele>108.0</ele><time>2026-05-01T13:37:08Z</time></trkpt><trkpt lat="45.374026304662046" lon="9.02748557871896"><ele>108.0</ele><time>2026-05-01T13:37:09Z</time></trkpt><trkpt lat="45.37386355170621" lon="9.027449392954251"><ele>108.0</ele><time>2026-05-01T13:37:10Z</time></trkpt><trkpt lat="45.37370165858775" lon="9.027415164980198"><ele>108.33333333333334</ele><time>2026-05-01T13:37:11Z</time></trkpt><trkpt lat="45.37354313476505" lon="9.027379889312646"><ele>108.66666666666667</ele><time>2026-05-01T13:37:12Z</time></trkpt><trkpt lat="45.37337714500567" lon="9.027344930418288"><ele>109.0</ele><time>2026-05-01T13:37:13Z</time></trkpt><trkpt lat="45.3732169611181" lon="9.02731409871668"><ele>109.0</ele><time>2026-05-01T13:37:14Z</time></trkpt><trkpt lat="45.37304972585973" lon="9.027275006510145"><ele>109.0</ele><time>2026-05-01T13:37:15Z</time></trkpt><trkpt lat="45.372889350943204" lon="9.02723734158585"><ele>109.0</ele><time>2026-05-01T13:37:16Z</time></trkpt><trkpt lat="45.37272577954759" lon="9.027204540966393"><ele>108.66666666666667</ele><time>2026-05-01T13:37:17Z</time></trkpt><trkpt lat="45.37255977378094" lon="9.027171614082537"><ele>108.33333333333334</ele><time>2026-05-01T13:37:18Z</time></trkpt><trkpt lat="45.372393467358684" lon="9.027137003802586"><ele>108.0</ele><time>2026-05-01T13:37:19Z</time></trkpt><trkpt lat="45.372232226309045" lon="9.02709861826959"><ele>108.33333333333334</ele><time>2026-05-01T13:37:20Z</time></trkpt><trkpt lat="45.37206741228493" lon="9.027064488899981"><ele>108.66666666666667</ele><time>2026-05-01T13:37:21Z</time></trkpt><trkpt lat="45.37190360014831" lon="9.027033191719923"><ele>109.0</ele><time>2026-05-01T13:37:22Z</time></trkpt><trkpt lat="45.37174671914988" lon="9.026995702624184"><ele>109.0</ele><time>2026-05-01T13:37:23Z</time></trkpt><trkpt lat="45.37158288831857" lon="9.026963831159906"><ele>109.0</ele><time>2026-05-01T13:37:24Z</time></trkpt><trkpt lat="45.37142242755072" lon="9.026924166722612"><ele>109.0</ele><time>2026-05-01T13:37:25Z</time></trkpt><trkpt lat="45.371262004059744" lon="9.02689270432532"><ele>108.66666666666667</ele><time>2026-05-01T13:37:26Z</time></trkpt><trkpt lat="45.3710983829054" lon="9.026860287682297"><ele>108.33333333333334</ele><time>2026-05-01T13:37:27Z</time></trkpt><trkpt lat="45.37093857938887" lon="9.026816612719093"><ele>108.0</ele><time>2026-05-01T13:37:28Z</time></trkpt><trkpt lat="45.37077506090754" lon="9.026793846686404"><ele>108.0</ele><time>2026-05-01T13:37:29Z</time></trkpt><trkpt lat="45.370617933993024" lon="9.026755621055932"><ele>108.0</ele><time>2026-05-01T13:37:30Z</time></trkpt><trkpt lat="45.370452278632904" lon="9.026729532993192"><ele>108.0</ele><time>2026-05-01T13:37:31Z</time></trkpt><trkpt lat="45.37029474675584" lon="9.026689233508833"><ele>107.66666666666666</ele><time>2026-05-01T13:37:32Z</time></trkpt><trkpt lat="45.370128940122875" lon="9.026662086117147"><ele>107.33333333333333</ele><time>2026-05-01T13:37:33Z</time></trkpt><trkpt lat="45.36996602110876" lon="9.026622238814603"><ele>107.0</ele><time>2026-05-01T13:37:34Z</time></trkpt><trkpt lat="45.36980509274194" lon="9.02658447200854"><ele>106.66666666666666</ele><time>2026-05-01T13:37:35Z</time></trkpt><trkpt lat="45.36964004791003" lon="9.026548634736374"><ele>106.33333333333334</ele><time>2026-05-01T13:37:36Z</time></trkpt><trkpt lat="45.3694755773014" lon="9.026516714356134"><ele>106.0</ele><time>2026-05-01T13:37:37Z</time></trkpt><trkpt lat="45.3693110393104" lon="9.026487792887846"><ele>106.0</ele><time>2026-05-01T13:37:38Z</time></trkpt><trkpt lat="45.36913904289606" lon="9.026478971661541"><ele>106.0</ele><time>2026-05-01T13:37:39Z</time></trkpt><trkpt lat="45.36897344224366" lon="9.026469805085098"><ele>106.0</ele><time>2026-05-01T13:37:40Z</time></trkpt><trkpt lat="45.36880514383533" lon="9.026469790442375"><ele>106.33333333333334</ele><time>2026-05-01T13:37:41Z</time></trkpt><trkpt lat="45.36863589451407" lon="9.026477099012725"><ele>106.66666666666666</ele><time>2026-05-01T13:37:42Z</time></trkpt><trkpt lat="45.36846801900367" lon="9.026496127897433"><ele>107.0</ele><time>2026-05-01T13:37:43Z</time></trkpt><trkpt lat="45.36830015593547" lon="9.02652562288741"><ele>107.0</ele><time>2026-05-01T13:37:44Z</time></trkpt><trkpt lat="45.36813344151062" lon="9.026550911970354"><ele>107.0</ele><time>2026-05-01T13:37:45Z</time></trkpt><trkpt lat="45.36797004908581" lon="9.02656659231333"><ele>107.0</ele><time>2026-05-01T13:37:46Z</time></trkpt><trkpt lat="45.36780328158668" lon="9.026587110421998"><ele>107.0</ele><time>2026-05-01T13:37:47Z</time></trkpt><trkpt lat="45.36763490330453" lon="9.026615132644634"><ele>107.0</ele><time>2026-05-01T13:37:48Z</time></trkpt><trkpt lat="45.367469379695855" lon="9.026638109740404"><ele>107.0</ele><time>2026-05-01T13:37:49Z</time></trkpt><trkpt lat="45.36730417524907" lon="9.026653858343867"><ele>106.66666666666666</ele><time>2026-05-01T13:37:50Z</time></trkpt><trkpt lat="45.36713544151818" lon="9.026675802713608"><ele>106.33333333333334</ele><time>2026-05-01T13:37:51Z</time></trkpt><trkpt lat="45.36696419797449" lon="9.026701464587887"><ele>106.0</ele><time>2026-05-01T13:37:52Z</time></trkpt><trkpt lat="45.366792952764484" lon="9.026722767567252"><ele>106.0</ele><time>2026-05-01T13:37:53Z</time></trkpt><trkpt lat="45.36662265159642" lon="9.026746124402518"><ele>106.0</ele><time>2026-05-01T13:37:54Z</time></trkpt><trkpt lat="45.366454048184806" lon="9.02676649395326"><ele>106.0</ele><time>2026-05-01T13:37:55Z</time></trkpt><trkpt lat="45.366287600091226" lon="9.026792917489153"><ele>106.0</ele><time>2026-05-01T13:37:56Z</time></trkpt><trkpt lat="45.36612094643658" lon="9.026816992769563"><ele>106.0</ele><time>2026-05-01T13:37:57Z</time></trkpt><trkpt lat="45.36595701081596" lon="9.026830610812851"><ele>106.0</ele><time>2026-05-01T13:37:58Z</time></trkpt><trkpt lat="45.36579467792302" lon="9.026850614253728"><ele>106.0</ele><time>2026-05-01T13:37:59Z</time></trkpt><trkpt lat="45.365630296759306" lon="9.026878998441294"><ele>106.0</ele><time>2026-05-01T13:38:00Z</time></trkpt><trkpt lat="45.365468394599155" lon="9.026896366632979"><ele>106.0</ele><time>2026-05-01T13:38:01Z</time></trkpt><trkpt lat="45.365304923222205" lon="9.026920654928798"><ele>106.0</ele><time>2026-05-01T13:38:02Z</time></trkpt><trkpt lat="45.365143916208844" lon="9.026938916669286"><ele>106.0</ele><time>2026-05-01T13:38:03Z</time></trkpt><trkpt lat="45.364978724555904" lon="9.026961246055198"><ele>106.0</ele><time>2026-05-01T13:38:04Z</time></trkpt><trkpt lat="45.364819245319225" lon="9.02698060298424"><ele>105.66666666666667</ele><time>2026-05-01T13:38:05Z</time></trkpt><trkpt lat="45.36465826137888" lon="9.027001650592185"><ele>105.33333333333334</ele><time>2026-05-01T13:38:06Z</time></trkpt><trkpt lat="45.36449639879768" lon="9.027025258059567"><ele>105.0</ele><time>2026-05-01T13:38:07Z</time></trkpt><trkpt lat="45.36433590927895" lon="9.027047305072996"><ele>105.0</ele><time>2026-05-01T13:38:08Z</time></trkpt><trkpt lat="45.364179847448824" lon="9.027061418586719"><ele>105.0</ele><time>2026-05-01T13:38:09Z</time></trkpt><trkpt lat="45.36401800063117" lon="9.027079228913676"><ele>105.0</ele><time>2026-05-01T13:38:10Z</time></trkpt><trkpt lat="45.363860686125115" lon="9.027095113519968"><ele>105.0</ele><time>2026-05-01T13:38:11Z</time></trkpt><trkpt lat="45.36370099237462" lon="9.027123040711437"><ele>105.0</ele><time>2026-05-01T13:38:12Z</time></trkpt><trkpt lat="45.36353923741529" lon="9.027141329452055"><ele>105.0</ele><time>2026-05-01T13:38:13Z</time></trkpt><trkpt lat="45.36337201283713" lon="9.02716208873955"><ele>105.0</ele><time>2026-05-01T13:38:14Z</time></trkpt><trkpt lat="45.36321043961929" lon="9.027179370482393"><ele>105.0</ele><time>2026-05-01T13:38:15Z</time></trkpt><trkpt lat="45.36304389518063" lon="9.027209291504722"><ele>105.0</ele><time>2026-05-01T13:38:16Z</time></trkpt><trkpt lat="45.36288467498284" lon="9.027226302890876"><ele>104.66666666666666</ele><time>2026-05-01T13:38:17Z</time></trkpt><trkpt lat="45.36271918595482" lon="9.027251614526897"><ele>104.33333333333333</ele><time>2026-05-01T13:38:18Z</time></trkpt><trkpt lat="45.362562044823484" lon="9.027267197293197"><ele>104.0</ele><time>2026-05-01T13:38:19Z</time></trkpt><trkpt lat="45.362399460396226" lon="9.02729464295605"><ele>104.0</ele><time>2026-05-01T13:38:20Z</time></trkpt><trkpt lat="45.36224250733073" lon="9.027307847718506"><ele>104.0</ele><time>2026-05-01T13:38:21Z</time></trkpt><trkpt lat="45.362080028359856" lon="9.027329807616375"><ele>104.0</ele><time>2026-05-01T13:38:22Z</time></trkpt><trkpt lat="45.36192014147699" lon="9.027344190833844"><ele>103.33333333333333</ele><time>2026-05-01T13:38:23Z</time></trkpt><trkpt lat="45.36175598074875" lon="9.02735856456633"><ele>102.66666666666666</ele><time>2026-05-01T13:38:24Z</time></trkpt><trkpt lat="45.3615909262934" lon="9.027361538398978"><ele>102.0</ele><time>2026-05-01T13:38:25Z</time></trkpt><trkpt lat="45.361420017071" lon="9.027353163098264"><ele>102.66666666666666</ele><time>2026-05-01T13:38:26Z</time></trkpt><trkpt lat="45.36125429691233" lon="9.027337264833253"><ele>103.33333333333333</ele><time>2026-05-01T13:38:27Z</time></trkpt><trkpt lat="45.36108988203409" lon="9.027306026989018"><ele>104.0</ele><time>2026-05-01T13:38:28Z</time></trkpt><trkpt lat="45.36092402942464" lon="9.027266401810968"><ele>104.0</ele><time>2026-05-01T13:38:29Z</time></trkpt><trkpt lat="45.3607576407031" lon="9.027215205450702"><ele>104.0</ele><time>2026-05-01T13:38:30Z</time></trkpt><trkpt lat="45.36059526539864" lon="9.027154638858304"><ele>104.0</ele><time>2026-05-01T13:38:31Z</time></trkpt><trkpt lat="45.36043788826441" lon="9.02708982898595"><ele>104.33333333333333</ele><time>2026-05-01T13:38:32Z</time></trkpt><trkpt lat="45.36027019763166" lon="9.02702336612156"><ele>104.66666666666666</ele><time>2026-05-01T13:38:33Z</time></trkpt><trkpt lat="45.36010950020201" lon="9.026948979494264"><ele>105.0</ele><time>2026-05-01T13:38:34Z</time></trkpt><trkpt lat="45.359939289825235" lon="9.026877364435169"><ele>105.0</ele><time>2026-05-01T13:38:35Z</time></trkpt><trkpt lat="45.359779380866534" lon="9.026803326607578"><ele>105.0</ele><time>2026-05-01T13:38:36Z</time></trkpt><trkpt lat="45.35961337939304" lon="9.026732791205362"><ele>105.0</ele><time>2026-05-01T13:38:37Z</time></trkpt><trkpt lat="45.35945633982669" lon="9.026659053918625"><ele>105.33333333333334</ele><time>2026-05-01T13:38:38Z</time></trkpt><trkpt lat="45.35929375257811" lon="9.026590321208271"><ele>105.66666666666667</ele><time>2026-05-01T13:38:39Z</time></trkpt><trkpt lat="45.359135421620415" lon="9.02651786879921"><ele>106.0</ele><time>2026-05-01T13:38:40Z</time></trkpt><trkpt lat="45.35897795894115" lon="9.026442292015595"><ele>106.0</ele><time>2026-05-01T13:38:41Z</time></trkpt><trkpt lat="45.35881610309291" lon="9.026371209462482"><ele>106.0</ele><time>2026-05-01T13:38:42Z</time></trkpt><trkpt lat="45.35865149961691" lon="9.026301282323729"><ele>106.0</ele><time>2026-05-01T13:38:43Z</time></trkpt><trkpt lat="45.35849404853231" lon="9.026232524977425"><ele>106.0</ele><time>2026-05-01T13:38:44Z</time></trkpt><trkpt lat="45.3583428644015" lon="9.026161912910275"><ele>106.0</ele><time>2026-05-01T13:38:45Z</time></trkpt><trkpt lat="45.35818705642886" lon="9.026092789956547"><ele>106.0</ele><time>2026-05-01T13:38:46Z</time></trkpt><trkpt lat="45.358034990702734" lon="9.02602451328901"><ele>105.33333333333334</ele><time>2026-05-01T13:38:47Z</time></trkpt><trkpt lat="45.35788011264449" lon="9.025957115729662"><ele>104.66666666666666</ele><time>2026-05-01T13:38:48Z</time></trkpt><trkpt lat="45.35773017416452" lon="9.025888896545554"><ele>104.0</ele><time>2026-05-01T13:38:49Z</time></trkpt><trkpt lat="45.35757297513926" lon="9.025823636404201"><ele>103.66666666666666</ele><time>2026-05-01T13:38:50Z</time></trkpt><trkpt lat="45.35742494783922" lon="9.025755518419384"><ele>103.33333333333334</ele><time>2026-05-01T13:38:51Z</time></trkpt><trkpt lat="45.357270093064265" lon="9.025689428817657"><ele>103.0</ele><time>2026-05-01T13:38:52Z</time></trkpt><trkpt lat="45.35711819436073" lon="9.025623667639584"><ele>103.5</ele><time>2026-05-01T13:38:53Z</time></trkpt><trkpt lat="45.35697574627671" lon="9.025559846622881"><ele>104.0</ele><time>2026-05-01T13:38:54Z</time></trkpt><trkpt lat="45.35683718633135" lon="9.025503983245233"><ele>104.5</ele><time>2026-05-01T13:38:55Z</time></trkpt><trkpt lat="45.356712591371945" lon="9.025446998667011"><ele>105.0</ele><time>2026-05-01T13:38:56Z</time></trkpt><trkpt lat="45.35660232944948" lon="9.025395692634396"><ele>105.0</ele><time>2026-05-01T13:38:57Z</time></trkpt><trkpt lat="45.35649851182572" lon="9.02533098807474"><ele>105.0</ele><time>2026-05-01T13:38:58Z</time></trkpt><trkpt lat="45.35640758690037" lon="9.025250137911716"><ele>105.0</ele><time>2026-05-01T13:38:59Z</time></trkpt><trkpt lat="45.35633813871783" lon="9.025158384738852"><ele>105.0</ele><time>2026-05-01T13:39:00Z</time></trkpt><trkpt lat="45.3562792977656" lon="9.02504367721227"><ele>105.0</ele><time>2026-05-01T13:39:01Z</time></trkpt><trkpt lat="45.35622072608587" lon="9.024920731665288"><ele>104.8</ele><time>2026-05-01T13:39:02Z</time></trkpt><trkpt lat="45.356154076702055" lon="9.024817346804367"><ele>104.6</ele><time>2026-05-01T13:39:03Z</time></trkpt><trkpt lat="45.356070227900624" lon="9.024752665501023"><ele>104.4</ele><time>2026-05-01T13:39:04Z</time></trkpt><trkpt lat="45.35596998293139" lon="9.02475572789086"><ele>104.2</ele><time>2026-05-01T13:39:05Z</time></trkpt><trkpt lat="45.355876549575605" lon="9.024810460451581"><ele>104.0</ele><time>2026-05-01T13:39:06Z</time></trkpt><trkpt lat="45.35580924384575" lon="9.02491987843759"><ele>104.0</ele><time>2026-05-01T13:39:07Z</time></trkpt><trkpt lat="45.35578287586577" lon="9.025068252340164"><ele>104.0</ele><time>2026-05-01T13:39:08Z</time></trkpt><trkpt lat="45.35580327535257" lon="9.025225631756397"><ele>104.0</ele><time>2026-05-01T13:39:09Z</time></trkpt><trkpt lat="45.35587076189783" lon="9.025375506900735"><ele>104.0</ele><time>2026-05-01T13:39:10Z</time></trkpt><trkpt lat="45.35593335425347" lon="9.025530554995441"><ele>104.0</ele><time>2026-05-01T13:39:11Z</time></trkpt><trkpt lat="45.35597780648495" lon="9.02570132682489"><ele>104.0</ele><time>2026-05-01T13:39:12Z</time></trkpt><trkpt lat="45.35595732922419" lon="9.025922234003685"><ele>104.0</ele><time>2026-05-01T13:39:13Z</time></trkpt><trkpt lat="45.355961826444116" lon="9.026135883227477"><ele>104.0</ele><time>2026-05-01T13:39:14Z</time></trkpt><trkpt lat="45.355959936303684" lon="9.026354915846994"><ele>104.33333333333333</ele><time>2026-05-01T13:39:15Z</time></trkpt><trkpt lat="45.35593661975278" lon="9.026593724056836"><ele>104.66666666666666</ele><time>2026-05-01T13:39:16Z</time></trkpt><trkpt lat="45.3558851394004" lon="9.026840185820658"><ele>105.0</ele><time>2026-05-01T13:39:17Z</time></trkpt><trkpt lat="45.355810167979875" lon="9.027075756984932"><ele>105.0</ele><time>2026-05-01T13:39:18Z</time></trkpt><trkpt lat="45.3557274604453" lon="9.027297140268079"><ele>105.0</ele><time>2026-05-01T13:39:19Z</time></trkpt><trkpt lat="45.355636475002626" lon="9.027518789495037"><ele>105.0</ele><time>2026-05-01T13:39:20Z</time></trkpt><trkpt lat="45.35553877031236" lon="9.027723608005683"><ele>105.33333333333334</ele><time>2026-05-01T13:39:21Z</time></trkpt><trkpt lat="45.355434792067186" lon="9.027910394623694"><ele>105.66666666666667</ele><time>2026-05-01T13:39:22Z</time></trkpt><trkpt lat="45.355316591568176" lon="9.028083315823094"><ele>106.0</ele><time>2026-05-01T13:39:23Z</time></trkpt><trkpt lat="45.35519514716444" lon="9.02823704570523"><ele>105.66666666666667</ele><time>2026-05-01T13:39:24Z</time></trkpt><trkpt lat="45.355069353387655" lon="9.0283747418173"><ele>105.33333333333334</ele><time>2026-05-01T13:39:25Z</time></trkpt><trkpt lat="45.354932370715915" lon="9.028506017453175"><ele>105.0</ele><time>2026-05-01T13:39:26Z</time></trkpt><trkpt lat="45.35479791053985" lon="9.028616645844902"><ele>105.66666666666666</ele><time>2026-05-01T13:39:27Z</time></trkpt><trkpt lat="45.35465393416993" lon="9.028713041820788"><ele>106.33333333333333</ele><time>2026-05-01T13:39:28Z</time></trkpt><trkpt lat="45.35450769012059" lon="9.028796487791494"><ele>107.0</ele><time>2026-05-01T13:39:29Z</time></trkpt><trkpt lat="45.3543653210541" lon="9.028877825789689"><ele>107.0</ele><time>2026-05-01T13:39:30Z</time></trkpt><trkpt lat="45.35423783316721" lon="9.028948225514368"><ele>107.0</ele><time>2026-05-01T13:39:31Z</time></trkpt><trkpt lat="45.35411644679122" lon="9.029010387335513"><ele>107.0</ele><time>2026-05-01T13:39:32Z</time></trkpt><trkpt lat="45.354001589421955" lon="9.029068978359923"><ele>107.0</ele><time>2026-05-01T13:39:33Z</time></trkpt><trkpt lat="45.35389562003026" lon="9.029115254113236"><ele>107.0</ele><time>2026-05-01T13:39:34Z</time></trkpt><trkpt lat="45.353782570764466" lon="9.029153140205482"><ele>106.99999999999999</ele><time>2026-05-01T13:39:35Z</time></trkpt><trkpt lat="45.35366195228586" lon="9.029155609978028"><ele>106.99999999999999</ele><time>2026-05-01T13:39:36Z</time></trkpt><trkpt lat="45.353552196649815" lon="9.02913739459175"><ele>107.0</ele><time>2026-05-01T13:39:37Z</time></trkpt><trkpt lat="45.353454377659844" lon="9.029115268386924"><ele>107.0</ele><time>2026-05-01T13:39:38Z</time></trkpt><trkpt lat="45.35335762338783" lon="9.029092071726897"><ele>107.0</ele><time>2026-05-01T13:39:39Z</time></trkpt><trkpt lat="45.35325833210631" lon="9.029104960392512"><ele>106.99999999999999</ele><time>2026-05-01T13:39:40Z</time></trkpt><trkpt lat="45.35317209392889" lon="9.029181295233306"><ele>106.99999999999999</ele><time>2026-05-01T13:39:41Z</time></trkpt><trkpt lat="45.353104941631855" lon="9.029312585275386"><ele>107.0</ele><time>2026-05-01T13:39:42Z</time></trkpt><trkpt lat="45.35305139368043" lon="9.029447467662479"><ele>107.0</ele><time>2026-05-01T13:39:43Z</time></trkpt><trkpt lat="45.353099469294975" lon="9.029633777119908"><ele>107.25</ele><time>2026-05-01T13:39:44Z</time></trkpt><trkpt lat="45.35316493822772" lon="9.029778624795792"><ele>107.5</ele><time>2026-05-01T13:39:45Z</time></trkpt><trkpt lat="45.35325133827713" lon="9.029914076494338"><ele>107.75</ele><time>2026-05-01T13:39:46Z</time></trkpt><trkpt lat="45.353307822242606" lon="9.030079086953616"><ele>108.0</ele><time>2026-05-01T13:39:47Z</time></trkpt><trkpt lat="45.35337003668023" lon="9.030258848389023"><ele>106.66666666666666</ele><time>2026-05-01T13:39:48Z</time></trkpt><trkpt lat="45.353358173662116" lon="9.030500564721002"><ele>105.33333333333333</ele><time>2026-05-01T13:39:49Z</time></trkpt><trkpt lat="45.35335976560384" lon="9.03072304864412"><ele>104.0</ele><time>2026-05-01T13:39:50Z</time></trkpt><trkpt lat="45.35337226793035" lon="9.030952755628329"><ele>104.0</ele><time>2026-05-01T13:39:51Z</time></trkpt><trkpt lat="45.353387272920564" lon="9.031179967626949"><ele>104.0</ele><time>2026-05-01T13:39:52Z</time></trkpt><trkpt lat="45.35340589441927" lon="9.031417211590076"><ele>104.0</ele><time>2026-05-01T13:39:53Z</time></trkpt><trkpt lat="45.353424995894684" lon="9.03164741810447"><ele>104.33333333333333</ele><time>2026-05-01T13:39:54Z</time></trkpt><trkpt lat="45.353445878907394" lon="9.031886265545111"><ele>104.66666666666666</ele><time>2026-05-01T13:39:55Z</time></trkpt><trkpt lat="45.353478501575836" lon="9.032112752802105"><ele>105.0</ele><time>2026-05-01T13:39:56Z</time></trkpt><trkpt lat="45.35351558573451" lon="9.03234096431041"><ele>105.33333333333334</ele><time>2026-05-01T13:39:57Z</time></trkpt><trkpt lat="45.35356101066773" lon="9.032578079032215"><ele>105.66666666666667</ele><time>2026-05-01T13:39:58Z</time></trkpt><trkpt lat="45.35361630382382" lon="9.032807695046484"><ele>106.0</ele><time>2026-05-01T13:39:59Z</time></trkpt><trkpt lat="45.35368002910915" lon="9.033028124265009"><ele>106.0</ele><time>2026-05-01T13:40:00Z</time></trkpt><trkpt lat="45.35374920156527" lon="9.033249885584612"><ele>106.0</ele><time>2026-05-01T13:40:01Z</time></trkpt><trkpt lat="45.35382023248842" lon="9.033457578866209"><ele>106.0</ele><time>2026-05-01T13:40:02Z</time></trkpt><trkpt lat="45.35390710728852" lon="9.033662660781296"><ele>105.33333333333334</ele><time>2026-05-01T13:40:03Z</time></trkpt><trkpt lat="45.353999786101625" lon="9.033864322598033"><ele>104.66666666666666</ele><time>2026-05-01T13:40:04Z</time></trkpt><trkpt lat="45.354091746311134" lon="9.034067841606209"><ele>104.0</ele><time>2026-05-01T13:40:05Z</time></trkpt><trkpt lat="45.35418814909409" lon="9.034264432236032"><ele>104.0</ele><time>2026-05-01T13:40:06Z</time></trkpt><trkpt lat="45.35428726916502" lon="9.034455694120098"><ele>104.0</ele><time>2026-05-01T13:40:07Z</time></trkpt><trkpt lat="45.35438395841605" lon="9.034649416066554"><ele>104.0</ele><time>2026-05-01T13:40:08Z</time></trkpt><trkpt lat="45.35448322093078" lon="9.034844303254662"><ele>104.0</ele><time>2026-05-01T13:40:09Z</time></trkpt><trkpt lat="45.35457965426981" lon="9.035036638985062"><ele>104.0</ele><time>2026-05-01T13:40:10Z</time></trkpt><trkpt lat="45.35467920683625" lon="9.03523312879615"><ele>104.0</ele><time>2026-05-01T13:40:11Z</time></trkpt><trkpt lat="45.35477487349987" lon="9.035426329754946"><ele>104.0</ele><time>2026-05-01T13:40:12Z</time></trkpt><trkpt lat="45.35486749170679" lon="9.035620472399675"><ele>104.0</ele><time>2026-05-01T13:40:13Z</time></trkpt><trkpt lat="45.35495161966213" lon="9.035825417445517"><ele>104.0</ele><time>2026-05-01T13:40:14Z</time></trkpt><trkpt lat="45.35501956251189" lon="9.036040577062831"><ele>104.0</ele><time>2026-05-01T13:40:15Z</time></trkpt><trkpt lat="45.35508016904386" lon="9.036251762220152"><ele>104.0</ele><time>2026-05-01T13:40:16Z</time></trkpt><trkpt lat="45.35513327860084" lon="9.036474989248765"><ele>104.0</ele><time>2026-05-01T13:40:17Z</time></trkpt><trkpt lat="45.355177973120384" lon="9.036711238267676"><ele>104.0</ele><time>2026-05-01T13:40:18Z</time></trkpt><trkpt lat="45.35521351411631" lon="9.036935473324135"><ele>104.0</ele><time>2026-05-01T13:40:19Z</time></trkpt><trkpt lat="45.35525213515349" lon="9.037163631107251"><ele>104.0</ele><time>2026-05-01T13:40:20Z</time></trkpt><trkpt lat="45.355294313032594" lon="9.037406058937147"><ele>104.0</ele><time>2026-05-01T13:40:21Z</time></trkpt><trkpt lat="45.355335040714635" lon="9.037642220046978"><ele>104.0</ele><time>2026-05-01T13:40:22Z</time></trkpt><trkpt lat="45.35537776723943" lon="9.03788004864935"><ele>104.0</ele><time>2026-05-01T13:40:23Z</time></trkpt><trkpt lat="45.35541997896986" lon="9.038112680232075"><ele>104.0</ele><time>2026-05-01T13:40:24Z</time></trkpt><trkpt lat="45.35546293621807" lon="9.038354583316924"><ele>104.0</ele><time>2026-05-01T13:40:25Z</time></trkpt><trkpt lat="45.35550606580327" lon="9.038591109446587"><ele>104.0</ele><time>2026-05-01T13:40:26Z</time></trkpt><trkpt lat="45.35555015084434" lon="9.038828842865911"><ele>104.0</ele><time>2026-05-01T13:40:27Z</time></trkpt><trkpt lat="45.35559097896435" lon="9.039060452573327"><ele>104.0</ele><time>2026-05-01T13:40:28Z</time></trkpt><trkpt lat="45.35563217980279" lon="9.03929565489478"><ele>104.0</ele><time>2026-05-01T13:40:29Z</time></trkpt><trkpt lat="45.35567154576908" lon="9.039525115614673"><ele>104.33333333333333</ele><time>2026-05-01T13:40:30Z</time></trkpt><trkpt lat="45.35571038567869" lon="9.0397460462392"><ele>104.66666666666666</ele><time>2026-05-01T13:40:31Z</time></trkpt><trkpt lat="45.35575277593066" lon="9.039976110061435"><ele>105.0</ele><time>2026-05-01T13:40:32Z</time></trkpt><trkpt lat="45.35579373929929" lon="9.04021205698391"><ele>105.0</ele><time>2026-05-01T13:40:33Z</time></trkpt><trkpt lat="45.35582926618757" lon="9.040439886082178"><ele>105.0</ele><time>2026-05-01T13:40:34Z</time></trkpt><trkpt lat="45.35586875205159" lon="9.040669715394074"><ele>105.0</ele><time>2026-05-01T13:40:35Z</time></trkpt><trkpt lat="45.35590971527304" lon="9.040897814357612"><ele>105.0</ele><time>2026-05-01T13:40:36Z</time></trkpt><trkpt lat="45.35595106149545" lon="9.041129049571545"><ele>105.0</ele><time>2026-05-01T13:40:37Z</time></trkpt><trkpt lat="45.355993379256034" lon="9.0413667797024"><ele>105.0</ele><time>2026-05-01T13:40:38Z</time></trkpt><trkpt lat="45.356034070264776" lon="9.041598569524485"><ele>105.0</ele><time>2026-05-01T13:40:39Z</time></trkpt><trkpt lat="45.35607319968977" lon="9.04182137483672"><ele>105.0</ele><time>2026-05-01T13:40:40Z</time></trkpt><trkpt lat="45.3561152398258" lon="9.042053706474032"><ele>105.0</ele><time>2026-05-01T13:40:41Z</time></trkpt><trkpt lat="45.35615798609969" lon="9.04228589488469"><ele>104.66666666666666</ele><time>2026-05-01T13:40:42Z</time></trkpt><trkpt lat="45.35619881191602" lon="9.042518078535016"><ele>104.33333333333333</ele><time>2026-05-01T13:40:43Z</time></trkpt><trkpt lat="45.35623697642446" lon="9.042738284491895"><ele>104.0</ele><time>2026-05-01T13:40:44Z</time></trkpt><trkpt lat="45.35627740183965" lon="9.04296189830519"><ele>104.0</ele><time>2026-05-01T13:40:45Z</time></trkpt><trkpt lat="45.35631946110248" lon="9.043191997247217"><ele>104.0</ele><time>2026-05-01T13:40:46Z</time></trkpt><trkpt lat="45.356360155212975" lon="9.043415824108415"><ele>104.0</ele><time>2026-05-01T13:40:47Z</time></trkpt><trkpt lat="45.35640140790776" lon="9.043651512891692"><ele>104.0</ele><time>2026-05-01T13:40:48Z</time></trkpt><trkpt lat="45.356437854330515" lon="9.043885967957767"><ele>104.0</ele><time>2026-05-01T13:40:49Z</time></trkpt><trkpt lat="45.356469203572615" lon="9.044124341842103"><ele>104.0</ele><time>2026-05-01T13:40:50Z</time></trkpt><trkpt lat="45.35649197296385" lon="9.04436505710273"><ele>104.0</ele><time>2026-05-01T13:40:51Z</time></trkpt><trkpt lat="45.35650389884785" lon="9.044613386247953"><ele>104.0</ele><time>2026-05-01T13:40:52Z</time></trkpt><trkpt lat="45.356508242264894" lon="9.044857228710688"><ele>104.0</ele><time>2026-05-01T13:40:53Z</time></trkpt><trkpt lat="45.35651580521858" lon="9.045113562235928"><ele>104.0</ele><time>2026-05-01T13:40:54Z</time></trkpt><trkpt lat="45.35652362046888" lon="9.045360783028539"><ele>104.0</ele><time>2026-05-01T13:40:55Z</time></trkpt><trkpt lat="45.356529975206314" lon="9.045605514208871"><ele>104.0</ele><time>2026-05-01T13:40:56Z</time></trkpt><trkpt lat="45.356538537021656" lon="9.045858503457104"><ele>104.0</ele><time>2026-05-01T13:40:57Z</time></trkpt><trkpt lat="45.35654615984862" lon="9.046105184856179"><ele>104.0</ele><time>2026-05-01T13:40:58Z</time></trkpt><trkpt lat="45.356553412699775" lon="9.046338085624173"><ele>104.0</ele><time>2026-05-01T13:40:59Z</time></trkpt><trkpt lat="45.3565592440302" lon="9.046541696394168"><ele>104.0</ele><time>2026-05-01T13:41:00Z</time></trkpt><trkpt lat="45.356567289905094" lon="9.04673835669501"><ele>104.0</ele><time>2026-05-01T13:41:01Z</time></trkpt><trkpt lat="45.35657215281097" lon="9.04691629873781"><ele>104.0</ele><time>2026-05-01T13:41:02Z</time></trkpt><trkpt lat="45.35657765522889" lon="9.04707672042511"><ele>104.0</ele><time>2026-05-01T13:41:03Z</time></trkpt><trkpt lat="45.35658269862882" lon="9.04722923328009"><ele>104.0</ele><time>2026-05-01T13:41:04Z</time></trkpt><trkpt lat="45.35657748360535" lon="9.04737378113047"><ele>104.0</ele><time>2026-05-01T13:41:05Z</time></trkpt><trkpt lat="45.356556314152115" lon="9.04750931763528"><ele>104.0</ele><time>2026-05-01T13:41:06Z</time></trkpt><trkpt lat="45.35650395874721" lon="9.047637745439133"><ele>104.0</ele><time>2026-05-01T13:41:07Z</time></trkpt><trkpt lat="45.356434047026646" lon="9.047749695790086"><ele>104.0</ele><time>2026-05-01T13:41:08Z</time></trkpt><trkpt lat="45.356419413465005" lon="9.047910052088834"><ele>104.0</ele><time>2026-05-01T13:41:09Z</time></trkpt><trkpt lat="45.35647371647132" lon="9.048066352596102"><ele>104.0</ele><time>2026-05-01T13:41:10Z</time></trkpt><trkpt lat="45.35654254172226" lon="9.048202733788886"><ele>104.0</ele><time>2026-05-01T13:41:11Z</time></trkpt><trkpt lat="45.35660637130347" lon="9.04835512233242"><ele>104.0</ele><time>2026-05-01T13:41:12Z</time></trkpt><trkpt lat="45.356631776149655" lon="9.048551117084006"><ele>104.0</ele><time>2026-05-01T13:41:13Z</time></trkpt><trkpt lat="45.356626028111165" lon="9.048760592384001"><ele>104.0</ele><time>2026-05-01T13:41:14Z</time></trkpt><trkpt lat="45.35662440166498" lon="9.048961368778503"><ele>104.0</ele><time>2026-05-01T13:41:15Z</time></trkpt><trkpt lat="45.35663145910462" lon="9.049173369562581"><ele>104.0</ele><time>2026-05-01T13:41:16Z</time></trkpt><trkpt lat="45.356640790620055" lon="9.04939569237756"><ele>104.0</ele><time>2026-05-01T13:41:17Z</time></trkpt><trkpt lat="45.35664769878344" lon="9.049624369103348"><ele>104.0</ele><time>2026-05-01T13:41:18Z</time></trkpt><trkpt lat="45.35665315398673" lon="9.049852880270993"><ele>104.0</ele><time>2026-05-01T13:41:19Z</time></trkpt><trkpt lat="45.35665881893482" lon="9.050082817280785"><ele>104.0</ele><time>2026-05-01T13:41:20Z</time></trkpt><trkpt lat="45.35666323850527" lon="9.050317305169303"><ele>104.0</ele><time>2026-05-01T13:41:21Z</time></trkpt><trkpt lat="45.356671601285285" lon="9.05054724646717"><ele>104.0</ele><time>2026-05-01T13:41:22Z</time></trkpt><trkpt lat="45.35668052748411" lon="9.05078102477232"><ele>104.0</ele><time>2026-05-01T13:41:23Z</time></trkpt><trkpt lat="45.356685022761006" lon="9.051018577006195"><ele>104.0</ele><time>2026-05-01T13:41:24Z</time></trkpt><trkpt lat="45.35669122229138" lon="9.051261830101708"><ele>104.0</ele><time>2026-05-01T13:41:25Z</time></trkpt><trkpt lat="45.35670152643564" lon="9.051490402227248"><ele>104.0</ele><time>2026-05-01T13:41:26Z</time></trkpt><trkpt lat="45.35670830976231" lon="9.051724810748379"><ele>104.0</ele><time>2026-05-01T13:41:27Z</time></trkpt><trkpt lat="45.356716073185865" lon="9.051955443864825"><ele>104.0</ele><time>2026-05-01T13:41:28Z</time></trkpt><trkpt lat="45.35672302359676" lon="9.052196012739433"><ele>104.0</ele><time>2026-05-01T13:41:29Z</time></trkpt><trkpt lat="45.35673203582814" lon="9.052435317239949"><ele>104.0</ele><time>2026-05-01T13:41:30Z</time></trkpt><trkpt lat="45.356738862058144" lon="9.052668388969613"><ele>104.0</ele><time>2026-05-01T13:41:31Z</time></trkpt><trkpt lat="45.356745849660456" lon="9.052898602167"><ele>104.33333333333333</ele><time>2026-05-01T13:41:32Z</time></trkpt><trkpt lat="45.35675320113041" lon="9.053130641096036"><ele>104.66666666666666</ele><time>2026-05-01T13:41:33Z</time></trkpt><trkpt lat="45.3567558251892" lon="9.0533641472622"><ele>105.0</ele><time>2026-05-01T13:41:34Z</time></trkpt><trkpt lat="45.35675361945292" lon="9.053593668199055"><ele>105.0</ele><time>2026-05-01T13:41:35Z</time></trkpt><trkpt lat="45.35675355812608" lon="9.053822503370109"><ele>105.0</ele><time>2026-05-01T13:41:36Z</time></trkpt><trkpt lat="45.35675714839331" lon="9.054042299728088"><ele>105.0</ele><time>2026-05-01T13:41:37Z</time></trkpt><trkpt lat="45.356761743910866" lon="9.054268346468103"><ele>105.0</ele><time>2026-05-01T13:41:38Z</time></trkpt><trkpt lat="45.35677214235144" lon="9.05449200415449"><ele>105.0</ele><time>2026-05-01T13:41:39Z</time></trkpt><trkpt lat="45.35677936712389" lon="9.054720802432348"><ele>105.0</ele><time>2026-05-01T13:41:40Z</time></trkpt><trkpt lat="45.356786971147336" lon="9.054959812004963"><ele>104.33333333333334</ele><time>2026-05-01T13:41:41Z</time></trkpt><trkpt lat="45.356809804534095" lon="9.055193878890343"><ele>103.66666666666667</ele><time>2026-05-01T13:41:42Z</time></trkpt><trkpt lat="45.35683943009357" lon="9.055437824007727"><ele>103.0</ele><time>2026-05-01T13:41:43Z</time></trkpt><trkpt lat="45.35686459641597" lon="9.055672820578156"><ele>103.0</ele><time>2026-05-01T13:41:44Z</time></trkpt><trkpt lat="45.35688579245522" lon="9.055907966767242"><ele>103.0</ele><time>2026-05-01T13:41:45Z</time></trkpt><trkpt lat="45.35690878520229" lon="9.056127605134774"><ele>103.0</ele><time>2026-05-01T13:41:46Z</time></trkpt><trkpt lat="45.35693514667887" lon="9.05636553320601"><ele>103.0</ele><time>2026-05-01T13:41:47Z</time></trkpt><trkpt lat="45.35696593289262" lon="9.056594210398856"><ele>103.0</ele><time>2026-05-01T13:41:48Z</time></trkpt><trkpt lat="45.356994252367016" lon="9.056824311825794"><ele>103.0</ele><time>2026-05-01T13:41:49Z</time></trkpt><trkpt lat="45.35701429690239" lon="9.057060059855406"><ele>102.66666666666667</ele><time>2026-05-01T13:41:50Z</time></trkpt><trkpt lat="45.357036012775" lon="9.057286908979167"><ele>102.33333333333334</ele><time>2026-05-01T13:41:51Z</time></trkpt><trkpt lat="45.3570580062106" lon="9.057518831129364"><ele>102.0</ele><time>2026-05-01T13:41:52Z</time></trkpt><trkpt lat="45.35707990707061" lon="9.057754088680571"><ele>102.66666666666666</ele><time>2026-05-01T13:41:53Z</time></trkpt><trkpt lat="45.35710115089912" lon="9.057978617085135"><ele>103.33333333333333</ele><time>2026-05-01T13:41:54Z</time></trkpt><trkpt lat="45.35712382858039" lon="9.058210932332262"><ele>104.0</ele><time>2026-05-01T13:41:55Z</time></trkpt><trkpt lat="45.357144723426146" lon="9.058442162051179"><ele>104.0</ele><time>2026-05-01T13:41:56Z</time></trkpt><trkpt lat="45.35716972948389" lon="9.058671566165131"><ele>104.0</ele><time>2026-05-01T13:41:57Z</time></trkpt><trkpt lat="45.35719046058503" lon="9.058910835967694"><ele>104.0</ele><time>2026-05-01T13:41:58Z</time></trkpt><trkpt lat="45.35721203928385" lon="9.05913486747803"><ele>104.0</ele><time>2026-05-01T13:41:59Z</time></trkpt><trkpt lat="45.357236412503546" lon="9.059370819199252"><ele>104.0</ele><time>2026-05-01T13:42:00Z</time></trkpt><trkpt lat="45.35725895158889" lon="9.059615164015467"><ele>104.0</ele><time>2026-05-01T13:42:01Z</time></trkpt><trkpt lat="45.357280290371264" lon="9.059849780295654"><ele>103.66666666666666</ele><time>2026-05-01T13:42:02Z</time></trkpt><trkpt lat="45.35730415017277" lon="9.060088208476413"><ele>103.33333333333334</ele><time>2026-05-01T13:42:03Z</time></trkpt><trkpt lat="45.357328106798" lon="9.060324691464746"><ele>103.0</ele><time>2026-05-01T13:42:04Z</time></trkpt><trkpt lat="45.35735016271627" lon="9.060564172954154"><ele>103.0</ele><time>2026-05-01T13:42:05Z</time></trkpt><trkpt lat="45.35737460804101" lon="9.060804776120547"><ele>103.0</ele><time>2026-05-01T13:42:06Z</time></trkpt><trkpt lat="45.35739924191667" lon="9.061037711093624"><ele>103.0</ele><time>2026-05-01T13:42:07Z</time></trkpt><trkpt lat="45.35742629115238" lon="9.061276311727674"><ele>103.0</ele><time>2026-05-01T13:42:08Z</time></trkpt><trkpt lat="45.35744806081602" lon="9.061512836821947"><ele>103.0</ele><time>2026-05-01T13:42:09Z</time></trkpt><trkpt lat="45.357464040483976" lon="9.061740957496747"><ele>103.0</ele><time>2026-05-01T13:42:10Z</time></trkpt><trkpt lat="45.35748227110449" lon="9.061964469899292"><ele>102.33333333333334</ele><time>2026-05-01T13:42:11Z</time></trkpt><trkpt lat="45.357498993235126" lon="9.062206151012685"><ele>101.66666666666666</ele><time>2026-05-01T13:42:12Z</time></trkpt><trkpt lat="45.35749377609188" lon="9.062442288707434"><ele>101.0</ele><time>2026-05-01T13:42:13Z</time></trkpt><trkpt lat="45.35748521022336" lon="9.06268572113733"><ele>101.0</ele><time>2026-05-01T13:42:14Z</time></trkpt><trkpt lat="45.357467423935965" lon="9.062928315459242"><ele>101.0</ele><time>2026-05-01T13:42:15Z</time></trkpt><trkpt lat="45.357443447527004" lon="9.063172424717967"><ele>101.0</ele><time>2026-05-01T13:42:16Z</time></trkpt><trkpt lat="45.35741164661079" lon="9.063416237593785"><ele>101.0</ele><time>2026-05-01T13:42:17Z</time></trkpt><trkpt lat="45.35737494165543" lon="9.063646682775316"><ele>101.0</ele><time>2026-05-01T13:42:18Z</time></trkpt><trkpt lat="45.35733809292286" lon="9.06388963590681"><ele>101.0</ele><time>2026-05-01T13:42:19Z</time></trkpt><trkpt lat="45.357304772370505" lon="9.064125411675416"><ele>101.0</ele><time>2026-05-01T13:42:20Z</time></trkpt><trkpt lat="45.357267984893106" lon="9.064371649082732"><ele>101.0</ele><time>2026-05-01T13:42:21Z</time></trkpt><trkpt lat="45.35722893933777" lon="9.064614196304923"><ele>101.0</ele><time>2026-05-01T13:42:22Z</time></trkpt><trkpt lat="45.357193481134225" lon="9.064847219703843"><ele>100.66666666666666</ele><time>2026-05-01T13:42:23Z</time></trkpt><trkpt lat="45.357158077108714" lon="9.065101969208758"><ele>100.33333333333334</ele><time>2026-05-01T13:42:24Z</time></trkpt><trkpt lat="45.35712245123453" lon="9.065340436361147"><ele>100.0</ele><time>2026-05-01T13:42:25Z</time></trkpt><trkpt lat="45.35708341492177" lon="9.06558190692831"><ele>100.66666666666667</ele><time>2026-05-01T13:42:26Z</time></trkpt><trkpt lat="45.357048255327086" lon="9.065823609512078"><ele>101.33333333333334</ele><time>2026-05-01T13:42:27Z</time></trkpt><trkpt lat="45.35701793096326" lon="9.06604949255278"><ele>102.0</ele><time>2026-05-01T13:42:28Z</time></trkpt><trkpt lat="45.356985273930476" lon="9.066288968778391"><ele>102.0</ele><time>2026-05-01T13:42:29Z</time></trkpt><trkpt lat="45.3569517149924" lon="9.066519140853943"><ele>102.0</ele><time>2026-05-01T13:42:30Z</time></trkpt><trkpt lat="45.356916962254985" lon="9.066737112264947"><ele>102.0</ele><time>2026-05-01T13:42:31Z</time></trkpt><trkpt lat="45.35687837499802" lon="9.066965995576622"><ele>102.0</ele><time>2026-05-01T13:42:32Z</time></trkpt><trkpt lat="45.356829252129806" lon="9.067186746872231"><ele>102.0</ele><time>2026-05-01T13:42:33Z</time></trkpt><trkpt lat="45.35676770461654" lon="9.067405128334595"><ele>102.0</ele><time>2026-05-01T13:42:34Z</time></trkpt><trkpt lat="45.35669369023702" lon="9.067621611449853"><ele>102.0</ele><time>2026-05-01T13:42:35Z</time></trkpt><trkpt lat="45.35661014656173" lon="9.06781782906696"><ele>102.0</ele><time>2026-05-01T13:42:36Z</time></trkpt><trkpt lat="45.356521721811376" lon="9.068000737949994"><ele>102.0</ele><time>2026-05-01T13:42:37Z</time></trkpt><trkpt lat="45.356430396404726" lon="9.068176897051854"><ele>102.0</ele><time>2026-05-01T13:42:38Z</time></trkpt><trkpt lat="45.35631396836195" lon="9.068326214178192"><ele>102.0</ele><time>2026-05-01T13:42:39Z</time></trkpt><trkpt lat="45.356203385586426" lon="9.068475418093703"><ele>102.0</ele><time>2026-05-01T13:42:40Z</time></trkpt><trkpt lat="45.3560981220646" lon="9.068647005546207"><ele>102.0</ele><time>2026-05-01T13:42:41Z</time></trkpt><trkpt lat="45.355984915093714" lon="9.068784919051646"><ele>102.0</ele><time>2026-05-01T13:42:42Z</time></trkpt><trkpt lat="45.35586347908094" lon="9.068886257632826"><ele>102.0</ele><time>2026-05-01T13:42:43Z</time></trkpt><trkpt lat="45.355779389697126" lon="9.068997472163366"><ele>102.0</ele><time>2026-05-01T13:42:44Z</time></trkpt><trkpt lat="45.35570303959199" lon="9.069072798743061"><ele>102.0</ele><time>2026-05-01T13:42:45Z</time></trkpt><trkpt lat="45.355636256489454" lon="9.069141032619038"><ele>102.0</ele><time>2026-05-01T13:42:46Z</time></trkpt><trkpt lat="45.35558306059414" lon="9.069197173463094"><ele>102.0</ele><time>2026-05-01T13:42:47Z</time></trkpt><trkpt lat="45.35549488500752" lon="9.069259619553574"><ele>102.0</ele><time>2026-05-01T13:42:49Z</time></trkpt><trkpt lat="45.35559100993857" lon="9.069482225270749"><ele>102.0</ele><time>2026-05-01T13:42:51Z</time></trkpt><trkpt lat="45.355667068476166" lon="9.069549397616836"><ele>102.0</ele><time>2026-05-01T13:42:52Z</time></trkpt><trkpt lat="45.35576832525312" lon="9.069634153447003"><ele>102.0</ele><time>2026-05-01T13:42:53Z</time></trkpt><trkpt lat="45.355858530751334" lon="9.069739517804285"><ele>102.0</ele><time>2026-05-01T13:42:54Z</time></trkpt><trkpt lat="45.35594936283179" lon="9.069853208292702"><ele>102.0</ele><time>2026-05-01T13:42:55Z</time></trkpt><trkpt lat="45.35603805293401" lon="9.06995673622105"><ele>102.0</ele><time>2026-05-01T13:42:56Z</time></trkpt><trkpt lat="45.35612047751695" lon="9.07003450892134"><ele>102.0</ele><time>2026-05-01T13:42:57Z</time></trkpt><trkpt lat="45.356200843831154" lon="9.07008336702084"><ele>102.0</ele><time>2026-05-01T13:42:58Z</time></trkpt><trkpt lat="45.35629080096713" lon="9.070112896870935"><ele>102.0</ele><time>2026-05-01T13:42:59Z</time></trkpt><trkpt lat="45.35638488937078" lon="9.070131010734015"><ele>102.0</ele><time>2026-05-01T13:43:00Z</time></trkpt><trkpt lat="45.356490221609434" lon="9.070136280500424"><ele>102.16666666666667</ele><time>2026-05-01T13:43:01Z</time></trkpt><trkpt lat="45.356580783060004" lon="9.070133704879233"><ele>102.33333333333334</ele><time>2026-05-01T13:43:02Z</time></trkpt><trkpt lat="45.35665931762972" lon="9.070134200933001"><ele>102.5</ele><time>2026-05-01T13:43:03Z</time></trkpt><trkpt lat="45.35672669660102" lon="9.070129348856339"><ele>102.66666666666667</ele><time>2026-05-01T13:43:05Z</time></trkpt><trkpt lat="45.35683960152496" lon="9.07012941905322"><ele>102.83333333333334</ele><time>2026-05-01T13:43:07Z</time></trkpt><trkpt lat="45.356938604053035" lon="9.070131391886342"><ele>103.0</ele><time>2026-05-01T13:43:08Z</time></trkpt><trkpt lat="45.35703246636681" lon="9.070122640065865"><ele>103.00000000000001</ele><time>2026-05-01T13:43:09Z</time></trkpt><trkpt lat="45.3571354466183" lon="9.070085942825871"><ele>103.0</ele><time>2026-05-01T13:43:10Z</time></trkpt><trkpt lat="45.3572237209067" lon="9.07005321052518"><ele>103.0</ele><time>2026-05-01T13:43:11Z</time></trkpt><trkpt lat="45.35731203261501" lon="9.070037256157763"><ele>103.0</ele><time>2026-05-01T13:43:12Z</time></trkpt><trkpt lat="45.35738643243167" lon="9.070035168803077"><ele>103.00000000000001</ele><time>2026-05-01T13:43:13Z</time></trkpt><trkpt lat="45.35745331865076" lon="9.070034854459559"><ele>103.0</ele><time>2026-05-01T13:43:14Z</time></trkpt><trkpt lat="45.357563319682676" lon="9.070047866283637"><ele>103.33333333333334</ele><time>2026-05-01T13:43:16Z</time></trkpt><trkpt lat="45.357638158246324" lon="9.070138727473914"><ele>103.66666666666667</ele><time>2026-05-01T13:43:18Z</time></trkpt><trkpt lat="45.35766014275751" lon="9.07023569824039"><ele>104.0</ele><time>2026-05-01T13:43:19Z</time></trkpt><trkpt lat="45.35767843833243" lon="9.070341374266192"><ele>104.33333333333334</ele><time>2026-05-01T13:43:20Z</time></trkpt><trkpt lat="45.357698209116116" lon="9.070432331333356"><ele>104.66666666666667</ele><time>2026-05-01T13:43:21Z</time></trkpt><trkpt lat="45.357720252348344" lon="9.07052438227156"><ele>105.0</ele><time>2026-05-01T13:43:22Z</time></trkpt><trkpt lat="45.357767030430324" lon="9.070670714427024"><ele>105.0</ele><time>2026-05-01T13:43:24Z</time></trkpt><trkpt lat="45.357820720775024" lon="9.070746413453659"><ele>105.0</ele><time>2026-05-01T13:43:26Z</time></trkpt><trkpt lat="45.357879101169836" lon="9.070796598633956"><ele>105.0</ele><time>2026-05-01T13:43:28Z</time></trkpt><trkpt lat="45.35795526326661" lon="9.070818422122308"><ele>105.0</ele><time>2026-05-01T13:43:30Z</time></trkpt><trkpt lat="45.358039526970856" lon="9.07083982887794"><ele>105.0</ele><time>2026-05-01T13:43:32Z</time></trkpt><trkpt lat="45.358143005970845" lon="9.070867595730752"><ele>105.0</ele><time>2026-05-01T13:43:34Z</time></trkpt><trkpt lat="45.35821103388967" lon="9.070884298281804"><ele>104.6</ele><time>2026-05-01T13:43:35Z</time></trkpt><trkpt lat="45.35828746670251" lon="9.070898373227617"><ele>104.2</ele><time>2026-05-01T13:43:36Z</time></trkpt><trkpt lat="45.3583842902599" lon="9.070893300005539"><ele>103.80000000000001</ele><time>2026-05-01T13:43:37Z</time></trkpt><trkpt lat="45.35847710336977" lon="9.070920165461217"><ele>103.4</ele><time>2026-05-01T13:43:38Z</time></trkpt><trkpt lat="45.35857289430406" lon="9.070930912968624"><ele>103.0</ele><time>2026-05-01T13:43:39Z</time></trkpt><trkpt lat="45.35869109495822" lon="9.070974522868633"><ele>103.0</ele><time>2026-05-01T13:43:40Z</time></trkpt><trkpt lat="45.35881873452071" lon="9.071001964744715"><ele>103.0</ele><time>2026-05-01T13:43:41Z</time></trkpt><trkpt lat="45.358946022457594" lon="9.071037849794072"><ele>103.0</ele><time>2026-05-01T13:43:42Z</time></trkpt><trkpt lat="45.35909474445912" lon="9.071099877782427"><ele>103.0</ele><time>2026-05-01T13:43:43Z</time></trkpt><trkpt lat="45.35924586110774" lon="9.071136818266542"><ele>102.33333333333334</ele><time>2026-05-01T13:43:44Z</time></trkpt><trkpt lat="45.35940344122347" lon="9.071198439109736"><ele>101.66666666666666</ele><time>2026-05-01T13:43:45Z</time></trkpt><trkpt lat="45.35956883757664" lon="9.07123494405167"><ele>101.0</ele><time>2026-05-01T13:43:46Z</time></trkpt><trkpt lat="45.359739926284185" lon="9.071251315747888"><ele>101.0</ele><time>2026-05-01T13:43:47Z</time></trkpt><trkpt lat="45.359916498648126" lon="9.071265356054335"><ele>101.0</ele><time>2026-05-01T13:43:48Z</time></trkpt><trkpt lat="45.36009466235281" lon="9.071270260208994"><ele>101.0</ele><time>2026-05-01T13:43:49Z</time></trkpt><trkpt lat="45.36026880568438" lon="9.071279375688487"><ele>101.0</ele><time>2026-05-01T13:43:50Z</time></trkpt><trkpt lat="45.360439344607286" lon="9.071282005620807"><ele>101.0</ele><time>2026-05-01T13:43:51Z</time></trkpt><trkpt lat="45.36060573993312" lon="9.071277148916348"><ele>101.0</ele><time>2026-05-01T13:43:52Z</time></trkpt><trkpt lat="45.360769584667906" lon="9.071279469185905"><ele>101.0</ele><time>2026-05-01T13:43:53Z</time></trkpt><trkpt lat="45.36093712824296" lon="9.071288464829662"><ele>101.0</ele><time>2026-05-01T13:43:54Z</time></trkpt><trkpt lat="45.361104244477055" lon="9.071297730364318"><ele>101.0</ele><time>2026-05-01T13:43:55Z</time></trkpt><trkpt lat="45.36127057318491" lon="9.071307782816339"><ele>101.0</ele><time>2026-05-01T13:43:56Z</time></trkpt><trkpt lat="45.36144035207015" lon="9.071309304985618"><ele>101.0</ele><time>2026-05-01T13:43:57Z</time></trkpt><trkpt lat="45.36161675960121" lon="9.071311303956465"><ele>101.0</ele><time>2026-05-01T13:43:58Z</time></trkpt><trkpt lat="45.36178961913303" lon="9.071306259876879"><ele>101.0</ele><time>2026-05-01T13:43:59Z</time></trkpt><trkpt lat="45.36195498892625" lon="9.071295908332374"><ele>101.0</ele><time>2026-05-01T13:44:00Z</time></trkpt><trkpt lat="45.36212335512142" lon="9.071284423890138"><ele>101.0</ele><time>2026-05-01T13:44:01Z</time></trkpt><trkpt lat="45.36228235221073" lon="9.071284048454128"><ele>101.33333333333333</ele><time>2026-05-01T13:44:02Z</time></trkpt><trkpt lat="45.36244245996597" lon="9.07128910019328"><ele>101.66666666666666</ele><time>2026-05-01T13:44:03Z</time></trkpt><trkpt lat="45.36259404409484" lon="9.071326320610389"><ele>102.0</ele><time>2026-05-01T13:44:04Z</time></trkpt><trkpt lat="45.362731677108265" lon="9.071346511912921"><ele>102.0</ele><time>2026-05-01T13:44:05Z</time></trkpt><trkpt lat="45.36285496367207" lon="9.071388546689954"><ele>102.0</ele><time>2026-05-01T13:44:06Z</time></trkpt><trkpt lat="45.362979391038586" lon="9.071423889328155"><ele>102.0</ele><time>2026-05-01T13:44:07Z</time></trkpt><trkpt lat="45.36309779380767" lon="9.071449612436114"><ele>102.0</ele><time>2026-05-01T13:44:08Z</time></trkpt><trkpt lat="45.36320490215291" lon="9.071462936105943"><ele>102.0</ele><time>2026-05-01T13:44:09Z</time></trkpt><trkpt lat="45.363299693097844" lon="9.071471291336627"><ele>102.0</ele><time>2026-05-01T13:44:10Z</time></trkpt><trkpt lat="45.363385671549004" lon="9.071482821003919"><ele>102.0</ele><time>2026-05-01T13:44:11Z</time></trkpt><trkpt lat="45.363466149325895" lon="9.071519972008034"><ele>102.0</ele><time>2026-05-01T13:44:12Z</time></trkpt><trkpt lat="45.363544300322275" lon="9.071605407466032"><ele>102.0</ele><time>2026-05-01T13:44:13Z</time></trkpt><trkpt lat="45.36358922960901" lon="9.071747265385408"><ele>102.0</ele><time>2026-05-01T13:44:14Z</time></trkpt><trkpt lat="45.363654190332234" lon="9.071883954453597"><ele>102.0</ele><time>2026-05-01T13:44:15Z</time></trkpt><trkpt lat="45.363729301228425" lon="9.072000149214096"><ele>102.0</ele><time>2026-05-01T13:44:16Z</time></trkpt><trkpt lat="45.36378339765374" lon="9.072135327413557"><ele>102.0</ele><time>2026-05-01T13:44:17Z</time></trkpt><trkpt lat="45.36386153634422" lon="9.072243085081011"><ele>102.0</ele><time>2026-05-01T13:44:18Z</time></trkpt><trkpt lat="45.363923534843465" lon="9.072360527212508"><ele>101.8</ele><time>2026-05-01T13:44:19Z</time></trkpt><trkpt lat="45.36398616885747" lon="9.0724728458871"><ele>101.6</ele><time>2026-05-01T13:44:20Z</time></trkpt><trkpt lat="45.36404987817908" lon="9.072578596514797"><ele>101.39999999999999</ele><time>2026-05-01T13:44:21Z</time></trkpt><trkpt lat="45.36410971747306" lon="9.07266849421827"><ele>101.19999999999999</ele><time>2026-05-01T13:44:22Z</time></trkpt><trkpt lat="45.36416626989647" lon="9.072765428489944"><ele>101.0</ele><time>2026-05-01T13:44:23Z</time></trkpt><trkpt lat="45.36422574345291" lon="9.072851755071659"><ele>101.0</ele><time>2026-05-01T13:44:24Z</time></trkpt><trkpt lat="45.36429299025412" lon="9.072956199180137"><ele>101.0</ele><time>2026-05-01T13:44:25Z</time></trkpt><trkpt lat="45.364353758702656" lon="9.073066722957636"><ele>101.0</ele><time>2026-05-01T13:44:26Z</time></trkpt><trkpt lat="45.36440969805127" lon="9.073176294213098"><ele>101.0</ele><time>2026-05-01T13:44:27Z</time></trkpt><trkpt lat="45.364456922151255" lon="9.073283906194115"><ele>101.0</ele><time>2026-05-01T13:44:28Z</time></trkpt><trkpt lat="45.364498507485216" lon="9.073382403304683"><ele>101.16666666666666</ele><time>2026-05-01T13:44:29Z</time></trkpt><trkpt lat="45.364528582314314" lon="9.073465778292816"><ele>101.33333333333333</ele><time>2026-05-01T13:44:30Z</time></trkpt><trkpt lat="45.36456555945773" lon="9.073636816329516"><ele>101.5</ele><time>2026-05-01T13:44:32Z</time></trkpt><trkpt lat="45.36456439819098" lon="9.073733762695232"><ele>101.66666666666666</ele><time>2026-05-01T13:44:33Z</time></trkpt><trkpt lat="45.36455372934524" lon="9.073835103028324"><ele>101.83333333333333</ele><time>2026-05-01T13:44:34Z</time></trkpt><trkpt lat="45.364513502275734" lon="9.073966187505404"><ele>102.0</ele><time>2026-05-01T13:44:36Z</time></trkpt><trkpt lat="45.36447800087164" lon="9.074086585527656"><ele>102.0</ele><time>2026-05-01T13:44:39Z</time></trkpt><trkpt lat="45.36444154912157" lon="9.074200828540546"><ele>102.0</ele><time>2026-05-01T13:44:41Z</time></trkpt><trkpt lat="45.3644150550956" lon="9.074282111975975"><ele>102.0</ele><time>2026-05-01T13:44:42Z</time></trkpt><trkpt lat="45.364379629337215" lon="9.07438844069307"><ele>102.0</ele><time>2026-05-01T13:44:43Z</time></trkpt><trkpt lat="45.3643396717027" lon="9.074502887180795"><ele>102.0</ele><time>2026-05-01T13:44:44Z</time></trkpt><trkpt lat="45.36428879227475" lon="9.074618320789913"><ele>102.0</ele><time>2026-05-01T13:44:45Z</time></trkpt><trkpt lat="45.364216384062146" lon="9.074726433409564"><ele>102.0</ele><time>2026-05-01T13:44:46Z</time></trkpt><trkpt lat="45.364139960621785" lon="9.074825124939572"><ele>102.0</ele><time>2026-05-01T13:44:47Z</time></trkpt><trkpt lat="45.36406071043951" lon="9.074915426822827"><ele>102.0</ele><time>2026-05-01T13:44:48Z</time></trkpt><trkpt lat="45.36398977471583" lon="9.074997371922208"><ele>102.0</ele><time>2026-05-01T13:44:49Z</time></trkpt><trkpt lat="45.363922680775644" lon="9.075074879046971"><ele>102.0</ele><time>2026-05-01T13:44:50Z</time></trkpt><trkpt lat="45.36386211858906" lon="9.07514484065388"><ele>101.8</ele><time>2026-05-01T13:44:51Z</time></trkpt><trkpt lat="45.363806108462676" lon="9.075209819011322"><ele>101.6</ele><time>2026-05-01T13:44:52Z</time></trkpt><trkpt lat="45.363719373777755" lon="9.075314961184723"><ele>101.39999999999999</ele><time>2026-05-01T13:44:54Z</time></trkpt><trkpt lat="45.363625484014925" lon="9.075428776846149"><ele>101.19999999999999</ele><time>2026-05-01T13:44:56Z</time></trkpt><trkpt lat="45.36356994240848" lon="9.075496771305653"><ele>101.0</ele><time>2026-05-01T13:44:57Z</time></trkpt><trkpt lat="45.36352256039815" lon="9.07558774381615"><ele>101.0</ele><time>2026-05-01T13:44:58Z</time></trkpt><trkpt lat="45.36344945037582" lon="9.075658336022524"><ele>101.0</ele><time>2026-05-01T13:44:59Z</time></trkpt><trkpt lat="45.36340296883519" lon="9.075775038872829"><ele>101.0</ele><time>2026-05-01T13:45:00Z</time></trkpt><trkpt lat="45.363382235150056" lon="9.07591472529303"><ele>101.0</ele><time>2026-05-01T13:45:01Z</time></trkpt><trkpt lat="45.36339343030033" lon="9.076068197518373"><ele>101.0</ele><time>2026-05-01T13:45:02Z</time></trkpt><trkpt lat="45.363377415952876" lon="9.076228678798444"><ele>101.25</ele><time>2026-05-01T13:45:03Z</time></trkpt><trkpt lat="45.363374020948456" lon="9.0763847883825"><ele>101.5</ele><time>2026-05-01T13:45:04Z</time></trkpt><trkpt lat="45.363369756673656" lon="9.076540444488348"><ele>101.75</ele><time>2026-05-01T13:45:05Z</time></trkpt><trkpt lat="45.36336489953451" lon="9.076709369727197"><ele>102.0</ele><time>2026-05-01T13:45:06Z</time></trkpt><trkpt lat="45.36335892354341" lon="9.076888581666033"><ele>102.0</ele><time>2026-05-01T13:45:07Z</time></trkpt><trkpt lat="45.36335167608884" lon="9.077074769983156"><ele>102.0</ele><time>2026-05-01T13:45:08Z</time></trkpt><trkpt lat="45.36334508211519" lon="9.077261463287948"><ele>102.0</ele><time>2026-05-01T13:45:09Z</time></trkpt><trkpt lat="45.36333931358891" lon="9.077445377513737"><ele>102.0</ele><time>2026-05-01T13:45:10Z</time></trkpt><trkpt lat="45.3633343934317" lon="9.077625885900915"><ele>102.25</ele><time>2026-05-01T13:45:11Z</time></trkpt><trkpt lat="45.363329446070274" lon="9.077807128812507"><ele>102.5</ele><time>2026-05-01T13:45:12Z</time></trkpt><trkpt lat="45.36332433139044" lon="9.077994501365344"><ele>102.75</ele><time>2026-05-01T13:45:13Z</time></trkpt><trkpt lat="45.36331914139037" lon="9.078184633112887"><ele>103.0</ele><time>2026-05-01T13:45:14Z</time></trkpt><trkpt lat="45.363312234045026" lon="9.078375509583688"><ele>103.0</ele><time>2026-05-01T13:45:15Z</time></trkpt><trkpt lat="45.36330612799975" lon="9.078569617714807"><ele>103.0</ele><time>2026-05-01T13:45:16Z</time></trkpt><trkpt lat="45.36330001885494" lon="9.07875799391811"><ele>103.0</ele><time>2026-05-01T13:45:17Z</time></trkpt><trkpt lat="45.36329333044079" lon="9.078944250753203"><ele>103.0</ele><time>2026-05-01T13:45:18Z</time></trkpt><trkpt lat="45.36328640373283" lon="9.079137143487745"><ele>103.25</ele><time>2026-05-01T13:45:19Z</time></trkpt><trkpt lat="45.36327950194879" lon="9.079329342102023"><ele>103.5</ele><time>2026-05-01T13:45:20Z</time></trkpt><trkpt lat="45.36327291490069" lon="9.079512776253486"><ele>103.75</ele><time>2026-05-01T13:45:21Z</time></trkpt><trkpt lat="45.363269626886094" lon="9.079698100098858"><ele>104.0</ele><time>2026-05-01T13:45:22Z</time></trkpt><trkpt lat="45.36326925716398" lon="9.079872586397814"><ele>104.0</ele><time>2026-05-01T13:45:23Z</time></trkpt><trkpt lat="45.363269976255516" lon="9.080045687735597"><ele>104.0</ele><time>2026-05-01T13:45:24Z</time></trkpt><trkpt lat="45.36327172811576" lon="9.080221389172497"><ele>104.0</ele><time>2026-05-01T13:45:25Z</time></trkpt><trkpt lat="45.36327861672645" lon="9.080399234627903"><ele>104.0</ele><time>2026-05-01T13:45:26Z</time></trkpt><trkpt lat="45.363290562498165" lon="9.080589032198976"><ele>103.75</ele><time>2026-05-01T13:45:27Z</time></trkpt><trkpt lat="45.36332313048572" lon="9.080787174095102"><ele>103.5</ele><time>2026-05-01T13:45:28Z</time></trkpt><trkpt lat="45.36334364029596" lon="9.080997722652793"><ele>103.25</ele><time>2026-05-01T13:45:29Z</time></trkpt><trkpt lat="45.36334504017708" lon="9.08120749341456"><ele>103.0</ele><time>2026-05-01T13:45:30Z</time></trkpt><trkpt lat="45.36336036656204" lon="9.081407280858977"><ele>103.0</ele><time>2026-05-01T13:45:31Z</time></trkpt><trkpt lat="45.36337238644782" lon="9.081591868865427"><ele>103.0</ele><time>2026-05-01T13:45:32Z</time></trkpt><trkpt lat="45.363383265260374" lon="9.081758933599"><ele>103.0</ele><time>2026-05-01T13:45:33Z</time></trkpt><trkpt lat="45.36338985844931" lon="9.081913927755082"><ele>103.0</ele><time>2026-05-01T13:45:34Z</time></trkpt><trkpt lat="45.363387827308486" lon="9.082060542143287"><ele>102.83333333333334</ele><time>2026-05-01T13:45:35Z</time></trkpt><trkpt lat="45.36336818752044" lon="9.082196853338774"><ele>102.66666666666667</ele><time>2026-05-01T13:45:36Z</time></trkpt><trkpt lat="45.36333903540813" lon="9.082326315209125"><ele>102.5</ele><time>2026-05-01T13:45:37Z</time></trkpt><trkpt lat="45.36330928200016" lon="9.082457238529129"><ele>102.33333333333334</ele><time>2026-05-01T13:45:38Z</time></trkpt><trkpt lat="45.36328634043158" lon="9.082558187907793"><ele>102.16666666666667</ele><time>2026-05-01T13:45:39Z</time></trkpt><trkpt lat="45.36326783286638" lon="9.082649228121218"><ele>102.0</ele><time>2026-05-01T13:45:41Z</time></trkpt><trkpt lat="45.36325173829613" lon="9.082743602691275"><ele>103.0</ele><time>2026-05-01T13:45:44Z</time></trkpt><trkpt lat="45.36315692323581" lon="9.083438836438424"><ele>103.0</ele><time>2026-05-01T13:45:47Z</time></trkpt><trkpt lat="45.36334482049479" lon="9.083590352668363"><ele>103.0</ele><time>2026-05-01T13:45:48Z</time></trkpt><trkpt lat="45.36344756931844" lon="9.083598261869797"><ele>103.0</ele><time>2026-05-01T13:45:49Z</time></trkpt><trkpt lat="45.36378393829685" lon="9.082622970126224"><ele>103.00000000000001</ele><time>2026-05-01T13:45:52Z</time></trkpt><trkpt lat="45.363865171306415" lon="9.082604014893748"><ele>103.0</ele><time>2026-05-01T13:45:53Z</time></trkpt><trkpt lat="45.363948640874185" lon="9.082582450159599"><ele>103.0</ele><time>2026-05-01T13:45:54Z</time></trkpt><trkpt lat="45.364030484405866" lon="9.082565091251707"><ele>103.0</ele><time>2026-05-01T13:45:55Z</time></trkpt><trkpt lat="45.36412003247584" lon="9.082544938630486"><ele>103.00000000000001</ele><time>2026-05-01T13:45:56Z</time></trkpt><trkpt lat="45.364217506604085" lon="9.082522344610046"><ele>103.0</ele><time>2026-05-01T13:45:57Z</time></trkpt><trkpt lat="45.36431862670542" lon="9.082500313970046"><ele>103.0</ele><time>2026-05-01T13:45:58Z</time></trkpt><trkpt lat="45.36441912700974" lon="9.082482397965894"><ele>103.0</ele><time>2026-05-01T13:45:59Z</time></trkpt><trkpt lat="45.36450747811107" lon="9.082473253590864"><ele>103.0</ele><time>2026-05-01T13:46:00Z</time></trkpt><trkpt lat="45.364599265977944" lon="9.082463174178418"><ele>103.0</ele><time>2026-05-01T13:46:01Z</time></trkpt><trkpt lat="45.36469896528636" lon="9.08243000762718"><ele>103.0</ele><time>2026-05-01T13:46:02Z</time></trkpt><trkpt lat="45.364804568172126" lon="9.08240069027074"><ele>102.80000000000001</ele><time>2026-05-01T13:46:03Z</time></trkpt><trkpt lat="45.36490863693917" lon="9.082372941588174"><ele>102.6</ele><time>2026-05-01T13:46:04Z</time></trkpt><trkpt lat="45.36501285469543" lon="9.082344868019186"><ele>102.4</ele><time>2026-05-01T13:46:05Z</time></trkpt><trkpt lat="45.36511416835584" lon="9.082315756004196"><ele>102.19999999999999</ele><time>2026-05-01T13:46:06Z</time></trkpt><trkpt lat="45.36521345390633" lon="9.082287928318065"><ele>102.0</ele><time>2026-05-01T13:46:07Z</time></trkpt><trkpt lat="45.36531563598305" lon="9.082262743844085"><ele>102.0</ele><time>2026-05-01T13:46:08Z</time></trkpt><trkpt lat="45.36540597171168" lon="9.08223946428175"><ele>102.0</ele><time>2026-05-01T13:46:09Z</time></trkpt><trkpt lat="45.36549691796014" lon="9.082215701959214"><ele>102.0</ele><time>2026-05-01T13:46:09.999Z</time></trkpt><trkpt lat="45.365592098927515" lon="9.082193104716932"><ele>102.0</ele><time>2026-05-01T13:46:10.999Z</time></trkpt><trkpt lat="45.36569535509825" lon="9.082165631623324"><ele>102.0</ele><time>2026-05-01T13:46:11.999Z</time></trkpt><trkpt lat="45.365794485878986" lon="9.08213568549391"><ele>102.0</ele><time>2026-05-01T13:46:12.999Z</time></trkpt><trkpt lat="45.365894228047914" lon="9.082107055119728"><ele>102.0</ele><time>2026-05-01T13:46:13.999Z</time></trkpt><trkpt lat="45.36600316435587" lon="9.082076663299498"><ele>102.0</ele><time>2026-05-01T13:46:14.999Z</time></trkpt><trkpt lat="45.36609665903672" lon="9.082052559407257"><ele>102.0</ele><time>2026-05-01T13:46:15.999Z</time></trkpt><trkpt lat="45.36620552321552" lon="9.082022540543564"><ele>102.0</ele><time>2026-05-01T13:46:16.999Z</time></trkpt><trkpt lat="45.36630474893333" lon="9.081995329418103"><ele>101.8</ele><time>2026-05-01T13:46:17.999Z</time></trkpt><trkpt lat="45.36640254281112" lon="9.081968501701809"><ele>101.6</ele><time>2026-05-01T13:46:18.999Z</time></trkpt><trkpt lat="45.366498455887964" lon="9.081944600671347"><ele>101.39999999999999</ele><time>2026-05-01T13:46:19.999Z</time></trkpt><trkpt lat="45.366587082325445" lon="9.081918745012203"><ele>101.19999999999999</ele><time>2026-05-01T13:46:21Z</time></trkpt><trkpt lat="45.36667477488634" lon="9.081895250319887"><ele>101.0</ele><time>2026-05-01T13:46:22Z</time></trkpt><trkpt lat="45.36677135425144" lon="9.081874982929362"><ele>101.0</ele><time>2026-05-01T13:46:23Z</time></trkpt><trkpt lat="45.3668767682971" lon="9.08184859620716"><ele>101.0</ele><time>2026-05-01T13:46:24Z</time></trkpt><trkpt lat="45.3669802306469" lon="9.081819338604781"><ele>101.0</ele><time>2026-05-01T13:46:25Z</time></trkpt><trkpt lat="45.36708405537015" lon="9.081790340755623"><ele>101.0</ele><time>2026-05-01T13:46:26Z</time></trkpt><trkpt lat="45.367176470992845" lon="9.081765913861267"><ele>101.0</ele><time>2026-05-01T13:46:27Z</time></trkpt><trkpt lat="45.36725952862761" lon="9.081745573814166"><ele>101.16666666666666</ele><time>2026-05-01T13:46:28Z</time></trkpt><trkpt lat="45.36733603416174" lon="9.081726585370902"><ele>101.33333333333333</ele><time>2026-05-01T13:46:29Z</time></trkpt><trkpt lat="45.36743214353169" lon="9.081693079719589"><ele>101.5</ele><time>2026-05-01T13:46:31Z</time></trkpt><trkpt lat="45.36749869926302" lon="9.081705130062186"><ele>101.66666666666666</ele><time>2026-05-01T13:46:35Z</time></trkpt><trkpt lat="45.36751501369791" lon="9.081875653207545"><ele>101.83333333333333</ele><time>2026-05-01T13:46:41Z</time></trkpt><trkpt lat="45.367524834647334" lon="9.081976375790392"><ele>102.0</ele><time>2026-05-01T13:46:42Z</time></trkpt><trkpt lat="45.36755312112418" lon="9.082125284039105"><ele>102.0</ele><time>2026-05-01T13:46:44Z</time></trkpt><trkpt lat="45.36757033587036" lon="9.082265272313643"><ele>102.0</ele><time>2026-05-01T13:46:46Z</time></trkpt><trkpt lat="45.36758073950658" lon="9.082436373985578"><ele>102.0</ele><time>2026-05-01T13:46:48Z</time></trkpt><trkpt lat="45.36759072188024" lon="9.082553168190456"><ele>102.0</ele><time>2026-05-01T13:46:49Z</time></trkpt><trkpt lat="45.36760580334356" lon="9.082691302251275"><ele>102.0</ele><time>2026-05-01T13:46:50Z</time></trkpt><trkpt lat="45.3676271582773" lon="9.082855691330954"><ele>102.0</ele><time>2026-05-01T13:46:51Z</time></trkpt><trkpt lat="45.367645763027774" lon="9.083037623156223"><ele>102.0</ele><time>2026-05-01T13:46:52Z</time></trkpt><trkpt lat="45.36766798879061" lon="9.083234166895553"><ele>102.0</ele><time>2026-05-01T13:46:53Z</time></trkpt><trkpt lat="45.36769342265452" lon="9.083422150418174"><ele>102.0</ele><time>2026-05-01T13:46:54Z</time></trkpt><trkpt lat="45.367713486756706" lon="9.083577288872869"><ele>102.0</ele><time>2026-05-01T13:46:55Z</time></trkpt><trkpt lat="45.36773007739688" lon="9.083719172208388"><ele>102.0</ele><time>2026-05-01T13:46:56Z</time></trkpt><trkpt lat="45.36774869223766" lon="9.083842421503965"><ele>102.0</ele><time>2026-05-01T13:46:57Z</time></trkpt><trkpt lat="45.36776277533836" lon="9.083956522999326"><ele>102.0</ele><time>2026-05-01T13:46:58Z</time></trkpt><trkpt lat="45.367777212862634" lon="9.084051435347178"><ele>102.0</ele><time>2026-05-01T13:46:59Z</time></trkpt><trkpt lat="45.367805379669434" lon="9.084206684778627"><ele>101.8</ele><time>2026-05-01T13:47:01Z</time></trkpt><trkpt lat="45.36784844338319" lon="9.084300494732881"><ele>101.6</ele><time>2026-05-01T13:47:04Z</time></trkpt><trkpt lat="45.3679605182909" lon="9.0842888723568"><ele>101.39999999999999</ele><time>2026-05-01T13:47:06Z</time></trkpt><trkpt lat="45.368043881646855" lon="9.08426115578481"><ele>101.19999999999999</ele><time>2026-05-01T13:47:07Z</time></trkpt><trkpt lat="45.368135590442336" lon="9.08425139784605"><ele>101.0</ele><time>2026-05-01T13:47:08Z</time></trkpt><trkpt lat="45.36824820726393" lon="9.084233624976761"><ele>101.5</ele><time>2026-05-01T13:47:09Z</time></trkpt><trkpt lat="45.36836545380243" lon="9.084214616441745"><ele>102.0</ele><time>2026-05-01T13:47:10Z</time></trkpt><trkpt lat="45.36848601108998" lon="9.084193235088213"><ele>102.5</ele><time>2026-05-01T13:47:11Z</time></trkpt><trkpt lat="45.3686038986271" lon="9.08418356234543"><ele>103.0</ele><time>2026-05-01T13:47:12Z</time></trkpt><trkpt lat="45.36870845678604" lon="9.084184385375405"><ele>103.00000000000001</ele><time>2026-05-01T13:47:13Z</time></trkpt><trkpt lat="45.36880744594595" lon="9.084168357125346"><ele>103.0</ele><time>2026-05-01T13:47:14Z</time></trkpt><trkpt lat="45.368909613799204" lon="9.084148353917032"><ele>103.0</ele><time>2026-05-01T13:47:15Z</time></trkpt><trkpt lat="45.368997125928175" lon="9.084131426698091"><ele>103.0</ele><time>2026-05-01T13:47:16Z</time></trkpt><trkpt lat="45.36907553607342" lon="9.08410500958033"><ele>103.00000000000001</ele><time>2026-05-01T13:47:17Z</time></trkpt><trkpt lat="45.369142846863845" lon="9.084096666198954"><ele>103.0</ele><time>2026-05-01T13:47:18Z</time></trkpt><trkpt lat="45.369249551182584" lon="9.08415343155676"><ele>102.80000000000001</ele><time>2026-05-01T13:47:20Z</time></trkpt><trkpt lat="45.3693067783107" lon="9.08428191776904"><ele>102.6</ele><time>2026-05-01T13:47:22Z</time></trkpt><trkpt lat="45.36936654547536" lon="9.084421723424958"><ele>102.4</ele><time>2026-05-01T13:47:24Z</time></trkpt><trkpt lat="45.36943131349234" lon="9.084572970745509"><ele>102.19999999999999</ele><time>2026-05-01T13:47:26Z</time></trkpt><trkpt lat="45.36949750711413" lon="9.084682321649009"><ele>102.0</ele><time>2026-05-01T13:47:28Z</time></trkpt><trkpt lat="45.36958068788285" lon="9.08474277471097"><ele>102.0</ele><time>2026-05-01T13:47:30Z</time></trkpt><trkpt lat="45.36967268060158" lon="9.084768780720308"><ele>102.0</ele><time>2026-05-01T13:47:31Z</time></trkpt><trkpt lat="45.36977913348731" lon="9.084794090742562"><ele>102.0</ele><time>2026-05-01T13:47:32Z</time></trkpt><trkpt lat="45.36987223419844" lon="9.084825300152012"><ele>102.0</ele><time>2026-05-01T13:47:33Z</time></trkpt><trkpt lat="45.369954020878325" lon="9.084845142259482"><ele>102.0</ele><time>2026-05-01T13:47:34Z</time></trkpt><trkpt lat="45.37003046803613" lon="9.084856018010113"><ele>102.0</ele><time>2026-05-01T13:47:35Z</time></trkpt><trkpt lat="45.370120171013994" lon="9.084877867144243"><ele>102.0</ele><time>2026-05-01T13:47:36Z</time></trkpt><trkpt lat="45.37021171933156" lon="9.08489627206751"><ele>102.0</ele><time>2026-05-01T13:47:37Z</time></trkpt><trkpt lat="45.37030074471972" lon="9.084914810920308"><ele>102.0</ele><time>2026-05-01T13:47:38Z</time></trkpt><trkpt lat="45.370394035172055" lon="9.084934871180955"><ele>102.0</ele><time>2026-05-01T13:47:39Z</time></trkpt><trkpt lat="45.37048019994522" lon="9.084958362528539"><ele>102.0</ele><time>2026-05-01T13:47:40Z</time></trkpt><trkpt lat="45.37058062451405" lon="9.084987364611653"><ele>102.0</ele><time>2026-05-01T13:47:41Z</time></trkpt><trkpt lat="45.37066610744671" lon="9.085005791070413"><ele>102.0</ele><time>2026-05-01T13:47:42Z</time></trkpt><trkpt lat="45.37076528536285" lon="9.085020427275756"><ele>102.0</ele><time>2026-05-01T13:47:43Z</time></trkpt><trkpt lat="45.37086936528936" lon="9.085041305477016"><ele>102.0</ele><time>2026-05-01T13:47:44Z</time></trkpt><trkpt lat="45.37098268644728" lon="9.085073193183778"><ele>102.0</ele><time>2026-05-01T13:47:45Z</time></trkpt><trkpt lat="45.371092946421" lon="9.085093160258177"><ele>102.0</ele><time>2026-05-01T13:47:46Z</time></trkpt><trkpt lat="45.37119859888015" lon="9.085104229342186"><ele>102.0</ele><time>2026-05-01T13:47:47Z</time></trkpt><trkpt lat="45.37130926208356" lon="9.085132968469738"><ele>102.0</ele><time>2026-05-01T13:47:48Z</time></trkpt><trkpt lat="45.37142502656545" lon="9.085167498266394"><ele>102.0</ele><time>2026-05-01T13:47:49Z</time></trkpt><trkpt lat="45.37154039630855" lon="9.085192587582506"><ele>102.0</ele><time>2026-05-01T13:47:50Z</time></trkpt><trkpt lat="45.37165943914821" lon="9.08521440452135"><ele>102.0</ele><time>2026-05-01T13:47:51Z</time></trkpt><trkpt lat="45.371778677837376" lon="9.085235558421035"><ele>102.0</ele><time>2026-05-01T13:47:52Z</time></trkpt><trkpt lat="45.37189216982624" lon="9.08525306206263"><ele>102.0</ele><time>2026-05-01T13:47:53Z</time></trkpt><trkpt lat="45.37199511845162" lon="9.085269032249938"><ele>102.0</ele><time>2026-05-01T13:47:54Z</time></trkpt><trkpt lat="45.37208629695767" lon="9.085283226123224"><ele>102.0</ele><time>2026-05-01T13:47:55Z</time></trkpt><trkpt lat="45.37217040992279" lon="9.085289941771098"><ele>102.0</ele><time>2026-05-01T13:47:56Z</time></trkpt><trkpt lat="45.37224530477971" lon="9.08529476405324"><ele>102.0</ele><time>2026-05-01T13:47:57Z</time></trkpt><trkpt lat="45.37236738143969" lon="9.085299678131411"><ele>102.0</ele><time>2026-05-01T13:47:59Z</time></trkpt><trkpt lat="45.37245318500678" lon="9.085373925911107"><ele>102.0</ele><time>2026-05-01T13:48:01Z</time></trkpt><trkpt lat="45.37249935244426" lon="9.085533857267357"><ele>102.0</ele><time>2026-05-01T13:48:02.999Z</time></trkpt><trkpt lat="45.37249778940454" lon="9.085658140613935"><ele>102.0</ele><time>2026-05-01T13:48:03.999Z</time></trkpt><trkpt lat="45.372519576176714" lon="9.08574446692139"><ele>102.0</ele><time>2026-05-01T13:48:04.999Z</time></trkpt><trkpt lat="45.37253216106436" lon="9.085863485748893"><ele>102.0</ele><time>2026-05-01T13:48:05.999Z</time></trkpt><trkpt lat="45.37254863834346" lon="9.085958608230824"><ele>102.0</ele><time>2026-05-01T13:48:06.999Z</time></trkpt><trkpt lat="45.37257366613844" lon="9.086048059514575"><ele>102.0</ele><time>2026-05-01T13:48:07.999Z</time></trkpt><trkpt lat="45.37261143960072" lon="9.086121819536592"><ele>102.0</ele><time>2026-05-01T13:48:08.999Z</time></trkpt><trkpt lat="45.37267487673501" lon="9.086160774492798"><ele>102.0</ele><time>2026-05-01T13:48:09.999Z</time></trkpt><trkpt lat="45.37275253515794" lon="9.086157199026925"><ele>102.0</ele><time>2026-05-01T13:48:10.999Z</time></trkpt><trkpt lat="45.372846930546466" lon="9.086114052347924"><ele>102.0</ele><time>2026-05-01T13:48:11.999Z</time></trkpt><trkpt lat="45.37295247759764" lon="9.08604394807192"><ele>102.0</ele><time>2026-05-01T13:48:12.999Z</time></trkpt><trkpt lat="45.373062518583396" lon="9.085984206721957"><ele>102.25</ele><time>2026-05-01T13:48:13.999Z</time></trkpt><trkpt lat="45.37318689802223" lon="9.085925413824933"><ele>102.5</ele><time>2026-05-01T13:48:14.999Z</time></trkpt><trkpt lat="45.37331543539834" lon="9.085868847398809"><ele>102.75</ele><time>2026-05-01T13:48:15.999Z</time></trkpt><trkpt lat="45.373452640887315" lon="9.08580707084883"><ele>103.0</ele><time>2026-05-01T13:48:16.999Z</time></trkpt><trkpt lat="45.37358930829817" lon="9.085738655865702"><ele>103.5</ele><time>2026-05-01T13:48:17.999Z</time></trkpt><trkpt lat="45.37371917125748" lon="9.085674968302092"><ele>104.0</ele><time>2026-05-01T13:48:18.999Z</time></trkpt><trkpt lat="45.373846930262104" lon="9.085616609920613"><ele>104.5</ele><time>2026-05-01T13:48:19.999Z</time></trkpt><trkpt lat="45.37397090076698" lon="9.08556387964736"><ele>105.0</ele><time>2026-05-01T13:48:20.999Z</time></trkpt><trkpt lat="45.37409170601773" lon="9.085511362050777"><ele>105.0</ele><time>2026-05-01T13:48:21.999Z</time></trkpt><trkpt lat="45.37421907860452" lon="9.085459069594249"><ele>105.0</ele><time>2026-05-01T13:48:22.999Z</time></trkpt><trkpt lat="45.37434849580302" lon="9.08541373219814"><ele>105.0</ele><time>2026-05-01T13:48:23.999Z</time></trkpt><trkpt lat="45.37447418925056" lon="9.08536446684261"><ele>105.0</ele><time>2026-05-01T13:48:24.999Z</time></trkpt><trkpt lat="45.37460063617454" lon="9.085317545868882"><ele>104.5</ele><time>2026-05-01T13:48:25.999Z</time></trkpt><trkpt lat="45.37472751848985" lon="9.085277592929405"><ele>104.0</ele><time>2026-05-01T13:48:27Z</time></trkpt><trkpt lat="45.37485490422574" lon="9.085240733594881"><ele>103.5</ele><time>2026-05-01T13:48:28Z</time></trkpt><trkpt lat="45.374989610949186" lon="9.085198908201733"><ele>103.0</ele><time>2026-05-01T13:48:29Z</time></trkpt><trkpt lat="45.37513204159502" lon="9.085147910132642"><ele>103.0</ele><time>2026-05-01T13:48:30Z</time></trkpt><trkpt lat="45.37527897432409" lon="9.085098564475459"><ele>103.0</ele><time>2026-05-01T13:48:31Z</time></trkpt><trkpt lat="45.375425603319336" lon="9.08504857811287"><ele>103.0</ele><time>2026-05-01T13:48:32Z</time></trkpt><trkpt lat="45.375570024851356" lon="9.085000939493463"><ele>103.0</ele><time>2026-05-01T13:48:33Z</time></trkpt><trkpt lat="45.37571189891715" lon="9.084948578002631"><ele>103.0</ele><time>2026-05-01T13:48:34Z</time></trkpt><trkpt lat="45.375861961496" lon="9.084902230395594"><ele>103.0</ele><time>2026-05-01T13:48:35Z</time></trkpt><trkpt lat="45.37600876872717" lon="9.084852739072291"><ele>103.0</ele><time>2026-05-01T13:48:36Z</time></trkpt><trkpt lat="45.37615386995298" lon="9.084799532501902"><ele>103.0</ele><time>2026-05-01T13:48:37Z</time></trkpt><trkpt lat="45.3762976372157" lon="9.08474667214967"><ele>103.0</ele><time>2026-05-01T13:48:38Z</time></trkpt><trkpt lat="45.376441963173846" lon="9.08469386300301"><ele>103.0</ele><time>2026-05-01T13:48:39Z</time></trkpt><trkpt lat="45.37659027912417" lon="9.08463897166514"><ele>103.0</ele><time>2026-05-01T13:48:40Z</time></trkpt><trkpt lat="45.3767414052767" lon="9.08458018673113"><ele>103.0</ele><time>2026-05-01T13:48:41Z</time></trkpt><trkpt lat="45.37689624992982" lon="9.084523741722693"><ele>103.0</ele><time>2026-05-01T13:48:42Z</time></trkpt><trkpt lat="45.37705063924464" lon="9.0844789511169"><ele>103.0</ele><time>2026-05-01T13:48:43Z</time></trkpt><trkpt lat="45.37720481447843" lon="9.084424873454108"><ele>103.0</ele><time>2026-05-01T13:48:44Z</time></trkpt><trkpt lat="45.37735229453109" lon="9.08437182781363"><ele>103.0</ele><time>2026-05-01T13:48:45Z</time></trkpt><trkpt lat="45.37748802546176" lon="9.084318811986918"><ele>103.0</ele><time>2026-05-01T13:48:46Z</time></trkpt><trkpt lat="45.377616551034315" lon="9.084272916894344"><ele>103.0</ele><time>2026-05-01T13:48:47Z</time></trkpt><trkpt lat="45.37772740414187" lon="9.084231968565973"><ele>103.0</ele><time>2026-05-01T13:48:48Z</time></trkpt><trkpt lat="45.37783144173849" lon="9.084192003534273"><ele>103.0</ele><time>2026-05-01T13:48:49Z</time></trkpt><trkpt lat="45.377926780735685" lon="9.084154876054283"><ele>103.00000000000001</ele><time>2026-05-01T13:48:50Z</time></trkpt><trkpt lat="45.37801167597356" lon="9.084131262601314"><ele>103.0</ele><time>2026-05-01T13:48:51Z</time></trkpt><trkpt lat="45.378088515567285" lon="9.084104011649902"><ele>103.0</ele><time>2026-05-01T13:48:52Z</time></trkpt><trkpt lat="45.37815317165564" lon="9.084077567597692"><ele>103.0</ele><time>2026-05-01T13:48:53Z</time></trkpt><trkpt lat="45.37821937428082" lon="9.084075672241715"><ele>103.00000000000001</ele><time>2026-05-01T13:48:54Z</time></trkpt><trkpt lat="45.37829061186637" lon="9.084046806939273"><ele>103.0</ele><time>2026-05-01T13:48:56Z</time></trkpt><trkpt lat="45.37835782244084" lon="9.084252412009244"><ele>103.2</ele><time>2026-05-01T13:48:59Z</time></trkpt><trkpt lat="45.37835744309199" lon="9.084377415165434"><ele>103.4</ele><time>2026-05-01T13:49:00Z</time></trkpt><trkpt lat="45.378374172725245" lon="9.084516232944749"><ele>103.60000000000001</ele><time>2026-05-01T13:49:01Z</time></trkpt><trkpt lat="45.37839471794634" lon="9.084658810614814"><ele>103.80000000000001</ele><time>2026-05-01T13:49:02Z</time></trkpt><trkpt lat="45.3784149909222" lon="9.084828221888579"><ele>104.0</ele><time>2026-05-01T13:49:03Z</time></trkpt><trkpt lat="45.37843056045831" lon="9.084997447300642"><ele>104.0</ele><time>2026-05-01T13:49:04Z</time></trkpt><trkpt lat="45.37844721845146" lon="9.08516100160421"><ele>104.0</ele><time>2026-05-01T13:49:05Z</time></trkpt><trkpt lat="45.37846661226678" lon="9.085329202207948"><ele>104.0</ele><time>2026-05-01T13:49:06Z</time></trkpt><trkpt lat="45.3784873149529" lon="9.085494309309473"><ele>104.0</ele><time>2026-05-01T13:49:07Z</time></trkpt><trkpt lat="45.37850469677233" lon="9.085659759295124"><ele>103.75</ele><time>2026-05-01T13:49:08Z</time></trkpt><trkpt lat="45.37852801473505" lon="9.085823409876365"><ele>103.5</ele><time>2026-05-01T13:49:09Z</time></trkpt><trkpt lat="45.37857280141925" lon="9.08599031863291"><ele>103.25</ele><time>2026-05-01T13:49:10Z</time></trkpt><trkpt lat="45.37861486453563" lon="9.086151995166754"><ele>103.0</ele><time>2026-05-01T13:49:11Z</time></trkpt><trkpt lat="45.378643800501386" lon="9.086317590771554"><ele>103.0</ele><time>2026-05-01T13:49:12Z</time></trkpt><trkpt lat="45.37870447559405" lon="9.08646754104354"><ele>103.0</ele><time>2026-05-01T13:49:13Z</time></trkpt><trkpt lat="45.37875498769096" lon="9.086622527275871"><ele>103.0</ele><time>2026-05-01T13:49:14Z</time></trkpt><trkpt lat="45.37880496277991" lon="9.086774527295496"><ele>103.0</ele><time>2026-05-01T13:49:15Z</time></trkpt><trkpt lat="45.37886027235855" lon="9.086938327375824"><ele>103.25</ele><time>2026-05-01T13:49:16Z</time></trkpt><trkpt lat="45.3789140956788" lon="9.087102207392414"><ele>103.5</ele><time>2026-05-01T13:49:17Z</time></trkpt><trkpt lat="45.37896872454525" lon="9.087264471455354"><ele>103.75</ele><time>2026-05-01T13:49:18Z</time></trkpt><trkpt lat="45.37902375217805" lon="9.087428670570288"><ele>104.0</ele><time>2026-05-01T13:49:19Z</time></trkpt><trkpt lat="45.3790736786518" lon="9.087587586304105"><ele>104.0</ele><time>2026-05-01T13:49:20Z</time></trkpt><trkpt lat="45.379123971106914" lon="9.08773661191569"><ele>104.0</ele><time>2026-05-01T13:49:21Z</time></trkpt><trkpt lat="45.379172124248576" lon="9.08787962944229"><ele>104.0</ele><time>2026-05-01T13:49:22Z</time></trkpt><trkpt lat="45.37921802309711" lon="9.088019700083326"><ele>104.0</ele><time>2026-05-01T13:49:23Z</time></trkpt><trkpt lat="45.379270533020524" lon="9.088164736499122"><ele>103.75</ele><time>2026-05-01T13:49:24Z</time></trkpt><trkpt lat="45.379320543012305" lon="9.088316940249035"><ele>103.5</ele><time>2026-05-01T13:49:25Z</time></trkpt><trkpt lat="45.37937211385638" lon="9.088477680931852"><ele>103.25</ele><time>2026-05-01T13:49:26Z</time></trkpt><trkpt lat="45.37942379604131" lon="9.08862962238808"><ele>103.0</ele><time>2026-05-01T13:49:27Z</time></trkpt><trkpt lat="45.379475106186206" lon="9.088780618264716"><ele>103.0</ele><time>2026-05-01T13:49:28Z</time></trkpt><trkpt lat="45.37952595503339" lon="9.088925181682756"><ele>103.0</ele><time>2026-05-01T13:49:29Z</time></trkpt><trkpt lat="45.379577817107354" lon="9.089076703688418"><ele>103.0</ele><time>2026-05-01T13:49:30Z</time></trkpt><trkpt lat="45.379628828737225" lon="9.08923331104596"><ele>103.0</ele><time>2026-05-01T13:49:31Z</time></trkpt><trkpt lat="45.379665073191426" lon="9.089400963139306"><ele>103.0</ele><time>2026-05-01T13:49:32Z</time></trkpt><trkpt lat="45.37971883222917" lon="9.089562188525468"><ele>103.0</ele><time>2026-05-01T13:49:33Z</time></trkpt><trkpt lat="45.37977209487358" lon="9.089716951136031"><ele>103.0</ele><time>2026-05-01T13:49:34Z</time></trkpt><trkpt lat="45.379834303653475" lon="9.089840677661243"><ele>103.0</ele><time>2026-05-01T13:49:35Z</time></trkpt><trkpt lat="45.37987595527613" lon="9.089960904664455"><ele>103.0</ele><time>2026-05-01T13:49:36Z</time></trkpt><trkpt lat="45.37991248396452" lon="9.09007147702481"><ele>103.00000000000001</ele><time>2026-05-01T13:49:37Z</time></trkpt><trkpt lat="45.37994931574501" lon="9.090178960385746"><ele>103.0</ele><time>2026-05-01T13:49:38Z</time></trkpt><trkpt lat="45.379988129422465" lon="9.090291563854537"><ele>103.0</ele><time>2026-05-01T13:49:39Z</time></trkpt><trkpt lat="45.38001802594425" lon="9.090384993176494"><ele>103.0</ele><time>2026-05-01T13:49:40Z</time></trkpt><trkpt lat="45.380067470653" lon="9.09052543058828"><ele>103.00000000000001</ele><time>2026-05-01T13:49:42Z</time></trkpt><trkpt lat="45.380099802839915" lon="9.090634066375202"><ele>103.0</ele><time>2026-05-01T13:49:44Z</time></trkpt><trkpt lat="45.38007460127734" lon="9.090767117656148"><ele>103.0</ele><time>2026-05-01T13:50:03Z</time></trkpt><trkpt lat="45.379983119066196" lon="9.090867959156371"><ele>103.0</ele><time>2026-05-01T13:50:05Z</time></trkpt><trkpt lat="45.37989270550298" lon="9.090921158116286"><ele>103.0</ele><time>2026-05-01T13:50:06Z</time></trkpt><trkpt lat="45.379797608032966" lon="9.090993720965352"><ele>103.0</ele><time>2026-05-01T13:50:07Z</time></trkpt><trkpt lat="45.37969427874554" lon="9.091072778273439"><ele>103.0</ele><time>2026-05-01T13:50:08Z</time></trkpt><trkpt lat="45.379584766066465" lon="9.09115980229494"><ele>102.75</ele><time>2026-05-01T13:50:09Z</time></trkpt><trkpt lat="45.37946370140348" lon="9.091257558699324"><ele>102.5</ele><time>2026-05-01T13:50:09.999Z</time></trkpt><trkpt lat="45.379334651677034" lon="9.09136176282196"><ele>102.25</ele><time>2026-05-01T13:50:10.999Z</time></trkpt><trkpt lat="45.379202442171106" lon="9.091467490983156"><ele>102.0</ele><time>2026-05-01T13:50:11.999Z</time></trkpt><trkpt lat="45.379071568358036" lon="9.091569669104691"><ele>102.25</ele><time>2026-05-01T13:50:12.999Z</time></trkpt><trkpt lat="45.37894131211745" lon="9.091671365063085"><ele>102.5</ele><time>2026-05-01T13:50:13.999Z</time></trkpt><trkpt lat="45.37883664468527" lon="9.09175308286994"><ele>102.75</ele><time>2026-05-01T13:50:14.999Z</time></trkpt><trkpt lat="45.378743671011996" lon="9.091825969789287"><ele>103.0</ele><time>2026-05-01T13:50:15.999Z</time></trkpt><trkpt lat="45.37867033637947" lon="9.091885613007522"><ele>103.00000000000001</ele><time>2026-05-01T13:50:16.999Z</time></trkpt><trkpt lat="45.37857549286071" lon="9.091972667778935"><ele>103.0</ele><time>2026-05-01T13:50:18.999Z</time></trkpt><trkpt lat="45.378526817030426" lon="9.09203175173507"><ele>103.0</ele><time>2026-05-01T13:50:19.999Z</time></trkpt><trkpt lat="45.37849737090489" lon="9.092129641234067"><ele>103.0</ele><time>2026-05-01T13:50:20.999Z</time></trkpt><trkpt lat="45.37851916822569" lon="9.092237331000355"><ele>103.00000000000001</ele><time>2026-05-01T13:50:21.999Z</time></trkpt><trkpt lat="45.3786022411483" lon="9.092325305118768"><ele>103.0</ele><time>2026-05-01T13:50:22.999Z</time></trkpt><trkpt lat="45.37867310534546" lon="9.092433035152748"><ele>102.75</ele><time>2026-05-01T13:50:23.999Z</time></trkpt><trkpt lat="45.378740727616275" lon="9.092577504769128"><ele>102.5</ele><time>2026-05-01T13:50:24.999Z</time></trkpt><trkpt lat="45.37880413639481" lon="9.092738514151225"><ele>102.25</ele><time>2026-05-01T13:50:25.999Z</time></trkpt><trkpt lat="45.37886953758512" lon="9.092894815077681"><ele>102.0</ele><time>2026-05-01T13:50:26.999Z</time></trkpt><trkpt lat="45.3789374895195" lon="9.093055570538873"><ele>102.0</ele><time>2026-05-01T13:50:27.999Z</time></trkpt><trkpt lat="45.37900281971466" lon="9.093224306726361"><ele>102.0</ele><time>2026-05-01T13:50:28.999Z</time></trkpt><trkpt lat="45.37906828940574" lon="9.093386946530366"><ele>102.0</ele><time>2026-05-01T13:50:29.999Z</time></trkpt><trkpt lat="45.379134830221446" lon="9.09355160031872"><ele>102.0</ele><time>2026-05-01T13:50:30.999Z</time></trkpt><trkpt lat="45.37920569544015" lon="9.093716752150785"><ele>102.0</ele><time>2026-05-01T13:50:31.999Z</time></trkpt><trkpt lat="45.37926523973175" lon="9.093863401900055"><ele>102.0</ele><time>2026-05-01T13:50:33Z</time></trkpt><trkpt lat="45.379323792196224" lon="9.09400462172216"><ele>102.0</ele><time>2026-05-01T13:50:34Z</time></trkpt><trkpt lat="45.379379835554374" lon="9.094139052192727"><ele>102.0</ele><time>2026-05-01T13:50:35Z</time></trkpt><trkpt lat="45.379432016525485" lon="9.094261982567293"><ele>102.0</ele><time>2026-05-01T13:50:36Z</time></trkpt><trkpt lat="45.37948969424826" lon="9.094370777361698"><ele>101.75</ele><time>2026-05-01T13:50:37Z</time></trkpt><trkpt lat="45.37955859230878" lon="9.094461287508802"><ele>101.5</ele><time>2026-05-01T13:50:38Z</time></trkpt><trkpt lat="45.37965270846035" lon="9.094548226672421"><ele>101.25</ele><time>2026-05-01T13:50:39Z</time></trkpt><trkpt lat="45.37976216028034" lon="9.09464023456307"><ele>101.0</ele><time>2026-05-01T13:50:40Z</time></trkpt><trkpt lat="45.37987348509545" lon="9.094725725564281"><ele>101.4</ele><time>2026-05-01T13:50:41Z</time></trkpt><trkpt lat="45.37996768480928" lon="9.094800162766507"><ele>101.8</ele><time>2026-05-01T13:50:42Z</time></trkpt><trkpt lat="45.380050526727175" lon="9.094863208671361"><ele>102.2</ele><time>2026-05-01T13:50:43Z</time></trkpt><trkpt lat="45.38010880432142" lon="9.094955229690147"><ele>102.60000000000001</ele><time>2026-05-01T13:50:44Z</time></trkpt><trkpt lat="45.38017683837484" lon="9.095028130534914"><ele>103.0</ele><time>2026-05-01T13:50:45Z</time></trkpt><trkpt lat="45.38022998960529" lon="9.095144231729728"><ele>103.0</ele><time>2026-05-01T13:50:46Z</time></trkpt><trkpt lat="45.38027794196401" lon="9.095275331307874"><ele>103.0</ele><time>2026-05-01T13:50:47Z</time></trkpt><trkpt lat="45.38030838823809" lon="9.0954049810274"><ele>103.0</ele><time>2026-05-01T13:50:48Z</time></trkpt><trkpt lat="45.38033430666192" lon="9.095556418454084"><ele>103.0</ele><time>2026-05-01T13:50:49Z</time></trkpt><trkpt lat="45.380359377013434" lon="9.095691211930975"><ele>103.0</ele><time>2026-05-01T13:50:50Z</time></trkpt><trkpt lat="45.38038788179755" lon="9.095802293298615"><ele>103.25</ele><time>2026-05-01T13:50:51Z</time></trkpt><trkpt lat="45.38041199372658" lon="9.095895044753398"><ele>103.5</ele><time>2026-05-01T13:50:52Z</time></trkpt><trkpt lat="45.38044011759518" lon="9.096044213917889"><ele>103.75</ele><time>2026-05-01T13:50:54Z</time></trkpt><trkpt lat="45.38034050347881" lon="9.09626664692587"><ele>104.0</ele><time>2026-05-01T13:50:56Z</time></trkpt><trkpt lat="45.380272760262415" lon="9.096369180170315"><ele>104.0</ele><time>2026-05-01T13:50:57Z</time></trkpt><trkpt lat="45.380161754442675" lon="9.096427862141672"><ele>104.0</ele><time>2026-05-01T13:50:58Z</time></trkpt><trkpt lat="45.38005328229235" lon="9.096518504675444"><ele>104.0</ele><time>2026-05-01T13:50:59Z</time></trkpt><trkpt lat="45.379939437361685" lon="9.096596751742"><ele>104.0</ele><time>2026-05-01T13:51:00Z</time></trkpt><trkpt lat="45.379816794807724" lon="9.096689717400643"><ele>104.33333333333333</ele><time>2026-05-01T13:51:01Z</time></trkpt><trkpt lat="45.37968427963693" lon="9.09679140884239"><ele>104.66666666666666</ele><time>2026-05-01T13:51:02Z</time></trkpt><trkpt lat="45.379554018676856" lon="9.096889514703111"><ele>105.0</ele><time>2026-05-01T13:51:03Z</time></trkpt><trkpt lat="45.37941137956718" lon="9.096998315704383"><ele>105.0</ele><time>2026-05-01T13:51:04Z</time></trkpt><trkpt lat="45.37926370365081" lon="9.097107334694616"><ele>105.0</ele><time>2026-05-01T13:51:05Z</time></trkpt><trkpt lat="45.37910654683424" lon="9.097231164806358"><ele>105.0</ele><time>2026-05-01T13:51:06Z</time></trkpt><trkpt lat="45.37895613155032" lon="9.097344745430545"><ele>104.33333333333334</ele><time>2026-05-01T13:51:07Z</time></trkpt><trkpt lat="45.378806687606115" lon="9.097456043469315"><ele>103.66666666666667</ele><time>2026-05-01T13:51:08Z</time></trkpt><trkpt lat="45.37865948422848" lon="9.097562235276246"><ele>103.0</ele><time>2026-05-01T13:51:09Z</time></trkpt><trkpt lat="45.37850849361505" lon="9.097677113723487"><ele>103.0</ele><time>2026-05-01T13:51:10Z</time></trkpt><trkpt lat="45.378361067864965" lon="9.09778559918986"><ele>103.0</ele><time>2026-05-01T13:51:11Z</time></trkpt><trkpt lat="45.37821064426205" lon="9.097893074524846"><ele>103.0</ele><time>2026-05-01T13:51:12Z</time></trkpt><trkpt lat="45.37806018541841" lon="9.098004663884812"><ele>102.66666666666667</ele><time>2026-05-01T13:51:13Z</time></trkpt><trkpt lat="45.377909319720814" lon="9.098111619182873"><ele>102.33333333333334</ele><time>2026-05-01T13:51:14Z</time></trkpt><trkpt lat="45.37776793554089" lon="9.098218659765504"><ele>102.0</ele><time>2026-05-01T13:51:15Z</time></trkpt><trkpt lat="45.37762114818078" lon="9.09832786712031"><ele>102.0</ele><time>2026-05-01T13:51:16Z</time></trkpt><trkpt lat="45.37747418360346" lon="9.098438052671595"><ele>102.0</ele><time>2026-05-01T13:51:17Z</time></trkpt><trkpt lat="45.37733101230691" lon="9.098541879148474"><ele>102.0</ele><time>2026-05-01T13:51:18Z</time></trkpt><trkpt lat="45.377178798278706" lon="9.098652243057984"><ele>102.0</ele><time>2026-05-01T13:51:19Z</time></trkpt><trkpt lat="45.37702469841359" lon="9.098764288278398"><ele>102.0</ele><time>2026-05-01T13:51:20Z</time></trkpt><trkpt lat="45.37687184862148" lon="9.098880088363478"><ele>102.0</ele><time>2026-05-01T13:51:21Z</time></trkpt><trkpt lat="45.376718706742125" lon="9.09899303738637"><ele>102.0</ele><time>2026-05-01T13:51:22Z</time></trkpt><trkpt lat="45.37655969367181" lon="9.099110164628922"><ele>102.0</ele><time>2026-05-01T13:51:23Z</time></trkpt><trkpt lat="45.37640772941298" lon="9.099221119611052"><ele>102.0</ele><time>2026-05-01T13:51:24Z</time></trkpt><trkpt lat="45.376251769580826" lon="9.099335252784906"><ele>101.66666666666666</ele><time>2026-05-01T13:51:25Z</time></trkpt><trkpt lat="45.37609472362436" lon="9.099451717036587"><ele>101.33333333333333</ele><time>2026-05-01T13:51:26Z</time></trkpt><trkpt lat="45.37594015027859" lon="9.099567696733402"><ele>101.0</ele><time>2026-05-01T13:51:27Z</time></trkpt><trkpt lat="45.37578546416836" lon="9.099681501365694"><ele>101.0</ele><time>2026-05-01T13:51:28Z</time></trkpt><trkpt lat="45.375633393434356" lon="9.09979890968902"><ele>101.0</ele><time>2026-05-01T13:51:29Z</time></trkpt><trkpt lat="45.37547464808487" lon="9.09991529930869"><ele>101.0</ele><time>2026-05-01T13:51:30Z</time></trkpt><trkpt lat="45.37532129194457" lon="9.100027167801993"><ele>101.66666666666666</ele><time>2026-05-01T13:51:31Z</time></trkpt><trkpt lat="45.375172268116586" lon="9.100141097869216"><ele>102.33333333333334</ele><time>2026-05-01T13:51:32Z</time></trkpt><trkpt lat="45.3750242085299" lon="9.100255168496654"><ele>103.0</ele><time>2026-05-01T13:51:33Z</time></trkpt><trkpt lat="45.374882877885796" lon="9.10037563721663"><ele>103.0</ele><time>2026-05-01T13:51:34Z</time></trkpt><trkpt lat="45.37474013211688" lon="9.100498493855415"><ele>103.0</ele><time>2026-05-01T13:51:35Z</time></trkpt><trkpt lat="45.3745970754042" lon="9.100628964094597"><ele>103.0</ele><time>2026-05-01T13:51:36Z</time></trkpt><trkpt lat="45.37446231535434" lon="9.100769705574285"><ele>102.0</ele><time>2026-05-01T13:51:37Z</time></trkpt><trkpt lat="45.374324110506564" lon="9.100917073921481"><ele>101.0</ele><time>2026-05-01T13:51:38Z</time></trkpt><trkpt lat="45.37418085002704" lon="9.101064749878086"><ele>100.0</ele><time>2026-05-01T13:51:39Z</time></trkpt><trkpt lat="45.37403448371663" lon="9.101210221592329"><ele>100.0</ele><time>2026-05-01T13:51:40Z</time></trkpt><trkpt lat="45.37389254848346" lon="9.101359335414976"><ele>100.0</ele><time>2026-05-01T13:51:41Z</time></trkpt><trkpt lat="45.37375505421988" lon="9.101502696840337"><ele>100.0</ele><time>2026-05-01T13:51:42Z</time></trkpt><trkpt lat="45.373610847232776" lon="9.101650055318354"><ele>100.0</ele><time>2026-05-01T13:51:43Z</time></trkpt><trkpt lat="45.37346973152721" lon="9.101798584199958"><ele>100.0</ele><time>2026-05-01T13:51:44Z</time></trkpt><trkpt lat="45.3733325603218" lon="9.101947091322486"><ele>100.0</ele><time>2026-05-01T13:51:45Z</time></trkpt><trkpt lat="45.37318995160965" lon="9.102094671679883"><ele>100.0</ele><time>2026-05-01T13:51:46Z</time></trkpt><trkpt lat="45.37304722635462" lon="9.10224067998629"><ele>100.0</ele><time>2026-05-01T13:51:47Z</time></trkpt><trkpt lat="45.372907576885076" lon="9.102382503925345"><ele>100.0</ele><time>2026-05-01T13:51:48Z</time></trkpt><trkpt lat="45.37276764045363" lon="9.10252417925239"><ele>100.33333333333334</ele><time>2026-05-01T13:51:49Z</time></trkpt><trkpt lat="45.37262953815265" lon="9.102668102049659"><ele>100.66666666666666</ele><time>2026-05-01T13:51:50Z</time></trkpt><trkpt lat="45.37249219542828" lon="9.102810510867569"><ele>101.0</ele><time>2026-05-01T13:51:51Z</time></trkpt><trkpt lat="45.37236247468302" lon="9.10295232743429"><ele>101.0</ele><time>2026-05-01T13:51:52Z</time></trkpt><trkpt lat="45.37222746767117" lon="9.103094406919336"><ele>101.0</ele><time>2026-05-01T13:51:53Z</time></trkpt><trkpt lat="45.37209360496433" lon="9.10323858411218"><ele>101.0</ele><time>2026-05-01T13:51:54Z</time></trkpt><trkpt lat="45.3719565067608" lon="9.103381945256539"><ele>101.0</ele><time>2026-05-01T13:51:55Z</time></trkpt><trkpt lat="45.37181738868596" lon="9.103526608965067"><ele>101.0</ele><time>2026-05-01T13:51:56Z</time></trkpt><trkpt lat="45.37168293408512" lon="9.10367515777707"><ele>101.0</ele><time>2026-05-01T13:51:57Z</time></trkpt><trkpt lat="45.37153871262096" lon="9.103817870603024"><ele>101.0</ele><time>2026-05-01T13:51:58Z</time></trkpt><trkpt lat="45.37139943493044" lon="9.103963194903278"><ele>101.0</ele><time>2026-05-01T13:51:59Z</time></trkpt><trkpt lat="45.37126240177837" lon="9.104112094687641"><ele>101.0</ele><time>2026-05-01T13:52:00Z</time></trkpt><trkpt lat="45.37112016406005" lon="9.10426087391748"><ele>101.33333333333333</ele><time>2026-05-01T13:52:01Z</time></trkpt><trkpt lat="45.37097255609383" lon="9.104406474787956"><ele>101.66666666666666</ele><time>2026-05-01T13:52:02Z</time></trkpt><trkpt lat="45.37082914694743" lon="9.10455388657038"><ele>102.0</ele><time>2026-05-01T13:52:03Z</time></trkpt><trkpt lat="45.37069119621765" lon="9.10470584269016"><ele>102.0</ele><time>2026-05-01T13:52:04Z</time></trkpt><trkpt lat="45.370551323466564" lon="9.104860706399078"><ele>102.0</ele><time>2026-05-01T13:52:05Z</time></trkpt><trkpt lat="45.370403893457485" lon="9.105007108751508"><ele>102.0</ele><time>2026-05-01T13:52:06Z</time></trkpt><trkpt lat="45.370259792186395" lon="9.105157197961956"><ele>102.0</ele><time>2026-05-01T13:52:07Z</time></trkpt><trkpt lat="45.37011608609933" lon="9.10530779927748"><ele>102.0</ele><time>2026-05-01T13:52:08Z</time></trkpt><trkpt lat="45.36996953133712" lon="9.105453514097166"><ele>102.0</ele><time>2026-05-01T13:52:09Z</time></trkpt><trkpt lat="45.36982828324109" lon="9.105603094164811"><ele>101.66666666666666</ele><time>2026-05-01T13:52:10Z</time></trkpt><trkpt lat="45.36969107130438" lon="9.10575878267147"><ele>101.33333333333333</ele><time>2026-05-01T13:52:11Z</time></trkpt><trkpt lat="45.36954873066271" lon="9.105906631418087"><ele>101.0</ele><time>2026-05-01T13:52:11.999Z</time></trkpt><trkpt lat="45.369402178390736" lon="9.106051991397726"><ele>101.0</ele><time>2026-05-01T13:52:12.999Z</time></trkpt><trkpt lat="45.36926255526303" lon="9.106199974140411"><ele>101.0</ele><time>2026-05-01T13:52:13.999Z</time></trkpt><trkpt lat="45.36912406433725" lon="9.106344740806627"><ele>101.0</ele><time>2026-05-01T13:52:14.999Z</time></trkpt><trkpt lat="45.36898778601683" lon="9.1064932718229"><ele>101.0</ele><time>2026-05-01T13:52:15.999Z</time></trkpt><trkpt lat="45.368850654330224" lon="9.106637922759104"><ele>101.0</ele><time>2026-05-01T13:52:16.999Z</time></trkpt><trkpt lat="45.368718800752944" lon="9.106788876029844"><ele>101.0</ele><time>2026-05-01T13:52:17.999Z</time></trkpt><trkpt lat="45.368577545687764" lon="9.106928507838314"><ele>101.0</ele><time>2026-05-01T13:52:18.999Z</time></trkpt><trkpt lat="45.36843997484591" lon="9.107073400665278"><ele>101.0</ele><time>2026-05-01T13:52:19.999Z</time></trkpt><trkpt lat="45.36830175405824" lon="9.107214626380888"><ele>101.0</ele><time>2026-05-01T13:52:20.999Z</time></trkpt><trkpt lat="45.36816382957164" lon="9.10736428385309"><ele>101.0</ele><time>2026-05-01T13:52:21.999Z</time></trkpt><trkpt lat="45.368020547794224" lon="9.107508202139343"><ele>101.0</ele><time>2026-05-01T13:52:22.999Z</time></trkpt><trkpt lat="45.36787703931948" lon="9.107657784131659"><ele>101.0</ele><time>2026-05-01T13:52:23.999Z</time></trkpt><trkpt lat="45.36773185665597" lon="9.107807428335532"><ele>101.0</ele><time>2026-05-01T13:52:24.999Z</time></trkpt><trkpt lat="45.367583618473795" lon="9.10796066399933"><ele>101.0</ele><time>2026-05-01T13:52:25.999Z</time></trkpt><trkpt lat="45.36743256828423" lon="9.10811162975195"><ele>101.0</ele><time>2026-05-01T13:52:26.999Z</time></trkpt><trkpt lat="45.36728431804795" lon="9.108279504755648"><ele>101.0</ele><time>2026-05-01T13:52:27.999Z</time></trkpt><trkpt lat="45.36714343995371" lon="9.108422137203178"><ele>101.0</ele><time>2026-05-01T13:52:28.999Z</time></trkpt><trkpt lat="45.36701231982232" lon="9.10856762579107"><ele>101.0</ele><time>2026-05-01T13:52:29.999Z</time></trkpt><trkpt lat="45.36688411972151" lon="9.108692035335332"><ele>101.0</ele><time>2026-05-01T13:52:30.999Z</time></trkpt><trkpt lat="45.36675812159489" lon="9.10882530522401"><ele>101.0</ele><time>2026-05-01T13:52:31.999Z</time></trkpt><trkpt lat="45.36662566563617" lon="9.10897153820579"><ele>101.0</ele><time>2026-05-01T13:52:32.999Z</time></trkpt><trkpt lat="45.36651123562767" lon="9.109085435457505"><ele>101.0</ele><time>2026-05-01T13:52:33.999Z</time></trkpt><trkpt lat="45.36640019497786" lon="9.109185118041589"><ele>101.0</ele><time>2026-05-01T13:52:34.999Z</time></trkpt><trkpt lat="45.366300631265" lon="9.10927737578392"><ele>101.0</ele><time>2026-05-01T13:52:35.999Z</time></trkpt><trkpt lat="45.36620119282353" lon="9.109354461199723"><ele>101.0</ele><time>2026-05-01T13:52:36.999Z</time></trkpt><trkpt lat="45.36609375613417" lon="9.109418793333719"><ele>100.8</ele><time>2026-05-01T13:52:37.999Z</time></trkpt><trkpt lat="45.36598599765474" lon="9.10945245889815"><ele>100.6</ele><time>2026-05-01T13:52:39Z</time></trkpt><trkpt lat="45.365891826618956" lon="9.109462711436523"><ele>100.4</ele><time>2026-05-01T13:52:40Z</time></trkpt><trkpt lat="45.365810593692046" lon="9.109484253649077"><ele>100.2</ele><time>2026-05-01T13:52:41Z</time></trkpt><trkpt lat="45.365727958187406" lon="9.109536037674273"><ele>100.0</ele><time>2026-05-01T13:52:42Z</time></trkpt><trkpt lat="45.36566994598728" lon="9.109636512225126"><ele>100.0</ele><time>2026-05-01T13:52:43Z</time></trkpt><trkpt lat="45.365653311819244" lon="9.109772043224048"><ele>100.0</ele><time>2026-05-01T13:52:44Z</time></trkpt><trkpt lat="45.36568583415115" lon="9.109912516004531"><ele>100.0</ele><time>2026-05-01T13:52:45Z</time></trkpt><trkpt lat="45.36574469102374" lon="9.110033363661046"><ele>100.0</ele><time>2026-05-01T13:52:46Z</time></trkpt><trkpt lat="45.365809592184114" lon="9.110145708993375"><ele>100.0</ele><time>2026-05-01T13:52:47Z</time></trkpt><trkpt lat="45.3658621909871" lon="9.11026598698655"><ele>99.5</ele><time>2026-05-01T13:52:48Z</time></trkpt><trkpt lat="45.36590692379149" lon="9.11040711924721"><ele>99.0</ele><time>2026-05-01T13:52:49Z</time></trkpt><trkpt lat="45.36594464183725" lon="9.110566178720328"><ele>98.5</ele><time>2026-05-01T13:52:50Z</time></trkpt><trkpt lat="45.3659810603912" lon="9.110736527608701"><ele>98.0</ele><time>2026-05-01T13:52:51Z</time></trkpt><trkpt lat="45.3660161237773" lon="9.1109150858245"><ele>98.75</ele><time>2026-05-01T13:52:52Z</time></trkpt><trkpt lat="45.366050270894945" lon="9.111107956022563"><ele>99.5</ele><time>2026-05-01T13:52:53Z</time></trkpt><trkpt lat="45.366086677610035" lon="9.111302883506333"><ele>100.25</ele><time>2026-05-01T13:52:54Z</time></trkpt><trkpt lat="45.366125272161625" lon="9.111506616182185"><ele>101.0</ele><time>2026-05-01T13:52:55Z</time></trkpt><trkpt lat="45.366163668892895" lon="9.111718209157509"><ele>101.0</ele><time>2026-05-01T13:52:56Z</time></trkpt><trkpt lat="45.36620205728381" lon="9.111934429302257"><ele>101.0</ele><time>2026-05-01T13:52:57Z</time></trkpt><trkpt lat="45.366242395996835" lon="9.112152271042811"><ele>101.0</ele><time>2026-05-01T13:52:58Z</time></trkpt><trkpt lat="45.366283641495784" lon="9.112367922081985"><ele>100.66666666666666</ele><time>2026-05-01T13:52:59Z</time></trkpt><trkpt lat="45.366327957061635" lon="9.112591447431898"><ele>100.33333333333334</ele><time>2026-05-01T13:53:00Z</time></trkpt><trkpt lat="45.3663746987956" lon="9.112819908725626"><ele>100.0</ele><time>2026-05-01T13:53:01Z</time></trkpt><trkpt lat="45.366419990397155" lon="9.113039955274422"><ele>100.33333333333334</ele><time>2026-05-01T13:53:02Z</time></trkpt><trkpt lat="45.36647172915893" lon="9.113266952506672"><ele>100.66666666666666</ele><time>2026-05-01T13:53:03Z</time></trkpt><trkpt lat="45.36653791214452" lon="9.113488428299506"><ele>101.0</ele><time>2026-05-01T13:53:04Z</time></trkpt><trkpt lat="45.3666162814713" lon="9.113697297557447"><ele>101.0</ele><time>2026-05-01T13:53:05Z</time></trkpt><trkpt lat="45.36670255132398" lon="9.113900030972463"><ele>101.0</ele><time>2026-05-01T13:53:06Z</time></trkpt><trkpt lat="45.36679807696135" lon="9.114097605999234"><ele>101.0</ele><time>2026-05-01T13:53:07Z</time></trkpt><trkpt lat="45.36689697533273" lon="9.114286508760669"><ele>101.0</ele><time>2026-05-01T13:53:08Z</time></trkpt><trkpt lat="45.36699565729759" lon="9.114462670313499"><ele>101.0</ele><time>2026-05-01T13:53:09Z</time></trkpt><trkpt lat="45.367088139273875" lon="9.11463166492653"><ele>101.0</ele><time>2026-05-01T13:53:10Z</time></trkpt><trkpt lat="45.367172793224775" lon="9.114789269513357"><ele>101.0</ele><time>2026-05-01T13:53:11Z</time></trkpt><trkpt lat="45.36723756527121" lon="9.114907042728454"><ele>100.99999999999999</ele><time>2026-05-01T13:53:12Z</time></trkpt><trkpt lat="45.36729159189356" lon="9.115009768702228"><ele>101.0</ele><time>2026-05-01T13:53:13Z</time></trkpt><trkpt lat="45.36733250980941" lon="9.11510590559339"><ele>101.0</ele><time>2026-05-01T13:53:14Z</time></trkpt><trkpt lat="45.36735486827202" lon="9.115223288261003"><ele>101.0</ele><time>2026-05-01T13:53:15Z</time></trkpt><trkpt lat="45.36736089440633" lon="9.115350672574221"><ele>100.99999999999999</ele><time>2026-05-01T13:53:16Z</time></trkpt><trkpt lat="45.367364661795186" lon="9.115476073727244"><ele>101.0</ele><time>2026-05-01T13:53:17Z</time></trkpt><trkpt lat="45.36745724100961" lon="9.115552913720407"><ele>101.0</ele><time>2026-05-01T13:53:18Z</time></trkpt><trkpt lat="45.36756168737382" lon="9.115595867930931"><ele>101.0</ele><time>2026-05-01T13:53:19Z</time></trkpt><trkpt lat="45.367662435606746" lon="9.115662800694775"><ele>101.0</ele><time>2026-05-01T13:53:20Z</time></trkpt><trkpt lat="45.36773775329757" lon="9.11579746081794"><ele>101.0</ele><time>2026-05-01T13:53:21Z</time></trkpt><trkpt lat="45.36781409902218" lon="9.115956905947602"><ele>101.0</ele><time>2026-05-01T13:53:22Z</time></trkpt><trkpt lat="45.36789981877969" lon="9.116119621716043"><ele>101.0</ele><time>2026-05-01T13:53:23Z</time></trkpt><trkpt lat="45.367982500628756" lon="9.116289759334167"><ele>101.0</ele><time>2026-05-01T13:53:24Z</time></trkpt><trkpt lat="45.36806027576071" lon="9.116473680162736"><ele>101.0</ele><time>2026-05-01T13:53:25Z</time></trkpt><trkpt lat="45.36813985916059" lon="9.11666679160162"><ele>101.0</ele><time>2026-05-01T13:53:26Z</time></trkpt><trkpt lat="45.368215654942354" lon="9.116864587382203"><ele>101.0</ele><time>2026-05-01T13:53:27Z</time></trkpt><trkpt lat="45.36828176936128" lon="9.117074969706644"><ele>101.0</ele><time>2026-05-01T13:53:28Z</time></trkpt><trkpt lat="45.36834549823757" lon="9.117300770531"><ele>101.0</ele><time>2026-05-01T13:53:29Z</time></trkpt><trkpt lat="45.368398893228445" lon="9.117518777976656"><ele>101.0</ele><time>2026-05-01T13:53:30Z</time></trkpt><trkpt lat="45.36845036451778" lon="9.117746414499532"><ele>101.0</ele><time>2026-05-01T13:53:31Z</time></trkpt><trkpt lat="45.368494703199666" lon="9.117974088218114"><ele>101.0</ele><time>2026-05-01T13:53:32Z</time></trkpt><trkpt lat="45.36851554323224" lon="9.118196275108064"><ele>101.0</ele><time>2026-05-01T13:53:33Z</time></trkpt><trkpt lat="45.368535358200525" lon="9.118431961998475"><ele>101.0</ele><time>2026-05-01T13:53:34Z</time></trkpt><trkpt lat="45.36854438083774" lon="9.118665023730168"><ele>101.0</ele><time>2026-05-01T13:53:35Z</time></trkpt><trkpt lat="45.368540720389895" lon="9.11889461088784"><ele>101.0</ele><time>2026-05-01T13:53:36Z</time></trkpt><trkpt lat="45.36853039923435" lon="9.119124557485664"><ele>101.0</ele><time>2026-05-01T13:53:37Z</time></trkpt><trkpt lat="45.368511272337535" lon="9.11934357370069"><ele>100.66666666666666</ele><time>2026-05-01T13:53:38Z</time></trkpt><trkpt lat="45.36849135025462" lon="9.119575174620167"><ele>100.33333333333334</ele><time>2026-05-01T13:53:39Z</time></trkpt><trkpt lat="45.368465811534" lon="9.119796009364938"><ele>100.0</ele><time>2026-05-01T13:53:40Z</time></trkpt><trkpt lat="45.36842773742038" lon="9.120017213208982"><ele>100.0</ele><time>2026-05-01T13:53:41Z</time></trkpt><trkpt lat="45.36838218850562" lon="9.120241186007636"><ele>100.0</ele><time>2026-05-01T13:53:42Z</time></trkpt><trkpt lat="45.36833481376993" lon="9.120459964626525"><ele>100.0</ele><time>2026-05-01T13:53:43Z</time></trkpt><trkpt lat="45.36828584570872" lon="9.120685702388055"><ele>100.66666666666667</ele><time>2026-05-01T13:53:44Z</time></trkpt><trkpt lat="45.3682445251812" lon="9.120900244821984"><ele>101.33333333333334</ele><time>2026-05-01T13:53:45Z</time></trkpt><trkpt lat="45.3681965275114" lon="9.121122368077335"><ele>102.0</ele><time>2026-05-01T13:53:46Z</time></trkpt><trkpt lat="45.36815500814502" lon="9.12133905060396"><ele>102.0</ele><time>2026-05-01T13:53:47Z</time></trkpt><trkpt lat="45.368110260656756" lon="9.121562501936719"><ele>102.0</ele><time>2026-05-01T13:53:48Z</time></trkpt><trkpt lat="45.368068400681736" lon="9.12177701468216"><ele>102.0</ele><time>2026-05-01T13:53:49Z</time></trkpt><trkpt lat="45.3680320963763" lon="9.122002064011092"><ele>101.66666666666666</ele><time>2026-05-01T13:53:50Z</time></trkpt><trkpt lat="45.368009314362396" lon="9.122234417328166"><ele>101.33333333333333</ele><time>2026-05-01T13:53:51Z</time></trkpt><trkpt lat="45.3679951651821" lon="9.122461291555684"><ele>101.0</ele><time>2026-05-01T13:53:52Z</time></trkpt><trkpt lat="45.36794853320844" lon="9.122691434952577"><ele>101.0</ele><time>2026-05-01T13:53:53Z</time></trkpt><trkpt lat="45.367886363268795" lon="9.122900701856123"><ele>101.0</ele><time>2026-05-01T13:53:54Z</time></trkpt><trkpt lat="45.36781283884595" lon="9.123105157868164"><ele>101.0</ele><time>2026-05-01T13:53:55Z</time></trkpt><trkpt lat="45.36772429065252" lon="9.123283324371142"><ele>101.0</ele><time>2026-05-01T13:53:56Z</time></trkpt><trkpt lat="45.36763291384708" lon="9.123466975679518"><ele>101.0</ele><time>2026-05-01T13:53:57Z</time></trkpt><trkpt lat="45.3675450100021" lon="9.123650786447687"><ele>101.0</ele><time>2026-05-01T13:53:58Z</time></trkpt><trkpt lat="45.367457415560516" lon="9.123838174072217"><ele>101.0</ele><time>2026-05-01T13:53:59Z</time></trkpt><trkpt lat="45.36736085354592" lon="9.124027138298228"><ele>101.0</ele><time>2026-05-01T13:54:00Z</time></trkpt><trkpt lat="45.36725575121301" lon="9.12421482682648"><ele>101.0</ele><time>2026-05-01T13:54:01Z</time></trkpt><trkpt lat="45.36714040190517" lon="9.124383636480772"><ele>101.0</ele><time>2026-05-01T13:54:02Z</time></trkpt><trkpt lat="45.36701683606256" lon="9.124550948764032"><ele>101.0</ele><time>2026-05-01T13:54:03Z</time></trkpt><trkpt lat="45.36690288597827" lon="9.124724446551513"><ele>101.0</ele><time>2026-05-01T13:54:03.999Z</time></trkpt><trkpt lat="45.3667946823536" lon="9.124906260223003"><ele>100.66666666666666</ele><time>2026-05-01T13:54:04.999Z</time></trkpt><trkpt lat="45.36668853391224" lon="9.125099584289288"><ele>100.33333333333334</ele><time>2026-05-01T13:54:05.999Z</time></trkpt><trkpt lat="45.36659251996055" lon="9.125295385793343"><ele>100.0</ele><time>2026-05-01T13:54:06.999Z</time></trkpt><trkpt lat="45.366503038322314" lon="9.125490578759987"><ele>100.0</ele><time>2026-05-01T13:54:07.999Z</time></trkpt><trkpt lat="45.366418236399554" lon="9.125679781413682"><ele>100.0</ele><time>2026-05-01T13:54:08.999Z</time></trkpt><trkpt lat="45.36633621137108" lon="9.125876221891238"><ele>100.0</ele><time>2026-05-01T13:54:09.999Z</time></trkpt><trkpt lat="45.366256285234414" lon="9.126063288573448"><ele>99.66666666666667</ele><time>2026-05-01T13:54:10.999Z</time></trkpt><trkpt lat="45.36617644897207" lon="9.126266041681491"><ele>99.33333333333334</ele><time>2026-05-01T13:54:11.999Z</time></trkpt><trkpt lat="45.36609900880401" lon="9.126465885042682"><ele>99.0</ele><time>2026-05-01T13:54:12.999Z</time></trkpt><trkpt lat="45.36602145061199" lon="9.126670899645248"><ele>99.66666666666666</ele><time>2026-05-01T13:54:13.999Z</time></trkpt><trkpt lat="45.36594442801245" lon="9.126879128033483"><ele>100.33333333333333</ele><time>2026-05-01T13:54:14.999Z</time></trkpt><trkpt lat="45.36587193583374" lon="9.127084922125137"><ele>101.0</ele><time>2026-05-01T13:54:15.999Z</time></trkpt><trkpt lat="45.36580707621474" lon="9.127299665913267"><ele>101.33333333333333</ele><time>2026-05-01T13:54:16.999Z</time></trkpt><trkpt lat="45.36573744724227" lon="9.127521884959148"><ele>101.66666666666666</ele><time>2026-05-01T13:54:17.999Z</time></trkpt><trkpt lat="45.36567275820072" lon="9.127746100094342"><ele>102.0</ele><time>2026-05-01T13:54:18.999Z</time></trkpt><trkpt lat="45.36560944853187" lon="9.127961028656342"><ele>102.0</ele><time>2026-05-01T13:54:19.999Z</time></trkpt><trkpt lat="45.36554529568414" lon="9.128183439584294"><ele>102.0</ele><time>2026-05-01T13:54:20.999Z</time></trkpt><trkpt lat="45.365480510435106" lon="9.128405175865716"><ele>102.0</ele><time>2026-05-01T13:54:21.999Z</time></trkpt><trkpt lat="45.36541703608257" lon="9.128624844158043"><ele>101.66666666666666</ele><time>2026-05-01T13:54:22.999Z</time></trkpt><trkpt lat="45.365354369700626" lon="9.12884622537362"><ele>101.33333333333333</ele><time>2026-05-01T13:54:23.999Z</time></trkpt><trkpt lat="45.36529096243225" lon="9.129074961970389"><ele>101.0</ele><time>2026-05-01T13:54:24.999Z</time></trkpt><trkpt lat="45.365230209391065" lon="9.12929247327148"><ele>101.0</ele><time>2026-05-01T13:54:25.999Z</time></trkpt><trkpt lat="45.36516590618415" lon="9.129529234873315"><ele>101.0</ele><time>2026-05-01T13:54:26.999Z</time></trkpt><trkpt lat="45.365104771713234" lon="9.129750793119035"><ele>101.0</ele><time>2026-05-01T13:54:27.999Z</time></trkpt><trkpt lat="45.36504218042758" lon="9.129982685888647"><ele>100.66666666666666</ele><time>2026-05-01T13:54:28.999Z</time></trkpt><trkpt lat="45.36498061986008" lon="9.130209357852351"><ele>100.33333333333334</ele><time>2026-05-01T13:54:29.999Z</time></trkpt><trkpt lat="45.36492058345436" lon="9.130428427514987"><ele>100.0</ele><time>2026-05-01T13:54:30.999Z</time></trkpt><trkpt lat="45.36486074874964" lon="9.1306430979963"><ele>99.33333333333334</ele><time>2026-05-01T13:54:31.999Z</time></trkpt><trkpt lat="45.36479987498188" lon="9.130866078851707"><ele>98.66666666666666</ele><time>2026-05-01T13:54:32.999Z</time></trkpt><trkpt lat="45.36474256141825" lon="9.13107603161413"><ele>98.0</ele><time>2026-05-01T13:54:33.999Z</time></trkpt><trkpt lat="45.36468472593152" lon="9.131296069609292"><ele>98.0</ele><time>2026-05-01T13:54:34.999Z</time></trkpt><trkpt lat="45.3646252600315" lon="9.131507100904841"><ele>98.0</ele><time>2026-05-01T13:54:35.999Z</time></trkpt><trkpt lat="45.36456550331023" lon="9.131719637461291"><ele>98.0</ele><time>2026-05-01T13:54:36.999Z</time></trkpt><trkpt lat="45.36450846221043" lon="9.13192630119262"><ele>98.0</ele><time>2026-05-01T13:54:37.999Z</time></trkpt><trkpt lat="45.364450453509946" lon="9.132132674072666"><ele>98.0</ele><time>2026-05-01T13:54:38.999Z</time></trkpt><trkpt lat="45.36439718024286" lon="9.132319706012185"><ele>98.0</ele><time>2026-05-01T13:54:39.999Z</time></trkpt><trkpt lat="45.36434952068698" lon="9.132490197042419"><ele>98.0</ele><time>2026-05-01T13:54:40.999Z</time></trkpt><trkpt lat="45.364304648976706" lon="9.132653015869202"><ele>97.80000000000001</ele><time>2026-05-01T13:54:41.999Z</time></trkpt><trkpt lat="45.364263442289634" lon="9.132811784039529"><ele>97.6</ele><time>2026-05-01T13:54:42.999Z</time></trkpt><trkpt lat="45.364225024849674" lon="9.132954853542293"><ele>97.4</ele><time>2026-05-01T13:54:43.999Z</time></trkpt><trkpt lat="45.3641928810094" lon="9.133069043582205"><ele>97.19999999999999</ele><time>2026-05-01T13:54:45Z</time></trkpt><trkpt lat="45.364162766368764" lon="9.13317673927541"><ele>97.0</ele><time>2026-05-01T13:54:46Z</time></trkpt><trkpt lat="45.364134542652046" lon="9.133272727637296"><ele>97.0</ele><time>2026-05-01T13:54:47Z</time></trkpt><trkpt lat="45.36408910828893" lon="9.133437489496615"><ele>97.0</ele><time>2026-05-01T13:54:49Z</time></trkpt><trkpt lat="45.364017798465426" lon="9.133560771657413"><ele>97.0</ele><time>2026-05-01T13:54:51Z</time></trkpt><trkpt lat="45.363955140123025" lon="9.133575386935394"><ele>97.0</ele><time>2026-05-01T13:54:52Z</time></trkpt><trkpt lat="45.363884182419085" lon="9.133540181249383"><ele>97.0</ele><time>2026-05-01T13:54:53Z</time></trkpt><trkpt lat="45.36380144131913" lon="9.133477822942059"><ele>97.0</ele><time>2026-05-01T13:54:54Z</time></trkpt><trkpt lat="45.363706310837486" lon="9.133405330195698"><ele>97.0</ele><time>2026-05-01T13:54:55Z</time></trkpt><trkpt lat="45.363604508451665" lon="9.133338978796802"><ele>97.0</ele><time>2026-05-01T13:54:56Z</time></trkpt><trkpt lat="45.36350642393715" lon="9.13327813010449"><ele>97.0</ele><time>2026-05-01T13:54:57Z</time></trkpt><trkpt lat="45.363415737059405" lon="9.133219869102929"><ele>97.0</ele><time>2026-05-01T13:54:58Z</time></trkpt><trkpt lat="45.36333790997729" lon="9.133178527504054"><ele>97.0</ele><time>2026-05-01T13:54:59Z</time></trkpt><trkpt lat="45.36326583803229" lon="9.13317733953739"><ele>97.0</ele><time>2026-05-01T13:55:00Z</time></trkpt><trkpt lat="45.36319911170087" lon="9.133214874283723"><ele>97.0</ele><time>2026-05-01T13:55:01Z</time></trkpt><trkpt lat="45.363140505140116" lon="9.133269178576459"><ele>97.0</ele><time>2026-05-01T13:55:02Z</time></trkpt><trkpt lat="45.3630855417772" lon="9.133318291571014"><ele>97.0</ele><time>2026-05-01T13:55:03Z</time></trkpt><trkpt lat="45.36302299603774" lon="9.13334894779612"><ele>97.0</ele><time>2026-05-01T13:55:04Z</time></trkpt><trkpt lat="45.3629519794997" lon="9.1333748051702"><ele>97.0</ele><time>2026-05-01T13:55:05Z</time></trkpt><trkpt lat="45.362877811113194" lon="9.133424254384705"><ele>97.00000000000001</ele><time>2026-05-01T13:55:06Z</time></trkpt><trkpt lat="45.36282426566784" lon="9.1335134166601"><ele>97.0</ele><time>2026-05-01T13:55:07Z</time></trkpt><trkpt lat="45.36281161615275" lon="9.133632766820783"><ele>97.0</ele><time>2026-05-01T13:55:08Z</time></trkpt><trkpt lat="45.362845343371845" lon="9.133752138301327"><ele>97.0</ele><time>2026-05-01T13:55:09Z</time></trkpt><trkpt lat="45.36291654470819" lon="9.133830376154675"><ele>97.00000000000001</ele><time>2026-05-01T13:55:10Z</time></trkpt><trkpt lat="45.363008443334785" lon="9.133850751722933"><ele>97.0</ele><time>2026-05-01T13:55:11Z</time></trkpt><trkpt lat="45.3631088803914" lon="9.133785281525922"><ele>97.0</ele><time>2026-05-01T13:55:12Z</time></trkpt><trkpt lat="45.36321036968367" lon="9.133703906314006"><ele>97.0</ele><time>2026-05-01T13:55:13Z</time></trkpt><trkpt lat="45.36333016158265" lon="9.133678097498835"><ele>97.0</ele><time>2026-05-01T13:55:14Z</time></trkpt><trkpt lat="45.36346485683109" lon="9.133712310225537"><ele>97.0</ele><time>2026-05-01T13:55:15Z</time></trkpt><trkpt lat="45.36360585428571" lon="9.133740875029845"><ele>97.0</ele><time>2026-05-01T13:55:16Z</time></trkpt><trkpt lat="45.363738967954006" lon="9.13377109228123"><ele>97.0</ele><time>2026-05-01T13:55:17Z</time></trkpt><trkpt lat="45.363868825490854" lon="9.13381690204195"><ele>97.0</ele><time>2026-05-01T13:55:18Z</time></trkpt><trkpt lat="45.36399362628038" lon="9.13387800450172"><ele>97.0</ele><time>2026-05-01T13:55:19Z</time></trkpt><trkpt lat="45.36410945919939" lon="9.133946677303816"><ele>97.0</ele><time>2026-05-01T13:55:20Z</time></trkpt><trkpt lat="45.36422427304806" lon="9.134019575360602"><ele>97.0</ele><time>2026-05-01T13:55:21Z</time></trkpt><trkpt lat="45.364337026416074" lon="9.134094050369328"><ele>97.0</ele><time>2026-05-01T13:55:22Z</time></trkpt><trkpt lat="45.36445164654699" lon="9.134166233727068"><ele>97.0</ele><time>2026-05-01T13:55:23Z</time></trkpt><trkpt lat="45.36456402385139" lon="9.134233155592721"><ele>97.5</ele><time>2026-05-01T13:55:24Z</time></trkpt><trkpt lat="45.364674114655685" lon="9.134304913999255"><ele>98.0</ele><time>2026-05-01T13:55:25Z</time></trkpt><trkpt lat="45.364789281708624" lon="9.13437873316777"><ele>98.5</ele><time>2026-05-01T13:55:26Z</time></trkpt><trkpt lat="45.36489595271955" lon="9.134451237070142"><ele>99.0</ele><time>2026-05-01T13:55:27Z</time></trkpt><trkpt lat="45.364995532043984" lon="9.13451369381316"><ele>99.0</ele><time>2026-05-01T13:55:28Z</time></trkpt><trkpt lat="45.365079572107824" lon="9.134569832569829"><ele>99.0</ele><time>2026-05-01T13:55:29Z</time></trkpt><trkpt lat="45.365146672914264" lon="9.134615403916639"><ele>99.0</ele><time>2026-05-01T13:55:30Z</time></trkpt><trkpt lat="45.36520601795949" lon="9.134653952349325"><ele>99.0</ele><time>2026-05-01T13:55:31Z</time></trkpt><trkpt lat="45.365262421537686" lon="9.134698243748817"><ele>99.0</ele><time>2026-05-01T13:55:32Z</time></trkpt><trkpt lat="45.3653154140918" lon="9.134753797772502"><ele>99.0</ele><time>2026-05-01T13:55:33Z</time></trkpt><trkpt lat="45.365366275866386" lon="9.134818424186346"><ele>99.0</ele><time>2026-05-01T13:55:34Z</time></trkpt><trkpt lat="45.36540806081708" lon="9.134889764162724"><ele>99.0</ele><time>2026-05-01T13:55:35Z</time></trkpt><trkpt lat="45.36544569488552" lon="9.134969141117935"><ele>99.0</ele><time>2026-05-01T13:55:36Z</time></trkpt><trkpt lat="45.36548629703729" lon="9.135054667563999"><ele>99.0</ele><time>2026-05-01T13:55:37Z</time></trkpt><trkpt lat="45.36552595667604" lon="9.135146052090194"><ele>99.0</ele><time>2026-05-01T13:55:38Z</time></trkpt><trkpt lat="45.36559334088733" lon="9.135210353303329"><ele>99.0</ele><time>2026-05-01T13:55:39Z</time></trkpt><trkpt lat="45.365673589117364" lon="9.135232925282251"><ele>99.0</ele><time>2026-05-01T13:55:40Z</time></trkpt><trkpt lat="45.36576591057867" lon="9.135141723622299"><ele>99.25</ele><time>2026-05-01T13:55:41Z</time></trkpt><trkpt lat="45.36585681879367" lon="9.135101376196335"><ele>99.5</ele><time>2026-05-01T13:55:42Z</time></trkpt><trkpt lat="45.365972645736456" lon="9.135083988082611"><ele>99.75</ele><time>2026-05-01T13:55:43Z</time></trkpt><trkpt lat="45.366091273167356" lon="9.135094225571638"><ele>100.0</ele><time>2026-05-01T13:55:44Z</time></trkpt><trkpt lat="45.366222815788255" lon="9.13512742318846"><ele>99.0</ele><time>2026-05-01T13:55:45Z</time></trkpt><trkpt lat="45.3663639920491" lon="9.135176586561938"><ele>98.0</ele><time>2026-05-01T13:55:46Z</time></trkpt><trkpt lat="45.36650937339922" lon="9.135233024133344"><ele>97.0</ele><time>2026-05-01T13:55:47Z</time></trkpt><trkpt lat="45.36666122896264" lon="9.13530005415032"><ele>97.0</ele><time>2026-05-01T13:55:48Z</time></trkpt><trkpt lat="45.36681546953236" lon="9.135383425645857"><ele>97.0</ele><time>2026-05-01T13:55:48.999Z</time></trkpt><trkpt lat="45.366956961772814" lon="9.135477805209323"><ele>97.0</ele><time>2026-05-01T13:55:49.999Z</time></trkpt><trkpt lat="45.36709692901065" lon="9.135573549394714"><ele>97.0</ele><time>2026-05-01T13:55:50.999Z</time></trkpt><trkpt lat="45.36724075951397" lon="9.135659479596741"><ele>97.0</ele><time>2026-05-01T13:55:51.999Z</time></trkpt><trkpt lat="45.36738623379463" lon="9.1357343819556"><ele>97.0</ele><time>2026-05-01T13:55:52.999Z</time></trkpt><trkpt lat="45.367527572017764" lon="9.135806650490329"><ele>97.25</ele><time>2026-05-01T13:55:53.999Z</time></trkpt><trkpt lat="45.36766487341451" lon="9.135877287381152"><ele>97.5</ele><time>2026-05-01T13:55:54.999Z</time></trkpt><trkpt lat="45.367799882223295" lon="9.13595049778678"><ele>97.75</ele><time>2026-05-01T13:55:55.999Z</time></trkpt><trkpt lat="45.36793548574556" lon="9.136027123986803"><ele>98.0</ele><time>2026-05-01T13:55:56.999Z</time></trkpt><trkpt lat="45.36807250587459" lon="9.136106922866619"><ele>98.25</ele><time>2026-05-01T13:55:57.999Z</time></trkpt><trkpt lat="45.36820649072123" lon="9.136184901843365"><ele>98.5</ele><time>2026-05-01T13:55:58.999Z</time></trkpt><trkpt lat="45.368338167034004" lon="9.136255737584376"><ele>98.75</ele><time>2026-05-01T13:55:59.999Z</time></trkpt><trkpt lat="45.36847026563295" lon="9.136328107922695"><ele>99.0</ele><time>2026-05-01T13:56:00.999Z</time></trkpt><trkpt lat="45.36860289295714" lon="9.136402099358628"><ele>99.0</ele><time>2026-05-01T13:56:01.999Z</time></trkpt><trkpt lat="45.368739445760895" lon="9.136477996627308"><ele>99.0</ele><time>2026-05-01T13:56:02.999Z</time></trkpt><trkpt lat="45.36887298606172" lon="9.136561331081205"><ele>99.0</ele><time>2026-05-01T13:56:03.999Z</time></trkpt><trkpt lat="45.36900253250916" lon="9.13663330695414"><ele>99.0</ele><time>2026-05-01T13:56:04.999Z</time></trkpt><trkpt lat="45.36913277236645" lon="9.136704213980567"><ele>99.66666666666666</ele><time>2026-05-01T13:56:05.999Z</time></trkpt><trkpt lat="45.36926394942177" lon="9.136802269183274"><ele>100.33333333333333</ele><time>2026-05-01T13:56:06.999Z</time></trkpt><trkpt lat="45.369416499055205" lon="9.13686542631173"><ele>101.0</ele><time>2026-05-01T13:56:07.999Z</time></trkpt><trkpt lat="45.369564877769854" lon="9.136951576766146"><ele>101.0</ele><time>2026-05-01T13:56:08.999Z</time></trkpt><trkpt lat="45.36970554048982" lon="9.137036309151533"><ele>101.0</ele><time>2026-05-01T13:56:09.999Z</time></trkpt><trkpt lat="45.369836937393686" lon="9.137112940141773"><ele>101.0</ele><time>2026-05-01T13:56:10.999Z</time></trkpt><trkpt lat="45.369959763395784" lon="9.137182230360503"><ele>101.0</ele><time>2026-05-01T13:56:11.999Z</time></trkpt><trkpt lat="45.37007307557945" lon="9.137250107686192"><ele>101.0</ele><time>2026-05-01T13:56:12.999Z</time></trkpt><trkpt lat="45.370189261724605" lon="9.137321335490164"><ele>101.0</ele><time>2026-05-01T13:56:13.999Z</time></trkpt><trkpt lat="45.370320641308474" lon="9.137393024158847"><ele>101.0</ele><time>2026-05-01T13:56:14.999Z</time></trkpt><trkpt lat="45.37045665212059" lon="9.137494306962559"><ele>101.0</ele><time>2026-05-01T13:56:15.999Z</time></trkpt><trkpt lat="45.370610566892914" lon="9.13758361474403"><ele>100.0</ele><time>2026-05-01T13:56:16.999Z</time></trkpt><trkpt lat="45.37078208613133" lon="9.137663530389062"><ele>99.0</ele><time>2026-05-01T13:56:17.999Z</time></trkpt><trkpt lat="45.370942692091376" lon="9.137771348291157"><ele>98.0</ele><time>2026-05-01T13:56:18.999Z</time></trkpt><trkpt lat="45.371094780259014" lon="9.13786815435956"><ele>98.0</ele><time>2026-05-01T13:56:19.999Z</time></trkpt><trkpt lat="45.371234553338084" lon="9.13795742900458"><ele>98.0</ele><time>2026-05-01T13:56:20.999Z</time></trkpt><trkpt lat="45.37136018385809" lon="9.138042830185904"><ele>98.0</ele><time>2026-05-01T13:56:21.999Z</time></trkpt><trkpt lat="45.37147292632577" lon="9.138120521719772"><ele>98.0</ele><time>2026-05-01T13:56:22.999Z</time></trkpt><trkpt lat="45.37157657066097" lon="9.138199812811557"><ele>98.0</ele><time>2026-05-01T13:56:23.999Z</time></trkpt><trkpt lat="45.37166601925112" lon="9.138281932363379"><ele>98.0</ele><time>2026-05-01T13:56:24.999Z</time></trkpt><trkpt lat="45.37174481989663" lon="9.138376386454393"><ele>98.0</ele><time>2026-05-01T13:56:25.999Z</time></trkpt><trkpt lat="45.37182350009943" lon="9.138449541360167"><ele>98.0</ele><time>2026-05-01T13:56:26.999Z</time></trkpt><trkpt lat="45.37186309234116" lon="9.138586417114517"><ele>98.0</ele><time>2026-05-01T13:56:27.999Z</time></trkpt><trkpt lat="45.371911789359885" lon="9.13866528987777"><ele>98.0</ele><time>2026-05-01T13:56:28.999Z</time></trkpt><trkpt lat="45.37196666418593" lon="9.138731606709356"><ele>98.0</ele><time>2026-05-01T13:56:29.999Z</time></trkpt><trkpt lat="45.37206945410567" lon="9.138700586934878"><ele>98.0</ele><time>2026-05-01T13:56:30.999Z</time></trkpt><trkpt lat="45.372170916746036" lon="9.138617402725027"><ele>98.0</ele><time>2026-05-01T13:56:31.999Z</time></trkpt><trkpt lat="45.37230438980832" lon="9.138617866487552"><ele>98.0</ele><time>2026-05-01T13:56:32.999Z</time></trkpt><trkpt lat="45.37242905272865" lon="9.138659798107065"><ele>98.5</ele><time>2026-05-01T13:56:33.999Z</time></trkpt><trkpt lat="45.37256156003301" lon="9.13874269780256"><ele>99.0</ele><time>2026-05-01T13:56:34.999Z</time></trkpt><trkpt lat="45.37268981919062" lon="9.138813348447885"><ele>99.5</ele><time>2026-05-01T13:56:35.999Z</time></trkpt><trkpt lat="45.37281846130931" lon="9.138879600001202"><ele>100.0</ele><time>2026-05-01T13:56:36.999Z</time></trkpt><trkpt lat="45.37295124097113" lon="9.138950027701883"><ele>99.33333333333334</ele><time>2026-05-01T13:56:37.999Z</time></trkpt><trkpt lat="45.37308667729292" lon="9.139025952121893"><ele>98.66666666666666</ele><time>2026-05-01T13:56:38.999Z</time></trkpt><trkpt lat="45.373227829725415" lon="9.139103207034882"><ele>98.0</ele><time>2026-05-01T13:56:39.999Z</time></trkpt><trkpt lat="45.37337477179921" lon="9.139184228982405"><ele>99.33333333333333</ele><time>2026-05-01T13:56:40.999Z</time></trkpt><trkpt lat="45.37352045715351" lon="9.139266165075309"><ele>100.66666666666666</ele><time>2026-05-01T13:56:41.999Z</time></trkpt><trkpt lat="45.373666553704886" lon="9.139351723932032"><ele>102.0</ele><time>2026-05-01T13:56:42.999Z</time></trkpt><trkpt lat="45.3738095143621" lon="9.139435353018222"><ele>101.5</ele><time>2026-05-01T13:56:43.999Z</time></trkpt><trkpt lat="45.37394989152969" lon="9.139514946829927"><ele>101.0</ele><time>2026-05-01T13:56:44.999Z</time></trkpt><trkpt lat="45.37408016279028" lon="9.13959051420049"><ele>100.5</ele><time>2026-05-01T13:56:45.999Z</time></trkpt><trkpt lat="45.37419267766762" lon="9.139661155179272"><ele>100.0</ele><time>2026-05-01T13:56:46.999Z</time></trkpt><trkpt lat="45.374294089794205" lon="9.13972177401828"><ele>100.0</ele><time>2026-05-01T13:56:47.999Z</time></trkpt><trkpt lat="45.374414108618616" lon="9.139780755285742"><ele>100.0</ele><time>2026-05-01T13:56:48.999Z</time></trkpt><trkpt lat="45.37454419509391" lon="9.139875278081337"><ele>100.0</ele><time>2026-05-01T13:56:49.999Z</time></trkpt><trkpt lat="45.3746882423145" lon="9.139933545259936"><ele>100.0</ele><time>2026-05-01T13:56:51Z</time></trkpt><trkpt lat="45.374829358678454" lon="9.140037695298524"><ele>100.33333333333334</ele><time>2026-05-01T13:56:52Z</time></trkpt><trkpt lat="45.37497891496108" lon="9.140140387426278"><ele>100.66666666666666</ele><time>2026-05-01T13:56:53Z</time></trkpt><trkpt lat="45.37513060591967" lon="9.140220290564406"><ele>101.0</ele><time>2026-05-01T13:56:54Z</time></trkpt><trkpt lat="45.37529581504374" lon="9.140311293437255"><ele>101.0</ele><time>2026-05-01T13:56:55Z</time></trkpt><trkpt lat="45.37545439547445" lon="9.14040630694067"><ele>101.0</ele><time>2026-05-01T13:56:56Z</time></trkpt><trkpt lat="45.37560690557136" lon="9.140502346883501"><ele>101.0</ele><time>2026-05-01T13:56:57Z</time></trkpt><trkpt lat="45.375765708753946" lon="9.140598641475005"><ele>101.0</ele><time>2026-05-01T13:56:58Z</time></trkpt><trkpt lat="45.37592035313122" lon="9.140685988370622"><ele>101.0</ele><time>2026-05-01T13:56:59Z</time></trkpt><trkpt lat="45.37607817281149" lon="9.14077221561751"><ele>101.0</ele><time>2026-05-01T13:57:00Z</time></trkpt><trkpt lat="45.3762300384817" lon="9.140855214650239"><ele>100.66666666666666</ele><time>2026-05-01T13:57:01Z</time></trkpt><trkpt lat="45.37638473487441" lon="9.140942601600463"><ele>100.33333333333334</ele><time>2026-05-01T13:57:02Z</time></trkpt><trkpt lat="45.37652748775646" lon="9.141028463598152"><ele>100.0</ele><time>2026-05-01T13:57:03Z</time></trkpt><trkpt lat="45.3766811986429" lon="9.141122024655406"><ele>100.0</ele><time>2026-05-01T13:57:04Z</time></trkpt><trkpt lat="45.37682799503432" lon="9.141210667945343"><ele>100.0</ele><time>2026-05-01T13:57:05Z</time></trkpt><trkpt lat="45.37696939331858" lon="9.14129132918978"><ele>100.0</ele><time>2026-05-01T13:57:06Z</time></trkpt><trkpt lat="45.377114627029606" lon="9.141376036126955"><ele>99.66666666666667</ele><time>2026-05-01T13:57:07Z</time></trkpt><trkpt lat="45.37726107360011" lon="9.141462319533122"><ele>99.33333333333334</ele><time>2026-05-01T13:57:08Z</time></trkpt><trkpt lat="45.37740452412121" lon="9.141544908675964"><ele>99.0</ele><time>2026-05-01T13:57:09Z</time></trkpt><trkpt lat="45.3775508000173" lon="9.141623586933907"><ele>99.66666666666666</ele><time>2026-05-01T13:57:10Z</time></trkpt><trkpt lat="45.37770172960687" lon="9.141706434827622"><ele>100.33333333333333</ele><time>2026-05-01T13:57:11Z</time></trkpt><trkpt lat="45.37785630576276" lon="9.141800361247455"><ele>101.0</ele><time>2026-05-01T13:57:12Z</time></trkpt><trkpt lat="45.37800353670876" lon="9.141888488908222"><ele>100.33333333333333</ele><time>2026-05-01T13:57:13Z</time></trkpt><trkpt lat="45.37816240861453" lon="9.141982054570098"><ele>99.66666666666666</ele><time>2026-05-01T13:57:14Z</time></trkpt><trkpt lat="45.37831832254489" lon="9.14206596833589"><ele>99.0</ele><time>2026-05-01T13:57:15Z</time></trkpt><trkpt lat="45.378469411237866" lon="9.1421531915608"><ele>99.0</ele><time>2026-05-01T13:57:16Z</time></trkpt><trkpt lat="45.37861056546968" lon="9.142248495091318"><ele>99.0</ele><time>2026-05-01T13:57:17Z</time></trkpt><trkpt lat="45.37872958479179" lon="9.14233895302285"><ele>99.0</ele><time>2026-05-01T13:57:18Z</time></trkpt><trkpt lat="45.37885333202618" lon="9.142439192764062"><ele>99.0</ele><time>2026-05-01T13:57:19Z</time></trkpt><trkpt lat="45.378966874548205" lon="9.142538675002108"><ele>100.0</ele><time>2026-05-01T13:57:20Z</time></trkpt><trkpt lat="45.37907104493879" lon="9.142640607372865"><ele>101.0</ele><time>2026-05-01T13:57:21Z</time></trkpt><trkpt lat="45.37916299669984" lon="9.142736525925146"><ele>102.0</ele><time>2026-05-01T13:57:22Z</time></trkpt><trkpt lat="45.379234854151434" lon="9.142835943249356"><ele>103.0</ele><time>2026-05-01T13:57:23Z</time></trkpt><trkpt lat="45.37929724067397" lon="9.142936298723376"><ele>104.0</ele><time>2026-05-01T13:57:24Z</time></trkpt><trkpt lat="45.37935046057992" lon="9.143047943080887"><ele>104.0</ele><time>2026-05-01T13:57:25Z</time></trkpt><trkpt lat="45.37938633954359" lon="9.143173451129828"><ele>104.0</ele><time>2026-05-01T13:57:26Z</time></trkpt><trkpt lat="45.37944122401702" lon="9.143283207948876"><ele>104.0</ele><time>2026-05-01T13:57:27Z</time></trkpt><trkpt lat="45.379532377167514" lon="9.143338397618106"><ele>104.0</ele><time>2026-05-01T13:57:28Z</time></trkpt><trkpt lat="45.3796288829445" lon="9.14333786136992"><ele>104.0</ele><time>2026-05-01T13:57:29Z</time></trkpt><trkpt lat="45.3797259064256" lon="9.143275392681474"><ele>104.0</ele><time>2026-05-01T13:57:30Z</time></trkpt><trkpt lat="45.379823786004216" lon="9.143184940581849"><ele>104.0</ele><time>2026-05-01T13:57:31Z</time></trkpt><trkpt lat="45.37992951964142" lon="9.143117529706483"><ele>104.0</ele><time>2026-05-01T13:57:32Z</time></trkpt><trkpt lat="45.3800545290593" lon="9.143107089748101"><ele>104.0</ele><time>2026-05-01T13:57:33Z</time></trkpt><trkpt lat="45.38019304030522" lon="9.143145492560103"><ele>103.66666666666666</ele><time>2026-05-01T13:57:34Z</time></trkpt><trkpt lat="45.38033360687278" lon="9.143233292490223"><ele>103.33333333333334</ele><time>2026-05-01T13:57:35Z</time></trkpt><trkpt lat="45.380468470213174" lon="9.143309380962188"><ele>103.0</ele><time>2026-05-01T13:57:36Z</time></trkpt><trkpt lat="45.38061622921381" lon="9.143385610753967"><ele>103.0</ele><time>2026-05-01T13:57:37Z</time></trkpt><trkpt lat="45.38077202394997" lon="9.143471094570485"><ele>103.0</ele><time>2026-05-01T13:57:38Z</time></trkpt><trkpt lat="45.38093590883678" lon="9.143565470897958"><ele>103.0</ele><time>2026-05-01T13:57:39Z</time></trkpt><trkpt lat="45.381090039995584" lon="9.143642960959413"><ele>103.0</ele><time>2026-05-01T13:57:40Z</time></trkpt><trkpt lat="45.38123377874379" lon="9.143723125177788"><ele>103.0</ele><time>2026-05-01T13:57:41Z</time></trkpt><trkpt lat="45.38136924198373" lon="9.143803960701169"><ele>103.0</ele><time>2026-05-01T13:57:42Z</time></trkpt><trkpt lat="45.381499372256286" lon="9.143874281626326"><ele>103.0</ele><time>2026-05-01T13:57:43Z</time></trkpt><trkpt lat="45.38163034591108" lon="9.143972629089108"><ele>103.66666666666667</ele><time>2026-05-01T13:57:44Z</time></trkpt><trkpt lat="45.38178859072154" lon="9.144039482207914"><ele>104.33333333333334</ele><time>2026-05-01T13:57:45Z</time></trkpt><trkpt lat="45.38194299526976" lon="9.144153246430866"><ele>105.0</ele><time>2026-05-01T13:57:45.999Z</time></trkpt><trkpt lat="45.382104587077656" lon="9.144246606313008"><ele>104.0</ele><time>2026-05-01T13:57:46.999Z</time></trkpt><trkpt lat="45.38228095991813" lon="9.14432453866087"><ele>103.0</ele><time>2026-05-01T13:57:47.999Z</time></trkpt><trkpt lat="45.382451998762484" lon="9.144449286021512"><ele>102.0</ele><time>2026-05-01T13:57:48.999Z</time></trkpt><trkpt lat="45.382626192939526" lon="9.144528854278256"><ele>102.0</ele><time>2026-05-01T13:57:49.999Z</time></trkpt><trkpt lat="45.38280320047465" lon="9.144639489828226"><ele>102.0</ele><time>2026-05-01T13:57:50.999Z</time></trkpt><trkpt lat="45.38298055363446" lon="9.144751067303432"><ele>102.0</ele><time>2026-05-01T13:57:51.999Z</time></trkpt><trkpt lat="45.38315799452243" lon="9.144855072693128"><ele>102.0</ele><time>2026-05-01T13:57:52.999Z</time></trkpt><trkpt lat="45.383336564289976" lon="9.144949635357698"><ele>102.0</ele><time>2026-05-01T13:57:53.999Z</time></trkpt><trkpt lat="45.38351236616418" lon="9.145046380622668"><ele>102.0</ele><time>2026-05-01T13:57:54.999Z</time></trkpt><trkpt lat="45.38368108194476" lon="9.145147420764442"><ele>102.0</ele><time>2026-05-01T13:57:55.999Z</time></trkpt><trkpt lat="45.38385545706516" lon="9.1452478178727"><ele>102.0</ele><time>2026-05-01T13:57:56.999Z</time></trkpt><trkpt lat="45.384027549786275" lon="9.1453458604971"><ele>102.0</ele><time>2026-05-01T13:57:57.999Z</time></trkpt><trkpt lat="45.3842025794308" lon="9.145443765226412"><ele>102.0</ele><time>2026-05-01T13:57:58.999Z</time></trkpt><trkpt lat="45.38438100029261" lon="9.145545955983886"><ele>102.0</ele><time>2026-05-01T13:57:59.999Z</time></trkpt><trkpt lat="45.38454216991022" lon="9.145642525355758"><ele>102.0</ele><time>2026-05-01T13:58:00.999Z</time></trkpt><trkpt lat="45.38470740428189" lon="9.14574017874891"><ele>102.33333333333334</ele><time>2026-05-01T13:58:01.999Z</time></trkpt><trkpt lat="45.38486858209325" lon="9.145835027816569"><ele>102.66666666666667</ele><time>2026-05-01T13:58:02.999Z</time></trkpt><trkpt lat="45.38502301932678" lon="9.145938692597197"><ele>103.0</ele><time>2026-05-01T13:58:03.999Z</time></trkpt><trkpt lat="45.385181957382756" lon="9.146039474287424"><ele>103.0</ele><time>2026-05-01T13:58:04.999Z</time></trkpt><trkpt lat="45.385355932897895" lon="9.146140296150786"><ele>103.0</ele><time>2026-05-01T13:58:05.999Z</time></trkpt><trkpt lat="45.3855298010594" lon="9.146234972634781"><ele>103.0</ele><time>2026-05-01T13:58:06.999Z</time></trkpt><trkpt lat="45.38569511945552" lon="9.146332359835524"><ele>103.25</ele><time>2026-05-01T13:58:07.999Z</time></trkpt><trkpt lat="45.38584517746883" lon="9.14642760869833"><ele>103.5</ele><time>2026-05-01T13:58:08.999Z</time></trkpt><trkpt lat="45.385974157797634" lon="9.146502185059385"><ele>103.75</ele><time>2026-05-01T13:58:09.999Z</time></trkpt><trkpt lat="45.38609489960348" lon="9.146571582885235"><ele>104.0</ele><time>2026-05-01T13:58:10.999Z</time></trkpt><trkpt lat="45.38619805300725" lon="9.146628935752853"><ele>104.2</ele><time>2026-05-01T13:58:11.999Z</time></trkpt><trkpt lat="45.38628409708397" lon="9.146674146057519"><ele>104.4</ele><time>2026-05-01T13:58:12.999Z</time></trkpt><trkpt lat="45.38635397154236" lon="9.146713278473229"><ele>104.6</ele><time>2026-05-01T13:58:13.999Z</time></trkpt><trkpt lat="45.38644665202741" lon="9.146830011597414"><ele>104.8</ele><time>2026-05-01T13:58:15.999Z</time></trkpt><trkpt lat="45.386481740884854" lon="9.14693424942091"><ele>105.0</ele><time>2026-05-01T13:58:16.999Z</time></trkpt><trkpt lat="45.386517364512" lon="9.14705241792583"><ele>105.2</ele><time>2026-05-01T13:58:17.999Z</time></trkpt><trkpt lat="45.38657354310005" lon="9.147142963805917"><ele>105.4</ele><time>2026-05-01T13:58:18.999Z</time></trkpt><trkpt lat="45.386654600090004" lon="9.147172219638232"><ele>105.6</ele><time>2026-05-01T13:58:19.999Z</time></trkpt><trkpt lat="45.38675536278709" lon="9.14715897438551"><ele>105.8</ele><time>2026-05-01T13:58:20.999Z</time></trkpt><trkpt lat="45.386856533177095" lon="9.147102203610455"><ele>106.0</ele><time>2026-05-01T13:58:21.999Z</time></trkpt><trkpt lat="45.386972446149606" lon="9.147068618612073"><ele>106.0</ele><time>2026-05-01T13:58:22.999Z</time></trkpt><trkpt lat="45.38709027985932" lon="9.147118838722161"><ele>106.0</ele><time>2026-05-01T13:58:23.999Z</time></trkpt><trkpt lat="45.38721945138066" lon="9.147225234464411"><ele>106.0</ele><time>2026-05-01T13:58:24.999Z</time></trkpt><trkpt lat="45.387356412682315" lon="9.147311976303284"><ele>106.0</ele><time>2026-05-01T13:58:25.999Z</time></trkpt><trkpt lat="45.38750218970027" lon="9.14739712997894"><ele>106.0</ele><time>2026-05-01T13:58:26.999Z</time></trkpt><trkpt lat="45.38764706416608" lon="9.147484388643708"><ele>106.0</ele><time>2026-05-01T13:58:27.999Z</time></trkpt><trkpt lat="45.38779064516385" lon="9.147572555889184"><ele>106.0</ele><time>2026-05-01T13:58:28.999Z</time></trkpt><trkpt lat="45.38792570868621" lon="9.147658409257417"><ele>105.75</ele><time>2026-05-01T13:58:29.999Z</time></trkpt><trkpt lat="45.38805757591138" lon="9.147739550261727"><ele>105.5</ele><time>2026-05-01T13:58:30.999Z</time></trkpt><trkpt lat="45.388177408284896" lon="9.147812046213424"><ele>105.25</ele><time>2026-05-01T13:58:31.999Z</time></trkpt><trkpt lat="45.388293464888676" lon="9.147885811745235"><ele>105.0</ele><time>2026-05-01T13:58:32.999Z</time></trkpt><trkpt lat="45.38839986041522" lon="9.147941102332494"><ele>105.0</ele><time>2026-05-01T13:58:33.999Z</time></trkpt><trkpt lat="45.38849935610582" lon="9.1480005801086"><ele>105.0</ele><time>2026-05-01T13:58:34.999Z</time></trkpt><trkpt lat="45.3885884173276" lon="9.148053560850514"><ele>105.0</ele><time>2026-05-01T13:58:35.999Z</time></trkpt><trkpt lat="45.38866698504032" lon="9.14810232316038"><ele>105.0</ele><time>2026-05-01T13:58:36.999Z</time></trkpt><trkpt lat="45.388741996662404" lon="9.14814403463367"><ele>105.0</ele><time>2026-05-01T13:58:37.999Z</time></trkpt><trkpt lat="45.38880656937654" lon="9.148182684465532"><ele>105.0</ele><time>2026-05-01T13:58:38.999Z</time></trkpt><trkpt lat="45.38889657516007" lon="9.148325775710981"><ele>105.25</ele><time>2026-05-01T13:58:40.999Z</time></trkpt><trkpt lat="45.388840067432355" lon="9.14847815813457"><ele>105.5</ele><time>2026-05-01T13:58:41.999Z</time></trkpt><trkpt lat="45.388794679065036" lon="9.148607484509052"><ele>105.75</ele><time>2026-05-01T13:58:42.999Z</time></trkpt><trkpt lat="45.38872110188634" lon="9.148746568846427"><ele>106.0</ele><time>2026-05-01T13:58:43.999Z</time></trkpt><trkpt lat="45.38866428233344" lon="9.148899455015204"><ele>105.5</ele><time>2026-05-01T13:58:44.999Z</time></trkpt><trkpt lat="45.38860474397035" lon="9.149049474260202"><ele>105.0</ele><time>2026-05-01T13:58:45.999Z</time></trkpt><trkpt lat="45.3885420934914" lon="9.149188850033815"><ele>104.5</ele><time>2026-05-01T13:58:46.999Z</time></trkpt><trkpt lat="45.38847088308316" lon="9.149308307007098"><ele>104.0</ele><time>2026-05-01T13:58:47.999Z</time></trkpt><trkpt lat="45.38840631576812" lon="9.14942217178249"><ele>103.99999999999999</ele><time>2026-05-01T13:58:48.999Z</time></trkpt><trkpt lat="45.38833899223699" lon="9.149507672903878"><ele>104.0</ele><time>2026-05-01T13:58:49.999Z</time></trkpt><trkpt lat="45.38829217936065" lon="9.149595231986085"><ele>104.0</ele><time>2026-05-01T13:58:50.999Z</time></trkpt><trkpt lat="45.38824449988148" lon="9.149719025076537"><ele>104.0</ele><time>2026-05-01T13:58:52.999Z</time></trkpt><trkpt lat="45.38818723850199" lon="9.149759462505127"><ele>103.99999999999999</ele><time>2026-05-01T13:58:54.999Z</time></trkpt><trkpt lat="45.38809977726828" lon="9.149677022487973"><ele>104.0</ele><time>2026-05-01T13:58:55.999Z</time></trkpt><trkpt lat="45.38800577885033" lon="9.149624358242512"><ele>107.0</ele><time>2026-05-01T13:58:58Z</time></trkpt><trkpt lat="45.38792985006092" lon="9.149579361163678"><ele>107.0</ele><time>2026-05-01T13:59:00Z</time></trkpt><trkpt lat="45.38785967110078" lon="9.14952733590728"><ele>107.0</ele><time>2026-05-01T13:59:02Z</time></trkpt><trkpt lat="45.38780290348344" lon="9.1494785913727"><ele>107.0</ele><time>2026-05-01T13:59:04Z</time></trkpt></trkseg></trk></gpx>